<?xml version="1.0" encoding="UTF-8" standalone="no" ?>
<gpx xmlns="http://www.topografix.com/GPX/1/1" xmlns:xsi="http://www.w3.org/2001/XMLSchema-instance" xsi:schemaLocation="http://www.topografix.com/GPX/1/1 http://www.topografix.com/GPX/1/1/gpx.xsd" version="1.1" creator="VisuGPX - https://www.visugpx.com">
  <metadata>
    <name>curienne par nivolet   coche</name>
    <desc><![CDATA[curienne nivolet   coche
]]></desc>
  </metadata>
  <trk>
    <name><![CDATA[23-OCT-11 17:44:18]]></name>
    <trkseg>
      <trkpt lat="45.56435" lon="5.93946">
        <ele>282.77</ele>
        <time>2011-10-23T11:59:03Z</time>
      </trkpt>
      <trkpt lat="45.56434" lon="5.93942">
        <ele>285.65</ele>
        <time>2011-10-23T11:59:23Z</time>
      </trkpt>
      <trkpt lat="45.56435" lon="5.93937">
        <ele>287.57</ele>
        <time>2011-10-23T11:59:45Z</time>
      </trkpt>
      <trkpt lat="45.56438" lon="5.93954">
        <ele>287.09</ele>
        <time>2011-10-23T12:00:00Z</time>
      </trkpt>
      <trkpt lat="45.56437" lon="5.93953">
        <ele>285.17</ele>
        <time>2011-10-23T12:00:01Z</time>
      </trkpt>
      <trkpt lat="45.56438" lon="5.93954">
        <ele>288.53</ele>
        <time>2011-10-23T12:00:31Z</time>
      </trkpt>
      <trkpt lat="45.56438" lon="5.93954">
        <ele>288.53</ele>
        <time>2011-10-23T12:00:32Z</time>
      </trkpt>
      <trkpt lat="45.56435" lon="5.93949">
        <ele>287.57</ele>
        <time>2011-10-23T12:00:46Z</time>
      </trkpt>
      <trkpt lat="45.56434" lon="5.93949">
        <ele>288.05</ele>
        <time>2011-10-23T12:01:18Z</time>
      </trkpt>
      <trkpt lat="45.56436" lon="5.93951">
        <ele>288.05</ele>
        <time>2011-10-23T12:01:46Z</time>
      </trkpt>
      <trkpt lat="45.56436" lon="5.93951">
        <ele>287.57</ele>
        <time>2011-10-23T12:01:48Z</time>
      </trkpt>
      <trkpt lat="45.56434" lon="5.93956">
        <ele>288.05</ele>
        <time>2011-10-23T12:01:51Z</time>
      </trkpt>
      <trkpt lat="45.56428" lon="5.93956">
        <ele>288.05</ele>
        <time>2011-10-23T12:01:55Z</time>
      </trkpt>
      <trkpt lat="45.56405" lon="5.9395">
        <ele>288.53</ele>
        <time>2011-10-23T12:02:07Z</time>
      </trkpt>
      <trkpt lat="45.56364" lon="5.93984">
        <ele>289.01</ele>
        <time>2011-10-23T12:02:23Z</time>
      </trkpt>
      <trkpt lat="45.56338" lon="5.94011">
        <ele>288.53</ele>
        <time>2011-10-23T12:02:31Z</time>
      </trkpt>
      <trkpt lat="45.56315" lon="5.94043">
        <ele>288.53</ele>
        <time>2011-10-23T12:02:38Z</time>
      </trkpt>
      <trkpt lat="45.56311" lon="5.94046">
        <ele>288.53</ele>
        <time>2011-10-23T12:02:39Z</time>
      </trkpt>
      <trkpt lat="45.56291" lon="5.9406">
        <ele>289.01</ele>
        <time>2011-10-23T12:02:44Z</time>
      </trkpt>
      <trkpt lat="45.56231" lon="5.94074">
        <ele>289.01</ele>
        <time>2011-10-23T12:02:58Z</time>
      </trkpt>
      <trkpt lat="45.56226" lon="5.94074">
        <ele>289.01</ele>
        <time>2011-10-23T12:02:59Z</time>
      </trkpt>
      <trkpt lat="45.56221" lon="5.94073">
        <ele>289.01</ele>
        <time>2011-10-23T12:03:00Z</time>
      </trkpt>
      <trkpt lat="45.56175" lon="5.9406">
        <ele>289.49</ele>
        <time>2011-10-23T12:03:12Z</time>
      </trkpt>
      <trkpt lat="45.56145" lon="5.94095">
        <ele>289.49</ele>
        <time>2011-10-23T12:03:21Z</time>
      </trkpt>
      <trkpt lat="45.56141" lon="5.94102">
        <ele>289.49</ele>
        <time>2011-10-23T12:03:22Z</time>
      </trkpt>
      <trkpt lat="45.56121" lon="5.94153">
        <ele>290.94</ele>
        <time>2011-10-23T12:03:34Z</time>
      </trkpt>
      <trkpt lat="45.56116" lon="5.94215">
        <ele>289.97</ele>
        <time>2011-10-23T12:03:47Z</time>
      </trkpt>
      <trkpt lat="45.56111" lon="5.94229">
        <ele>290.46</ele>
        <time>2011-10-23T12:03:50Z</time>
      </trkpt>
      <trkpt lat="45.56113" lon="5.9426">
        <ele>289.97</ele>
        <time>2011-10-23T12:03:55Z</time>
      </trkpt>
      <trkpt lat="45.56113" lon="5.94266">
        <ele>290.46</ele>
        <time>2011-10-23T12:03:56Z</time>
      </trkpt>
      <trkpt lat="45.56114" lon="5.94272">
        <ele>290.46</ele>
        <time>2011-10-23T12:03:57Z</time>
      </trkpt>
      <trkpt lat="45.56105" lon="5.94349">
        <ele>290.46</ele>
        <time>2011-10-23T12:04:08Z</time>
      </trkpt>
      <trkpt lat="45.56101" lon="5.94399">
        <ele>290.46</ele>
        <time>2011-10-23T12:04:15Z</time>
      </trkpt>
      <trkpt lat="45.56083" lon="5.94478">
        <ele>291.42</ele>
        <time>2011-10-23T12:04:27Z</time>
      </trkpt>
      <trkpt lat="45.56081" lon="5.94484">
        <ele>291.42</ele>
        <time>2011-10-23T12:04:28Z</time>
      </trkpt>
      <trkpt lat="45.5608" lon="5.94491">
        <ele>290.46</ele>
        <time>2011-10-23T12:04:29Z</time>
      </trkpt>
      <trkpt lat="45.56078" lon="5.94497">
        <ele>290.94</ele>
        <time>2011-10-23T12:04:30Z</time>
      </trkpt>
      <trkpt lat="45.56076" lon="5.94503">
        <ele>290.94</ele>
        <time>2011-10-23T12:04:31Z</time>
      </trkpt>
      <trkpt lat="45.56074" lon="5.94509">
        <ele>290.94</ele>
        <time>2011-10-23T12:04:32Z</time>
      </trkpt>
      <trkpt lat="45.56068" lon="5.94522">
        <ele>290.94</ele>
        <time>2011-10-23T12:04:34Z</time>
      </trkpt>
      <trkpt lat="45.56065" lon="5.94527">
        <ele>290.46</ele>
        <time>2011-10-23T12:04:35Z</time>
      </trkpt>
      <trkpt lat="45.56061" lon="5.94532">
        <ele>290.94</ele>
        <time>2011-10-23T12:04:36Z</time>
      </trkpt>
      <trkpt lat="45.56057" lon="5.94536">
        <ele>290.94</ele>
        <time>2011-10-23T12:04:37Z</time>
      </trkpt>
      <trkpt lat="45.56052" lon="5.94538">
        <ele>290.46</ele>
        <time>2011-10-23T12:04:38Z</time>
      </trkpt>
      <trkpt lat="45.56047" lon="5.9454">
        <ele>290.94</ele>
        <time>2011-10-23T12:04:39Z</time>
      </trkpt>
      <trkpt lat="45.56041" lon="5.94541">
        <ele>290.94</ele>
        <time>2011-10-23T12:04:40Z</time>
      </trkpt>
      <trkpt lat="45.55962" lon="5.9456">
        <ele>291.42</ele>
        <time>2011-10-23T12:04:55Z</time>
      </trkpt>
      <trkpt lat="45.55948" lon="5.94571">
        <ele>291.42</ele>
        <time>2011-10-23T12:04:58Z</time>
      </trkpt>
      <trkpt lat="45.55944" lon="5.94576">
        <ele>291.42</ele>
        <time>2011-10-23T12:04:59Z</time>
      </trkpt>
      <trkpt lat="45.55941" lon="5.94582">
        <ele>291.42</ele>
        <time>2011-10-23T12:05:00Z</time>
      </trkpt>
      <trkpt lat="45.55892" lon="5.94679">
        <ele>291.9</ele>
        <time>2011-10-23T12:05:16Z</time>
      </trkpt>
      <trkpt lat="45.55887" lon="5.94691">
        <ele>291.9</ele>
        <time>2011-10-23T12:05:18Z</time>
      </trkpt>
      <trkpt lat="45.55883" lon="5.94702">
        <ele>291.9</ele>
        <time>2011-10-23T12:05:20Z</time>
      </trkpt>
      <trkpt lat="45.55866" lon="5.94782">
        <ele>292.86</ele>
        <time>2011-10-23T12:05:32Z</time>
      </trkpt>
      <trkpt lat="45.55864" lon="5.94787">
        <ele>293.34</ele>
        <time>2011-10-23T12:05:33Z</time>
      </trkpt>
      <trkpt lat="45.55862" lon="5.94791">
        <ele>293.34</ele>
        <time>2011-10-23T12:05:34Z</time>
      </trkpt>
      <trkpt lat="45.55858" lon="5.94794">
        <ele>293.82</ele>
        <time>2011-10-23T12:05:35Z</time>
      </trkpt>
      <trkpt lat="45.55854" lon="5.94797">
        <ele>293.34</ele>
        <time>2011-10-23T12:05:36Z</time>
      </trkpt>
      <trkpt lat="45.5585" lon="5.94799">
        <ele>293.82</ele>
        <time>2011-10-23T12:05:37Z</time>
      </trkpt>
      <trkpt lat="45.55845" lon="5.94801">
        <ele>293.34</ele>
        <time>2011-10-23T12:05:38Z</time>
      </trkpt>
      <trkpt lat="45.55774" lon="5.94839">
        <ele>293.82</ele>
        <time>2011-10-23T12:05:54Z</time>
      </trkpt>
      <trkpt lat="45.55758" lon="5.94853">
        <ele>293.82</ele>
        <time>2011-10-23T12:05:59Z</time>
      </trkpt>
      <trkpt lat="45.55758" lon="5.94855">
        <ele>294.3</ele>
        <time>2011-10-23T12:06:00Z</time>
      </trkpt>
      <trkpt lat="45.5576" lon="5.94862">
        <ele>293.82</ele>
        <time>2011-10-23T12:06:06Z</time>
      </trkpt>
      <trkpt lat="45.55761" lon="5.94866">
        <ele>293.82</ele>
        <time>2011-10-23T12:06:07Z</time>
      </trkpt>
      <trkpt lat="45.55762" lon="5.94871">
        <ele>292.86</ele>
        <time>2011-10-23T12:06:08Z</time>
      </trkpt>
      <trkpt lat="45.55761" lon="5.94877">
        <ele>293.34</ele>
        <time>2011-10-23T12:06:09Z</time>
      </trkpt>
      <trkpt lat="45.55758" lon="5.94881">
        <ele>293.82</ele>
        <time>2011-10-23T12:06:10Z</time>
      </trkpt>
      <trkpt lat="45.55755" lon="5.94886">
        <ele>293.34</ele>
        <time>2011-10-23T12:06:11Z</time>
      </trkpt>
      <trkpt lat="45.55751" lon="5.9489">
        <ele>293.34</ele>
        <time>2011-10-23T12:06:12Z</time>
      </trkpt>
      <trkpt lat="45.55747" lon="5.94894">
        <ele>293.34</ele>
        <time>2011-10-23T12:06:13Z</time>
      </trkpt>
      <trkpt lat="45.55743" lon="5.94897">
        <ele>293.34</ele>
        <time>2011-10-23T12:06:14Z</time>
      </trkpt>
      <trkpt lat="45.55739" lon="5.949">
        <ele>293.34</ele>
        <time>2011-10-23T12:06:15Z</time>
      </trkpt>
      <trkpt lat="45.55731" lon="5.94906">
        <ele>293.34</ele>
        <time>2011-10-23T12:06:17Z</time>
      </trkpt>
      <trkpt lat="45.55727" lon="5.9491">
        <ele>293.82</ele>
        <time>2011-10-23T12:06:18Z</time>
      </trkpt>
      <trkpt lat="45.55722" lon="5.94914">
        <ele>293.82</ele>
        <time>2011-10-23T12:06:19Z</time>
      </trkpt>
      <trkpt lat="45.55719" lon="5.94919">
        <ele>293.34</ele>
        <time>2011-10-23T12:06:20Z</time>
      </trkpt>
      <trkpt lat="45.55715" lon="5.94924">
        <ele>293.82</ele>
        <time>2011-10-23T12:06:21Z</time>
      </trkpt>
      <trkpt lat="45.55667" lon="5.94994">
        <ele>294.3</ele>
        <time>2011-10-23T12:06:35Z</time>
      </trkpt>
      <trkpt lat="45.55604" lon="5.95071">
        <ele>293.82</ele>
        <time>2011-10-23T12:06:50Z</time>
      </trkpt>
      <trkpt lat="45.55538" lon="5.95156">
        <ele>294.3</ele>
        <time>2011-10-23T12:07:05Z</time>
      </trkpt>
      <trkpt lat="45.55466" lon="5.95248">
        <ele>294.3</ele>
        <time>2011-10-23T12:07:21Z</time>
      </trkpt>
      <trkpt lat="45.55388" lon="5.95342">
        <ele>295.26</ele>
        <time>2011-10-23T12:07:38Z</time>
      </trkpt>
      <trkpt lat="45.55384" lon="5.95346">
        <ele>296.22</ele>
        <time>2011-10-23T12:07:39Z</time>
      </trkpt>
      <trkpt lat="45.55351" lon="5.95383">
        <ele>297.18</ele>
        <time>2011-10-23T12:07:47Z</time>
      </trkpt>
      <trkpt lat="45.55349" lon="5.95388">
        <ele>297.18</ele>
        <time>2011-10-23T12:07:48Z</time>
      </trkpt>
      <trkpt lat="45.55347" lon="5.95394">
        <ele>297.18</ele>
        <time>2011-10-23T12:07:49Z</time>
      </trkpt>
      <trkpt lat="45.55346" lon="5.95401">
        <ele>297.67</ele>
        <time>2011-10-23T12:07:50Z</time>
      </trkpt>
      <trkpt lat="45.55347" lon="5.95408">
        <ele>297.18</ele>
        <time>2011-10-23T12:07:51Z</time>
      </trkpt>
      <trkpt lat="45.55349" lon="5.95414">
        <ele>297.18</ele>
        <time>2011-10-23T12:07:52Z</time>
      </trkpt>
      <trkpt lat="45.55353" lon="5.95419">
        <ele>296.7</ele>
        <time>2011-10-23T12:07:53Z</time>
      </trkpt>
      <trkpt lat="45.55357" lon="5.95423">
        <ele>296.7</ele>
        <time>2011-10-23T12:07:54Z</time>
      </trkpt>
      <trkpt lat="45.55362" lon="5.95427">
        <ele>297.18</ele>
        <time>2011-10-23T12:07:55Z</time>
      </trkpt>
      <trkpt lat="45.5537" lon="5.95432">
        <ele>296.7</ele>
        <time>2011-10-23T12:07:57Z</time>
      </trkpt>
      <trkpt lat="45.55375" lon="5.95431">
        <ele>296.22</ele>
        <time>2011-10-23T12:07:58Z</time>
      </trkpt>
      <trkpt lat="45.55379" lon="5.95427">
        <ele>296.22</ele>
        <time>2011-10-23T12:07:59Z</time>
      </trkpt>
      <trkpt lat="45.55383" lon="5.95421">
        <ele>295.74</ele>
        <time>2011-10-23T12:08:00Z</time>
      </trkpt>
      <trkpt lat="45.55387" lon="5.95415">
        <ele>295.74</ele>
        <time>2011-10-23T12:08:01Z</time>
      </trkpt>
      <trkpt lat="45.55392" lon="5.95412">
        <ele>295.26</ele>
        <time>2011-10-23T12:08:02Z</time>
      </trkpt>
      <trkpt lat="45.55396" lon="5.95412">
        <ele>295.74</ele>
        <time>2011-10-23T12:08:03Z</time>
      </trkpt>
      <trkpt lat="45.55401" lon="5.95414">
        <ele>294.78</ele>
        <time>2011-10-23T12:08:04Z</time>
      </trkpt>
      <trkpt lat="45.55404" lon="5.95417">
        <ele>295.26</ele>
        <time>2011-10-23T12:08:05Z</time>
      </trkpt>
      <trkpt lat="45.55408" lon="5.95419">
        <ele>295.26</ele>
        <time>2011-10-23T12:08:06Z</time>
      </trkpt>
      <trkpt lat="45.55423" lon="5.95426">
        <ele>295.26</ele>
        <time>2011-10-23T12:08:10Z</time>
      </trkpt>
      <trkpt lat="45.55428" lon="5.95426">
        <ele>295.26</ele>
        <time>2011-10-23T12:08:11Z</time>
      </trkpt>
      <trkpt lat="45.55433" lon="5.95423">
        <ele>295.26</ele>
        <time>2011-10-23T12:08:12Z</time>
      </trkpt>
      <trkpt lat="45.55438" lon="5.95421">
        <ele>295.26</ele>
        <time>2011-10-23T12:08:13Z</time>
      </trkpt>
      <trkpt lat="45.55443" lon="5.95418">
        <ele>295.26</ele>
        <time>2011-10-23T12:08:14Z</time>
      </trkpt>
      <trkpt lat="45.55447" lon="5.95414">
        <ele>295.26</ele>
        <time>2011-10-23T12:08:15Z</time>
      </trkpt>
      <trkpt lat="45.55451" lon="5.9541">
        <ele>294.78</ele>
        <time>2011-10-23T12:08:16Z</time>
      </trkpt>
      <trkpt lat="45.55455" lon="5.95406">
        <ele>294.78</ele>
        <time>2011-10-23T12:08:17Z</time>
      </trkpt>
      <trkpt lat="45.55462" lon="5.95395">
        <ele>294.3</ele>
        <time>2011-10-23T12:08:19Z</time>
      </trkpt>
      <trkpt lat="45.55465" lon="5.9539">
        <ele>294.3</ele>
        <time>2011-10-23T12:08:20Z</time>
      </trkpt>
      <trkpt lat="45.55469" lon="5.95386">
        <ele>294.3</ele>
        <time>2011-10-23T12:08:21Z</time>
      </trkpt>
      <trkpt lat="45.55481" lon="5.95379">
        <ele>293.82</ele>
        <time>2011-10-23T12:08:24Z</time>
      </trkpt>
      <trkpt lat="45.55485" lon="5.95381">
        <ele>293.82</ele>
        <time>2011-10-23T12:08:25Z</time>
      </trkpt>
      <trkpt lat="45.55488" lon="5.95384">
        <ele>293.34</ele>
        <time>2011-10-23T12:08:26Z</time>
      </trkpt>
      <trkpt lat="45.5552" lon="5.95448">
        <ele>295.74</ele>
        <time>2011-10-23T12:08:38Z</time>
      </trkpt>
      <trkpt lat="45.55546" lon="5.95502">
        <ele>297.18</ele>
        <time>2011-10-23T12:08:50Z</time>
      </trkpt>
      <trkpt lat="45.55553" lon="5.95516">
        <ele>297.67</ele>
        <time>2011-10-23T12:08:53Z</time>
      </trkpt>
      <trkpt lat="45.55603" lon="5.95591">
        <ele>298.63</ele>
        <time>2011-10-23T12:09:09Z</time>
      </trkpt>
      <trkpt lat="45.55631" lon="5.95622">
        <ele>299.11</ele>
        <time>2011-10-23T12:09:16Z</time>
      </trkpt>
      <trkpt lat="45.55692" lon="5.95691">
        <ele>299.59</ele>
        <time>2011-10-23T12:09:31Z</time>
      </trkpt>
      <trkpt lat="45.55741" lon="5.95745">
        <ele>302.47</ele>
        <time>2011-10-23T12:09:45Z</time>
      </trkpt>
      <trkpt lat="45.55793" lon="5.95801">
        <ele>300.55</ele>
        <time>2011-10-23T12:09:58Z</time>
      </trkpt>
      <trkpt lat="45.55799" lon="5.9581">
        <ele>300.55</ele>
        <time>2011-10-23T12:10:07Z</time>
      </trkpt>
      <trkpt lat="45.55799" lon="5.9581">
        <ele>300.55</ele>
        <time>2011-10-23T12:10:09Z</time>
      </trkpt>
      <trkpt lat="45.55801" lon="5.95812">
        <ele>300.55</ele>
        <time>2011-10-23T12:10:10Z</time>
      </trkpt>
      <trkpt lat="45.55803" lon="5.95815">
        <ele>300.55</ele>
        <time>2011-10-23T12:10:11Z</time>
      </trkpt>
      <trkpt lat="45.55805" lon="5.9582">
        <ele>300.55</ele>
        <time>2011-10-23T12:10:12Z</time>
      </trkpt>
      <trkpt lat="45.55808" lon="5.95824">
        <ele>300.55</ele>
        <time>2011-10-23T12:10:13Z</time>
      </trkpt>
      <trkpt lat="45.55811" lon="5.95829">
        <ele>300.55</ele>
        <time>2011-10-23T12:10:14Z</time>
      </trkpt>
      <trkpt lat="45.55814" lon="5.95833">
        <ele>300.07</ele>
        <time>2011-10-23T12:10:15Z</time>
      </trkpt>
      <trkpt lat="45.55819" lon="5.95837">
        <ele>300.07</ele>
        <time>2011-10-23T12:10:16Z</time>
      </trkpt>
      <trkpt lat="45.55899" lon="5.95921">
        <ele>299.59</ele>
        <time>2011-10-23T12:10:33Z</time>
      </trkpt>
      <trkpt lat="45.55989" lon="5.9599">
        <ele>300.55</ele>
        <time>2011-10-23T12:10:51Z</time>
      </trkpt>
      <trkpt lat="45.56004" lon="5.96">
        <ele>301.03</ele>
        <time>2011-10-23T12:10:54Z</time>
      </trkpt>
      <trkpt lat="45.56043" lon="5.96026">
        <ele>300.55</ele>
        <time>2011-10-23T12:11:02Z</time>
      </trkpt>
      <trkpt lat="45.56047" lon="5.96031">
        <ele>300.55</ele>
        <time>2011-10-23T12:11:03Z</time>
      </trkpt>
      <trkpt lat="45.56057" lon="5.96042">
        <ele>301.03</ele>
        <time>2011-10-23T12:11:05Z</time>
      </trkpt>
      <trkpt lat="45.56062" lon="5.96046">
        <ele>300.55</ele>
        <time>2011-10-23T12:11:06Z</time>
      </trkpt>
      <trkpt lat="45.56067" lon="5.9605">
        <ele>301.03</ele>
        <time>2011-10-23T12:11:07Z</time>
      </trkpt>
      <trkpt lat="45.56072" lon="5.96054">
        <ele>301.03</ele>
        <time>2011-10-23T12:11:08Z</time>
      </trkpt>
      <trkpt lat="45.56078" lon="5.96056">
        <ele>300.55</ele>
        <time>2011-10-23T12:11:09Z</time>
      </trkpt>
      <trkpt lat="45.56166" lon="5.96119">
        <ele>301.99</ele>
        <time>2011-10-23T12:11:26Z</time>
      </trkpt>
      <trkpt lat="45.56229" lon="5.96196">
        <ele>302.47</ele>
        <time>2011-10-23T12:11:40Z</time>
      </trkpt>
      <trkpt lat="45.56278" lon="5.96305">
        <ele>302.95</ele>
        <time>2011-10-23T12:11:55Z</time>
      </trkpt>
      <trkpt lat="45.56328" lon="5.96424">
        <ele>304.88</ele>
        <time>2011-10-23T12:12:11Z</time>
      </trkpt>
      <trkpt lat="45.56335" lon="5.96438">
        <ele>304.88</ele>
        <time>2011-10-23T12:12:13Z</time>
      </trkpt>
      <trkpt lat="45.56337" lon="5.96446">
        <ele>304.39</ele>
        <time>2011-10-23T12:12:14Z</time>
      </trkpt>
      <trkpt lat="45.5634" lon="5.96461">
        <ele>304.88</ele>
        <time>2011-10-23T12:12:16Z</time>
      </trkpt>
      <trkpt lat="45.56344" lon="5.96467">
        <ele>304.88</ele>
        <time>2011-10-23T12:12:17Z</time>
      </trkpt>
      <trkpt lat="45.56348" lon="5.96471">
        <ele>304.88</ele>
        <time>2011-10-23T12:12:18Z</time>
      </trkpt>
      <trkpt lat="45.56353" lon="5.96473">
        <ele>305.36</ele>
        <time>2011-10-23T12:12:19Z</time>
      </trkpt>
      <trkpt lat="45.56358" lon="5.96474">
        <ele>305.36</ele>
        <time>2011-10-23T12:12:20Z</time>
      </trkpt>
      <trkpt lat="45.56364" lon="5.96475">
        <ele>304.88</ele>
        <time>2011-10-23T12:12:21Z</time>
      </trkpt>
      <trkpt lat="45.56369" lon="5.96477">
        <ele>304.88</ele>
        <time>2011-10-23T12:12:22Z</time>
      </trkpt>
      <trkpt lat="45.56375" lon="5.9648">
        <ele>304.88</ele>
        <time>2011-10-23T12:12:23Z</time>
      </trkpt>
      <trkpt lat="45.5638" lon="5.96484">
        <ele>304.88</ele>
        <time>2011-10-23T12:12:24Z</time>
      </trkpt>
      <trkpt lat="45.56422" lon="5.96533">
        <ele>304.88</ele>
        <time>2011-10-23T12:12:34Z</time>
      </trkpt>
      <trkpt lat="45.56474" lon="5.96634">
        <ele>305.36</ele>
        <time>2011-10-23T12:12:50Z</time>
      </trkpt>
      <trkpt lat="45.56519" lon="5.96734">
        <ele>305.84</ele>
        <time>2011-10-23T12:13:06Z</time>
      </trkpt>
      <trkpt lat="45.56574" lon="5.96836">
        <ele>308.24</ele>
        <time>2011-10-23T12:13:22Z</time>
      </trkpt>
      <trkpt lat="45.56598" lon="5.96878">
        <ele>308.72</ele>
        <time>2011-10-23T12:13:29Z</time>
      </trkpt>
      <trkpt lat="45.56603" lon="5.96881">
        <ele>309.2</ele>
        <time>2011-10-23T12:13:30Z</time>
      </trkpt>
      <trkpt lat="45.56608" lon="5.96881">
        <ele>308.72</ele>
        <time>2011-10-23T12:13:31Z</time>
      </trkpt>
      <trkpt lat="45.56613" lon="5.96879">
        <ele>309.2</ele>
        <time>2011-10-23T12:13:32Z</time>
      </trkpt>
      <trkpt lat="45.56618" lon="5.96875">
        <ele>308.72</ele>
        <time>2011-10-23T12:13:33Z</time>
      </trkpt>
      <trkpt lat="45.56622" lon="5.9687">
        <ele>308.72</ele>
        <time>2011-10-23T12:13:34Z</time>
      </trkpt>
      <trkpt lat="45.56651" lon="5.96841">
        <ele>308.72</ele>
        <time>2011-10-23T12:13:40Z</time>
      </trkpt>
      <trkpt lat="45.56655" lon="5.96837">
        <ele>308.72</ele>
        <time>2011-10-23T12:13:41Z</time>
      </trkpt>
      <trkpt lat="45.5666" lon="5.96833">
        <ele>308.72</ele>
        <time>2011-10-23T12:13:42Z</time>
      </trkpt>
      <trkpt lat="45.56664" lon="5.96828">
        <ele>308.72</ele>
        <time>2011-10-23T12:13:43Z</time>
      </trkpt>
      <trkpt lat="45.56666" lon="5.96821">
        <ele>308.24</ele>
        <time>2011-10-23T12:13:44Z</time>
      </trkpt>
      <trkpt lat="45.56666" lon="5.96814">
        <ele>308.24</ele>
        <time>2011-10-23T12:13:45Z</time>
      </trkpt>
      <trkpt lat="45.56665" lon="5.96807">
        <ele>308.24</ele>
        <time>2011-10-23T12:13:46Z</time>
      </trkpt>
      <trkpt lat="45.56663" lon="5.968">
        <ele>308.24</ele>
        <time>2011-10-23T12:13:47Z</time>
      </trkpt>
      <trkpt lat="45.5666" lon="5.96793">
        <ele>308.72</ele>
        <time>2011-10-23T12:13:48Z</time>
      </trkpt>
      <trkpt lat="45.5665" lon="5.96774">
        <ele>308.24</ele>
        <time>2011-10-23T12:13:51Z</time>
      </trkpt>
      <trkpt lat="45.56648" lon="5.96767">
        <ele>308.24</ele>
        <time>2011-10-23T12:13:52Z</time>
      </trkpt>
      <trkpt lat="45.56646" lon="5.9676">
        <ele>308.24</ele>
        <time>2011-10-23T12:13:53Z</time>
      </trkpt>
      <trkpt lat="45.56646" lon="5.96752">
        <ele>308.24</ele>
        <time>2011-10-23T12:13:54Z</time>
      </trkpt>
      <trkpt lat="45.56647" lon="5.96745">
        <ele>307.76</ele>
        <time>2011-10-23T12:13:55Z</time>
      </trkpt>
      <trkpt lat="45.56649" lon="5.96738">
        <ele>308.24</ele>
        <time>2011-10-23T12:13:56Z</time>
      </trkpt>
      <trkpt lat="45.56653" lon="5.96733">
        <ele>308.24</ele>
        <time>2011-10-23T12:13:57Z</time>
      </trkpt>
      <trkpt lat="45.56657" lon="5.96728">
        <ele>307.76</ele>
        <time>2011-10-23T12:13:58Z</time>
      </trkpt>
      <trkpt lat="45.56738" lon="5.96642">
        <ele>307.76</ele>
        <time>2011-10-23T12:14:16Z</time>
      </trkpt>
      <trkpt lat="45.56812" lon="5.9656">
        <ele>308.24</ele>
        <time>2011-10-23T12:14:32Z</time>
      </trkpt>
      <trkpt lat="45.56855" lon="5.96513">
        <ele>308.72</ele>
        <time>2011-10-23T12:14:42Z</time>
      </trkpt>
      <trkpt lat="45.5686" lon="5.9651">
        <ele>308.72</ele>
        <time>2011-10-23T12:14:43Z</time>
      </trkpt>
      <trkpt lat="45.56865" lon="5.96507">
        <ele>309.2</ele>
        <time>2011-10-23T12:14:44Z</time>
      </trkpt>
      <trkpt lat="45.5687" lon="5.96504">
        <ele>309.2</ele>
        <time>2011-10-23T12:14:45Z</time>
      </trkpt>
      <trkpt lat="45.56874" lon="5.965">
        <ele>309.2</ele>
        <time>2011-10-23T12:14:46Z</time>
      </trkpt>
      <trkpt lat="45.56877" lon="5.96494">
        <ele>308.72</ele>
        <time>2011-10-23T12:14:47Z</time>
      </trkpt>
      <trkpt lat="45.56881" lon="5.96487">
        <ele>309.2</ele>
        <time>2011-10-23T12:14:48Z</time>
      </trkpt>
      <trkpt lat="45.56884" lon="5.96481">
        <ele>308.72</ele>
        <time>2011-10-23T12:14:49Z</time>
      </trkpt>
      <trkpt lat="45.56888" lon="5.96475">
        <ele>308.72</ele>
        <time>2011-10-23T12:14:50Z</time>
      </trkpt>
      <trkpt lat="45.56892" lon="5.9647">
        <ele>308.24</ele>
        <time>2011-10-23T12:14:51Z</time>
      </trkpt>
      <trkpt lat="45.56971" lon="5.96404">
        <ele>309.68</ele>
        <time>2011-10-23T12:15:07Z</time>
      </trkpt>
      <trkpt lat="45.57057" lon="5.96352">
        <ele>310.64</ele>
        <time>2011-10-23T12:15:24Z</time>
      </trkpt>
      <trkpt lat="45.57138" lon="5.96305">
        <ele>311.12</ele>
        <time>2011-10-23T12:15:41Z</time>
      </trkpt>
      <trkpt lat="45.57151" lon="5.96276">
        <ele>311.6</ele>
        <time>2011-10-23T12:15:48Z</time>
      </trkpt>
      <trkpt lat="45.57152" lon="5.96265">
        <ele>311.12</ele>
        <time>2011-10-23T12:15:50Z</time>
      </trkpt>
      <trkpt lat="45.57152" lon="5.96259">
        <ele>311.12</ele>
        <time>2011-10-23T12:15:51Z</time>
      </trkpt>
      <trkpt lat="45.57153" lon="5.96155">
        <ele>310.16</ele>
        <time>2011-10-23T12:16:05Z</time>
      </trkpt>
      <trkpt lat="45.57149" lon="5.96122">
        <ele>310.16</ele>
        <time>2011-10-23T12:16:09Z</time>
      </trkpt>
      <trkpt lat="45.57144" lon="5.9608">
        <ele>310.16</ele>
        <time>2011-10-23T12:16:14Z</time>
      </trkpt>
      <trkpt lat="45.57146" lon="5.96072">
        <ele>310.64</ele>
        <time>2011-10-23T12:16:15Z</time>
      </trkpt>
      <trkpt lat="45.5715" lon="5.96065">
        <ele>310.64</ele>
        <time>2011-10-23T12:16:16Z</time>
      </trkpt>
      <trkpt lat="45.57154" lon="5.96061">
        <ele>310.64</ele>
        <time>2011-10-23T12:16:17Z</time>
      </trkpt>
      <trkpt lat="45.57159" lon="5.96057">
        <ele>310.64</ele>
        <time>2011-10-23T12:16:18Z</time>
      </trkpt>
      <trkpt lat="45.57164" lon="5.96055">
        <ele>310.64</ele>
        <time>2011-10-23T12:16:19Z</time>
      </trkpt>
      <trkpt lat="45.57169" lon="5.96053">
        <ele>310.64</ele>
        <time>2011-10-23T12:16:20Z</time>
      </trkpt>
      <trkpt lat="45.57227" lon="5.9604">
        <ele>312.09</ele>
        <time>2011-10-23T12:16:31Z</time>
      </trkpt>
      <trkpt lat="45.57232" lon="5.96041">
        <ele>311.6</ele>
        <time>2011-10-23T12:16:32Z</time>
      </trkpt>
      <trkpt lat="45.57238" lon="5.96043">
        <ele>311.6</ele>
        <time>2011-10-23T12:16:33Z</time>
      </trkpt>
      <trkpt lat="45.57242" lon="5.96047">
        <ele>311.6</ele>
        <time>2011-10-23T12:16:34Z</time>
      </trkpt>
      <trkpt lat="45.57246" lon="5.96053">
        <ele>311.6</ele>
        <time>2011-10-23T12:16:35Z</time>
      </trkpt>
      <trkpt lat="45.57249" lon="5.96061">
        <ele>311.6</ele>
        <time>2011-10-23T12:16:36Z</time>
      </trkpt>
      <trkpt lat="45.57251" lon="5.96068">
        <ele>311.6</ele>
        <time>2011-10-23T12:16:37Z</time>
      </trkpt>
      <trkpt lat="45.57253" lon="5.96076">
        <ele>311.6</ele>
        <time>2011-10-23T12:16:38Z</time>
      </trkpt>
      <trkpt lat="45.57286" lon="5.96218">
        <ele>313.53</ele>
        <time>2011-10-23T12:16:57Z</time>
      </trkpt>
      <trkpt lat="45.57313" lon="5.96333">
        <ele>314.97</ele>
        <time>2011-10-23T12:17:13Z</time>
      </trkpt>
      <trkpt lat="45.57351" lon="5.96482">
        <ele>315.45</ele>
        <time>2011-10-23T12:17:33Z</time>
      </trkpt>
      <trkpt lat="45.57368" lon="5.96554">
        <ele>316.41</ele>
        <time>2011-10-23T12:17:43Z</time>
      </trkpt>
      <trkpt lat="45.57377" lon="5.9659">
        <ele>316.41</ele>
        <time>2011-10-23T12:17:48Z</time>
      </trkpt>
      <trkpt lat="45.57379" lon="5.96597">
        <ele>316.89</ele>
        <time>2011-10-23T12:17:49Z</time>
      </trkpt>
      <trkpt lat="45.57412" lon="5.96725">
        <ele>317.37</ele>
        <time>2011-10-23T12:18:07Z</time>
      </trkpt>
      <trkpt lat="45.5742" lon="5.96753">
        <ele>316.89</ele>
        <time>2011-10-23T12:18:11Z</time>
      </trkpt>
      <trkpt lat="45.57445" lon="5.96855">
        <ele>318.33</ele>
        <time>2011-10-23T12:18:26Z</time>
      </trkpt>
      <trkpt lat="45.5747" lon="5.9697">
        <ele>319.3</ele>
        <time>2011-10-23T12:18:42Z</time>
      </trkpt>
      <trkpt lat="45.57476" lon="5.96998">
        <ele>319.78</ele>
        <time>2011-10-23T12:18:46Z</time>
      </trkpt>
      <trkpt lat="45.57476" lon="5.97005">
        <ele>319.3</ele>
        <time>2011-10-23T12:18:47Z</time>
      </trkpt>
      <trkpt lat="45.57476" lon="5.97012">
        <ele>319.78</ele>
        <time>2011-10-23T12:18:48Z</time>
      </trkpt>
      <trkpt lat="45.57475" lon="5.9702">
        <ele>319.78</ele>
        <time>2011-10-23T12:18:49Z</time>
      </trkpt>
      <trkpt lat="45.57474" lon="5.97027">
        <ele>319.78</ele>
        <time>2011-10-23T12:18:50Z</time>
      </trkpt>
      <trkpt lat="45.57464" lon="5.97062">
        <ele>319.78</ele>
        <time>2011-10-23T12:18:55Z</time>
      </trkpt>
      <trkpt lat="45.57463" lon="5.97069">
        <ele>320.74</ele>
        <time>2011-10-23T12:18:56Z</time>
      </trkpt>
      <trkpt lat="45.57463" lon="5.97076">
        <ele>320.74</ele>
        <time>2011-10-23T12:18:57Z</time>
      </trkpt>
      <trkpt lat="45.57464" lon="5.97084">
        <ele>320.74</ele>
        <time>2011-10-23T12:18:58Z</time>
      </trkpt>
      <trkpt lat="45.57466" lon="5.97091">
        <ele>320.74</ele>
        <time>2011-10-23T12:18:59Z</time>
      </trkpt>
      <trkpt lat="45.57468" lon="5.97097">
        <ele>320.26</ele>
        <time>2011-10-23T12:19:00Z</time>
      </trkpt>
      <trkpt lat="45.57472" lon="5.97104">
        <ele>320.74</ele>
        <time>2011-10-23T12:19:01Z</time>
      </trkpt>
      <trkpt lat="45.57475" lon="5.97111">
        <ele>320.74</ele>
        <time>2011-10-23T12:19:02Z</time>
      </trkpt>
      <trkpt lat="45.5749" lon="5.97143">
        <ele>320.74</ele>
        <time>2011-10-23T12:19:07Z</time>
      </trkpt>
      <trkpt lat="45.57538" lon="5.9723">
        <ele>322.18</ele>
        <time>2011-10-23T12:19:22Z</time>
      </trkpt>
      <trkpt lat="45.57545" lon="5.97241">
        <ele>322.18</ele>
        <time>2011-10-23T12:19:24Z</time>
      </trkpt>
      <trkpt lat="45.57548" lon="5.97246">
        <ele>322.18</ele>
        <time>2011-10-23T12:19:25Z</time>
      </trkpt>
      <trkpt lat="45.57552" lon="5.97251">
        <ele>322.66</ele>
        <time>2011-10-23T12:19:26Z</time>
      </trkpt>
      <trkpt lat="45.5756" lon="5.97257">
        <ele>322.66</ele>
        <time>2011-10-23T12:19:28Z</time>
      </trkpt>
      <trkpt lat="45.57564" lon="5.97258">
        <ele>322.66</ele>
        <time>2011-10-23T12:19:29Z</time>
      </trkpt>
      <trkpt lat="45.57578" lon="5.97263">
        <ele>322.66</ele>
        <time>2011-10-23T12:19:32Z</time>
      </trkpt>
      <trkpt lat="45.57583" lon="5.97264">
        <ele>322.66</ele>
        <time>2011-10-23T12:19:33Z</time>
      </trkpt>
      <trkpt lat="45.57605" lon="5.97269">
        <ele>323.14</ele>
        <time>2011-10-23T12:19:38Z</time>
      </trkpt>
      <trkpt lat="45.57663" lon="5.97325">
        <ele>324.58</ele>
        <time>2011-10-23T12:19:52Z</time>
      </trkpt>
      <trkpt lat="45.57713" lon="5.97384">
        <ele>325.54</ele>
        <time>2011-10-23T12:20:05Z</time>
      </trkpt>
      <trkpt lat="45.57719" lon="5.97393">
        <ele>326.02</ele>
        <time>2011-10-23T12:20:07Z</time>
      </trkpt>
      <trkpt lat="45.57725" lon="5.97411">
        <ele>326.02</ele>
        <time>2011-10-23T12:20:11Z</time>
      </trkpt>
      <trkpt lat="45.57724" lon="5.97415">
        <ele>326.02</ele>
        <time>2011-10-23T12:20:12Z</time>
      </trkpt>
      <trkpt lat="45.57721" lon="5.97418">
        <ele>326.5</ele>
        <time>2011-10-23T12:20:13Z</time>
      </trkpt>
      <trkpt lat="45.57685" lon="5.97445">
        <ele>326.99</ele>
        <time>2011-10-23T12:20:27Z</time>
      </trkpt>
      <trkpt lat="45.57685" lon="5.97445">
        <ele>327.47</ele>
        <time>2011-10-23T12:20:54Z</time>
      </trkpt>
      <trkpt lat="45.57683" lon="5.97446">
        <ele>327.47</ele>
        <time>2011-10-23T12:21:27Z</time>
      </trkpt>
      <trkpt lat="45.57681" lon="5.97448">
        <ele>327.95</ele>
        <time>2011-10-23T12:21:28Z</time>
      </trkpt>
      <trkpt lat="45.57681" lon="5.97451">
        <ele>327.47</ele>
        <time>2011-10-23T12:21:29Z</time>
      </trkpt>
      <trkpt lat="45.5768" lon="5.97453">
        <ele>327.95</ele>
        <time>2011-10-23T12:21:30Z</time>
      </trkpt>
      <trkpt lat="45.57679" lon="5.97456">
        <ele>327.95</ele>
        <time>2011-10-23T12:21:31Z</time>
      </trkpt>
      <trkpt lat="45.5768" lon="5.9746">
        <ele>327.95</ele>
        <time>2011-10-23T12:21:32Z</time>
      </trkpt>
      <trkpt lat="45.57681" lon="5.97463">
        <ele>328.43</ele>
        <time>2011-10-23T12:21:33Z</time>
      </trkpt>
      <trkpt lat="45.57681" lon="5.97466">
        <ele>328.91</ele>
        <time>2011-10-23T12:21:34Z</time>
      </trkpt>
      <trkpt lat="45.57682" lon="5.97468">
        <ele>328.91</ele>
        <time>2011-10-23T12:21:35Z</time>
      </trkpt>
      <trkpt lat="45.57683" lon="5.97471">
        <ele>328.91</ele>
        <time>2011-10-23T12:21:36Z</time>
      </trkpt>
      <trkpt lat="45.57684" lon="5.97473">
        <ele>329.39</ele>
        <time>2011-10-23T12:21:37Z</time>
      </trkpt>
      <trkpt lat="45.57685" lon="5.97488">
        <ele>330.83</ele>
        <time>2011-10-23T12:21:42Z</time>
      </trkpt>
      <trkpt lat="45.57684" lon="5.97491">
        <ele>330.83</ele>
        <time>2011-10-23T12:21:43Z</time>
      </trkpt>
      <trkpt lat="45.57683" lon="5.97493">
        <ele>331.31</ele>
        <time>2011-10-23T12:21:44Z</time>
      </trkpt>
      <trkpt lat="45.57682" lon="5.97495">
        <ele>331.79</ele>
        <time>2011-10-23T12:21:45Z</time>
      </trkpt>
      <trkpt lat="45.57681" lon="5.97497">
        <ele>331.79</ele>
        <time>2011-10-23T12:21:46Z</time>
      </trkpt>
      <trkpt lat="45.57679" lon="5.97499">
        <ele>331.79</ele>
        <time>2011-10-23T12:21:47Z</time>
      </trkpt>
      <trkpt lat="45.57678" lon="5.97502">
        <ele>332.27</ele>
        <time>2011-10-23T12:21:48Z</time>
      </trkpt>
      <trkpt lat="45.57676" lon="5.97504">
        <ele>332.27</ele>
        <time>2011-10-23T12:21:49Z</time>
      </trkpt>
      <trkpt lat="45.57656" lon="5.97541">
        <ele>334.68</ele>
        <time>2011-10-23T12:22:02Z</time>
      </trkpt>
      <trkpt lat="45.57636" lon="5.97578">
        <ele>337.56</ele>
        <time>2011-10-23T12:22:13Z</time>
      </trkpt>
      <trkpt lat="45.57614" lon="5.9763">
        <ele>340.44</ele>
        <time>2011-10-23T12:22:29Z</time>
      </trkpt>
      <trkpt lat="45.57597" lon="5.97688">
        <ele>343.33</ele>
        <time>2011-10-23T12:22:46Z</time>
      </trkpt>
      <trkpt lat="45.57591" lon="5.97747">
        <ele>346.21</ele>
        <time>2011-10-23T12:23:02Z</time>
      </trkpt>
      <trkpt lat="45.57597" lon="5.97808">
        <ele>349.1</ele>
        <time>2011-10-23T12:23:18Z</time>
      </trkpt>
      <trkpt lat="45.57609" lon="5.97866">
        <ele>351.98</ele>
        <time>2011-10-23T12:23:33Z</time>
      </trkpt>
      <trkpt lat="45.57603" lon="5.97921">
        <ele>354.86</ele>
        <time>2011-10-23T12:23:47Z</time>
      </trkpt>
      <trkpt lat="45.57582" lon="5.97962">
        <ele>356.79</ele>
        <time>2011-10-23T12:23:59Z</time>
      </trkpt>
      <trkpt lat="45.57546" lon="5.98002">
        <ele>359.19</ele>
        <time>2011-10-23T12:24:14Z</time>
      </trkpt>
      <trkpt lat="45.57509" lon="5.98044">
        <ele>362.07</ele>
        <time>2011-10-23T12:24:30Z</time>
      </trkpt>
      <trkpt lat="45.57512" lon="5.98069">
        <ele>363.52</ele>
        <time>2011-10-23T12:24:37Z</time>
      </trkpt>
      <trkpt lat="45.57515" lon="5.9807">
        <ele>364.48</ele>
        <time>2011-10-23T12:24:38Z</time>
      </trkpt>
      <trkpt lat="45.57517" lon="5.9807">
        <ele>364.48</ele>
        <time>2011-10-23T12:24:39Z</time>
      </trkpt>
      <trkpt lat="45.5752" lon="5.9807">
        <ele>364.48</ele>
        <time>2011-10-23T12:24:40Z</time>
      </trkpt>
      <trkpt lat="45.57523" lon="5.98068">
        <ele>364.48</ele>
        <time>2011-10-23T12:24:41Z</time>
      </trkpt>
      <trkpt lat="45.57526" lon="5.98066">
        <ele>364.48</ele>
        <time>2011-10-23T12:24:42Z</time>
      </trkpt>
      <trkpt lat="45.57529" lon="5.98064">
        <ele>364.96</ele>
        <time>2011-10-23T12:24:43Z</time>
      </trkpt>
      <trkpt lat="45.57571" lon="5.98022">
        <ele>367.84</ele>
        <time>2011-10-23T12:25:00Z</time>
      </trkpt>
      <trkpt lat="45.57615" lon="5.97998">
        <ele>371.21</ele>
        <time>2011-10-23T12:25:16Z</time>
      </trkpt>
      <trkpt lat="45.57654" lon="5.97976">
        <ele>374.57</ele>
        <time>2011-10-23T12:25:30Z</time>
      </trkpt>
      <trkpt lat="45.57693" lon="5.97926">
        <ele>377.45</ele>
        <time>2011-10-23T12:25:48Z</time>
      </trkpt>
      <trkpt lat="45.57705" lon="5.97877">
        <ele>379.86</ele>
        <time>2011-10-23T12:26:01Z</time>
      </trkpt>
      <trkpt lat="45.57689" lon="5.97803">
        <ele>382.26</ele>
        <time>2011-10-23T12:26:18Z</time>
      </trkpt>
      <trkpt lat="45.57707" lon="5.97807">
        <ele>383.7</ele>
        <time>2011-10-23T12:26:26Z</time>
      </trkpt>
      <trkpt lat="45.5771" lon="5.97814">
        <ele>384.18</ele>
        <time>2011-10-23T12:26:27Z</time>
      </trkpt>
      <trkpt lat="45.57711" lon="5.97819">
        <ele>384.18</ele>
        <time>2011-10-23T12:26:28Z</time>
      </trkpt>
      <trkpt lat="45.57712" lon="5.97823">
        <ele>384.66</ele>
        <time>2011-10-23T12:26:29Z</time>
      </trkpt>
      <trkpt lat="45.57713" lon="5.97828">
        <ele>384.18</ele>
        <time>2011-10-23T12:26:30Z</time>
      </trkpt>
      <trkpt lat="45.57734" lon="5.9789">
        <ele>387.55</ele>
        <time>2011-10-23T12:26:46Z</time>
      </trkpt>
      <trkpt lat="45.57747" lon="5.97952">
        <ele>390.91</ele>
        <time>2011-10-23T12:27:02Z</time>
      </trkpt>
      <trkpt lat="45.57744" lon="5.97998">
        <ele>394.28</ele>
        <time>2011-10-23T12:27:15Z</time>
      </trkpt>
      <trkpt lat="45.57737" lon="5.98042">
        <ele>397.64</ele>
        <time>2011-10-23T12:27:28Z</time>
      </trkpt>
      <trkpt lat="45.57719" lon="5.98091">
        <ele>400.53</ele>
        <time>2011-10-23T12:27:44Z</time>
      </trkpt>
      <trkpt lat="45.57715" lon="5.98106">
        <ele>401.97</ele>
        <time>2011-10-23T12:27:49Z</time>
      </trkpt>
      <trkpt lat="45.57713" lon="5.98109">
        <ele>402.45</ele>
        <time>2011-10-23T12:27:50Z</time>
      </trkpt>
      <trkpt lat="45.57698" lon="5.98149">
        <ele>405.33</ele>
        <time>2011-10-23T12:28:03Z</time>
      </trkpt>
      <trkpt lat="45.57684" lon="5.98193">
        <ele>408.7</ele>
        <time>2011-10-23T12:28:17Z</time>
      </trkpt>
      <trkpt lat="45.57673" lon="5.9824">
        <ele>411.58</ele>
        <time>2011-10-23T12:28:31Z</time>
      </trkpt>
      <trkpt lat="45.57652" lon="5.98275">
        <ele>414.47</ele>
        <time>2011-10-23T12:28:44Z</time>
      </trkpt>
      <trkpt lat="45.57651" lon="5.98308">
        <ele>415.91</ele>
        <time>2011-10-23T12:28:56Z</time>
      </trkpt>
      <trkpt lat="45.57654" lon="5.98309">
        <ele>416.39</ele>
        <time>2011-10-23T12:28:57Z</time>
      </trkpt>
      <trkpt lat="45.57657" lon="5.98308">
        <ele>416.39</ele>
        <time>2011-10-23T12:28:58Z</time>
      </trkpt>
      <trkpt lat="45.57659" lon="5.98306">
        <ele>416.87</ele>
        <time>2011-10-23T12:28:59Z</time>
      </trkpt>
      <trkpt lat="45.57661" lon="5.98304">
        <ele>416.87</ele>
        <time>2011-10-23T12:29:00Z</time>
      </trkpt>
      <trkpt lat="45.57663" lon="5.98301">
        <ele>416.87</ele>
        <time>2011-10-23T12:29:01Z</time>
      </trkpt>
      <trkpt lat="45.57666" lon="5.98297">
        <ele>416.87</ele>
        <time>2011-10-23T12:29:02Z</time>
      </trkpt>
      <trkpt lat="45.57686" lon="5.98254">
        <ele>420.23</ele>
        <time>2011-10-23T12:29:16Z</time>
      </trkpt>
      <trkpt lat="45.57697" lon="5.98238">
        <ele>420.71</ele>
        <time>2011-10-23T12:29:23Z</time>
      </trkpt>
      <trkpt lat="45.577" lon="5.98239">
        <ele>421.19</ele>
        <time>2011-10-23T12:29:24Z</time>
      </trkpt>
      <trkpt lat="45.57702" lon="5.9824">
        <ele>421.19</ele>
        <time>2011-10-23T12:29:25Z</time>
      </trkpt>
      <trkpt lat="45.57704" lon="5.98243">
        <ele>421.68</ele>
        <time>2011-10-23T12:29:26Z</time>
      </trkpt>
      <trkpt lat="45.57705" lon="5.98246">
        <ele>421.68</ele>
        <time>2011-10-23T12:29:27Z</time>
      </trkpt>
      <trkpt lat="45.57706" lon="5.98249">
        <ele>422.16</ele>
        <time>2011-10-23T12:29:28Z</time>
      </trkpt>
      <trkpt lat="45.57706" lon="5.98253">
        <ele>422.16</ele>
        <time>2011-10-23T12:29:29Z</time>
      </trkpt>
      <trkpt lat="45.57706" lon="5.98257">
        <ele>422.64</ele>
        <time>2011-10-23T12:29:30Z</time>
      </trkpt>
      <trkpt lat="45.57709" lon="5.98303">
        <ele>425.52</ele>
        <time>2011-10-23T12:29:43Z</time>
      </trkpt>
      <trkpt lat="45.57714" lon="5.98338">
        <ele>428.89</ele>
        <time>2011-10-23T12:29:56Z</time>
      </trkpt>
      <trkpt lat="45.57715" lon="5.98344">
        <ele>429.37</ele>
        <time>2011-10-23T12:29:58Z</time>
      </trkpt>
      <trkpt lat="45.57715" lon="5.98348">
        <ele>429.37</ele>
        <time>2011-10-23T12:29:59Z</time>
      </trkpt>
      <trkpt lat="45.57726" lon="5.98384">
        <ele>432.73</ele>
        <time>2011-10-23T12:30:12Z</time>
      </trkpt>
      <trkpt lat="45.57742" lon="5.98413">
        <ele>436.1</ele>
        <time>2011-10-23T12:30:25Z</time>
      </trkpt>
      <trkpt lat="45.57755" lon="5.98451">
        <ele>438.98</ele>
        <time>2011-10-23T12:30:39Z</time>
      </trkpt>
      <trkpt lat="45.57745" lon="5.98482">
        <ele>441.86</ele>
        <time>2011-10-23T12:30:50Z</time>
      </trkpt>
      <trkpt lat="45.57731" lon="5.98512">
        <ele>444.75</ele>
        <time>2011-10-23T12:31:02Z</time>
      </trkpt>
      <trkpt lat="45.5773" lon="5.98555">
        <ele>447.63</ele>
        <time>2011-10-23T12:31:18Z</time>
      </trkpt>
      <trkpt lat="45.57761" lon="5.98549">
        <ele>450.52</ele>
        <time>2011-10-23T12:31:31Z</time>
      </trkpt>
      <trkpt lat="45.57793" lon="5.98554">
        <ele>452.92</ele>
        <time>2011-10-23T12:31:46Z</time>
      </trkpt>
      <trkpt lat="45.57807" lon="5.98585">
        <ele>454.36</ele>
        <time>2011-10-23T12:31:59Z</time>
      </trkpt>
      <trkpt lat="45.57787" lon="5.9862">
        <ele>456.76</ele>
        <time>2011-10-23T12:32:13Z</time>
      </trkpt>
      <trkpt lat="45.57759" lon="5.98631">
        <ele>460.13</ele>
        <time>2011-10-23T12:32:27Z</time>
      </trkpt>
      <trkpt lat="45.57727" lon="5.98646">
        <ele>462.53</ele>
        <time>2011-10-23T12:32:43Z</time>
      </trkpt>
      <trkpt lat="45.57697" lon="5.98688">
        <ele>465.42</ele>
        <time>2011-10-23T12:33:02Z</time>
      </trkpt>
      <trkpt lat="45.57675" lon="5.98736">
        <ele>468.3</ele>
        <time>2011-10-23T12:33:21Z</time>
      </trkpt>
      <trkpt lat="45.57662" lon="5.98766">
        <ele>470.22</ele>
        <time>2011-10-23T12:33:34Z</time>
      </trkpt>
      <trkpt lat="45.57653" lon="5.98786">
        <ele>472.14</ele>
        <time>2011-10-23T12:33:49Z</time>
      </trkpt>
      <trkpt lat="45.57653" lon="5.9879">
        <ele>472.63</ele>
        <time>2011-10-23T12:34:12Z</time>
      </trkpt>
      <trkpt lat="45.57653" lon="5.98791">
        <ele>472.63</ele>
        <time>2011-10-23T12:34:13Z</time>
      </trkpt>
      <trkpt lat="45.57652" lon="5.98794">
        <ele>472.63</ele>
        <time>2011-10-23T12:34:14Z</time>
      </trkpt>
      <trkpt lat="45.57652" lon="5.98796">
        <ele>473.11</ele>
        <time>2011-10-23T12:34:15Z</time>
      </trkpt>
      <trkpt lat="45.57651" lon="5.98798">
        <ele>473.11</ele>
        <time>2011-10-23T12:34:16Z</time>
      </trkpt>
      <trkpt lat="45.57651" lon="5.98801">
        <ele>473.59</ele>
        <time>2011-10-23T12:34:17Z</time>
      </trkpt>
      <trkpt lat="45.57647" lon="5.98833">
        <ele>476.47</ele>
        <time>2011-10-23T12:34:31Z</time>
      </trkpt>
      <trkpt lat="45.57644" lon="5.98843">
        <ele>477.91</ele>
        <time>2011-10-23T12:34:36Z</time>
      </trkpt>
      <trkpt lat="45.57642" lon="5.98844">
        <ele>478.39</ele>
        <time>2011-10-23T12:34:37Z</time>
      </trkpt>
      <trkpt lat="45.5764" lon="5.98845">
        <ele>478.87</ele>
        <time>2011-10-23T12:34:38Z</time>
      </trkpt>
      <trkpt lat="45.57638" lon="5.98846">
        <ele>478.39</ele>
        <time>2011-10-23T12:34:39Z</time>
      </trkpt>
      <trkpt lat="45.57637" lon="5.98846">
        <ele>479.35</ele>
        <time>2011-10-23T12:34:40Z</time>
      </trkpt>
      <trkpt lat="45.57636" lon="5.98847">
        <ele>479.35</ele>
        <time>2011-10-23T12:34:41Z</time>
      </trkpt>
      <trkpt lat="45.57616" lon="5.98863">
        <ele>482.24</ele>
        <time>2011-10-23T12:34:57Z</time>
      </trkpt>
      <trkpt lat="45.57603" lon="5.98879">
        <ele>483.68</ele>
        <time>2011-10-23T12:35:09Z</time>
      </trkpt>
      <trkpt lat="45.57603" lon="5.98881">
        <ele>483.68</ele>
        <time>2011-10-23T12:35:10Z</time>
      </trkpt>
      <trkpt lat="45.57603" lon="5.98883">
        <ele>484.16</ele>
        <time>2011-10-23T12:35:11Z</time>
      </trkpt>
      <trkpt lat="45.57603" lon="5.98885">
        <ele>484.16</ele>
        <time>2011-10-23T12:35:12Z</time>
      </trkpt>
      <trkpt lat="45.57603" lon="5.98887">
        <ele>484.64</ele>
        <time>2011-10-23T12:35:13Z</time>
      </trkpt>
      <trkpt lat="45.57603" lon="5.9889">
        <ele>484.16</ele>
        <time>2011-10-23T12:35:14Z</time>
      </trkpt>
      <trkpt lat="45.57604" lon="5.98892">
        <ele>484.64</ele>
        <time>2011-10-23T12:35:15Z</time>
      </trkpt>
      <trkpt lat="45.57607" lon="5.9892">
        <ele>486.56</ele>
        <time>2011-10-23T12:35:28Z</time>
      </trkpt>
      <trkpt lat="45.57611" lon="5.98949">
        <ele>489.45</ele>
        <time>2011-10-23T12:35:43Z</time>
      </trkpt>
      <trkpt lat="45.57615" lon="5.98979">
        <ele>492.33</ele>
        <time>2011-10-23T12:35:58Z</time>
      </trkpt>
      <trkpt lat="45.57615" lon="5.98987">
        <ele>492.81</ele>
        <time>2011-10-23T12:36:02Z</time>
      </trkpt>
      <trkpt lat="45.57612" lon="5.99019">
        <ele>496.18</ele>
        <time>2011-10-23T12:36:19Z</time>
      </trkpt>
      <trkpt lat="45.57612" lon="5.99046">
        <ele>499.06</ele>
        <time>2011-10-23T12:36:33Z</time>
      </trkpt>
      <trkpt lat="45.57612" lon="5.99069">
        <ele>502.43</ele>
        <time>2011-10-23T12:36:45Z</time>
      </trkpt>
      <trkpt lat="45.57612" lon="5.9907">
        <ele>502.43</ele>
        <time>2011-10-23T12:36:46Z</time>
      </trkpt>
      <trkpt lat="45.57611" lon="5.99077">
        <ele>503.87</ele>
        <time>2011-10-23T12:36:50Z</time>
      </trkpt>
      <trkpt lat="45.57609" lon="5.991">
        <ele>507.23</ele>
        <time>2011-10-23T12:37:02Z</time>
      </trkpt>
      <trkpt lat="45.57608" lon="5.99112">
        <ele>508.19</ele>
        <time>2011-10-23T12:37:18Z</time>
      </trkpt>
      <trkpt lat="45.57608" lon="5.99113">
        <ele>508.19</ele>
        <time>2011-10-23T12:37:40Z</time>
      </trkpt>
      <trkpt lat="45.5761" lon="5.99128">
        <ele>508.67</ele>
        <time>2011-10-23T12:37:47Z</time>
      </trkpt>
      <trkpt lat="45.5761" lon="5.99148">
        <ele>511.08</ele>
        <time>2011-10-23T12:38:03Z</time>
      </trkpt>
      <trkpt lat="45.57602" lon="5.99152">
        <ele>513.48</ele>
        <time>2011-10-23T12:38:20Z</time>
      </trkpt>
      <trkpt lat="45.57607" lon="5.99158">
        <ele>514.92</ele>
        <time>2011-10-23T12:38:31Z</time>
      </trkpt>
      <trkpt lat="45.57613" lon="5.99165">
        <ele>516.37</ele>
        <time>2011-10-23T12:38:44Z</time>
      </trkpt>
      <trkpt lat="45.57613" lon="5.99165">
        <ele>516.85</ele>
        <time>2011-10-23T12:38:55Z</time>
      </trkpt>
      <trkpt lat="45.57623" lon="5.99198">
        <ele>518.77</ele>
        <time>2011-10-23T12:39:08Z</time>
      </trkpt>
      <trkpt lat="45.57624" lon="5.992">
        <ele>518.77</ele>
        <time>2011-10-23T12:39:09Z</time>
      </trkpt>
      <trkpt lat="45.57637" lon="5.99233">
        <ele>519.25</ele>
        <time>2011-10-23T12:39:21Z</time>
      </trkpt>
      <trkpt lat="45.57648" lon="5.9927">
        <ele>520.69</ele>
        <time>2011-10-23T12:39:35Z</time>
      </trkpt>
      <trkpt lat="45.57656" lon="5.99311">
        <ele>523.09</ele>
        <time>2011-10-23T12:39:49Z</time>
      </trkpt>
      <trkpt lat="45.57663" lon="5.99348">
        <ele>524.06</ele>
        <time>2011-10-23T12:40:01Z</time>
      </trkpt>
      <trkpt lat="45.5767" lon="5.99394">
        <ele>523.58</ele>
        <time>2011-10-23T12:40:13Z</time>
      </trkpt>
      <trkpt lat="45.57671" lon="5.99435">
        <ele>525.02</ele>
        <time>2011-10-23T12:40:24Z</time>
      </trkpt>
      <trkpt lat="45.57673" lon="5.99463">
        <ele>526.46</ele>
        <time>2011-10-23T12:40:37Z</time>
      </trkpt>
      <trkpt lat="45.57673" lon="5.99466">
        <ele>526.46</ele>
        <time>2011-10-23T12:40:38Z</time>
      </trkpt>
      <trkpt lat="45.57673" lon="5.99476">
        <ele>527.42</ele>
        <time>2011-10-23T12:40:43Z</time>
      </trkpt>
      <trkpt lat="45.57677" lon="5.9951">
        <ele>529.82</ele>
        <time>2011-10-23T12:40:57Z</time>
      </trkpt>
      <trkpt lat="45.57685" lon="5.99537">
        <ele>532.23</ele>
        <time>2011-10-23T12:41:09Z</time>
      </trkpt>
      <trkpt lat="45.57685" lon="5.99543">
        <ele>532.71</ele>
        <time>2011-10-23T12:41:12Z</time>
      </trkpt>
      <trkpt lat="45.57686" lon="5.99551">
        <ele>533.67</ele>
        <time>2011-10-23T12:41:16Z</time>
      </trkpt>
      <trkpt lat="45.57689" lon="5.99584">
        <ele>537.03</ele>
        <time>2011-10-23T12:41:32Z</time>
      </trkpt>
      <trkpt lat="45.57689" lon="5.99596">
        <ele>538.48</ele>
        <time>2011-10-23T12:41:38Z</time>
      </trkpt>
      <trkpt lat="45.57686" lon="5.9961">
        <ele>540.88</ele>
        <time>2011-10-23T12:41:46Z</time>
      </trkpt>
      <trkpt lat="45.5768" lon="5.99637">
        <ele>543.28</ele>
        <time>2011-10-23T12:42:01Z</time>
      </trkpt>
      <trkpt lat="45.57678" lon="5.99641">
        <ele>544.24</ele>
        <time>2011-10-23T12:42:04Z</time>
      </trkpt>
      <trkpt lat="45.57675" lon="5.99654">
        <ele>545.2</ele>
        <time>2011-10-23T12:42:11Z</time>
      </trkpt>
      <trkpt lat="45.57672" lon="5.99679">
        <ele>548.57</ele>
        <time>2011-10-23T12:42:26Z</time>
      </trkpt>
      <trkpt lat="45.57671" lon="5.99688">
        <ele>549.53</ele>
        <time>2011-10-23T12:42:32Z</time>
      </trkpt>
      <trkpt lat="45.57672" lon="5.99703">
        <ele>551.93</ele>
        <time>2011-10-23T12:42:41Z</time>
      </trkpt>
      <trkpt lat="45.57672" lon="5.99711">
        <ele>552.41</ele>
        <time>2011-10-23T12:42:45Z</time>
      </trkpt>
      <trkpt lat="45.57666" lon="5.99737">
        <ele>555.78</ele>
        <time>2011-10-23T12:43:00Z</time>
      </trkpt>
      <trkpt lat="45.57666" lon="5.9974">
        <ele>556.26</ele>
        <time>2011-10-23T12:43:02Z</time>
      </trkpt>
      <trkpt lat="45.57665" lon="5.99755">
        <ele>558.18</ele>
        <time>2011-10-23T12:43:10Z</time>
      </trkpt>
      <trkpt lat="45.57663" lon="5.99779">
        <ele>559.14</ele>
        <time>2011-10-23T12:43:27Z</time>
      </trkpt>
      <trkpt lat="45.57663" lon="5.9979">
        <ele>560.59</ele>
        <time>2011-10-23T12:43:44Z</time>
      </trkpt>
      <trkpt lat="45.5766" lon="5.99818">
        <ele>561.07</ele>
        <time>2011-10-23T12:43:58Z</time>
      </trkpt>
      <trkpt lat="45.57656" lon="5.99842">
        <ele>563.47</ele>
        <time>2011-10-23T12:44:11Z</time>
      </trkpt>
      <trkpt lat="45.57652" lon="5.99871">
        <ele>565.87</ele>
        <time>2011-10-23T12:44:24Z</time>
      </trkpt>
      <trkpt lat="45.5765" lon="5.99883">
        <ele>567.8</ele>
        <time>2011-10-23T12:44:30Z</time>
      </trkpt>
      <trkpt lat="45.57649" lon="5.99886">
        <ele>568.28</ele>
        <time>2011-10-23T12:44:32Z</time>
      </trkpt>
      <trkpt lat="45.57643" lon="5.99903">
        <ele>571.64</ele>
        <time>2011-10-23T12:44:42Z</time>
      </trkpt>
      <trkpt lat="45.57647" lon="5.99935">
        <ele>571.64</ele>
        <time>2011-10-23T12:44:57Z</time>
      </trkpt>
      <trkpt lat="45.57647" lon="5.9998">
        <ele>571.64</ele>
        <time>2011-10-23T12:45:13Z</time>
      </trkpt>
      <trkpt lat="45.57647" lon="6.0002">
        <ele>572.6</ele>
        <time>2011-10-23T12:45:27Z</time>
      </trkpt>
      <trkpt lat="45.57647" lon="6.00065">
        <ele>572.6</ele>
        <time>2011-10-23T12:45:41Z</time>
      </trkpt>
      <trkpt lat="45.57648" lon="6.00113">
        <ele>574.04</ele>
        <time>2011-10-23T12:45:55Z</time>
      </trkpt>
      <trkpt lat="45.57647" lon="6.00104">
        <ele>573.08</ele>
        <time>2011-10-23T12:46:07Z</time>
      </trkpt>
      <trkpt lat="45.57645" lon="6.001">
        <ele>573.08</ele>
        <time>2011-10-23T12:46:09Z</time>
      </trkpt>
      <trkpt lat="45.57643" lon="6.00093">
        <ele>572.6</ele>
        <time>2011-10-23T12:46:13Z</time>
      </trkpt>
      <trkpt lat="45.57638" lon="6.00085">
        <ele>572.6</ele>
        <time>2011-10-23T12:46:27Z</time>
      </trkpt>
      <trkpt lat="45.57642" lon="6.00094">
        <ele>572.6</ele>
        <time>2011-10-23T12:46:29Z</time>
      </trkpt>
      <trkpt lat="45.57644" lon="6.00103">
        <ele>573.08</ele>
        <time>2011-10-23T12:46:32Z</time>
      </trkpt>
      <trkpt lat="45.57643" lon="6.00107">
        <ele>572.6</ele>
        <time>2011-10-23T12:46:46Z</time>
      </trkpt>
      <trkpt lat="45.57648" lon="6.00154">
        <ele>573.56</ele>
        <time>2011-10-23T12:46:59Z</time>
      </trkpt>
      <trkpt lat="45.5765" lon="6.00206">
        <ele>574.53</ele>
        <time>2011-10-23T12:47:12Z</time>
      </trkpt>
      <trkpt lat="45.57655" lon="6.00254">
        <ele>575.49</ele>
        <time>2011-10-23T12:47:24Z</time>
      </trkpt>
      <trkpt lat="45.57653" lon="6.00304">
        <ele>576.45</ele>
        <time>2011-10-23T12:47:37Z</time>
      </trkpt>
      <trkpt lat="45.57655" lon="6.00355">
        <ele>577.89</ele>
        <time>2011-10-23T12:47:50Z</time>
      </trkpt>
      <trkpt lat="45.57652" lon="6.00412">
        <ele>578.85</ele>
        <time>2011-10-23T12:48:05Z</time>
      </trkpt>
      <trkpt lat="45.57647" lon="6.0042">
        <ele>579.33</ele>
        <time>2011-10-23T12:48:09Z</time>
      </trkpt>
      <trkpt lat="45.57636" lon="6.00419">
        <ele>580.29</ele>
        <time>2011-10-23T12:48:16Z</time>
      </trkpt>
      <trkpt lat="45.57623" lon="6.00376">
        <ele>583.18</ele>
        <time>2011-10-23T12:48:30Z</time>
      </trkpt>
      <trkpt lat="45.57619" lon="6.0037">
        <ele>584.14</ele>
        <time>2011-10-23T12:48:34Z</time>
      </trkpt>
      <trkpt lat="45.57609" lon="6.0036">
        <ele>587.98</ele>
        <time>2011-10-23T12:48:42Z</time>
      </trkpt>
      <trkpt lat="45.57604" lon="6.0035">
        <ele>589.91</ele>
        <time>2011-10-23T12:48:53Z</time>
      </trkpt>
      <trkpt lat="45.57601" lon="6.00331">
        <ele>591.83</ele>
        <time>2011-10-23T12:49:09Z</time>
      </trkpt>
      <trkpt lat="45.57591" lon="6.00308">
        <ele>595.19</ele>
        <time>2011-10-23T12:49:22Z</time>
      </trkpt>
      <trkpt lat="45.57582" lon="6.00291">
        <ele>598.08</ele>
        <time>2011-10-23T12:49:34Z</time>
      </trkpt>
      <trkpt lat="45.57575" lon="6.00278">
        <ele>600.96</ele>
        <time>2011-10-23T12:49:43Z</time>
      </trkpt>
      <trkpt lat="45.57572" lon="6.00268">
        <ele>602.88</ele>
        <time>2011-10-23T12:49:50Z</time>
      </trkpt>
      <trkpt lat="45.57568" lon="6.00257">
        <ele>604.33</ele>
        <time>2011-10-23T12:49:57Z</time>
      </trkpt>
      <trkpt lat="45.57568" lon="6.00248">
        <ele>605.29</ele>
        <time>2011-10-23T12:50:02Z</time>
      </trkpt>
      <trkpt lat="45.5757" lon="6.00224">
        <ele>605.29</ele>
        <time>2011-10-23T12:50:15Z</time>
      </trkpt>
      <trkpt lat="45.5757" lon="6.00193">
        <ele>604.81</ele>
        <time>2011-10-23T12:50:24Z</time>
      </trkpt>
      <trkpt lat="45.5757" lon="6.00148">
        <ele>603.85</ele>
        <time>2011-10-23T12:50:38Z</time>
      </trkpt>
      <trkpt lat="45.5757" lon="6.00093">
        <ele>602.88</ele>
        <time>2011-10-23T12:50:49Z</time>
      </trkpt>
      <trkpt lat="45.57567" lon="6.00043">
        <ele>605.29</ele>
        <time>2011-10-23T12:51:02Z</time>
      </trkpt>
      <trkpt lat="45.5756" lon="6.0001">
        <ele>607.69</ele>
        <time>2011-10-23T12:51:14Z</time>
      </trkpt>
      <trkpt lat="45.57559" lon="6.00003">
        <ele>608.17</ele>
        <time>2011-10-23T12:51:16Z</time>
      </trkpt>
      <trkpt lat="45.57546" lon="5.99965">
        <ele>609.13</ele>
        <time>2011-10-23T12:51:30Z</time>
      </trkpt>
      <trkpt lat="45.57538" lon="5.99941">
        <ele>611.54</ele>
        <time>2011-10-23T12:51:39Z</time>
      </trkpt>
      <trkpt lat="45.57525" lon="5.99917">
        <ele>613.94</ele>
        <time>2011-10-23T12:51:52Z</time>
      </trkpt>
      <trkpt lat="45.57518" lon="5.999">
        <ele>617.3</ele>
        <time>2011-10-23T12:52:02Z</time>
      </trkpt>
      <trkpt lat="45.57515" lon="5.99882">
        <ele>618.26</ele>
        <time>2011-10-23T12:52:12Z</time>
      </trkpt>
      <trkpt lat="45.57514" lon="5.99875">
        <ele>619.71</ele>
        <time>2011-10-23T12:52:16Z</time>
      </trkpt>
      <trkpt lat="45.5751" lon="5.99853">
        <ele>619.71</ele>
        <time>2011-10-23T12:52:25Z</time>
      </trkpt>
      <trkpt lat="45.57508" lon="5.99847">
        <ele>621.63</ele>
        <time>2011-10-23T12:52:30Z</time>
      </trkpt>
      <trkpt lat="45.57501" lon="5.9982">
        <ele>624.03</ele>
        <time>2011-10-23T12:52:44Z</time>
      </trkpt>
      <trkpt lat="45.57494" lon="5.99809">
        <ele>625.47</ele>
        <time>2011-10-23T12:52:51Z</time>
      </trkpt>
      <trkpt lat="45.57483" lon="5.99797">
        <ele>627.88</ele>
        <time>2011-10-23T12:53:05Z</time>
      </trkpt>
      <trkpt lat="45.57482" lon="5.998">
        <ele>627.88</ele>
        <time>2011-10-23T12:53:07Z</time>
      </trkpt>
      <trkpt lat="45.57481" lon="5.99804">
        <ele>627.88</ele>
        <time>2011-10-23T12:53:09Z</time>
      </trkpt>
      <trkpt lat="45.57473" lon="5.99811">
        <ele>629.32</ele>
        <time>2011-10-23T12:53:22Z</time>
      </trkpt>
      <trkpt lat="45.57473" lon="5.99811">
        <ele>629.32</ele>
        <time>2011-10-23T12:54:00Z</time>
      </trkpt>
      <trkpt lat="45.57472" lon="5.99815">
        <ele>629.32</ele>
        <time>2011-10-23T12:54:33Z</time>
      </trkpt>
      <trkpt lat="45.57475" lon="5.99852">
        <ele>630.76</ele>
        <time>2011-10-23T12:54:48Z</time>
      </trkpt>
      <trkpt lat="45.57478" lon="5.99896">
        <ele>631.72</ele>
        <time>2011-10-23T12:55:01Z</time>
      </trkpt>
      <trkpt lat="45.57472" lon="5.99935">
        <ele>634.13</ele>
        <time>2011-10-23T12:55:15Z</time>
      </trkpt>
      <trkpt lat="45.57463" lon="5.99965">
        <ele>637.01</ele>
        <time>2011-10-23T12:55:27Z</time>
      </trkpt>
      <trkpt lat="45.57461" lon="5.99971">
        <ele>638.45</ele>
        <time>2011-10-23T12:55:30Z</time>
      </trkpt>
      <trkpt lat="45.57461" lon="5.99978">
        <ele>638.93</ele>
        <time>2011-10-23T12:55:33Z</time>
      </trkpt>
      <trkpt lat="45.57443" lon="5.99999">
        <ele>640.86</ele>
        <time>2011-10-23T12:55:49Z</time>
      </trkpt>
      <trkpt lat="45.57434" lon="6.00048">
        <ele>643.74</ele>
        <time>2011-10-23T12:56:06Z</time>
      </trkpt>
      <trkpt lat="45.57426" lon="6.00094">
        <ele>647.1</ele>
        <time>2011-10-23T12:56:22Z</time>
      </trkpt>
      <trkpt lat="45.57418" lon="6.00142">
        <ele>649.99</ele>
        <time>2011-10-23T12:56:39Z</time>
      </trkpt>
      <trkpt lat="45.57409" lon="6.00184">
        <ele>652.39</ele>
        <time>2011-10-23T12:56:54Z</time>
      </trkpt>
      <trkpt lat="45.57403" lon="6.00221">
        <ele>656.24</ele>
        <time>2011-10-23T12:57:07Z</time>
      </trkpt>
      <trkpt lat="45.57396" lon="6.00257">
        <ele>659.12</ele>
        <time>2011-10-23T12:57:20Z</time>
      </trkpt>
      <trkpt lat="45.57387" lon="6.00301">
        <ele>662.49</ele>
        <time>2011-10-23T12:57:36Z</time>
      </trkpt>
      <trkpt lat="45.57376" lon="6.00339">
        <ele>665.37</ele>
        <time>2011-10-23T12:57:51Z</time>
      </trkpt>
      <trkpt lat="45.57372" lon="6.0033">
        <ele>666.33</ele>
        <time>2011-10-23T12:57:56Z</time>
      </trkpt>
      <trkpt lat="45.57371" lon="6.00317">
        <ele>667.29</ele>
        <time>2011-10-23T12:58:04Z</time>
      </trkpt>
      <trkpt lat="45.57368" lon="6.00301">
        <ele>668.73</ele>
        <time>2011-10-23T12:58:19Z</time>
      </trkpt>
      <trkpt lat="45.57368" lon="6.00297">
        <ele>669.22</ele>
        <time>2011-10-23T12:58:42Z</time>
      </trkpt>
      <trkpt lat="45.57368" lon="6.00283">
        <ele>670.18</ele>
        <time>2011-10-23T12:58:48Z</time>
      </trkpt>
      <trkpt lat="45.57366" lon="6.00245">
        <ele>671.14</ele>
        <time>2011-10-23T12:59:02Z</time>
      </trkpt>
      <trkpt lat="45.57362" lon="6.00188">
        <ele>671.14</ele>
        <time>2011-10-23T12:59:18Z</time>
      </trkpt>
      <trkpt lat="45.57363" lon="6.00111">
        <ele>669.7</ele>
        <time>2011-10-23T12:59:33Z</time>
      </trkpt>
      <trkpt lat="45.57365" lon="6.0008">
        <ele>669.22</ele>
        <time>2011-10-23T12:59:38Z</time>
      </trkpt>
      <trkpt lat="45.57365" lon="6.00039">
        <ele>668.73</ele>
        <time>2011-10-23T12:59:45Z</time>
      </trkpt>
      <trkpt lat="45.57365" lon="6.00034">
        <ele>669.22</ele>
        <time>2011-10-23T12:59:46Z</time>
      </trkpt>
      <trkpt lat="45.57364" lon="6.00028">
        <ele>669.7</ele>
        <time>2011-10-23T12:59:47Z</time>
      </trkpt>
      <trkpt lat="45.57364" lon="6.00023">
        <ele>669.7</ele>
        <time>2011-10-23T12:59:48Z</time>
      </trkpt>
      <trkpt lat="45.57364" lon="6.00018">
        <ele>669.7</ele>
        <time>2011-10-23T12:59:49Z</time>
      </trkpt>
      <trkpt lat="45.57363" lon="6.00012">
        <ele>670.18</ele>
        <time>2011-10-23T12:59:50Z</time>
      </trkpt>
      <trkpt lat="45.57363" lon="6.00007">
        <ele>670.18</ele>
        <time>2011-10-23T12:59:51Z</time>
      </trkpt>
      <trkpt lat="45.57359" lon="5.99947">
        <ele>672.1</ele>
        <time>2011-10-23T13:00:04Z</time>
      </trkpt>
      <trkpt lat="45.57353" lon="5.99883">
        <ele>673.06</ele>
        <time>2011-10-23T13:00:18Z</time>
      </trkpt>
      <trkpt lat="45.57344" lon="5.99817">
        <ele>673.06</ele>
        <time>2011-10-23T13:00:34Z</time>
      </trkpt>
      <trkpt lat="45.57338" lon="5.99752">
        <ele>670.18</ele>
        <time>2011-10-23T13:00:46Z</time>
      </trkpt>
      <trkpt lat="45.57332" lon="5.99719">
        <ele>670.18</ele>
        <time>2011-10-23T13:00:51Z</time>
      </trkpt>
      <trkpt lat="45.57317" lon="5.9966">
        <ele>671.62</ele>
        <time>2011-10-23T13:01:02Z</time>
      </trkpt>
      <trkpt lat="45.57313" lon="5.99626">
        <ele>668.73</ele>
        <time>2011-10-23T13:01:07Z</time>
      </trkpt>
      <trkpt lat="45.57311" lon="5.99619">
        <ele>669.22</ele>
        <time>2011-10-23T13:01:08Z</time>
      </trkpt>
      <trkpt lat="45.57307" lon="5.99599">
        <ele>669.7</ele>
        <time>2011-10-23T13:01:11Z</time>
      </trkpt>
      <trkpt lat="45.57306" lon="5.99587">
        <ele>669.22</ele>
        <time>2011-10-23T13:01:13Z</time>
      </trkpt>
      <trkpt lat="45.57304" lon="5.99581">
        <ele>668.73</ele>
        <time>2011-10-23T13:01:14Z</time>
      </trkpt>
      <trkpt lat="45.57301" lon="5.99575">
        <ele>668.25</ele>
        <time>2011-10-23T13:01:15Z</time>
      </trkpt>
      <trkpt lat="45.57284" lon="5.99548">
        <ele>669.22</ele>
        <time>2011-10-23T13:01:21Z</time>
      </trkpt>
      <trkpt lat="45.57283" lon="5.99545">
        <ele>669.7</ele>
        <time>2011-10-23T13:01:22Z</time>
      </trkpt>
      <trkpt lat="45.57283" lon="5.99541">
        <ele>669.22</ele>
        <time>2011-10-23T13:01:23Z</time>
      </trkpt>
      <trkpt lat="45.57283" lon="5.99538">
        <ele>669.22</ele>
        <time>2011-10-23T13:01:24Z</time>
      </trkpt>
      <trkpt lat="45.57282" lon="5.99534">
        <ele>669.22</ele>
        <time>2011-10-23T13:01:25Z</time>
      </trkpt>
      <trkpt lat="45.57282" lon="5.99528">
        <ele>669.22</ele>
        <time>2011-10-23T13:01:26Z</time>
      </trkpt>
      <trkpt lat="45.5728" lon="5.99522">
        <ele>668.73</ele>
        <time>2011-10-23T13:01:27Z</time>
      </trkpt>
      <trkpt lat="45.57278" lon="5.99516">
        <ele>668.25</ele>
        <time>2011-10-23T13:01:28Z</time>
      </trkpt>
      <trkpt lat="45.57272" lon="5.99498">
        <ele>668.25</ele>
        <time>2011-10-23T13:01:31Z</time>
      </trkpt>
      <trkpt lat="45.57269" lon="5.99493">
        <ele>668.25</ele>
        <time>2011-10-23T13:01:32Z</time>
      </trkpt>
      <trkpt lat="45.57266" lon="5.99489">
        <ele>668.25</ele>
        <time>2011-10-23T13:01:33Z</time>
      </trkpt>
      <trkpt lat="45.57263" lon="5.99486">
        <ele>668.25</ele>
        <time>2011-10-23T13:01:34Z</time>
      </trkpt>
      <trkpt lat="45.57261" lon="5.99483">
        <ele>668.73</ele>
        <time>2011-10-23T13:01:35Z</time>
      </trkpt>
      <trkpt lat="45.57259" lon="5.99479">
        <ele>669.22</ele>
        <time>2011-10-23T13:01:36Z</time>
      </trkpt>
      <trkpt lat="45.57256" lon="5.99475">
        <ele>669.22</ele>
        <time>2011-10-23T13:01:37Z</time>
      </trkpt>
      <trkpt lat="45.57253" lon="5.99472">
        <ele>669.7</ele>
        <time>2011-10-23T13:01:38Z</time>
      </trkpt>
      <trkpt lat="45.5725" lon="5.99469">
        <ele>669.7</ele>
        <time>2011-10-23T13:01:39Z</time>
      </trkpt>
      <trkpt lat="45.57248" lon="5.99466">
        <ele>670.18</ele>
        <time>2011-10-23T13:01:40Z</time>
      </trkpt>
      <trkpt lat="45.57221" lon="5.99426">
        <ele>669.22</ele>
        <time>2011-10-23T13:01:50Z</time>
      </trkpt>
      <trkpt lat="45.57196" lon="5.99385">
        <ele>665.85</ele>
        <time>2011-10-23T13:01:59Z</time>
      </trkpt>
      <trkpt lat="45.57193" lon="5.99379">
        <ele>665.85</ele>
        <time>2011-10-23T13:02:00Z</time>
      </trkpt>
      <trkpt lat="45.57183" lon="5.9936">
        <ele>663.93</ele>
        <time>2011-10-23T13:02:03Z</time>
      </trkpt>
      <trkpt lat="45.57179" lon="5.99354">
        <ele>662.97</ele>
        <time>2011-10-23T13:02:04Z</time>
      </trkpt>
      <trkpt lat="45.57173" lon="5.99349">
        <ele>662.97</ele>
        <time>2011-10-23T13:02:05Z</time>
      </trkpt>
      <trkpt lat="45.57168" lon="5.99345">
        <ele>662.97</ele>
        <time>2011-10-23T13:02:06Z</time>
      </trkpt>
      <trkpt lat="45.57163" lon="5.99342">
        <ele>662.01</ele>
        <time>2011-10-23T13:02:07Z</time>
      </trkpt>
      <trkpt lat="45.57158" lon="5.9934">
        <ele>662.97</ele>
        <time>2011-10-23T13:02:08Z</time>
      </trkpt>
      <trkpt lat="45.57153" lon="5.99338">
        <ele>662.49</ele>
        <time>2011-10-23T13:02:09Z</time>
      </trkpt>
      <trkpt lat="45.57143" lon="5.99333">
        <ele>662.01</ele>
        <time>2011-10-23T13:02:11Z</time>
      </trkpt>
      <trkpt lat="45.57131" lon="5.99325">
        <ele>662.01</ele>
        <time>2011-10-23T13:02:13Z</time>
      </trkpt>
      <trkpt lat="45.57118" lon="5.9932">
        <ele>661.52</ele>
        <time>2011-10-23T13:02:16Z</time>
      </trkpt>
      <trkpt lat="45.57113" lon="5.99319">
        <ele>661.52</ele>
        <time>2011-10-23T13:02:17Z</time>
      </trkpt>
      <trkpt lat="45.57105" lon="5.99319">
        <ele>661.04</ele>
        <time>2011-10-23T13:02:19Z</time>
      </trkpt>
      <trkpt lat="45.57102" lon="5.99321">
        <ele>660.56</ele>
        <time>2011-10-23T13:02:20Z</time>
      </trkpt>
      <trkpt lat="45.57095" lon="5.99326">
        <ele>660.56</ele>
        <time>2011-10-23T13:02:22Z</time>
      </trkpt>
      <trkpt lat="45.5709" lon="5.99329">
        <ele>660.08</ele>
        <time>2011-10-23T13:02:23Z</time>
      </trkpt>
      <trkpt lat="45.57086" lon="5.9933">
        <ele>660.08</ele>
        <time>2011-10-23T13:02:24Z</time>
      </trkpt>
      <trkpt lat="45.57067" lon="5.99334">
        <ele>660.56</ele>
        <time>2011-10-23T13:02:28Z</time>
      </trkpt>
      <trkpt lat="45.57049" lon="5.99332">
        <ele>661.52</ele>
        <time>2011-10-23T13:02:32Z</time>
      </trkpt>
      <trkpt lat="45.57046" lon="5.99331">
        <ele>661.52</ele>
        <time>2011-10-23T13:02:33Z</time>
      </trkpt>
      <trkpt lat="45.57015" lon="5.99311">
        <ele>661.52</ele>
        <time>2011-10-23T13:02:41Z</time>
      </trkpt>
      <trkpt lat="45.57011" lon="5.99309">
        <ele>661.52</ele>
        <time>2011-10-23T13:02:42Z</time>
      </trkpt>
      <trkpt lat="45.56974" lon="5.99279">
        <ele>662.49</ele>
        <time>2011-10-23T13:02:53Z</time>
      </trkpt>
      <trkpt lat="45.56952" lon="5.99266">
        <ele>664.89</ele>
        <time>2011-10-23T13:02:59Z</time>
      </trkpt>
      <trkpt lat="45.56932" lon="5.99259">
        <ele>665.37</ele>
        <time>2011-10-23T13:03:07Z</time>
      </trkpt>
      <trkpt lat="45.56908" lon="5.99283">
        <ele>662.97</ele>
        <time>2011-10-23T13:03:16Z</time>
      </trkpt>
      <trkpt lat="45.56876" lon="5.99313">
        <ele>662.49</ele>
        <time>2011-10-23T13:03:28Z</time>
      </trkpt>
      <trkpt lat="45.56873" lon="5.99317">
        <ele>662.01</ele>
        <time>2011-10-23T13:03:37Z</time>
      </trkpt>
      <trkpt lat="45.56871" lon="5.99318">
        <ele>662.01</ele>
        <time>2011-10-23T13:03:38Z</time>
      </trkpt>
      <trkpt lat="45.56836" lon="5.99335">
        <ele>660.56</ele>
        <time>2011-10-23T13:03:49Z</time>
      </trkpt>
      <trkpt lat="45.56795" lon="5.99348">
        <ele>661.04</ele>
        <time>2011-10-23T13:03:58Z</time>
      </trkpt>
      <trkpt lat="45.56791" lon="5.99348">
        <ele>661.52</ele>
        <time>2011-10-23T13:03:59Z</time>
      </trkpt>
      <trkpt lat="45.56786" lon="5.99347">
        <ele>661.52</ele>
        <time>2011-10-23T13:04:00Z</time>
      </trkpt>
      <trkpt lat="45.56783" lon="5.99346">
        <ele>662.01</ele>
        <time>2011-10-23T13:04:01Z</time>
      </trkpt>
      <trkpt lat="45.5678" lon="5.99345">
        <ele>662.01</ele>
        <time>2011-10-23T13:04:02Z</time>
      </trkpt>
      <trkpt lat="45.56733" lon="5.99341">
        <ele>663.93</ele>
        <time>2011-10-23T13:04:15Z</time>
      </trkpt>
      <trkpt lat="45.56693" lon="5.9934">
        <ele>664.89</ele>
        <time>2011-10-23T13:04:27Z</time>
      </trkpt>
      <trkpt lat="45.56668" lon="5.99341">
        <ele>667.77</ele>
        <time>2011-10-23T13:04:37Z</time>
      </trkpt>
      <trkpt lat="45.5664" lon="5.99338">
        <ele>670.66</ele>
        <time>2011-10-23T13:04:49Z</time>
      </trkpt>
      <trkpt lat="45.56608" lon="5.99337">
        <ele>672.1</ele>
        <time>2011-10-23T13:05:02Z</time>
      </trkpt>
      <trkpt lat="45.56567" lon="5.99334">
        <ele>674.5</ele>
        <time>2011-10-23T13:05:17Z</time>
      </trkpt>
      <trkpt lat="45.56541" lon="5.99326">
        <ele>676.42</ele>
        <time>2011-10-23T13:05:28Z</time>
      </trkpt>
      <trkpt lat="45.56512" lon="5.99331">
        <ele>679.31</ele>
        <time>2011-10-23T13:05:43Z</time>
      </trkpt>
      <trkpt lat="45.56479" lon="5.99341">
        <ele>677.87</ele>
        <time>2011-10-23T13:05:56Z</time>
      </trkpt>
      <trkpt lat="45.56475" lon="5.99345">
        <ele>677.39</ele>
        <time>2011-10-23T13:05:57Z</time>
      </trkpt>
      <trkpt lat="45.56467" lon="5.99353">
        <ele>677.39</ele>
        <time>2011-10-23T13:05:59Z</time>
      </trkpt>
      <trkpt lat="45.5644" lon="5.99371">
        <ele>679.79</ele>
        <time>2011-10-23T13:06:10Z</time>
      </trkpt>
      <trkpt lat="45.56414" lon="5.99379">
        <ele>679.79</ele>
        <time>2011-10-23T13:06:22Z</time>
      </trkpt>
      <trkpt lat="45.5639" lon="5.99393">
        <ele>679.31</ele>
        <time>2011-10-23T13:06:34Z</time>
      </trkpt>
      <trkpt lat="45.56361" lon="5.9941">
        <ele>678.83</ele>
        <time>2011-10-23T13:06:44Z</time>
      </trkpt>
      <trkpt lat="45.56347" lon="5.99422">
        <ele>677.39</ele>
        <time>2011-10-23T13:06:48Z</time>
      </trkpt>
      <trkpt lat="45.5633" lon="5.99435">
        <ele>676.42</ele>
        <time>2011-10-23T13:06:52Z</time>
      </trkpt>
      <trkpt lat="45.56306" lon="5.9945">
        <ele>672.58</ele>
        <time>2011-10-23T13:06:59Z</time>
      </trkpt>
      <trkpt lat="45.56295" lon="5.99454">
        <ele>671.62</ele>
        <time>2011-10-23T13:07:01Z</time>
      </trkpt>
      <trkpt lat="45.56268" lon="5.9947">
        <ele>667.77</ele>
        <time>2011-10-23T13:07:06Z</time>
      </trkpt>
      <trkpt lat="45.56251" lon="5.99481">
        <ele>666.33</ele>
        <time>2011-10-23T13:07:09Z</time>
      </trkpt>
      <trkpt lat="45.56227" lon="5.99496">
        <ele>665.37</ele>
        <time>2011-10-23T13:07:14Z</time>
      </trkpt>
      <trkpt lat="45.56212" lon="5.99505">
        <ele>662.01</ele>
        <time>2011-10-23T13:07:18Z</time>
      </trkpt>
      <trkpt lat="45.562" lon="5.99516">
        <ele>658.64</ele>
        <time>2011-10-23T13:07:24Z</time>
      </trkpt>
      <trkpt lat="45.56199" lon="5.99517">
        <ele>658.16</ele>
        <time>2011-10-23T13:07:25Z</time>
      </trkpt>
      <trkpt lat="45.56199" lon="5.99518">
        <ele>658.16</ele>
        <time>2011-10-23T13:07:43Z</time>
      </trkpt>
      <trkpt lat="45.56198" lon="5.99521">
        <ele>657.68</ele>
        <time>2011-10-23T13:08:01Z</time>
      </trkpt>
      <trkpt lat="45.56198" lon="5.99523">
        <ele>657.2</ele>
        <time>2011-10-23T13:08:06Z</time>
      </trkpt>
      <trkpt lat="45.56197" lon="5.99527">
        <ele>656.72</ele>
        <time>2011-10-23T13:08:07Z</time>
      </trkpt>
      <trkpt lat="45.56197" lon="5.99532">
        <ele>656.24</ele>
        <time>2011-10-23T13:08:08Z</time>
      </trkpt>
      <trkpt lat="45.56197" lon="5.99537">
        <ele>655.28</ele>
        <time>2011-10-23T13:08:09Z</time>
      </trkpt>
      <trkpt lat="45.56197" lon="5.99543">
        <ele>654.31</ele>
        <time>2011-10-23T13:08:10Z</time>
      </trkpt>
      <trkpt lat="45.56198" lon="5.99549">
        <ele>653.35</ele>
        <time>2011-10-23T13:08:11Z</time>
      </trkpt>
      <trkpt lat="45.56199" lon="5.99557">
        <ele>652.39</ele>
        <time>2011-10-23T13:08:12Z</time>
      </trkpt>
      <trkpt lat="45.56199" lon="5.99565">
        <ele>651.91</ele>
        <time>2011-10-23T13:08:13Z</time>
      </trkpt>
      <trkpt lat="45.56198" lon="5.99573">
        <ele>651.43</ele>
        <time>2011-10-23T13:08:14Z</time>
      </trkpt>
      <trkpt lat="45.56196" lon="5.99581">
        <ele>651.43</ele>
        <time>2011-10-23T13:08:15Z</time>
      </trkpt>
      <trkpt lat="45.56193" lon="5.99587">
        <ele>651.43</ele>
        <time>2011-10-23T13:08:16Z</time>
      </trkpt>
      <trkpt lat="45.5619" lon="5.99592">
        <ele>650.95</ele>
        <time>2011-10-23T13:08:17Z</time>
      </trkpt>
      <trkpt lat="45.56186" lon="5.99609">
        <ele>648.55</ele>
        <time>2011-10-23T13:08:20Z</time>
      </trkpt>
      <trkpt lat="45.56186" lon="5.99633">
        <ele>645.66</ele>
        <time>2011-10-23T13:08:23Z</time>
      </trkpt>
      <trkpt lat="45.56183" lon="5.9965">
        <ele>644.22</ele>
        <time>2011-10-23T13:08:26Z</time>
      </trkpt>
      <trkpt lat="45.56176" lon="5.99661">
        <ele>640.86</ele>
        <time>2011-10-23T13:08:29Z</time>
      </trkpt>
      <trkpt lat="45.56173" lon="5.99667">
        <ele>639.41</ele>
        <time>2011-10-23T13:08:30Z</time>
      </trkpt>
      <trkpt lat="45.56169" lon="5.99672">
        <ele>638.45</ele>
        <time>2011-10-23T13:08:31Z</time>
      </trkpt>
      <trkpt lat="45.56165" lon="5.99676">
        <ele>636.53</ele>
        <time>2011-10-23T13:08:32Z</time>
      </trkpt>
      <trkpt lat="45.5616" lon="5.9968">
        <ele>635.09</ele>
        <time>2011-10-23T13:08:33Z</time>
      </trkpt>
      <trkpt lat="45.56154" lon="5.99682">
        <ele>633.17</ele>
        <time>2011-10-23T13:08:34Z</time>
      </trkpt>
      <trkpt lat="45.56148" lon="5.99684">
        <ele>633.17</ele>
        <time>2011-10-23T13:08:35Z</time>
      </trkpt>
      <trkpt lat="45.56138" lon="5.99688">
        <ele>630.28</ele>
        <time>2011-10-23T13:08:37Z</time>
      </trkpt>
      <trkpt lat="45.56135" lon="5.99689">
        <ele>628.84</ele>
        <time>2011-10-23T13:08:38Z</time>
      </trkpt>
      <trkpt lat="45.56132" lon="5.9969">
        <ele>627.88</ele>
        <time>2011-10-23T13:08:39Z</time>
      </trkpt>
      <trkpt lat="45.56129" lon="5.99694">
        <ele>627.4</ele>
        <time>2011-10-23T13:08:40Z</time>
      </trkpt>
      <trkpt lat="45.56126" lon="5.99699">
        <ele>626.92</ele>
        <time>2011-10-23T13:08:41Z</time>
      </trkpt>
      <trkpt lat="45.56123" lon="5.99705">
        <ele>625.96</ele>
        <time>2011-10-23T13:08:42Z</time>
      </trkpt>
      <trkpt lat="45.5612" lon="5.99711">
        <ele>625.47</ele>
        <time>2011-10-23T13:08:43Z</time>
      </trkpt>
      <trkpt lat="45.56116" lon="5.99716">
        <ele>625.47</ele>
        <time>2011-10-23T13:08:44Z</time>
      </trkpt>
      <trkpt lat="45.56112" lon="5.9972">
        <ele>624.99</ele>
        <time>2011-10-23T13:08:45Z</time>
      </trkpt>
      <trkpt lat="45.56106" lon="5.99721">
        <ele>624.03</ele>
        <time>2011-10-23T13:08:46Z</time>
      </trkpt>
      <trkpt lat="45.56101" lon="5.99721">
        <ele>624.03</ele>
        <time>2011-10-23T13:08:47Z</time>
      </trkpt>
      <trkpt lat="45.56096" lon="5.99719">
        <ele>624.03</ele>
        <time>2011-10-23T13:08:48Z</time>
      </trkpt>
      <trkpt lat="45.56091" lon="5.99718">
        <ele>624.51</ele>
        <time>2011-10-23T13:08:49Z</time>
      </trkpt>
      <trkpt lat="45.56075" lon="5.99712">
        <ele>627.4</ele>
        <time>2011-10-23T13:08:56Z</time>
      </trkpt>
      <trkpt lat="45.56057" lon="5.99702">
        <ele>630.76</ele>
        <time>2011-10-23T13:09:05Z</time>
      </trkpt>
      <trkpt lat="45.56056" lon="5.99702">
        <ele>630.76</ele>
        <time>2011-10-23T13:09:06Z</time>
      </trkpt>
      <trkpt lat="45.56054" lon="5.99703">
        <ele>630.28</ele>
        <time>2011-10-23T13:09:07Z</time>
      </trkpt>
      <trkpt lat="45.56048" lon="5.99715">
        <ele>629.8</ele>
        <time>2011-10-23T13:09:10Z</time>
      </trkpt>
      <trkpt lat="45.56044" lon="5.99727">
        <ele>629.32</ele>
        <time>2011-10-23T13:09:12Z</time>
      </trkpt>
      <trkpt lat="45.56041" lon="5.99732">
        <ele>629.32</ele>
        <time>2011-10-23T13:09:13Z</time>
      </trkpt>
      <trkpt lat="45.56038" lon="5.99737">
        <ele>629.32</ele>
        <time>2011-10-23T13:09:14Z</time>
      </trkpt>
      <trkpt lat="45.56025" lon="5.9975">
        <ele>628.36</ele>
        <time>2011-10-23T13:09:18Z</time>
      </trkpt>
      <trkpt lat="45.5602" lon="5.99751">
        <ele>627.4</ele>
        <time>2011-10-23T13:09:19Z</time>
      </trkpt>
      <trkpt lat="45.56016" lon="5.99751">
        <ele>627.4</ele>
        <time>2011-10-23T13:09:20Z</time>
      </trkpt>
      <trkpt lat="45.56012" lon="5.9975">
        <ele>625.96</ele>
        <time>2011-10-23T13:09:21Z</time>
      </trkpt>
      <trkpt lat="45.56009" lon="5.99749">
        <ele>625.47</ele>
        <time>2011-10-23T13:09:22Z</time>
      </trkpt>
      <trkpt lat="45.56006" lon="5.99749">
        <ele>625.47</ele>
        <time>2011-10-23T13:09:23Z</time>
      </trkpt>
      <trkpt lat="45.56003" lon="5.99749">
        <ele>624.99</ele>
        <time>2011-10-23T13:09:24Z</time>
      </trkpt>
      <trkpt lat="45.56" lon="5.99749">
        <ele>624.99</ele>
        <time>2011-10-23T13:09:25Z</time>
      </trkpt>
      <trkpt lat="45.5598" lon="5.99751">
        <ele>623.55</ele>
        <time>2011-10-23T13:09:30Z</time>
      </trkpt>
      <trkpt lat="45.5597" lon="5.9975">
        <ele>624.03</ele>
        <time>2011-10-23T13:09:32Z</time>
      </trkpt>
      <trkpt lat="45.5593" lon="5.9974">
        <ele>620.19</ele>
        <time>2011-10-23T13:09:40Z</time>
      </trkpt>
      <trkpt lat="45.55926" lon="5.99739">
        <ele>620.19</ele>
        <time>2011-10-23T13:09:41Z</time>
      </trkpt>
      <trkpt lat="45.55921" lon="5.99737">
        <ele>619.71</ele>
        <time>2011-10-23T13:09:42Z</time>
      </trkpt>
      <trkpt lat="45.55915" lon="5.99736">
        <ele>618.75</ele>
        <time>2011-10-23T13:09:43Z</time>
      </trkpt>
      <trkpt lat="45.5591" lon="5.99735">
        <ele>618.26</ele>
        <time>2011-10-23T13:09:44Z</time>
      </trkpt>
      <trkpt lat="45.55904" lon="5.99733">
        <ele>618.26</ele>
        <time>2011-10-23T13:09:45Z</time>
      </trkpt>
      <trkpt lat="45.55897" lon="5.99732">
        <ele>617.78</ele>
        <time>2011-10-23T13:09:46Z</time>
      </trkpt>
      <trkpt lat="45.55891" lon="5.99731">
        <ele>617.3</ele>
        <time>2011-10-23T13:09:47Z</time>
      </trkpt>
      <trkpt lat="45.55884" lon="5.99731">
        <ele>617.3</ele>
        <time>2011-10-23T13:09:48Z</time>
      </trkpt>
      <trkpt lat="45.5584" lon="5.99729">
        <ele>617.78</ele>
        <time>2011-10-23T13:09:58Z</time>
      </trkpt>
      <trkpt lat="45.55809" lon="5.99729">
        <ele>618.75</ele>
        <time>2011-10-23T13:10:11Z</time>
      </trkpt>
      <trkpt lat="45.55796" lon="5.9973">
        <ele>619.23</ele>
        <time>2011-10-23T13:10:16Z</time>
      </trkpt>
      <trkpt lat="45.55772" lon="5.99741">
        <ele>621.15</ele>
        <time>2011-10-23T13:10:27Z</time>
      </trkpt>
      <trkpt lat="45.55757" lon="5.99751">
        <ele>622.59</ele>
        <time>2011-10-23T13:10:36Z</time>
      </trkpt>
      <trkpt lat="45.5576" lon="5.99782">
        <ele>625.96</ele>
        <time>2011-10-23T13:10:48Z</time>
      </trkpt>
      <trkpt lat="45.55761" lon="5.99782">
        <ele>625.47</ele>
        <time>2011-10-23T13:10:59Z</time>
      </trkpt>
      <trkpt lat="45.55761" lon="5.99782">
        <ele>625.96</ele>
        <time>2011-10-23T13:11:29Z</time>
      </trkpt>
      <trkpt lat="45.55761" lon="5.99782">
        <ele>625.96</ele>
        <time>2011-10-23T13:11:55Z</time>
      </trkpt>
      <trkpt lat="45.55761" lon="5.99782">
        <ele>625.96</ele>
        <time>2011-10-23T13:12:29Z</time>
      </trkpt>
      <trkpt lat="45.55761" lon="5.99782">
        <ele>625.96</ele>
        <time>2011-10-23T13:13:04Z</time>
      </trkpt>
      <trkpt lat="45.55761" lon="5.99782">
        <ele>626.44</ele>
        <time>2011-10-23T13:13:30Z</time>
      </trkpt>
      <trkpt lat="45.55761" lon="5.99782">
        <ele>626.44</ele>
        <time>2011-10-23T13:13:33Z</time>
      </trkpt>
      <trkpt lat="45.55766" lon="5.99794">
        <ele>628.36</ele>
        <time>2011-10-23T13:13:43Z</time>
      </trkpt>
      <trkpt lat="45.5575" lon="5.99821">
        <ele>630.28</ele>
        <time>2011-10-23T13:13:56Z</time>
      </trkpt>
      <trkpt lat="45.55727" lon="5.99845">
        <ele>632.2</ele>
        <time>2011-10-23T13:14:10Z</time>
      </trkpt>
      <trkpt lat="45.55702" lon="5.99845">
        <ele>635.09</ele>
        <time>2011-10-23T13:14:22Z</time>
      </trkpt>
      <trkpt lat="45.55673" lon="5.99839">
        <ele>637.97</ele>
        <time>2011-10-23T13:14:36Z</time>
      </trkpt>
      <trkpt lat="45.55658" lon="5.99831">
        <ele>638.93</ele>
        <time>2011-10-23T13:14:44Z</time>
      </trkpt>
      <trkpt lat="45.55655" lon="5.99838">
        <ele>639.41</ele>
        <time>2011-10-23T13:14:49Z</time>
      </trkpt>
      <trkpt lat="45.55679" lon="5.9985">
        <ele>642.3</ele>
        <time>2011-10-23T13:15:03Z</time>
      </trkpt>
      <trkpt lat="45.55694" lon="5.99862">
        <ele>645.18</ele>
        <time>2011-10-23T13:15:15Z</time>
      </trkpt>
      <trkpt lat="45.55711" lon="5.99874">
        <ele>648.07</ele>
        <time>2011-10-23T13:15:28Z</time>
      </trkpt>
      <trkpt lat="45.55736" lon="5.99899">
        <ele>650.47</ele>
        <time>2011-10-23T13:15:43Z</time>
      </trkpt>
      <trkpt lat="45.55744" lon="5.99907">
        <ele>651.91</ele>
        <time>2011-10-23T13:15:48Z</time>
      </trkpt>
      <trkpt lat="45.55766" lon="5.99915">
        <ele>655.28</ele>
        <time>2011-10-23T13:16:02Z</time>
      </trkpt>
      <trkpt lat="45.55786" lon="5.99918">
        <ele>656.72</ele>
        <time>2011-10-23T13:16:14Z</time>
      </trkpt>
      <trkpt lat="45.55797" lon="5.99918">
        <ele>658.16</ele>
        <time>2011-10-23T13:16:20Z</time>
      </trkpt>
      <trkpt lat="45.55814" lon="5.9992">
        <ele>660.56</ele>
        <time>2011-10-23T13:16:31Z</time>
      </trkpt>
      <trkpt lat="45.55826" lon="5.99923">
        <ele>661.52</ele>
        <time>2011-10-23T13:16:38Z</time>
      </trkpt>
      <trkpt lat="45.55855" lon="5.99937">
        <ele>664.41</ele>
        <time>2011-10-23T13:16:54Z</time>
      </trkpt>
      <trkpt lat="45.5587" lon="5.9994">
        <ele>666.81</ele>
        <time>2011-10-23T13:17:03Z</time>
      </trkpt>
      <trkpt lat="45.55896" lon="5.9995">
        <ele>669.22</ele>
        <time>2011-10-23T13:17:19Z</time>
      </trkpt>
      <trkpt lat="45.55915" lon="5.99954">
        <ele>671.14</ele>
        <time>2011-10-23T13:17:30Z</time>
      </trkpt>
      <trkpt lat="45.55936" lon="5.99957">
        <ele>673.54</ele>
        <time>2011-10-23T13:17:42Z</time>
      </trkpt>
      <trkpt lat="45.55961" lon="5.99959">
        <ele>675.46</ele>
        <time>2011-10-23T13:17:55Z</time>
      </trkpt>
      <trkpt lat="45.55983" lon="5.99958">
        <ele>678.35</ele>
        <time>2011-10-23T13:18:07Z</time>
      </trkpt>
      <trkpt lat="45.56014" lon="5.99951">
        <ele>681.71</ele>
        <time>2011-10-23T13:18:23Z</time>
      </trkpt>
      <trkpt lat="45.56043" lon="5.99941">
        <ele>684.6</ele>
        <time>2011-10-23T13:18:39Z</time>
      </trkpt>
      <trkpt lat="45.56068" lon="5.9993">
        <ele>687.48</ele>
        <time>2011-10-23T13:18:53Z</time>
      </trkpt>
      <trkpt lat="45.56076" lon="5.99924">
        <ele>687.96</ele>
        <time>2011-10-23T13:18:58Z</time>
      </trkpt>
      <trkpt lat="45.56074" lon="5.99937">
        <ele>689.88</ele>
        <time>2011-10-23T13:19:08Z</time>
      </trkpt>
      <trkpt lat="45.56054" lon="5.99959">
        <ele>692.29</ele>
        <time>2011-10-23T13:19:23Z</time>
      </trkpt>
      <trkpt lat="45.56036" lon="5.99989">
        <ele>695.17</ele>
        <time>2011-10-23T13:19:38Z</time>
      </trkpt>
      <trkpt lat="45.56018" lon="6.00017">
        <ele>697.57</ele>
        <time>2011-10-23T13:19:52Z</time>
      </trkpt>
      <trkpt lat="45.55999" lon="6.00038">
        <ele>700.94</ele>
        <time>2011-10-23T13:20:06Z</time>
      </trkpt>
      <trkpt lat="45.55983" lon="6.00055">
        <ele>702.86</ele>
        <time>2011-10-23T13:20:19Z</time>
      </trkpt>
      <trkpt lat="45.5598" lon="6.00055">
        <ele>703.34</ele>
        <time>2011-10-23T13:20:33Z</time>
      </trkpt>
      <trkpt lat="45.55977" lon="6.0006">
        <ele>704.3</ele>
        <time>2011-10-23T13:20:46Z</time>
      </trkpt>
      <trkpt lat="45.55977" lon="6.0006">
        <ele>704.78</ele>
        <time>2011-10-23T13:20:49Z</time>
      </trkpt>
      <trkpt lat="45.5597" lon="6.00061">
        <ele>705.75</ele>
        <time>2011-10-23T13:20:53Z</time>
      </trkpt>
      <trkpt lat="45.55959" lon="6.00064">
        <ele>706.23</ele>
        <time>2011-10-23T13:20:59Z</time>
      </trkpt>
      <trkpt lat="45.55961" lon="6.0007">
        <ele>707.19</ele>
        <time>2011-10-23T13:21:11Z</time>
      </trkpt>
      <trkpt lat="45.55979" lon="6.00071">
        <ele>709.11</ele>
        <time>2011-10-23T13:21:23Z</time>
      </trkpt>
      <trkpt lat="45.55982" lon="6.0007">
        <ele>709.59</ele>
        <time>2011-10-23T13:21:36Z</time>
      </trkpt>
      <trkpt lat="45.55995" lon="6.0007">
        <ele>710.55</ele>
        <time>2011-10-23T13:21:44Z</time>
      </trkpt>
      <trkpt lat="45.5602" lon="6.00068">
        <ele>713.92</ele>
        <time>2011-10-23T13:21:57Z</time>
      </trkpt>
      <trkpt lat="45.56041" lon="6.00055">
        <ele>716.8</ele>
        <time>2011-10-23T13:22:10Z</time>
      </trkpt>
      <trkpt lat="45.56061" lon="6.00032">
        <ele>719.2</ele>
        <time>2011-10-23T13:22:24Z</time>
      </trkpt>
      <trkpt lat="45.56077" lon="6.00015">
        <ele>722.09</ele>
        <time>2011-10-23T13:22:35Z</time>
      </trkpt>
      <trkpt lat="45.561" lon="6.00012">
        <ele>724.97</ele>
        <time>2011-10-23T13:22:48Z</time>
      </trkpt>
      <trkpt lat="45.5612" lon="6.0001">
        <ele>727.37</ele>
        <time>2011-10-23T13:23:01Z</time>
      </trkpt>
      <trkpt lat="45.56142" lon="5.99994">
        <ele>730.26</ele>
        <time>2011-10-23T13:23:15Z</time>
      </trkpt>
      <trkpt lat="45.56159" lon="5.99971">
        <ele>733.62</ele>
        <time>2011-10-23T13:23:29Z</time>
      </trkpt>
      <trkpt lat="45.56175" lon="5.99942">
        <ele>736.51</ele>
        <time>2011-10-23T13:23:44Z</time>
      </trkpt>
      <trkpt lat="45.56192" lon="5.99911">
        <ele>738.91</ele>
        <time>2011-10-23T13:24:00Z</time>
      </trkpt>
      <trkpt lat="45.56206" lon="5.99891">
        <ele>742.28</ele>
        <time>2011-10-23T13:24:12Z</time>
      </trkpt>
      <trkpt lat="45.56225" lon="5.99864">
        <ele>745.16</ele>
        <time>2011-10-23T13:24:28Z</time>
      </trkpt>
      <trkpt lat="45.56241" lon="5.9983">
        <ele>747.56</ele>
        <time>2011-10-23T13:24:44Z</time>
      </trkpt>
      <trkpt lat="45.56242" lon="5.99826">
        <ele>748.52</ele>
        <time>2011-10-23T13:24:46Z</time>
      </trkpt>
      <trkpt lat="45.56257" lon="5.99797">
        <ele>751.89</ele>
        <time>2011-10-23T13:25:01Z</time>
      </trkpt>
      <trkpt lat="45.56262" lon="5.99791">
        <ele>752.85</ele>
        <time>2011-10-23T13:25:05Z</time>
      </trkpt>
      <trkpt lat="45.56269" lon="5.9979">
        <ele>753.33</ele>
        <time>2011-10-23T13:25:19Z</time>
      </trkpt>
      <trkpt lat="45.56269" lon="5.9979">
        <ele>753.33</ele>
        <time>2011-10-23T13:25:53Z</time>
      </trkpt>
      <trkpt lat="45.56269" lon="5.99791">
        <ele>753.33</ele>
        <time>2011-10-23T13:26:36Z</time>
      </trkpt>
      <trkpt lat="45.56269" lon="5.99791">
        <ele>753.33</ele>
        <time>2011-10-23T13:27:17Z</time>
      </trkpt>
      <trkpt lat="45.56269" lon="5.99791">
        <ele>753.33</ele>
        <time>2011-10-23T13:27:49Z</time>
      </trkpt>
      <trkpt lat="45.56269" lon="5.99791">
        <ele>753.81</ele>
        <time>2011-10-23T13:28:18Z</time>
      </trkpt>
      <trkpt lat="45.56269" lon="5.99791">
        <ele>753.81</ele>
        <time>2011-10-23T13:28:47Z</time>
      </trkpt>
      <trkpt lat="45.56273" lon="5.9979">
        <ele>754.29</ele>
        <time>2011-10-23T13:29:20Z</time>
      </trkpt>
      <trkpt lat="45.56276" lon="5.99791">
        <ele>754.29</ele>
        <time>2011-10-23T13:29:23Z</time>
      </trkpt>
      <trkpt lat="45.56283" lon="5.99792">
        <ele>755.25</ele>
        <time>2011-10-23T13:29:28Z</time>
      </trkpt>
      <trkpt lat="45.56288" lon="5.99794">
        <ele>755.25</ele>
        <time>2011-10-23T13:29:33Z</time>
      </trkpt>
      <trkpt lat="45.56316" lon="5.99819">
        <ele>756.69</ele>
        <time>2011-10-23T13:29:48Z</time>
      </trkpt>
      <trkpt lat="45.56335" lon="5.99838">
        <ele>757.66</ele>
        <time>2011-10-23T13:29:58Z</time>
      </trkpt>
      <trkpt lat="45.5637" lon="5.99845">
        <ele>759.58</ele>
        <time>2011-10-23T13:30:14Z</time>
      </trkpt>
      <trkpt lat="45.56376" lon="5.99849">
        <ele>760.54</ele>
        <time>2011-10-23T13:30:17Z</time>
      </trkpt>
      <trkpt lat="45.56363" lon="5.99868">
        <ele>762.46</ele>
        <time>2011-10-23T13:30:27Z</time>
      </trkpt>
      <trkpt lat="45.56358" lon="5.99867">
        <ele>762.94</ele>
        <time>2011-10-23T13:30:29Z</time>
      </trkpt>
      <trkpt lat="45.56325" lon="5.99865">
        <ele>765.35</ele>
        <time>2011-10-23T13:30:43Z</time>
      </trkpt>
      <trkpt lat="45.56296" lon="5.99866">
        <ele>767.75</ele>
        <time>2011-10-23T13:30:57Z</time>
      </trkpt>
      <trkpt lat="45.56267" lon="5.9987">
        <ele>770.63</ele>
        <time>2011-10-23T13:31:11Z</time>
      </trkpt>
      <trkpt lat="45.56247" lon="5.999">
        <ele>772.56</ele>
        <time>2011-10-23T13:31:25Z</time>
      </trkpt>
      <trkpt lat="45.56226" lon="5.99949">
        <ele>771.6</ele>
        <time>2011-10-23T13:31:39Z</time>
      </trkpt>
      <trkpt lat="45.56213" lon="6.00022">
        <ele>773.04</ele>
        <time>2011-10-23T13:31:55Z</time>
      </trkpt>
      <trkpt lat="45.56205" lon="6.00064">
        <ele>773.04</ele>
        <time>2011-10-23T13:32:03Z</time>
      </trkpt>
      <trkpt lat="45.56195" lon="6.00112">
        <ele>770.15</ele>
        <time>2011-10-23T13:32:09Z</time>
      </trkpt>
      <trkpt lat="45.56193" lon="6.00121">
        <ele>769.67</ele>
        <time>2011-10-23T13:32:10Z</time>
      </trkpt>
      <trkpt lat="45.56191" lon="6.0014">
        <ele>769.19</ele>
        <time>2011-10-23T13:32:12Z</time>
      </trkpt>
      <trkpt lat="45.56191" lon="6.00151">
        <ele>769.19</ele>
        <time>2011-10-23T13:32:13Z</time>
      </trkpt>
      <trkpt lat="45.56189" lon="6.00161">
        <ele>769.19</ele>
        <time>2011-10-23T13:32:14Z</time>
      </trkpt>
      <trkpt lat="45.56186" lon="6.00189">
        <ele>768.71</ele>
        <time>2011-10-23T13:32:17Z</time>
      </trkpt>
      <trkpt lat="45.56186" lon="6.00199">
        <ele>768.71</ele>
        <time>2011-10-23T13:32:18Z</time>
      </trkpt>
      <trkpt lat="45.56187" lon="6.00208">
        <ele>768.71</ele>
        <time>2011-10-23T13:32:19Z</time>
      </trkpt>
      <trkpt lat="45.56191" lon="6.00225">
        <ele>767.75</ele>
        <time>2011-10-23T13:32:21Z</time>
      </trkpt>
      <trkpt lat="45.56193" lon="6.00234">
        <ele>768.23</ele>
        <time>2011-10-23T13:32:22Z</time>
      </trkpt>
      <trkpt lat="45.56199" lon="6.00267">
        <ele>765.35</ele>
        <time>2011-10-23T13:32:26Z</time>
      </trkpt>
      <trkpt lat="45.56205" lon="6.00285">
        <ele>764.87</ele>
        <time>2011-10-23T13:32:28Z</time>
      </trkpt>
      <trkpt lat="45.56209" lon="6.00302">
        <ele>762.94</ele>
        <time>2011-10-23T13:32:30Z</time>
      </trkpt>
      <trkpt lat="45.56212" lon="6.00309">
        <ele>761.98</ele>
        <time>2011-10-23T13:32:31Z</time>
      </trkpt>
      <trkpt lat="45.56216" lon="6.00317">
        <ele>761.5</ele>
        <time>2011-10-23T13:32:32Z</time>
      </trkpt>
      <trkpt lat="45.56221" lon="6.00324">
        <ele>761.5</ele>
        <time>2011-10-23T13:32:33Z</time>
      </trkpt>
      <trkpt lat="45.56226" lon="6.0033">
        <ele>761.02</ele>
        <time>2011-10-23T13:32:34Z</time>
      </trkpt>
      <trkpt lat="45.56231" lon="6.00337">
        <ele>760.06</ele>
        <time>2011-10-23T13:32:35Z</time>
      </trkpt>
      <trkpt lat="45.56246" lon="6.00358">
        <ele>759.58</ele>
        <time>2011-10-23T13:32:38Z</time>
      </trkpt>
      <trkpt lat="45.5625" lon="6.00365">
        <ele>759.58</ele>
        <time>2011-10-23T13:32:39Z</time>
      </trkpt>
      <trkpt lat="45.56255" lon="6.00372">
        <ele>759.1</ele>
        <time>2011-10-23T13:32:40Z</time>
      </trkpt>
      <trkpt lat="45.56258" lon="6.00376">
        <ele>759.1</ele>
        <time>2011-10-23T13:32:41Z</time>
      </trkpt>
      <trkpt lat="45.5626" lon="6.00379">
        <ele>758.62</ele>
        <time>2011-10-23T13:32:42Z</time>
      </trkpt>
      <trkpt lat="45.56262" lon="6.00381">
        <ele>758.14</ele>
        <time>2011-10-23T13:32:43Z</time>
      </trkpt>
      <trkpt lat="45.56263" lon="6.00381">
        <ele>758.14</ele>
        <time>2011-10-23T13:32:44Z</time>
      </trkpt>
      <trkpt lat="45.56265" lon="6.00381">
        <ele>758.14</ele>
        <time>2011-10-23T13:32:45Z</time>
      </trkpt>
      <trkpt lat="45.56266" lon="6.00382">
        <ele>758.14</ele>
        <time>2011-10-23T13:32:46Z</time>
      </trkpt>
      <trkpt lat="45.56267" lon="6.00383">
        <ele>758.62</ele>
        <time>2011-10-23T13:32:47Z</time>
      </trkpt>
      <trkpt lat="45.56269" lon="6.00385">
        <ele>758.14</ele>
        <time>2011-10-23T13:32:48Z</time>
      </trkpt>
      <trkpt lat="45.56271" lon="6.00386">
        <ele>757.66</ele>
        <time>2011-10-23T13:32:49Z</time>
      </trkpt>
      <trkpt lat="45.56295" lon="6.00407">
        <ele>755.73</ele>
        <time>2011-10-23T13:32:59Z</time>
      </trkpt>
      <trkpt lat="45.56307" lon="6.00419">
        <ele>753.33</ele>
        <time>2011-10-23T13:33:02Z</time>
      </trkpt>
      <trkpt lat="45.56316" lon="6.00428">
        <ele>752.37</ele>
        <time>2011-10-23T13:33:04Z</time>
      </trkpt>
      <trkpt lat="45.56328" lon="6.00437">
        <ele>750.93</ele>
        <time>2011-10-23T13:33:06Z</time>
      </trkpt>
      <trkpt lat="45.56361" lon="6.0047">
        <ele>748.52</ele>
        <time>2011-10-23T13:33:11Z</time>
      </trkpt>
      <trkpt lat="45.56368" lon="6.00477">
        <ele>749</ele>
        <time>2011-10-23T13:33:12Z</time>
      </trkpt>
      <trkpt lat="45.56374" lon="6.00485">
        <ele>748.52</ele>
        <time>2011-10-23T13:33:13Z</time>
      </trkpt>
      <trkpt lat="45.56416" lon="6.00549">
        <ele>745.16</ele>
        <time>2011-10-23T13:33:21Z</time>
      </trkpt>
      <trkpt lat="45.56421" lon="6.00555">
        <ele>745.16</ele>
        <time>2011-10-23T13:33:22Z</time>
      </trkpt>
      <trkpt lat="45.56429" lon="6.00565">
        <ele>743.72</ele>
        <time>2011-10-23T13:33:24Z</time>
      </trkpt>
      <trkpt lat="45.56456" lon="6.00603">
        <ele>740.83</ele>
        <time>2011-10-23T13:33:30Z</time>
      </trkpt>
      <trkpt lat="45.56461" lon="6.00607">
        <ele>740.35</ele>
        <time>2011-10-23T13:33:31Z</time>
      </trkpt>
      <trkpt lat="45.5648" lon="6.00615">
        <ele>738.91</ele>
        <time>2011-10-23T13:33:35Z</time>
      </trkpt>
      <trkpt lat="45.56484" lon="6.00616">
        <ele>739.39</ele>
        <time>2011-10-23T13:33:36Z</time>
      </trkpt>
      <trkpt lat="45.56499" lon="6.00622">
        <ele>738.43</ele>
        <time>2011-10-23T13:33:39Z</time>
      </trkpt>
      <trkpt lat="45.56509" lon="6.00627">
        <ele>737.47</ele>
        <time>2011-10-23T13:33:41Z</time>
      </trkpt>
      <trkpt lat="45.56515" lon="6.0063">
        <ele>736.99</ele>
        <time>2011-10-23T13:33:42Z</time>
      </trkpt>
      <trkpt lat="45.56537" lon="6.00647">
        <ele>735.07</ele>
        <time>2011-10-23T13:33:46Z</time>
      </trkpt>
      <trkpt lat="45.56542" lon="6.00653">
        <ele>734.1</ele>
        <time>2011-10-23T13:33:47Z</time>
      </trkpt>
      <trkpt lat="45.56547" lon="6.00657">
        <ele>733.62</ele>
        <time>2011-10-23T13:33:48Z</time>
      </trkpt>
      <trkpt lat="45.56552" lon="6.00662">
        <ele>733.14</ele>
        <time>2011-10-23T13:33:49Z</time>
      </trkpt>
      <trkpt lat="45.56558" lon="6.00666">
        <ele>733.14</ele>
        <time>2011-10-23T13:33:50Z</time>
      </trkpt>
      <trkpt lat="45.5659" lon="6.00691">
        <ele>729.78</ele>
        <time>2011-10-23T13:33:55Z</time>
      </trkpt>
      <trkpt lat="45.56603" lon="6.00699">
        <ele>728.34</ele>
        <time>2011-10-23T13:33:57Z</time>
      </trkpt>
      <trkpt lat="45.5661" lon="6.00701">
        <ele>727.86</ele>
        <time>2011-10-23T13:33:58Z</time>
      </trkpt>
      <trkpt lat="45.56617" lon="6.00701">
        <ele>726.89</ele>
        <time>2011-10-23T13:33:59Z</time>
      </trkpt>
      <trkpt lat="45.56622" lon="6.007">
        <ele>725.93</ele>
        <time>2011-10-23T13:34:00Z</time>
      </trkpt>
      <trkpt lat="45.56627" lon="6.00702">
        <ele>725.93</ele>
        <time>2011-10-23T13:34:01Z</time>
      </trkpt>
      <trkpt lat="45.56629" lon="6.00707">
        <ele>725.93</ele>
        <time>2011-10-23T13:34:02Z</time>
      </trkpt>
      <trkpt lat="45.56632" lon="6.00714">
        <ele>724.97</ele>
        <time>2011-10-23T13:34:03Z</time>
      </trkpt>
      <trkpt lat="45.56634" lon="6.00722">
        <ele>724.01</ele>
        <time>2011-10-23T13:34:04Z</time>
      </trkpt>
      <trkpt lat="45.56639" lon="6.00738">
        <ele>723.05</ele>
        <time>2011-10-23T13:34:06Z</time>
      </trkpt>
      <trkpt lat="45.56643" lon="6.00743">
        <ele>721.61</ele>
        <time>2011-10-23T13:34:07Z</time>
      </trkpt>
      <trkpt lat="45.56648" lon="6.00747">
        <ele>721.61</ele>
        <time>2011-10-23T13:34:08Z</time>
      </trkpt>
      <trkpt lat="45.56652" lon="6.00751">
        <ele>721.13</ele>
        <time>2011-10-23T13:34:09Z</time>
      </trkpt>
      <trkpt lat="45.56656" lon="6.00759">
        <ele>720.16</ele>
        <time>2011-10-23T13:34:10Z</time>
      </trkpt>
      <trkpt lat="45.56659" lon="6.00768">
        <ele>719.2</ele>
        <time>2011-10-23T13:34:11Z</time>
      </trkpt>
      <trkpt lat="45.56664" lon="6.00786">
        <ele>717.76</ele>
        <time>2011-10-23T13:34:13Z</time>
      </trkpt>
      <trkpt lat="45.56664" lon="6.00795">
        <ele>716.32</ele>
        <time>2011-10-23T13:34:14Z</time>
      </trkpt>
      <trkpt lat="45.56664" lon="6.00805">
        <ele>715.84</ele>
        <time>2011-10-23T13:34:15Z</time>
      </trkpt>
      <trkpt lat="45.56662" lon="6.00813">
        <ele>715.36</ele>
        <time>2011-10-23T13:34:16Z</time>
      </trkpt>
      <trkpt lat="45.56658" lon="6.00821">
        <ele>714.88</ele>
        <time>2011-10-23T13:34:17Z</time>
      </trkpt>
      <trkpt lat="45.56654" lon="6.00829">
        <ele>713.92</ele>
        <time>2011-10-23T13:34:18Z</time>
      </trkpt>
      <trkpt lat="45.56629" lon="6.0088">
        <ele>711.51</ele>
        <time>2011-10-23T13:34:24Z</time>
      </trkpt>
      <trkpt lat="45.56591" lon="6.00947">
        <ele>709.11</ele>
        <time>2011-10-23T13:34:32Z</time>
      </trkpt>
      <trkpt lat="45.56579" lon="6.00974">
        <ele>708.15</ele>
        <time>2011-10-23T13:34:35Z</time>
      </trkpt>
      <trkpt lat="45.56576" lon="6.00983">
        <ele>708.63</ele>
        <time>2011-10-23T13:34:36Z</time>
      </trkpt>
      <trkpt lat="45.5657" lon="6.01011">
        <ele>707.67</ele>
        <time>2011-10-23T13:34:39Z</time>
      </trkpt>
      <trkpt lat="45.56565" lon="6.01026">
        <ele>707.67</ele>
        <time>2011-10-23T13:34:41Z</time>
      </trkpt>
      <trkpt lat="45.56561" lon="6.01033">
        <ele>707.67</ele>
        <time>2011-10-23T13:34:42Z</time>
      </trkpt>
      <trkpt lat="45.56521" lon="6.01104">
        <ele>708.63</ele>
        <time>2011-10-23T13:34:53Z</time>
      </trkpt>
      <trkpt lat="45.56515" lon="6.01125">
        <ele>708.63</ele>
        <time>2011-10-23T13:34:56Z</time>
      </trkpt>
      <trkpt lat="45.5651" lon="6.01142">
        <ele>709.11</ele>
        <time>2011-10-23T13:34:59Z</time>
      </trkpt>
      <trkpt lat="45.56507" lon="6.01144">
        <ele>709.59</ele>
        <time>2011-10-23T13:35:00Z</time>
      </trkpt>
      <trkpt lat="45.56504" lon="6.01145">
        <ele>709.59</ele>
        <time>2011-10-23T13:35:01Z</time>
      </trkpt>
      <trkpt lat="45.5647" lon="6.01133">
        <ele>712.47</ele>
        <time>2011-10-23T13:35:15Z</time>
      </trkpt>
      <trkpt lat="45.56455" lon="6.0111">
        <ele>715.84</ele>
        <time>2011-10-23T13:35:25Z</time>
      </trkpt>
      <trkpt lat="45.56435" lon="6.01082">
        <ele>719.2</ele>
        <time>2011-10-23T13:35:38Z</time>
      </trkpt>
      <trkpt lat="45.56415" lon="6.01053">
        <ele>722.09</ele>
        <time>2011-10-23T13:35:52Z</time>
      </trkpt>
      <trkpt lat="45.564" lon="6.01029">
        <ele>724.97</ele>
        <time>2011-10-23T13:36:06Z</time>
      </trkpt>
      <trkpt lat="45.56395" lon="6.01028">
        <ele>725.93</ele>
        <time>2011-10-23T13:36:09Z</time>
      </trkpt>
      <trkpt lat="45.56379" lon="6.01039">
        <ele>729.3</ele>
        <time>2011-10-23T13:36:23Z</time>
      </trkpt>
      <trkpt lat="45.56365" lon="6.01044">
        <ele>731.7</ele>
        <time>2011-10-23T13:36:34Z</time>
      </trkpt>
      <trkpt lat="45.56351" lon="6.01049">
        <ele>735.07</ele>
        <time>2011-10-23T13:36:46Z</time>
      </trkpt>
      <trkpt lat="45.5634" lon="6.01054">
        <ele>736.99</ele>
        <time>2011-10-23T13:36:55Z</time>
      </trkpt>
      <trkpt lat="45.56339" lon="6.01054">
        <ele>736.51</ele>
        <time>2011-10-23T13:36:56Z</time>
      </trkpt>
      <trkpt lat="45.56319" lon="6.01058">
        <ele>739.87</ele>
        <time>2011-10-23T13:37:09Z</time>
      </trkpt>
      <trkpt lat="45.56301" lon="6.01059">
        <ele>741.31</ele>
        <time>2011-10-23T13:37:21Z</time>
      </trkpt>
      <trkpt lat="45.56278" lon="6.01067">
        <ele>741.31</ele>
        <time>2011-10-23T13:37:35Z</time>
      </trkpt>
      <trkpt lat="45.56265" lon="6.01063">
        <ele>741.79</ele>
        <time>2011-10-23T13:37:40Z</time>
      </trkpt>
      <trkpt lat="45.56247" lon="6.01044">
        <ele>743.72</ele>
        <time>2011-10-23T13:37:54Z</time>
      </trkpt>
      <trkpt lat="45.56233" lon="6.01012">
        <ele>746.6</ele>
        <time>2011-10-23T13:38:08Z</time>
      </trkpt>
      <trkpt lat="45.56226" lon="6.00971">
        <ele>749.97</ele>
        <time>2011-10-23T13:38:22Z</time>
      </trkpt>
      <trkpt lat="45.56202" lon="6.00948">
        <ele>752.85</ele>
        <time>2011-10-23T13:38:36Z</time>
      </trkpt>
      <trkpt lat="45.56176" lon="6.00932">
        <ele>755.73</ele>
        <time>2011-10-23T13:38:50Z</time>
      </trkpt>
      <trkpt lat="45.56149" lon="6.00917">
        <ele>759.1</ele>
        <time>2011-10-23T13:39:04Z</time>
      </trkpt>
      <trkpt lat="45.56119" lon="6.00928">
        <ele>761.5</ele>
        <time>2011-10-23T13:39:19Z</time>
      </trkpt>
      <trkpt lat="45.56092" lon="6.0094">
        <ele>764.87</ele>
        <time>2011-10-23T13:39:32Z</time>
      </trkpt>
      <trkpt lat="45.56058" lon="6.00955">
        <ele>768.23</ele>
        <time>2011-10-23T13:39:49Z</time>
      </trkpt>
      <trkpt lat="45.56039" lon="6.00995">
        <ele>771.11</ele>
        <time>2011-10-23T13:40:04Z</time>
      </trkpt>
      <trkpt lat="45.56022" lon="6.01028">
        <ele>774.48</ele>
        <time>2011-10-23T13:40:18Z</time>
      </trkpt>
      <trkpt lat="45.56001" lon="6.01059">
        <ele>777.36</ele>
        <time>2011-10-23T13:40:32Z</time>
      </trkpt>
      <trkpt lat="45.55978" lon="6.01082">
        <ele>780.25</ele>
        <time>2011-10-23T13:40:45Z</time>
      </trkpt>
      <trkpt lat="45.55961" lon="6.0112">
        <ele>783.61</ele>
        <time>2011-10-23T13:41:00Z</time>
      </trkpt>
      <trkpt lat="45.55944" lon="6.0115">
        <ele>785.53</ele>
        <time>2011-10-23T13:41:13Z</time>
      </trkpt>
      <trkpt lat="45.55926" lon="6.01171">
        <ele>788.9</ele>
        <time>2011-10-23T13:41:24Z</time>
      </trkpt>
      <trkpt lat="45.55901" lon="6.0121">
        <ele>792.26</ele>
        <time>2011-10-23T13:41:41Z</time>
      </trkpt>
      <trkpt lat="45.55873" lon="6.01217">
        <ele>794.67</ele>
        <time>2011-10-23T13:41:55Z</time>
      </trkpt>
      <trkpt lat="45.55846" lon="6.01211">
        <ele>797.07</ele>
        <time>2011-10-23T13:42:12Z</time>
      </trkpt>
      <trkpt lat="45.55847" lon="6.01205">
        <ele>797.07</ele>
        <time>2011-10-23T13:42:15Z</time>
      </trkpt>
      <trkpt lat="45.5586" lon="6.01197">
        <ele>796.11</ele>
        <time>2011-10-23T13:42:26Z</time>
      </trkpt>
      <trkpt lat="45.55868" lon="6.01202">
        <ele>796.11</ele>
        <time>2011-10-23T13:42:32Z</time>
      </trkpt>
      <trkpt lat="45.55864" lon="6.01219">
        <ele>795.15</ele>
        <time>2011-10-23T13:42:43Z</time>
      </trkpt>
      <trkpt lat="45.55858" lon="6.01217">
        <ele>795.63</ele>
        <time>2011-10-23T13:42:47Z</time>
      </trkpt>
      <trkpt lat="45.55863" lon="6.01206">
        <ele>795.63</ele>
        <time>2011-10-23T13:42:59Z</time>
      </trkpt>
      <trkpt lat="45.55864" lon="6.01208">
        <ele>795.63</ele>
        <time>2011-10-23T13:43:00Z</time>
      </trkpt>
      <trkpt lat="45.55865" lon="6.01212">
        <ele>795.15</ele>
        <time>2011-10-23T13:43:02Z</time>
      </trkpt>
      <trkpt lat="45.55859" lon="6.01218">
        <ele>795.63</ele>
        <time>2011-10-23T13:43:09Z</time>
      </trkpt>
      <trkpt lat="45.55857" lon="6.01218">
        <ele>795.63</ele>
        <time>2011-10-23T13:43:11Z</time>
      </trkpt>
      <trkpt lat="45.55854" lon="6.01216">
        <ele>796.11</ele>
        <time>2011-10-23T13:43:14Z</time>
      </trkpt>
      <trkpt lat="45.55851" lon="6.01213">
        <ele>796.11</ele>
        <time>2011-10-23T13:43:17Z</time>
      </trkpt>
      <trkpt lat="45.5583" lon="6.01196">
        <ele>798.03</ele>
        <time>2011-10-23T13:43:33Z</time>
      </trkpt>
      <trkpt lat="45.55808" lon="6.01174">
        <ele>799.95</ele>
        <time>2011-10-23T13:43:48Z</time>
      </trkpt>
      <trkpt lat="45.55791" lon="6.01151">
        <ele>802.36</ele>
        <time>2011-10-23T13:44:01Z</time>
      </trkpt>
      <trkpt lat="45.55788" lon="6.01147">
        <ele>802.36</ele>
        <time>2011-10-23T13:44:03Z</time>
      </trkpt>
      <trkpt lat="45.55786" lon="6.01138">
        <ele>802.36</ele>
        <time>2011-10-23T13:44:07Z</time>
      </trkpt>
      <trkpt lat="45.55778" lon="6.01099">
        <ele>804.76</ele>
        <time>2011-10-23T13:44:22Z</time>
      </trkpt>
      <trkpt lat="45.55782" lon="6.0106">
        <ele>806.68</ele>
        <time>2011-10-23T13:44:36Z</time>
      </trkpt>
      <trkpt lat="45.55799" lon="6.01031">
        <ele>808.61</ele>
        <time>2011-10-23T13:44:49Z</time>
      </trkpt>
      <trkpt lat="45.55821" lon="6.01017">
        <ele>810.05</ele>
        <time>2011-10-23T13:45:03Z</time>
      </trkpt>
      <trkpt lat="45.55823" lon="6.01017">
        <ele>810.53</ele>
        <time>2011-10-23T13:45:14Z</time>
      </trkpt>
      <trkpt lat="45.55851" lon="6.01">
        <ele>812.45</ele>
        <time>2011-10-23T13:45:31Z</time>
      </trkpt>
      <trkpt lat="45.5585" lon="6.0096">
        <ele>813.89</ele>
        <time>2011-10-23T13:45:45Z</time>
      </trkpt>
      <trkpt lat="45.55826" lon="6.00913">
        <ele>816.78</ele>
        <time>2011-10-23T13:46:03Z</time>
      </trkpt>
      <trkpt lat="45.55795" lon="6.00887">
        <ele>819.18</ele>
        <time>2011-10-23T13:46:19Z</time>
      </trkpt>
      <trkpt lat="45.5577" lon="6.00875">
        <ele>822.55</ele>
        <time>2011-10-23T13:46:31Z</time>
      </trkpt>
      <trkpt lat="45.55742" lon="6.00885">
        <ele>825.43</ele>
        <time>2011-10-23T13:46:45Z</time>
      </trkpt>
      <trkpt lat="45.55718" lon="6.00941">
        <ele>827.35</ele>
        <time>2011-10-23T13:47:04Z</time>
      </trkpt>
      <trkpt lat="45.55708" lon="6.00981">
        <ele>828.79</ele>
        <time>2011-10-23T13:47:18Z</time>
      </trkpt>
      <trkpt lat="45.55702" lon="6.00977">
        <ele>830.24</ele>
        <time>2011-10-23T13:47:21Z</time>
      </trkpt>
      <trkpt lat="45.55694" lon="6.00959">
        <ele>830.72</ele>
        <time>2011-10-23T13:47:26Z</time>
      </trkpt>
      <trkpt lat="45.55661" lon="6.00916">
        <ele>831.2</ele>
        <time>2011-10-23T13:47:39Z</time>
      </trkpt>
      <trkpt lat="45.5565" lon="6.00911">
        <ele>830.72</ele>
        <time>2011-10-23T13:47:42Z</time>
      </trkpt>
      <trkpt lat="45.55645" lon="6.00908">
        <ele>830.24</ele>
        <time>2011-10-23T13:47:43Z</time>
      </trkpt>
      <trkpt lat="45.55642" lon="6.00904">
        <ele>830.24</ele>
        <time>2011-10-23T13:47:44Z</time>
      </trkpt>
      <trkpt lat="45.55638" lon="6.009">
        <ele>830.72</ele>
        <time>2011-10-23T13:47:45Z</time>
      </trkpt>
      <trkpt lat="45.55634" lon="6.00896">
        <ele>830.24</ele>
        <time>2011-10-23T13:47:46Z</time>
      </trkpt>
      <trkpt lat="45.55631" lon="6.00892">
        <ele>829.76</ele>
        <time>2011-10-23T13:47:47Z</time>
      </trkpt>
      <trkpt lat="45.55627" lon="6.00887">
        <ele>829.76</ele>
        <time>2011-10-23T13:47:48Z</time>
      </trkpt>
      <trkpt lat="45.55624" lon="6.00882">
        <ele>829.27</ele>
        <time>2011-10-23T13:47:49Z</time>
      </trkpt>
      <trkpt lat="45.55619" lon="6.00877">
        <ele>828.79</ele>
        <time>2011-10-23T13:47:50Z</time>
      </trkpt>
      <trkpt lat="45.55615" lon="6.00871">
        <ele>828.79</ele>
        <time>2011-10-23T13:47:51Z</time>
      </trkpt>
      <trkpt lat="45.55611" lon="6.00865">
        <ele>828.31</ele>
        <time>2011-10-23T13:47:52Z</time>
      </trkpt>
      <trkpt lat="45.55606" lon="6.00858">
        <ele>827.83</ele>
        <time>2011-10-23T13:47:53Z</time>
      </trkpt>
      <trkpt lat="45.55602" lon="6.00851">
        <ele>826.87</ele>
        <time>2011-10-23T13:47:54Z</time>
      </trkpt>
      <trkpt lat="45.55598" lon="6.00843">
        <ele>826.87</ele>
        <time>2011-10-23T13:47:55Z</time>
      </trkpt>
      <trkpt lat="45.55595" lon="6.00834">
        <ele>826.87</ele>
        <time>2011-10-23T13:47:56Z</time>
      </trkpt>
      <trkpt lat="45.55587" lon="6.00807">
        <ele>825.43</ele>
        <time>2011-10-23T13:47:59Z</time>
      </trkpt>
      <trkpt lat="45.55584" lon="6.00799">
        <ele>825.43</ele>
        <time>2011-10-23T13:48:00Z</time>
      </trkpt>
      <trkpt lat="45.55573" lon="6.00775">
        <ele>824.47</ele>
        <time>2011-10-23T13:48:04Z</time>
      </trkpt>
      <trkpt lat="45.55571" lon="6.0077">
        <ele>824.95</ele>
        <time>2011-10-23T13:48:05Z</time>
      </trkpt>
      <trkpt lat="45.55562" lon="6.00751">
        <ele>824.95</ele>
        <time>2011-10-23T13:48:09Z</time>
      </trkpt>
      <trkpt lat="45.5556" lon="6.00745">
        <ele>823.99</ele>
        <time>2011-10-23T13:48:10Z</time>
      </trkpt>
      <trkpt lat="45.55548" lon="6.00701">
        <ele>821.1</ele>
        <time>2011-10-23T13:48:17Z</time>
      </trkpt>
      <trkpt lat="45.55546" lon="6.00696">
        <ele>821.1</ele>
        <time>2011-10-23T13:48:18Z</time>
      </trkpt>
      <trkpt lat="45.55544" lon="6.00692">
        <ele>820.62</ele>
        <time>2011-10-23T13:48:19Z</time>
      </trkpt>
      <trkpt lat="45.55542" lon="6.0069">
        <ele>820.14</ele>
        <time>2011-10-23T13:48:20Z</time>
      </trkpt>
      <trkpt lat="45.5554" lon="6.00688">
        <ele>820.14</ele>
        <time>2011-10-23T13:48:21Z</time>
      </trkpt>
      <trkpt lat="45.55517" lon="6.0067">
        <ele>816.78</ele>
        <time>2011-10-23T13:48:29Z</time>
      </trkpt>
      <trkpt lat="45.55513" lon="6.00668">
        <ele>816.78</ele>
        <time>2011-10-23T13:48:30Z</time>
      </trkpt>
      <trkpt lat="45.5549" lon="6.00679">
        <ele>813.41</ele>
        <time>2011-10-23T13:48:37Z</time>
      </trkpt>
      <trkpt lat="45.55482" lon="6.00689">
        <ele>811.01</ele>
        <time>2011-10-23T13:48:40Z</time>
      </trkpt>
      <trkpt lat="45.55482" lon="6.00693">
        <ele>810.53</ele>
        <time>2011-10-23T13:48:41Z</time>
      </trkpt>
      <trkpt lat="45.55482" lon="6.00696">
        <ele>810.53</ele>
        <time>2011-10-23T13:48:42Z</time>
      </trkpt>
      <trkpt lat="45.55481" lon="6.00699">
        <ele>810.05</ele>
        <time>2011-10-23T13:48:43Z</time>
      </trkpt>
      <trkpt lat="45.5548" lon="6.00702">
        <ele>809.57</ele>
        <time>2011-10-23T13:48:44Z</time>
      </trkpt>
      <trkpt lat="45.55478" lon="6.00717">
        <ele>808.61</ele>
        <time>2011-10-23T13:48:48Z</time>
      </trkpt>
      <trkpt lat="45.55477" lon="6.0072">
        <ele>808.13</ele>
        <time>2011-10-23T13:48:49Z</time>
      </trkpt>
      <trkpt lat="45.55472" lon="6.00746">
        <ele>807.16</ele>
        <time>2011-10-23T13:48:54Z</time>
      </trkpt>
      <trkpt lat="45.55471" lon="6.00759">
        <ele>806.2</ele>
        <time>2011-10-23T13:48:56Z</time>
      </trkpt>
      <trkpt lat="45.55468" lon="6.00778">
        <ele>804.76</ele>
        <time>2011-10-23T13:48:59Z</time>
      </trkpt>
      <trkpt lat="45.55466" lon="6.00785">
        <ele>804.28</ele>
        <time>2011-10-23T13:49:00Z</time>
      </trkpt>
      <trkpt lat="45.55465" lon="6.0079">
        <ele>803.8</ele>
        <time>2011-10-23T13:49:01Z</time>
      </trkpt>
      <trkpt lat="45.55459" lon="6.0081">
        <ele>802.84</ele>
        <time>2011-10-23T13:49:10Z</time>
      </trkpt>
      <trkpt lat="45.5546" lon="6.00812">
        <ele>802.36</ele>
        <time>2011-10-23T13:49:17Z</time>
      </trkpt>
      <trkpt lat="45.5546" lon="6.00814">
        <ele>802.36</ele>
        <time>2011-10-23T13:49:18Z</time>
      </trkpt>
      <trkpt lat="45.55461" lon="6.00815">
        <ele>801.88</ele>
        <time>2011-10-23T13:49:34Z</time>
      </trkpt>
      <trkpt lat="45.5546" lon="6.00816">
        <ele>801.88</ele>
        <time>2011-10-23T13:49:43Z</time>
      </trkpt>
      <trkpt lat="45.5546" lon="6.00819">
        <ele>801.88</ele>
        <time>2011-10-23T13:49:44Z</time>
      </trkpt>
      <trkpt lat="45.55459" lon="6.00822">
        <ele>801.4</ele>
        <time>2011-10-23T13:49:45Z</time>
      </trkpt>
      <trkpt lat="45.55457" lon="6.00825">
        <ele>801.4</ele>
        <time>2011-10-23T13:49:46Z</time>
      </trkpt>
      <trkpt lat="45.55456" lon="6.0083">
        <ele>800.44</ele>
        <time>2011-10-23T13:49:47Z</time>
      </trkpt>
      <trkpt lat="45.55455" lon="6.00835">
        <ele>799.95</ele>
        <time>2011-10-23T13:49:48Z</time>
      </trkpt>
      <trkpt lat="45.55454" lon="6.00841">
        <ele>798.99</ele>
        <time>2011-10-23T13:49:49Z</time>
      </trkpt>
      <trkpt lat="45.55452" lon="6.00847">
        <ele>798.03</ele>
        <time>2011-10-23T13:49:50Z</time>
      </trkpt>
      <trkpt lat="45.55452" lon="6.00853">
        <ele>798.03</ele>
        <time>2011-10-23T13:49:51Z</time>
      </trkpt>
      <trkpt lat="45.55452" lon="6.00859">
        <ele>797.55</ele>
        <time>2011-10-23T13:49:52Z</time>
      </trkpt>
      <trkpt lat="45.55454" lon="6.00866">
        <ele>796.11</ele>
        <time>2011-10-23T13:49:53Z</time>
      </trkpt>
      <trkpt lat="45.55454" lon="6.00873">
        <ele>796.11</ele>
        <time>2011-10-23T13:49:54Z</time>
      </trkpt>
      <trkpt lat="45.55456" lon="6.00886">
        <ele>793.71</ele>
        <time>2011-10-23T13:49:56Z</time>
      </trkpt>
      <trkpt lat="45.55458" lon="6.00892">
        <ele>793.22</ele>
        <time>2011-10-23T13:49:57Z</time>
      </trkpt>
      <trkpt lat="45.55464" lon="6.00905">
        <ele>791.3</ele>
        <time>2011-10-23T13:49:59Z</time>
      </trkpt>
      <trkpt lat="45.55467" lon="6.00912">
        <ele>790.34</ele>
        <time>2011-10-23T13:50:00Z</time>
      </trkpt>
      <trkpt lat="45.55471" lon="6.0092">
        <ele>788.42</ele>
        <time>2011-10-23T13:50:01Z</time>
      </trkpt>
      <trkpt lat="45.55476" lon="6.00926">
        <ele>786.98</ele>
        <time>2011-10-23T13:50:02Z</time>
      </trkpt>
      <trkpt lat="45.55481" lon="6.00932">
        <ele>786.02</ele>
        <time>2011-10-23T13:50:03Z</time>
      </trkpt>
      <trkpt lat="45.55492" lon="6.00949">
        <ele>783.13</ele>
        <time>2011-10-23T13:50:06Z</time>
      </trkpt>
      <trkpt lat="45.55493" lon="6.00955">
        <ele>781.69</ele>
        <time>2011-10-23T13:50:07Z</time>
      </trkpt>
      <trkpt lat="45.55494" lon="6.00959">
        <ele>781.21</ele>
        <time>2011-10-23T13:50:08Z</time>
      </trkpt>
      <trkpt lat="45.55496" lon="6.00963">
        <ele>780.73</ele>
        <time>2011-10-23T13:50:09Z</time>
      </trkpt>
      <trkpt lat="45.55499" lon="6.00968">
        <ele>780.25</ele>
        <time>2011-10-23T13:50:10Z</time>
      </trkpt>
      <trkpt lat="45.555" lon="6.00975">
        <ele>779.29</ele>
        <time>2011-10-23T13:50:11Z</time>
      </trkpt>
      <trkpt lat="45.55503" lon="6.00982">
        <ele>778.32</ele>
        <time>2011-10-23T13:50:12Z</time>
      </trkpt>
      <trkpt lat="45.55505" lon="6.0099">
        <ele>777.84</ele>
        <time>2011-10-23T13:50:13Z</time>
      </trkpt>
      <trkpt lat="45.55507" lon="6.00998">
        <ele>776.88</ele>
        <time>2011-10-23T13:50:14Z</time>
      </trkpt>
      <trkpt lat="45.5551" lon="6.01005">
        <ele>775.44</ele>
        <time>2011-10-23T13:50:15Z</time>
      </trkpt>
      <trkpt lat="45.55523" lon="6.01035">
        <ele>771.11</ele>
        <time>2011-10-23T13:50:19Z</time>
      </trkpt>
      <trkpt lat="45.55528" lon="6.0105">
        <ele>768.23</ele>
        <time>2011-10-23T13:50:22Z</time>
      </trkpt>
      <trkpt lat="45.55524" lon="6.01052">
        <ele>767.27</ele>
        <time>2011-10-23T13:50:23Z</time>
      </trkpt>
      <trkpt lat="45.5552" lon="6.01051">
        <ele>765.83</ele>
        <time>2011-10-23T13:50:24Z</time>
      </trkpt>
      <trkpt lat="45.55515" lon="6.01049">
        <ele>765.35</ele>
        <time>2011-10-23T13:50:25Z</time>
      </trkpt>
      <trkpt lat="45.55511" lon="6.01046">
        <ele>764.87</ele>
        <time>2011-10-23T13:50:26Z</time>
      </trkpt>
      <trkpt lat="45.55507" lon="6.01043">
        <ele>764.39</ele>
        <time>2011-10-23T13:50:27Z</time>
      </trkpt>
      <trkpt lat="45.55504" lon="6.0104">
        <ele>764.39</ele>
        <time>2011-10-23T13:50:28Z</time>
      </trkpt>
      <trkpt lat="45.555" lon="6.01036">
        <ele>763.9</ele>
        <time>2011-10-23T13:50:29Z</time>
      </trkpt>
      <trkpt lat="45.55496" lon="6.01032">
        <ele>763.42</ele>
        <time>2011-10-23T13:50:30Z</time>
      </trkpt>
      <trkpt lat="45.55492" lon="6.01029">
        <ele>762.94</ele>
        <time>2011-10-23T13:50:31Z</time>
      </trkpt>
      <trkpt lat="45.55488" lon="6.01026">
        <ele>762.94</ele>
        <time>2011-10-23T13:50:32Z</time>
      </trkpt>
      <trkpt lat="45.55484" lon="6.01023">
        <ele>761.98</ele>
        <time>2011-10-23T13:50:33Z</time>
      </trkpt>
      <trkpt lat="45.55466" lon="6.00999">
        <ele>758.62</ele>
        <time>2011-10-23T13:50:37Z</time>
      </trkpt>
      <trkpt lat="45.55462" lon="6.00993">
        <ele>757.66</ele>
        <time>2011-10-23T13:50:38Z</time>
      </trkpt>
      <trkpt lat="45.55459" lon="6.00988">
        <ele>757.18</ele>
        <time>2011-10-23T13:50:39Z</time>
      </trkpt>
      <trkpt lat="45.55457" lon="6.00987">
        <ele>756.69</ele>
        <time>2011-10-23T13:50:40Z</time>
      </trkpt>
      <trkpt lat="45.55456" lon="6.00989">
        <ele>755.73</ele>
        <time>2011-10-23T13:50:41Z</time>
      </trkpt>
      <trkpt lat="45.55456" lon="6.00994">
        <ele>755.25</ele>
        <time>2011-10-23T13:50:42Z</time>
      </trkpt>
      <trkpt lat="45.55458" lon="6.00999">
        <ele>754.29</ele>
        <time>2011-10-23T13:50:43Z</time>
      </trkpt>
      <trkpt lat="45.55459" lon="6.01006">
        <ele>753.33</ele>
        <time>2011-10-23T13:50:44Z</time>
      </trkpt>
      <trkpt lat="45.5547" lon="6.01042">
        <ele>751.89</ele>
        <time>2011-10-23T13:50:49Z</time>
      </trkpt>
      <trkpt lat="45.55473" lon="6.01049">
        <ele>751.41</ele>
        <time>2011-10-23T13:50:50Z</time>
      </trkpt>
      <trkpt lat="45.55476" lon="6.01056">
        <ele>749.97</ele>
        <time>2011-10-23T13:50:52Z</time>
      </trkpt>
      <trkpt lat="45.55474" lon="6.01056">
        <ele>748.52</ele>
        <time>2011-10-23T13:50:56Z</time>
      </trkpt>
      <trkpt lat="45.55473" lon="6.01054">
        <ele>748.04</ele>
        <time>2011-10-23T13:50:57Z</time>
      </trkpt>
      <trkpt lat="45.55471" lon="6.01054">
        <ele>747.56</ele>
        <time>2011-10-23T13:50:58Z</time>
      </trkpt>
      <trkpt lat="45.55468" lon="6.01054">
        <ele>746.6</ele>
        <time>2011-10-23T13:50:59Z</time>
      </trkpt>
      <trkpt lat="45.55466" lon="6.01051">
        <ele>746.12</ele>
        <time>2011-10-23T13:51:00Z</time>
      </trkpt>
      <trkpt lat="45.55464" lon="6.01049">
        <ele>745.64</ele>
        <time>2011-10-23T13:51:01Z</time>
      </trkpt>
      <trkpt lat="45.55459" lon="6.01041">
        <ele>744.68</ele>
        <time>2011-10-23T13:51:05Z</time>
      </trkpt>
      <trkpt lat="45.55455" lon="6.01039">
        <ele>742.76</ele>
        <time>2011-10-23T13:51:13Z</time>
      </trkpt>
      <trkpt lat="45.55455" lon="6.0104">
        <ele>743.24</ele>
        <time>2011-10-23T13:51:14Z</time>
      </trkpt>
      <trkpt lat="45.55456" lon="6.01045">
        <ele>742.28</ele>
        <time>2011-10-23T13:51:19Z</time>
      </trkpt>
      <trkpt lat="45.55457" lon="6.01049">
        <ele>742.28</ele>
        <time>2011-10-23T13:51:20Z</time>
      </trkpt>
      <trkpt lat="45.55458" lon="6.01052">
        <ele>741.79</ele>
        <time>2011-10-23T13:51:21Z</time>
      </trkpt>
      <trkpt lat="45.55457" lon="6.01052">
        <ele>740.35</ele>
        <time>2011-10-23T13:51:30Z</time>
      </trkpt>
      <trkpt lat="45.55455" lon="6.01051">
        <ele>740.35</ele>
        <time>2011-10-23T13:51:32Z</time>
      </trkpt>
      <trkpt lat="45.55453" lon="6.01049">
        <ele>739.87</ele>
        <time>2011-10-23T13:51:33Z</time>
      </trkpt>
      <trkpt lat="45.5545" lon="6.01046">
        <ele>739.39</ele>
        <time>2011-10-23T13:51:34Z</time>
      </trkpt>
      <trkpt lat="45.55427" lon="6.01023">
        <ele>736.51</ele>
        <time>2011-10-23T13:51:40Z</time>
      </trkpt>
      <trkpt lat="45.5542" lon="6.01016">
        <ele>735.07</ele>
        <time>2011-10-23T13:51:46Z</time>
      </trkpt>
      <trkpt lat="45.55413" lon="6.01011">
        <ele>733.62</ele>
        <time>2011-10-23T13:51:57Z</time>
      </trkpt>
      <trkpt lat="45.55413" lon="6.01011">
        <ele>733.14</ele>
        <time>2011-10-23T13:52:01Z</time>
      </trkpt>
      <trkpt lat="45.55407" lon="6.01009">
        <ele>730.74</ele>
        <time>2011-10-23T13:52:12Z</time>
      </trkpt>
      <trkpt lat="45.554" lon="6.01008">
        <ele>727.86</ele>
        <time>2011-10-23T13:52:16Z</time>
      </trkpt>
      <trkpt lat="45.55398" lon="6.0101">
        <ele>727.37</ele>
        <time>2011-10-23T13:52:17Z</time>
      </trkpt>
      <trkpt lat="45.55399" lon="6.0102">
        <ele>724.01</ele>
        <time>2011-10-23T13:52:20Z</time>
      </trkpt>
      <trkpt lat="45.55401" lon="6.01031">
        <ele>721.13</ele>
        <time>2011-10-23T13:52:23Z</time>
      </trkpt>
      <trkpt lat="45.55402" lon="6.01045">
        <ele>717.76</ele>
        <time>2011-10-23T13:52:27Z</time>
      </trkpt>
      <trkpt lat="45.55405" lon="6.01062">
        <ele>713.92</ele>
        <time>2011-10-23T13:52:30Z</time>
      </trkpt>
      <trkpt lat="45.55408" lon="6.01076">
        <ele>711.51</ele>
        <time>2011-10-23T13:52:32Z</time>
      </trkpt>
      <trkpt lat="45.5541" lon="6.0109">
        <ele>709.11</ele>
        <time>2011-10-23T13:52:34Z</time>
      </trkpt>
      <trkpt lat="45.55411" lon="6.01094">
        <ele>708.63</ele>
        <time>2011-10-23T13:52:35Z</time>
      </trkpt>
      <trkpt lat="45.55415" lon="6.01117">
        <ele>704.78</ele>
        <time>2011-10-23T13:52:39Z</time>
      </trkpt>
      <trkpt lat="45.55418" lon="6.01133">
        <ele>700.94</ele>
        <time>2011-10-23T13:52:42Z</time>
      </trkpt>
      <trkpt lat="45.55418" lon="6.01138">
        <ele>699.98</ele>
        <time>2011-10-23T13:52:43Z</time>
      </trkpt>
      <trkpt lat="45.55413" lon="6.0114">
        <ele>697.57</ele>
        <time>2011-10-23T13:52:46Z</time>
      </trkpt>
      <trkpt lat="45.55405" lon="6.01135">
        <ele>694.69</ele>
        <time>2011-10-23T13:52:49Z</time>
      </trkpt>
      <trkpt lat="45.55401" lon="6.01132">
        <ele>693.25</ele>
        <time>2011-10-23T13:52:50Z</time>
      </trkpt>
      <trkpt lat="45.55391" lon="6.01124">
        <ele>690.36</ele>
        <time>2011-10-23T13:52:52Z</time>
      </trkpt>
      <trkpt lat="45.55389" lon="6.01122">
        <ele>690.36</ele>
        <time>2011-10-23T13:52:53Z</time>
      </trkpt>
      <trkpt lat="45.55382" lon="6.01116">
        <ele>687.48</ele>
        <time>2011-10-23T13:52:55Z</time>
      </trkpt>
      <trkpt lat="45.55378" lon="6.01113">
        <ele>685.56</ele>
        <time>2011-10-23T13:52:56Z</time>
      </trkpt>
      <trkpt lat="45.55373" lon="6.01111">
        <ele>685.08</ele>
        <time>2011-10-23T13:52:57Z</time>
      </trkpt>
      <trkpt lat="45.5537" lon="6.01108">
        <ele>683.63</ele>
        <time>2011-10-23T13:52:58Z</time>
      </trkpt>
      <trkpt lat="45.55361" lon="6.01105">
        <ele>680.75</ele>
        <time>2011-10-23T13:53:00Z</time>
      </trkpt>
      <trkpt lat="45.55351" lon="6.01102">
        <ele>677.39</ele>
        <time>2011-10-23T13:53:03Z</time>
      </trkpt>
      <trkpt lat="45.55346" lon="6.01109">
        <ele>673.54</ele>
        <time>2011-10-23T13:53:08Z</time>
      </trkpt>
      <trkpt lat="45.55347" lon="6.01122">
        <ele>670.18</ele>
        <time>2011-10-23T13:53:11Z</time>
      </trkpt>
      <trkpt lat="45.55347" lon="6.01135">
        <ele>667.29</ele>
        <time>2011-10-23T13:53:14Z</time>
      </trkpt>
      <trkpt lat="45.55347" lon="6.01148">
        <ele>663.93</ele>
        <time>2011-10-23T13:53:17Z</time>
      </trkpt>
      <trkpt lat="45.55365" lon="6.0119">
        <ele>661.04</ele>
        <time>2011-10-23T13:53:22Z</time>
      </trkpt>
      <trkpt lat="45.55368" lon="6.01204">
        <ele>657.68</ele>
        <time>2011-10-23T13:53:26Z</time>
      </trkpt>
      <trkpt lat="45.5537" lon="6.0121">
        <ele>654.31</ele>
        <time>2011-10-23T13:53:30Z</time>
      </trkpt>
      <trkpt lat="45.55368" lon="6.01212">
        <ele>649.51</ele>
        <time>2011-10-23T13:53:34Z</time>
      </trkpt>
      <trkpt lat="45.55365" lon="6.01213">
        <ele>646.14</ele>
        <time>2011-10-23T13:53:37Z</time>
      </trkpt>
      <trkpt lat="45.55365" lon="6.01214">
        <ele>645.18</ele>
        <time>2011-10-23T13:53:38Z</time>
      </trkpt>
      <trkpt lat="45.55364" lon="6.01223">
        <ele>642.3</ele>
        <time>2011-10-23T13:53:42Z</time>
      </trkpt>
      <trkpt lat="45.55367" lon="6.01232">
        <ele>638.93</ele>
        <time>2011-10-23T13:53:45Z</time>
      </trkpt>
      <trkpt lat="45.55371" lon="6.01244">
        <ele>637.49</ele>
        <time>2011-10-23T13:53:48Z</time>
      </trkpt>
      <trkpt lat="45.55384" lon="6.01257">
        <ele>637.49</ele>
        <time>2011-10-23T13:53:52Z</time>
      </trkpt>
      <trkpt lat="45.55405" lon="6.01282">
        <ele>635.09</ele>
        <time>2011-10-23T13:54:03Z</time>
      </trkpt>
      <trkpt lat="45.55445" lon="6.01322">
        <ele>632.68</ele>
        <time>2011-10-23T13:54:11Z</time>
      </trkpt>
      <trkpt lat="45.55471" lon="6.01358">
        <ele>629.32</ele>
        <time>2011-10-23T13:54:17Z</time>
      </trkpt>
      <trkpt lat="45.55481" lon="6.0137">
        <ele>628.36</ele>
        <time>2011-10-23T13:54:19Z</time>
      </trkpt>
      <trkpt lat="45.55486" lon="6.01376">
        <ele>626.92</ele>
        <time>2011-10-23T13:54:20Z</time>
      </trkpt>
      <trkpt lat="45.5549" lon="6.0138">
        <ele>626.44</ele>
        <time>2011-10-23T13:54:21Z</time>
      </trkpt>
      <trkpt lat="45.55491" lon="6.01384">
        <ele>625.47</ele>
        <time>2011-10-23T13:54:22Z</time>
      </trkpt>
      <trkpt lat="45.55473" lon="6.01378">
        <ele>623.55</ele>
        <time>2011-10-23T13:54:26Z</time>
      </trkpt>
      <trkpt lat="45.55468" lon="6.01373">
        <ele>623.07</ele>
        <time>2011-10-23T13:54:27Z</time>
      </trkpt>
      <trkpt lat="45.55462" lon="6.01369">
        <ele>622.59</ele>
        <time>2011-10-23T13:54:28Z</time>
      </trkpt>
      <trkpt lat="45.55455" lon="6.01365">
        <ele>621.63</ele>
        <time>2011-10-23T13:54:29Z</time>
      </trkpt>
      <trkpt lat="45.55447" lon="6.0136">
        <ele>620.67</ele>
        <time>2011-10-23T13:54:30Z</time>
      </trkpt>
      <trkpt lat="45.55419" lon="6.01349">
        <ele>615.86</ele>
        <time>2011-10-23T13:54:33Z</time>
      </trkpt>
      <trkpt lat="45.55402" lon="6.01343">
        <ele>614.42</ele>
        <time>2011-10-23T13:54:35Z</time>
      </trkpt>
      <trkpt lat="45.55394" lon="6.01343">
        <ele>612.98</ele>
        <time>2011-10-23T13:54:36Z</time>
      </trkpt>
      <trkpt lat="45.55371" lon="6.01344">
        <ele>608.17</ele>
        <time>2011-10-23T13:54:39Z</time>
      </trkpt>
      <trkpt lat="45.55355" lon="6.01357">
        <ele>604.33</ele>
        <time>2011-10-23T13:54:44Z</time>
      </trkpt>
      <trkpt lat="45.55355" lon="6.01359">
        <ele>604.33</ele>
        <time>2011-10-23T13:54:45Z</time>
      </trkpt>
      <trkpt lat="45.55356" lon="6.01363">
        <ele>603.36</ele>
        <time>2011-10-23T13:54:46Z</time>
      </trkpt>
      <trkpt lat="45.55356" lon="6.01381">
        <ele>601.92</ele>
        <time>2011-10-23T13:54:50Z</time>
      </trkpt>
      <trkpt lat="45.55345" lon="6.01424">
        <ele>599.52</ele>
        <time>2011-10-23T13:54:56Z</time>
      </trkpt>
      <trkpt lat="45.55331" lon="6.0146">
        <ele>596.15</ele>
        <time>2011-10-23T13:55:02Z</time>
      </trkpt>
      <trkpt lat="45.5533" lon="6.01462">
        <ele>596.64</ele>
        <time>2011-10-23T13:55:13Z</time>
      </trkpt>
      <trkpt lat="45.55315" lon="6.01496">
        <ele>594.71</ele>
        <time>2011-10-23T13:55:22Z</time>
      </trkpt>
      <trkpt lat="45.5531" lon="6.01507">
        <ele>594.23</ele>
        <time>2011-10-23T13:55:24Z</time>
      </trkpt>
      <trkpt lat="45.55283" lon="6.01559">
        <ele>594.71</ele>
        <time>2011-10-23T13:55:35Z</time>
      </trkpt>
      <trkpt lat="45.5528" lon="6.0156">
        <ele>594.71</ele>
        <time>2011-10-23T13:55:36Z</time>
      </trkpt>
      <trkpt lat="45.55276" lon="6.0156">
        <ele>594.71</ele>
        <time>2011-10-23T13:55:37Z</time>
      </trkpt>
      <trkpt lat="45.55267" lon="6.01559">
        <ele>594.71</ele>
        <time>2011-10-23T13:55:39Z</time>
      </trkpt>
      <trkpt lat="45.55262" lon="6.0156">
        <ele>594.71</ele>
        <time>2011-10-23T13:55:40Z</time>
      </trkpt>
      <trkpt lat="45.55258" lon="6.01563">
        <ele>594.71</ele>
        <time>2011-10-23T13:55:41Z</time>
      </trkpt>
      <trkpt lat="45.55244" lon="6.01571">
        <ele>595.19</ele>
        <time>2011-10-23T13:55:44Z</time>
      </trkpt>
      <trkpt lat="45.55225" lon="6.01574">
        <ele>595.67</ele>
        <time>2011-10-23T13:55:48Z</time>
      </trkpt>
      <trkpt lat="45.5522" lon="6.01573">
        <ele>595.67</ele>
        <time>2011-10-23T13:55:49Z</time>
      </trkpt>
      <trkpt lat="45.55154" lon="6.01557">
        <ele>596.15</ele>
        <time>2011-10-23T13:56:04Z</time>
      </trkpt>
      <trkpt lat="45.55107" lon="6.01533">
        <ele>595.67</ele>
        <time>2011-10-23T13:56:14Z</time>
      </trkpt>
      <trkpt lat="45.55103" lon="6.01529">
        <ele>595.67</ele>
        <time>2011-10-23T13:56:15Z</time>
      </trkpt>
      <trkpt lat="45.551" lon="6.01524">
        <ele>595.19</ele>
        <time>2011-10-23T13:56:16Z</time>
      </trkpt>
      <trkpt lat="45.55098" lon="6.01519">
        <ele>594.71</ele>
        <time>2011-10-23T13:56:17Z</time>
      </trkpt>
      <trkpt lat="45.55096" lon="6.01514">
        <ele>594.71</ele>
        <time>2011-10-23T13:56:18Z</time>
      </trkpt>
      <trkpt lat="45.55095" lon="6.01507">
        <ele>594.23</ele>
        <time>2011-10-23T13:56:19Z</time>
      </trkpt>
      <trkpt lat="45.55095" lon="6.015">
        <ele>593.75</ele>
        <time>2011-10-23T13:56:20Z</time>
      </trkpt>
      <trkpt lat="45.55095" lon="6.01492">
        <ele>593.75</ele>
        <time>2011-10-23T13:56:21Z</time>
      </trkpt>
      <trkpt lat="45.55095" lon="6.01485">
        <ele>592.79</ele>
        <time>2011-10-23T13:56:22Z</time>
      </trkpt>
      <trkpt lat="45.55094" lon="6.01476">
        <ele>591.83</ele>
        <time>2011-10-23T13:56:23Z</time>
      </trkpt>
      <trkpt lat="45.55092" lon="6.01468">
        <ele>591.83</ele>
        <time>2011-10-23T13:56:24Z</time>
      </trkpt>
      <trkpt lat="45.5509" lon="6.01461">
        <ele>591.83</ele>
        <time>2011-10-23T13:56:25Z</time>
      </trkpt>
      <trkpt lat="45.55087" lon="6.01453">
        <ele>591.35</ele>
        <time>2011-10-23T13:56:26Z</time>
      </trkpt>
      <trkpt lat="45.55073" lon="6.01415">
        <ele>590.39</ele>
        <time>2011-10-23T13:56:32Z</time>
      </trkpt>
      <trkpt lat="45.55061" lon="6.01385">
        <ele>588.95</ele>
        <time>2011-10-23T13:56:37Z</time>
      </trkpt>
      <trkpt lat="45.5504" lon="6.01347">
        <ele>587.5</ele>
        <time>2011-10-23T13:56:43Z</time>
      </trkpt>
      <trkpt lat="45.55035" lon="6.01333">
        <ele>587.02</ele>
        <time>2011-10-23T13:56:45Z</time>
      </trkpt>
      <trkpt lat="45.55033" lon="6.0131">
        <ele>585.58</ele>
        <time>2011-10-23T13:56:48Z</time>
      </trkpt>
      <trkpt lat="45.55032" lon="6.01305">
        <ele>585.1</ele>
        <time>2011-10-23T13:56:49Z</time>
      </trkpt>
      <trkpt lat="45.55029" lon="6.01285">
        <ele>584.62</ele>
        <time>2011-10-23T13:56:52Z</time>
      </trkpt>
      <trkpt lat="45.55025" lon="6.01272">
        <ele>583.66</ele>
        <time>2011-10-23T13:56:54Z</time>
      </trkpt>
      <trkpt lat="45.55024" lon="6.01267">
        <ele>583.66</ele>
        <time>2011-10-23T13:56:55Z</time>
      </trkpt>
      <trkpt lat="45.55017" lon="6.01218">
        <ele>581.73</ele>
        <time>2011-10-23T13:57:02Z</time>
      </trkpt>
      <trkpt lat="45.55015" lon="6.01211">
        <ele>582.22</ele>
        <time>2011-10-23T13:57:03Z</time>
      </trkpt>
      <trkpt lat="45.55012" lon="6.01203">
        <ele>582.22</ele>
        <time>2011-10-23T13:57:04Z</time>
      </trkpt>
      <trkpt lat="45.54988" lon="6.01145">
        <ele>580.77</ele>
        <time>2011-10-23T13:57:11Z</time>
      </trkpt>
      <trkpt lat="45.54984" lon="6.01136">
        <ele>580.77</ele>
        <time>2011-10-23T13:57:12Z</time>
      </trkpt>
      <trkpt lat="45.54981" lon="6.01128">
        <ele>580.29</ele>
        <time>2011-10-23T13:57:13Z</time>
      </trkpt>
      <trkpt lat="45.5497" lon="6.01101">
        <ele>579.81</ele>
        <time>2011-10-23T13:57:16Z</time>
      </trkpt>
      <trkpt lat="45.54968" lon="6.01094">
        <ele>579.81</ele>
        <time>2011-10-23T13:57:17Z</time>
      </trkpt>
      <trkpt lat="45.54967" lon="6.01087">
        <ele>579.81</ele>
        <time>2011-10-23T13:57:18Z</time>
      </trkpt>
      <trkpt lat="45.54963" lon="6.0107">
        <ele>580.29</ele>
        <time>2011-10-23T13:57:21Z</time>
      </trkpt>
      <trkpt lat="45.54958" lon="6.01061">
        <ele>581.73</ele>
        <time>2011-10-23T13:57:23Z</time>
      </trkpt>
      <trkpt lat="45.54941" lon="6.01041">
        <ele>582.7</ele>
        <time>2011-10-23T13:57:30Z</time>
      </trkpt>
      <trkpt lat="45.54937" lon="6.01038">
        <ele>582.7</ele>
        <time>2011-10-23T13:57:31Z</time>
      </trkpt>
      <trkpt lat="45.54934" lon="6.01034">
        <ele>582.7</ele>
        <time>2011-10-23T13:57:32Z</time>
      </trkpt>
      <trkpt lat="45.54931" lon="6.0103">
        <ele>583.66</ele>
        <time>2011-10-23T13:57:33Z</time>
      </trkpt>
      <trkpt lat="45.54913" lon="6.01003">
        <ele>584.14</ele>
        <time>2011-10-23T13:57:39Z</time>
      </trkpt>
      <trkpt lat="45.54884" lon="6.00968">
        <ele>584.14</ele>
        <time>2011-10-23T13:57:47Z</time>
      </trkpt>
      <trkpt lat="45.5488" lon="6.00966">
        <ele>584.14</ele>
        <time>2011-10-23T13:57:48Z</time>
      </trkpt>
      <trkpt lat="45.54876" lon="6.00964">
        <ele>584.62</ele>
        <time>2011-10-23T13:57:49Z</time>
      </trkpt>
      <trkpt lat="45.54873" lon="6.00965">
        <ele>584.14</ele>
        <time>2011-10-23T13:57:50Z</time>
      </trkpt>
      <trkpt lat="45.54869" lon="6.00966">
        <ele>584.14</ele>
        <time>2011-10-23T13:57:51Z</time>
      </trkpt>
      <trkpt lat="45.54857" lon="6.00974">
        <ele>583.66</ele>
        <time>2011-10-23T13:57:54Z</time>
      </trkpt>
      <trkpt lat="45.54853" lon="6.00975">
        <ele>584.14</ele>
        <time>2011-10-23T13:57:55Z</time>
      </trkpt>
      <trkpt lat="45.54832" lon="6.00958">
        <ele>584.14</ele>
        <time>2011-10-23T13:58:02Z</time>
      </trkpt>
      <trkpt lat="45.54815" lon="6.00931">
        <ele>582.7</ele>
        <time>2011-10-23T13:58:09Z</time>
      </trkpt>
      <trkpt lat="45.54773" lon="6.00909">
        <ele>580.77</ele>
        <time>2011-10-23T13:58:19Z</time>
      </trkpt>
      <trkpt lat="45.54754" lon="6.00903">
        <ele>580.77</ele>
        <time>2011-10-23T13:58:24Z</time>
      </trkpt>
      <trkpt lat="45.5475" lon="6.00895">
        <ele>580.29</ele>
        <time>2011-10-23T13:58:26Z</time>
      </trkpt>
      <trkpt lat="45.54732" lon="6.00852">
        <ele>577.89</ele>
        <time>2011-10-23T13:58:35Z</time>
      </trkpt>
      <trkpt lat="45.54722" lon="6.00847">
        <ele>577.41</ele>
        <time>2011-10-23T13:58:38Z</time>
      </trkpt>
      <trkpt lat="45.54699" lon="6.0085">
        <ele>576.45</ele>
        <time>2011-10-23T13:58:44Z</time>
      </trkpt>
      <trkpt lat="45.54674" lon="6.00868">
        <ele>574.53</ele>
        <time>2011-10-23T13:58:50Z</time>
      </trkpt>
      <trkpt lat="45.54659" lon="6.0087">
        <ele>572.6</ele>
        <time>2011-10-23T13:58:53Z</time>
      </trkpt>
      <trkpt lat="45.54647" lon="6.00835">
        <ele>568.76</ele>
        <time>2011-10-23T13:58:57Z</time>
      </trkpt>
      <trkpt lat="45.54638" lon="6.00806">
        <ele>565.87</ele>
        <time>2011-10-23T13:59:00Z</time>
      </trkpt>
      <trkpt lat="45.54624" lon="6.008">
        <ele>562.51</ele>
        <time>2011-10-23T13:59:05Z</time>
      </trkpt>
      <trkpt lat="45.54615" lon="6.00809">
        <ele>560.11</ele>
        <time>2011-10-23T13:59:07Z</time>
      </trkpt>
      <trkpt lat="45.54587" lon="6.00815">
        <ele>554.34</ele>
        <time>2011-10-23T13:59:11Z</time>
      </trkpt>
      <trkpt lat="45.54575" lon="6.00814">
        <ele>551.45</ele>
        <time>2011-10-23T13:59:13Z</time>
      </trkpt>
      <trkpt lat="45.54561" lon="6.00822">
        <ele>547.13</ele>
        <time>2011-10-23T13:59:16Z</time>
      </trkpt>
      <trkpt lat="45.5455" lon="6.00832">
        <ele>545.2</ele>
        <time>2011-10-23T13:59:18Z</time>
      </trkpt>
      <trkpt lat="45.54528" lon="6.00838">
        <ele>540.4</ele>
        <time>2011-10-23T13:59:21Z</time>
      </trkpt>
      <trkpt lat="45.54504" lon="6.00839">
        <ele>536.07</ele>
        <time>2011-10-23T13:59:24Z</time>
      </trkpt>
      <trkpt lat="45.54483" lon="6.00838">
        <ele>532.23</ele>
        <time>2011-10-23T13:59:27Z</time>
      </trkpt>
      <trkpt lat="45.54478" lon="6.00838">
        <ele>531.27</ele>
        <time>2011-10-23T13:59:28Z</time>
      </trkpt>
      <trkpt lat="45.54475" lon="6.0084">
        <ele>531.27</ele>
        <time>2011-10-23T13:59:29Z</time>
      </trkpt>
      <trkpt lat="45.54473" lon="6.00842">
        <ele>530.79</ele>
        <time>2011-10-23T13:59:30Z</time>
      </trkpt>
      <trkpt lat="45.54473" lon="6.00847">
        <ele>530.3</ele>
        <time>2011-10-23T13:59:31Z</time>
      </trkpt>
      <trkpt lat="45.54472" lon="6.00852">
        <ele>530.3</ele>
        <time>2011-10-23T13:59:32Z</time>
      </trkpt>
      <trkpt lat="45.54472" lon="6.00859">
        <ele>529.82</ele>
        <time>2011-10-23T13:59:33Z</time>
      </trkpt>
      <trkpt lat="45.54471" lon="6.00866">
        <ele>529.34</ele>
        <time>2011-10-23T13:59:34Z</time>
      </trkpt>
      <trkpt lat="45.5447" lon="6.00874">
        <ele>528.38</ele>
        <time>2011-10-23T13:59:35Z</time>
      </trkpt>
      <trkpt lat="45.54469" lon="6.00882">
        <ele>527.42</ele>
        <time>2011-10-23T13:59:36Z</time>
      </trkpt>
      <trkpt lat="45.54466" lon="6.00889">
        <ele>526.94</ele>
        <time>2011-10-23T13:59:37Z</time>
      </trkpt>
      <trkpt lat="45.54463" lon="6.00896">
        <ele>526.46</ele>
        <time>2011-10-23T13:59:38Z</time>
      </trkpt>
      <trkpt lat="45.54458" lon="6.00901">
        <ele>525.5</ele>
        <time>2011-10-23T13:59:39Z</time>
      </trkpt>
      <trkpt lat="45.54453" lon="6.00903">
        <ele>525.5</ele>
        <time>2011-10-23T13:59:40Z</time>
      </trkpt>
      <trkpt lat="45.54447" lon="6.00904">
        <ele>524.06</ele>
        <time>2011-10-23T13:59:41Z</time>
      </trkpt>
      <trkpt lat="45.54429" lon="6.00907">
        <ele>521.17</ele>
        <time>2011-10-23T13:59:44Z</time>
      </trkpt>
      <trkpt lat="45.54423" lon="6.00909">
        <ele>520.21</ele>
        <time>2011-10-23T13:59:45Z</time>
      </trkpt>
      <trkpt lat="45.54418" lon="6.00912">
        <ele>519.25</ele>
        <time>2011-10-23T13:59:46Z</time>
      </trkpt>
      <trkpt lat="45.54413" lon="6.00916">
        <ele>518.29</ele>
        <time>2011-10-23T13:59:47Z</time>
      </trkpt>
      <trkpt lat="45.54407" lon="6.00921">
        <ele>516.85</ele>
        <time>2011-10-23T13:59:48Z</time>
      </trkpt>
      <trkpt lat="45.54401" lon="6.00925">
        <ele>516.37</ele>
        <time>2011-10-23T13:59:49Z</time>
      </trkpt>
      <trkpt lat="45.54396" lon="6.00926">
        <ele>513.96</ele>
        <time>2011-10-23T13:59:50Z</time>
      </trkpt>
      <trkpt lat="45.54392" lon="6.00925">
        <ele>512.52</ele>
        <time>2011-10-23T13:59:51Z</time>
      </trkpt>
      <trkpt lat="45.54387" lon="6.00922">
        <ele>512.04</ele>
        <time>2011-10-23T13:59:52Z</time>
      </trkpt>
      <trkpt lat="45.54384" lon="6.00919">
        <ele>510.6</ele>
        <time>2011-10-23T13:59:53Z</time>
      </trkpt>
      <trkpt lat="45.54381" lon="6.00916">
        <ele>509.16</ele>
        <time>2011-10-23T13:59:54Z</time>
      </trkpt>
      <trkpt lat="45.54379" lon="6.00912">
        <ele>508.19</ele>
        <time>2011-10-23T13:59:55Z</time>
      </trkpt>
      <trkpt lat="45.54379" lon="6.00909">
        <ele>507.71</ele>
        <time>2011-10-23T13:59:56Z</time>
      </trkpt>
      <trkpt lat="45.5438" lon="6.00905">
        <ele>507.23</ele>
        <time>2011-10-23T13:59:57Z</time>
      </trkpt>
      <trkpt lat="45.54382" lon="6.00901">
        <ele>507.23</ele>
        <time>2011-10-23T13:59:58Z</time>
      </trkpt>
      <trkpt lat="45.54388" lon="6.00894">
        <ele>506.75</ele>
        <time>2011-10-23T14:00:00Z</time>
      </trkpt>
      <trkpt lat="45.54391" lon="6.00891">
        <ele>506.75</ele>
        <time>2011-10-23T14:00:01Z</time>
      </trkpt>
      <trkpt lat="45.54395" lon="6.00887">
        <ele>506.27</ele>
        <time>2011-10-23T14:00:02Z</time>
      </trkpt>
      <trkpt lat="45.54419" lon="6.00832">
        <ele>507.71</ele>
        <time>2011-10-23T14:00:15Z</time>
      </trkpt>
      <trkpt lat="45.54401" lon="6.00792">
        <ele>504.35</ele>
        <time>2011-10-23T14:00:23Z</time>
      </trkpt>
      <trkpt lat="45.544" lon="6.00785">
        <ele>503.39</ele>
        <time>2011-10-23T14:00:24Z</time>
      </trkpt>
      <trkpt lat="45.54398" lon="6.00778">
        <ele>503.39</ele>
        <time>2011-10-23T14:00:25Z</time>
      </trkpt>
      <trkpt lat="45.54397" lon="6.00771">
        <ele>502.43</ele>
        <time>2011-10-23T14:00:26Z</time>
      </trkpt>
      <trkpt lat="45.54397" lon="6.00763">
        <ele>501.46</ele>
        <time>2011-10-23T14:00:27Z</time>
      </trkpt>
      <trkpt lat="45.54397" lon="6.00755">
        <ele>500.5</ele>
        <time>2011-10-23T14:00:28Z</time>
      </trkpt>
      <trkpt lat="45.544" lon="6.00749">
        <ele>500.02</ele>
        <time>2011-10-23T14:00:29Z</time>
      </trkpt>
      <trkpt lat="45.54403" lon="6.00744">
        <ele>499.54</ele>
        <time>2011-10-23T14:00:30Z</time>
      </trkpt>
      <trkpt lat="45.54408" lon="6.00741">
        <ele>498.58</ele>
        <time>2011-10-23T14:00:31Z</time>
      </trkpt>
      <trkpt lat="45.54414" lon="6.00739">
        <ele>498.1</ele>
        <time>2011-10-23T14:00:32Z</time>
      </trkpt>
      <trkpt lat="45.54419" lon="6.00738">
        <ele>497.62</ele>
        <time>2011-10-23T14:00:33Z</time>
      </trkpt>
      <trkpt lat="45.54441" lon="6.00734">
        <ele>494.74</ele>
        <time>2011-10-23T14:00:36Z</time>
      </trkpt>
      <trkpt lat="45.54449" lon="6.0073">
        <ele>493.77</ele>
        <time>2011-10-23T14:00:37Z</time>
      </trkpt>
      <trkpt lat="45.54456" lon="6.00724">
        <ele>492.81</ele>
        <time>2011-10-23T14:00:38Z</time>
      </trkpt>
      <trkpt lat="45.54488" lon="6.0069">
        <ele>493.29</ele>
        <time>2011-10-23T14:00:43Z</time>
      </trkpt>
      <trkpt lat="45.54494" lon="6.00677">
        <ele>493.77</ele>
        <time>2011-10-23T14:00:45Z</time>
      </trkpt>
      <trkpt lat="45.54496" lon="6.0067">
        <ele>494.26</ele>
        <time>2011-10-23T14:00:46Z</time>
      </trkpt>
      <trkpt lat="45.54497" lon="6.00664">
        <ele>494.26</ele>
        <time>2011-10-23T14:00:47Z</time>
      </trkpt>
      <trkpt lat="45.54497" lon="6.00657">
        <ele>494.26</ele>
        <time>2011-10-23T14:00:48Z</time>
      </trkpt>
      <trkpt lat="45.54496" lon="6.0065">
        <ele>493.77</ele>
        <time>2011-10-23T14:00:49Z</time>
      </trkpt>
      <trkpt lat="45.54494" lon="6.00643">
        <ele>493.77</ele>
        <time>2011-10-23T14:00:50Z</time>
      </trkpt>
      <trkpt lat="45.54491" lon="6.00635">
        <ele>493.77</ele>
        <time>2011-10-23T14:00:51Z</time>
      </trkpt>
      <trkpt lat="45.54488" lon="6.00628">
        <ele>493.29</ele>
        <time>2011-10-23T14:00:52Z</time>
      </trkpt>
      <trkpt lat="45.54483" lon="6.00622">
        <ele>493.77</ele>
        <time>2011-10-23T14:00:53Z</time>
      </trkpt>
      <trkpt lat="45.5448" lon="6.00616">
        <ele>493.29</ele>
        <time>2011-10-23T14:00:54Z</time>
      </trkpt>
      <trkpt lat="45.54477" lon="6.00609">
        <ele>493.77</ele>
        <time>2011-10-23T14:00:55Z</time>
      </trkpt>
      <trkpt lat="45.54477" lon="6.00603">
        <ele>493.77</ele>
        <time>2011-10-23T14:00:56Z</time>
      </trkpt>
      <trkpt lat="45.54479" lon="6.00598">
        <ele>493.77</ele>
        <time>2011-10-23T14:00:57Z</time>
      </trkpt>
      <trkpt lat="45.54482" lon="6.00593">
        <ele>494.26</ele>
        <time>2011-10-23T14:00:58Z</time>
      </trkpt>
      <trkpt lat="45.54485" lon="6.00589">
        <ele>494.74</ele>
        <time>2011-10-23T14:00:59Z</time>
      </trkpt>
      <trkpt lat="45.54489" lon="6.00584">
        <ele>494.26</ele>
        <time>2011-10-23T14:01:00Z</time>
      </trkpt>
      <trkpt lat="45.54501" lon="6.00568">
        <ele>493.29</ele>
        <time>2011-10-23T14:01:03Z</time>
      </trkpt>
      <trkpt lat="45.54507" lon="6.00565">
        <ele>492.81</ele>
        <time>2011-10-23T14:01:04Z</time>
      </trkpt>
      <trkpt lat="45.54513" lon="6.00562">
        <ele>492.81</ele>
        <time>2011-10-23T14:01:05Z</time>
      </trkpt>
      <trkpt lat="45.54519" lon="6.0056">
        <ele>491.37</ele>
        <time>2011-10-23T14:01:06Z</time>
      </trkpt>
      <trkpt lat="45.54525" lon="6.0056">
        <ele>491.37</ele>
        <time>2011-10-23T14:01:07Z</time>
      </trkpt>
      <trkpt lat="45.54531" lon="6.00561">
        <ele>490.89</ele>
        <time>2011-10-23T14:01:08Z</time>
      </trkpt>
      <trkpt lat="45.54538" lon="6.00563">
        <ele>490.89</ele>
        <time>2011-10-23T14:01:09Z</time>
      </trkpt>
      <trkpt lat="45.54544" lon="6.00566">
        <ele>490.41</ele>
        <time>2011-10-23T14:01:10Z</time>
      </trkpt>
      <trkpt lat="45.54558" lon="6.00569">
        <ele>490.41</ele>
        <time>2011-10-23T14:01:16Z</time>
      </trkpt>
      <trkpt lat="45.54558" lon="6.00569">
        <ele>489.45</ele>
        <time>2011-10-23T14:01:19Z</time>
      </trkpt>
      <trkpt lat="45.54559" lon="6.00567">
        <ele>489.93</ele>
        <time>2011-10-23T14:01:20Z</time>
      </trkpt>
      <trkpt lat="45.54559" lon="6.00564">
        <ele>490.41</ele>
        <time>2011-10-23T14:01:21Z</time>
      </trkpt>
      <trkpt lat="45.54558" lon="6.00561">
        <ele>489.93</ele>
        <time>2011-10-23T14:01:22Z</time>
      </trkpt>
      <trkpt lat="45.54555" lon="6.00558">
        <ele>489.45</ele>
        <time>2011-10-23T14:01:23Z</time>
      </trkpt>
      <trkpt lat="45.54551" lon="6.00556">
        <ele>489.45</ele>
        <time>2011-10-23T14:01:24Z</time>
      </trkpt>
      <trkpt lat="45.54547" lon="6.00554">
        <ele>489.45</ele>
        <time>2011-10-23T14:01:25Z</time>
      </trkpt>
      <trkpt lat="45.54543" lon="6.00551">
        <ele>488.49</ele>
        <time>2011-10-23T14:01:26Z</time>
      </trkpt>
      <trkpt lat="45.54539" lon="6.00548">
        <ele>488.01</ele>
        <time>2011-10-23T14:01:27Z</time>
      </trkpt>
      <trkpt lat="45.54529" lon="6.00544">
        <ele>487.53</ele>
        <time>2011-10-23T14:01:29Z</time>
      </trkpt>
      <trkpt lat="45.54524" lon="6.00542">
        <ele>487.05</ele>
        <time>2011-10-23T14:01:30Z</time>
      </trkpt>
      <trkpt lat="45.54517" lon="6.00542">
        <ele>486.56</ele>
        <time>2011-10-23T14:01:31Z</time>
      </trkpt>
      <trkpt lat="45.54511" lon="6.00542">
        <ele>486.08</ele>
        <time>2011-10-23T14:01:32Z</time>
      </trkpt>
      <trkpt lat="45.54504" lon="6.00544">
        <ele>485.12</ele>
        <time>2011-10-23T14:01:33Z</time>
      </trkpt>
      <trkpt lat="45.54497" lon="6.00547">
        <ele>485.12</ele>
        <time>2011-10-23T14:01:34Z</time>
      </trkpt>
      <trkpt lat="45.5449" lon="6.00551">
        <ele>484.16</ele>
        <time>2011-10-23T14:01:35Z</time>
      </trkpt>
      <trkpt lat="45.54459" lon="6.00574">
        <ele>481.28</ele>
        <time>2011-10-23T14:01:39Z</time>
      </trkpt>
      <trkpt lat="45.54451" lon="6.00582">
        <ele>480.32</ele>
        <time>2011-10-23T14:01:40Z</time>
      </trkpt>
      <trkpt lat="45.54446" lon="6.00593">
        <ele>479.84</ele>
        <time>2011-10-23T14:01:41Z</time>
      </trkpt>
      <trkpt lat="45.54443" lon="6.00606">
        <ele>479.35</ele>
        <time>2011-10-23T14:01:42Z</time>
      </trkpt>
      <trkpt lat="45.54442" lon="6.0062">
        <ele>478.87</ele>
        <time>2011-10-23T14:01:43Z</time>
      </trkpt>
      <trkpt lat="45.54439" lon="6.00634">
        <ele>477.91</ele>
        <time>2011-10-23T14:01:44Z</time>
      </trkpt>
      <trkpt lat="45.54435" lon="6.00647">
        <ele>475.99</ele>
        <time>2011-10-23T14:01:45Z</time>
      </trkpt>
      <trkpt lat="45.5443" lon="6.00659">
        <ele>475.03</ele>
        <time>2011-10-23T14:01:46Z</time>
      </trkpt>
      <trkpt lat="45.54425" lon="6.00669">
        <ele>474.55</ele>
        <time>2011-10-23T14:01:47Z</time>
      </trkpt>
      <trkpt lat="45.54421" lon="6.00676">
        <ele>473.59</ele>
        <time>2011-10-23T14:01:48Z</time>
      </trkpt>
      <trkpt lat="45.54415" lon="6.00683">
        <ele>472.63</ele>
        <time>2011-10-23T14:01:49Z</time>
      </trkpt>
      <trkpt lat="45.54409" lon="6.00689">
        <ele>472.14</ele>
        <time>2011-10-23T14:01:50Z</time>
      </trkpt>
      <trkpt lat="45.54402" lon="6.00694">
        <ele>470.7</ele>
        <time>2011-10-23T14:01:51Z</time>
      </trkpt>
      <trkpt lat="45.54394" lon="6.00698">
        <ele>469.74</ele>
        <time>2011-10-23T14:01:52Z</time>
      </trkpt>
      <trkpt lat="45.54384" lon="6.00701">
        <ele>468.78</ele>
        <time>2011-10-23T14:01:53Z</time>
      </trkpt>
      <trkpt lat="45.54368" lon="6.00699">
        <ele>467.34</ele>
        <time>2011-10-23T14:01:54Z</time>
      </trkpt>
      <trkpt lat="45.54324" lon="6.00691">
        <ele>464.93</ele>
        <time>2011-10-23T14:01:56Z</time>
      </trkpt>
      <trkpt lat="45.5431" lon="6.00694">
        <ele>464.45</ele>
        <time>2011-10-23T14:01:57Z</time>
      </trkpt>
      <trkpt lat="45.54299" lon="6.00699">
        <ele>463.01</ele>
        <time>2011-10-23T14:01:58Z</time>
      </trkpt>
      <trkpt lat="45.5429" lon="6.00704">
        <ele>462.05</ele>
        <time>2011-10-23T14:01:59Z</time>
      </trkpt>
      <trkpt lat="45.54283" lon="6.0071">
        <ele>461.57</ele>
        <time>2011-10-23T14:02:00Z</time>
      </trkpt>
      <trkpt lat="45.54276" lon="6.00715">
        <ele>461.09</ele>
        <time>2011-10-23T14:02:01Z</time>
      </trkpt>
      <trkpt lat="45.54269" lon="6.00716">
        <ele>460.13</ele>
        <time>2011-10-23T14:02:02Z</time>
      </trkpt>
      <trkpt lat="45.54264" lon="6.00712">
        <ele>459.65</ele>
        <time>2011-10-23T14:02:03Z</time>
      </trkpt>
      <trkpt lat="45.54263" lon="6.00704">
        <ele>459.17</ele>
        <time>2011-10-23T14:02:04Z</time>
      </trkpt>
      <trkpt lat="45.54265" lon="6.00695">
        <ele>458.21</ele>
        <time>2011-10-23T14:02:05Z</time>
      </trkpt>
      <trkpt lat="45.54268" lon="6.00687">
        <ele>458.21</ele>
        <time>2011-10-23T14:02:06Z</time>
      </trkpt>
      <trkpt lat="45.54273" lon="6.0068">
        <ele>457.72</ele>
        <time>2011-10-23T14:02:07Z</time>
      </trkpt>
      <trkpt lat="45.54284" lon="6.00665">
        <ele>456.76</ele>
        <time>2011-10-23T14:02:09Z</time>
      </trkpt>
      <trkpt lat="45.54298" lon="6.00654">
        <ele>455.8</ele>
        <time>2011-10-23T14:02:11Z</time>
      </trkpt>
      <trkpt lat="45.54305" lon="6.0065">
        <ele>455.8</ele>
        <time>2011-10-23T14:02:12Z</time>
      </trkpt>
      <trkpt lat="45.5431" lon="6.00644">
        <ele>455.32</ele>
        <time>2011-10-23T14:02:13Z</time>
      </trkpt>
      <trkpt lat="45.54313" lon="6.00637">
        <ele>454.84</ele>
        <time>2011-10-23T14:02:14Z</time>
      </trkpt>
      <trkpt lat="45.54312" lon="6.00629">
        <ele>454.84</ele>
        <time>2011-10-23T14:02:15Z</time>
      </trkpt>
      <trkpt lat="45.54308" lon="6.00625">
        <ele>453.88</ele>
        <time>2011-10-23T14:02:16Z</time>
      </trkpt>
      <trkpt lat="45.54301" lon="6.00624">
        <ele>453.4</ele>
        <time>2011-10-23T14:02:17Z</time>
      </trkpt>
      <trkpt lat="45.54294" lon="6.00626">
        <ele>453.4</ele>
        <time>2011-10-23T14:02:18Z</time>
      </trkpt>
      <trkpt lat="45.54287" lon="6.00628">
        <ele>452.44</ele>
        <time>2011-10-23T14:02:19Z</time>
      </trkpt>
      <trkpt lat="45.54264" lon="6.00633">
        <ele>451</ele>
        <time>2011-10-23T14:02:22Z</time>
      </trkpt>
      <trkpt lat="45.54247" lon="6.00636">
        <ele>449.55</ele>
        <time>2011-10-23T14:02:24Z</time>
      </trkpt>
      <trkpt lat="45.54239" lon="6.00639">
        <ele>448.59</ele>
        <time>2011-10-23T14:02:25Z</time>
      </trkpt>
      <trkpt lat="45.5423" lon="6.00644">
        <ele>448.11</ele>
        <time>2011-10-23T14:02:26Z</time>
      </trkpt>
      <trkpt lat="45.54222" lon="6.00648">
        <ele>446.67</ele>
        <time>2011-10-23T14:02:27Z</time>
      </trkpt>
      <trkpt lat="45.54215" lon="6.0065">
        <ele>446.19</ele>
        <time>2011-10-23T14:02:28Z</time>
      </trkpt>
      <trkpt lat="45.5421" lon="6.00651">
        <ele>446.19</ele>
        <time>2011-10-23T14:02:29Z</time>
      </trkpt>
      <trkpt lat="45.54205" lon="6.0065">
        <ele>445.23</ele>
        <time>2011-10-23T14:02:30Z</time>
      </trkpt>
      <trkpt lat="45.54202" lon="6.00647">
        <ele>444.75</ele>
        <time>2011-10-23T14:02:31Z</time>
      </trkpt>
      <trkpt lat="45.542" lon="6.0064">
        <ele>443.79</ele>
        <time>2011-10-23T14:02:32Z</time>
      </trkpt>
      <trkpt lat="45.54197" lon="6.00624">
        <ele>442.34</ele>
        <time>2011-10-23T14:02:34Z</time>
      </trkpt>
      <trkpt lat="45.54196" lon="6.00615">
        <ele>441.38</ele>
        <time>2011-10-23T14:02:35Z</time>
      </trkpt>
      <trkpt lat="45.54197" lon="6.00605">
        <ele>440.42</ele>
        <time>2011-10-23T14:02:36Z</time>
      </trkpt>
      <trkpt lat="45.54199" lon="6.00588">
        <ele>438.5</ele>
        <time>2011-10-23T14:02:38Z</time>
      </trkpt>
      <trkpt lat="45.542" lon="6.00581">
        <ele>437.54</ele>
        <time>2011-10-23T14:02:39Z</time>
      </trkpt>
      <trkpt lat="45.542" lon="6.00577">
        <ele>437.06</ele>
        <time>2011-10-23T14:02:40Z</time>
      </trkpt>
      <trkpt lat="45.54198" lon="6.00573">
        <ele>436.58</ele>
        <time>2011-10-23T14:02:41Z</time>
      </trkpt>
      <trkpt lat="45.54195" lon="6.00569">
        <ele>436.58</ele>
        <time>2011-10-23T14:02:42Z</time>
      </trkpt>
      <trkpt lat="45.54192" lon="6.00565">
        <ele>435.61</ele>
        <time>2011-10-23T14:02:43Z</time>
      </trkpt>
      <trkpt lat="45.54188" lon="6.00562">
        <ele>435.13</ele>
        <time>2011-10-23T14:02:44Z</time>
      </trkpt>
      <trkpt lat="45.54183" lon="6.00559">
        <ele>434.17</ele>
        <time>2011-10-23T14:02:45Z</time>
      </trkpt>
      <trkpt lat="45.54158" lon="6.00544">
        <ele>431.29</ele>
        <time>2011-10-23T14:02:49Z</time>
      </trkpt>
      <trkpt lat="45.54152" lon="6.00539">
        <ele>430.81</ele>
        <time>2011-10-23T14:02:50Z</time>
      </trkpt>
      <trkpt lat="45.54142" lon="6.0053">
        <ele>428.89</ele>
        <time>2011-10-23T14:02:52Z</time>
      </trkpt>
      <trkpt lat="45.54139" lon="6.00527">
        <ele>428.4</ele>
        <time>2011-10-23T14:02:53Z</time>
      </trkpt>
      <trkpt lat="45.54136" lon="6.00524">
        <ele>427.92</ele>
        <time>2011-10-23T14:02:54Z</time>
      </trkpt>
      <trkpt lat="45.54133" lon="6.00523">
        <ele>428.4</ele>
        <time>2011-10-23T14:02:55Z</time>
      </trkpt>
      <trkpt lat="45.54131" lon="6.00522">
        <ele>427.92</ele>
        <time>2011-10-23T14:02:56Z</time>
      </trkpt>
      <trkpt lat="45.54129" lon="6.00521">
        <ele>427.92</ele>
        <time>2011-10-23T14:02:57Z</time>
      </trkpt>
      <trkpt lat="45.54127" lon="6.0052">
        <ele>427.92</ele>
        <time>2011-10-23T14:02:58Z</time>
      </trkpt>
      <trkpt lat="45.54097" lon="6.00512">
        <ele>424.56</ele>
        <time>2011-10-23T14:03:08Z</time>
      </trkpt>
      <trkpt lat="45.54084" lon="6.00508">
        <ele>424.08</ele>
        <time>2011-10-23T14:03:11Z</time>
      </trkpt>
      <trkpt lat="45.54079" lon="6.00508">
        <ele>423.6</ele>
        <time>2011-10-23T14:03:12Z</time>
      </trkpt>
      <trkpt lat="45.54067" lon="6.00508">
        <ele>422.64</ele>
        <time>2011-10-23T14:03:14Z</time>
      </trkpt>
      <trkpt lat="45.54061" lon="6.00507">
        <ele>422.16</ele>
        <time>2011-10-23T14:03:15Z</time>
      </trkpt>
      <trkpt lat="45.54049" lon="6.00507">
        <ele>421.19</ele>
        <time>2011-10-23T14:03:17Z</time>
      </trkpt>
      <trkpt lat="45.54024" lon="6.00506">
        <ele>419.75</ele>
        <time>2011-10-23T14:03:21Z</time>
      </trkpt>
      <trkpt lat="45.54" lon="6.00505">
        <ele>417.83</ele>
        <time>2011-10-23T14:03:25Z</time>
      </trkpt>
      <trkpt lat="45.53976" lon="6.0051">
        <ele>416.87</ele>
        <time>2011-10-23T14:03:33Z</time>
      </trkpt>
      <trkpt lat="45.53931" lon="6.00526">
        <ele>418.79</ele>
        <time>2011-10-23T14:03:45Z</time>
      </trkpt>
      <trkpt lat="45.5388" lon="6.00529">
        <ele>421.68</ele>
        <time>2011-10-23T14:03:59Z</time>
      </trkpt>
      <trkpt lat="45.53838" lon="6.0054">
        <ele>424.56</ele>
        <time>2011-10-23T14:04:14Z</time>
      </trkpt>
      <trkpt lat="45.53803" lon="6.00548">
        <ele>427.92</ele>
        <time>2011-10-23T14:04:28Z</time>
      </trkpt>
      <trkpt lat="45.53766" lon="6.0054">
        <ele>428.89</ele>
        <time>2011-10-23T14:04:42Z</time>
      </trkpt>
      <trkpt lat="45.5371" lon="6.00539">
        <ele>430.81</ele>
        <time>2011-10-23T14:05:00Z</time>
      </trkpt>
      <trkpt lat="45.53667" lon="6.00546">
        <ele>431.77</ele>
        <time>2011-10-23T14:05:13Z</time>
      </trkpt>
      <trkpt lat="45.53621" lon="6.00556">
        <ele>434.65</ele>
        <time>2011-10-23T14:05:29Z</time>
      </trkpt>
      <trkpt lat="45.53572" lon="6.00567">
        <ele>437.54</ele>
        <time>2011-10-23T14:05:46Z</time>
      </trkpt>
      <trkpt lat="45.53521" lon="6.00576">
        <ele>438.98</ele>
        <time>2011-10-23T14:06:02Z</time>
      </trkpt>
      <trkpt lat="45.53483" lon="6.00577">
        <ele>442.34</ele>
        <time>2011-10-23T14:06:14Z</time>
      </trkpt>
      <trkpt lat="45.53465" lon="6.00583">
        <ele>443.79</ele>
        <time>2011-10-23T14:06:24Z</time>
      </trkpt>
      <trkpt lat="45.53433" lon="6.00593">
        <ele>442.82</ele>
        <time>2011-10-23T14:06:36Z</time>
      </trkpt>
      <trkpt lat="45.53363" lon="6.00592">
        <ele>439.46</ele>
        <time>2011-10-23T14:06:49Z</time>
      </trkpt>
      <trkpt lat="45.53328" lon="6.00587">
        <ele>437.06</ele>
        <time>2011-10-23T14:06:54Z</time>
      </trkpt>
      <trkpt lat="45.53303" lon="6.00584">
        <ele>435.61</ele>
        <time>2011-10-23T14:06:57Z</time>
      </trkpt>
      <trkpt lat="45.53241" lon="6.00574">
        <ele>436.1</ele>
        <time>2011-10-23T14:07:06Z</time>
      </trkpt>
      <trkpt lat="45.53179" lon="6.0055">
        <ele>435.61</ele>
        <time>2011-10-23T14:07:19Z</time>
      </trkpt>
      <trkpt lat="45.53175" lon="6.00546">
        <ele>435.61</ele>
        <time>2011-10-23T14:07:20Z</time>
      </trkpt>
      <trkpt lat="45.53148" lon="6.00519">
        <ele>436.1</ele>
        <time>2011-10-23T14:07:28Z</time>
      </trkpt>
      <trkpt lat="45.53145" lon="6.00515">
        <ele>436.1</ele>
        <time>2011-10-23T14:07:29Z</time>
      </trkpt>
      <trkpt lat="45.53142" lon="6.00512">
        <ele>436.58</ele>
        <time>2011-10-23T14:07:30Z</time>
      </trkpt>
      <trkpt lat="45.53139" lon="6.00509">
        <ele>436.1</ele>
        <time>2011-10-23T14:07:31Z</time>
      </trkpt>
      <trkpt lat="45.53136" lon="6.00505">
        <ele>436.58</ele>
        <time>2011-10-23T14:07:32Z</time>
      </trkpt>
      <trkpt lat="45.53133" lon="6.00501">
        <ele>436.58</ele>
        <time>2011-10-23T14:07:33Z</time>
      </trkpt>
      <trkpt lat="45.5313" lon="6.00498">
        <ele>436.58</ele>
        <time>2011-10-23T14:07:34Z</time>
      </trkpt>
      <trkpt lat="45.53117" lon="6.00476">
        <ele>437.54</ele>
        <time>2011-10-23T14:07:41Z</time>
      </trkpt>
      <trkpt lat="45.53116" lon="6.0047">
        <ele>438.5</ele>
        <time>2011-10-23T14:07:43Z</time>
      </trkpt>
      <trkpt lat="45.53117" lon="6.00468">
        <ele>438.5</ele>
        <time>2011-10-23T14:07:44Z</time>
      </trkpt>
      <trkpt lat="45.53119" lon="6.00464">
        <ele>439.46</ele>
        <time>2011-10-23T14:07:46Z</time>
      </trkpt>
      <trkpt lat="45.53132" lon="6.00449">
        <ele>442.82</ele>
        <time>2011-10-23T14:07:58Z</time>
      </trkpt>
      <trkpt lat="45.53127" lon="6.00433">
        <ele>443.79</ele>
        <time>2011-10-23T14:08:05Z</time>
      </trkpt>
      <trkpt lat="45.53103" lon="6.00394">
        <ele>444.75</ele>
        <time>2011-10-23T14:08:20Z</time>
      </trkpt>
      <trkpt lat="45.53075" lon="6.00365">
        <ele>444.27</ele>
        <time>2011-10-23T14:08:33Z</time>
      </trkpt>
      <trkpt lat="45.53054" lon="6.00334">
        <ele>446.67</ele>
        <time>2011-10-23T14:08:48Z</time>
      </trkpt>
      <trkpt lat="45.53048" lon="6.0032">
        <ele>449.55</ele>
        <time>2011-10-23T14:08:55Z</time>
      </trkpt>
      <trkpt lat="45.53046" lon="6.00316">
        <ele>450.52</ele>
        <time>2011-10-23T14:08:57Z</time>
      </trkpt>
      <trkpt lat="45.53045" lon="6.00313">
        <ele>451.48</ele>
        <time>2011-10-23T14:08:59Z</time>
      </trkpt>
      <trkpt lat="45.53045" lon="6.003">
        <ele>453.88</ele>
        <time>2011-10-23T14:09:13Z</time>
      </trkpt>
      <trkpt lat="45.53045" lon="6.003">
        <ele>453.88</ele>
        <time>2011-10-23T14:09:14Z</time>
      </trkpt>
      <trkpt lat="45.53039" lon="6.00292">
        <ele>454.36</ele>
        <time>2011-10-23T14:09:27Z</time>
      </trkpt>
      <trkpt lat="45.53039" lon="6.00292">
        <ele>454.84</ele>
        <time>2011-10-23T14:09:55Z</time>
      </trkpt>
      <trkpt lat="45.53039" lon="6.00292">
        <ele>454.84</ele>
        <time>2011-10-23T14:10:30Z</time>
      </trkpt>
      <trkpt lat="45.53034" lon="6.00273">
        <ele>454.84</ele>
        <time>2011-10-23T14:10:41Z</time>
      </trkpt>
      <trkpt lat="45.53022" lon="6.00233">
        <ele>451.48</ele>
        <time>2011-10-23T14:10:48Z</time>
      </trkpt>
      <trkpt lat="45.53012" lon="6.00195">
        <ele>447.15</ele>
        <time>2011-10-23T14:10:52Z</time>
      </trkpt>
      <trkpt lat="45.53006" lon="6.00164">
        <ele>443.31</ele>
        <time>2011-10-23T14:10:55Z</time>
      </trkpt>
      <trkpt lat="45.53004" lon="6.0015">
        <ele>441.38</ele>
        <time>2011-10-23T14:10:57Z</time>
      </trkpt>
      <trkpt lat="45.53005" lon="6.00143">
        <ele>441.38</ele>
        <time>2011-10-23T14:10:58Z</time>
      </trkpt>
      <trkpt lat="45.53007" lon="6.00137">
        <ele>440.42</ele>
        <time>2011-10-23T14:10:59Z</time>
      </trkpt>
      <trkpt lat="45.5301" lon="6.0013">
        <ele>440.42</ele>
        <time>2011-10-23T14:11:00Z</time>
      </trkpt>
      <trkpt lat="45.53013" lon="6.00123">
        <ele>439.94</ele>
        <time>2011-10-23T14:11:01Z</time>
      </trkpt>
      <trkpt lat="45.53016" lon="6.00117">
        <ele>439.46</ele>
        <time>2011-10-23T14:11:02Z</time>
      </trkpt>
      <trkpt lat="45.53029" lon="6.00082">
        <ele>436.58</ele>
        <time>2011-10-23T14:11:08Z</time>
      </trkpt>
      <trkpt lat="45.53027" lon="6.00078">
        <ele>435.13</ele>
        <time>2011-10-23T14:11:09Z</time>
      </trkpt>
      <trkpt lat="45.53023" lon="6.00077">
        <ele>434.17</ele>
        <time>2011-10-23T14:11:10Z</time>
      </trkpt>
      <trkpt lat="45.53019" lon="6.00078">
        <ele>432.73</ele>
        <time>2011-10-23T14:11:11Z</time>
      </trkpt>
      <trkpt lat="45.53015" lon="6.00081">
        <ele>432.73</ele>
        <time>2011-10-23T14:11:12Z</time>
      </trkpt>
      <trkpt lat="45.5301" lon="6.00086">
        <ele>432.25</ele>
        <time>2011-10-23T14:11:13Z</time>
      </trkpt>
      <trkpt lat="45.53006" lon="6.00089">
        <ele>431.29</ele>
        <time>2011-10-23T14:11:14Z</time>
      </trkpt>
      <trkpt lat="45.53001" lon="6.00092">
        <ele>431.29</ele>
        <time>2011-10-23T14:11:15Z</time>
      </trkpt>
      <trkpt lat="45.52996" lon="6.00095">
        <ele>430.33</ele>
        <time>2011-10-23T14:11:16Z</time>
      </trkpt>
      <trkpt lat="45.52992" lon="6.00099">
        <ele>429.37</ele>
        <time>2011-10-23T14:11:17Z</time>
      </trkpt>
      <trkpt lat="45.52986" lon="6.00102">
        <ele>428.4</ele>
        <time>2011-10-23T14:11:18Z</time>
      </trkpt>
      <trkpt lat="45.5298" lon="6.00106">
        <ele>428.4</ele>
        <time>2011-10-23T14:11:19Z</time>
      </trkpt>
      <trkpt lat="45.52916" lon="6.00146">
        <ele>427.44</ele>
        <time>2011-10-23T14:11:31Z</time>
      </trkpt>
      <trkpt lat="45.52911" lon="6.00149">
        <ele>427.44</ele>
        <time>2011-10-23T14:11:32Z</time>
      </trkpt>
      <trkpt lat="45.52906" lon="6.0015">
        <ele>427.44</ele>
        <time>2011-10-23T14:11:33Z</time>
      </trkpt>
      <trkpt lat="45.52902" lon="6.0015">
        <ele>427.44</ele>
        <time>2011-10-23T14:11:34Z</time>
      </trkpt>
      <trkpt lat="45.52898" lon="6.00147">
        <ele>427.44</ele>
        <time>2011-10-23T14:11:35Z</time>
      </trkpt>
      <trkpt lat="45.52895" lon="6.00144">
        <ele>427.44</ele>
        <time>2011-10-23T14:11:36Z</time>
      </trkpt>
      <trkpt lat="45.52893" lon="6.00141">
        <ele>427.44</ele>
        <time>2011-10-23T14:11:37Z</time>
      </trkpt>
      <trkpt lat="45.52892" lon="6.00139">
        <ele>427.44</ele>
        <time>2011-10-23T14:11:38Z</time>
      </trkpt>
      <trkpt lat="45.5289" lon="6.00138">
        <ele>427.44</ele>
        <time>2011-10-23T14:11:39Z</time>
      </trkpt>
      <trkpt lat="45.52889" lon="6.00138">
        <ele>427.92</ele>
        <time>2011-10-23T14:11:40Z</time>
      </trkpt>
      <trkpt lat="45.52887" lon="6.00139">
        <ele>427.92</ele>
        <time>2011-10-23T14:11:41Z</time>
      </trkpt>
      <trkpt lat="45.52884" lon="6.0014">
        <ele>428.4</ele>
        <time>2011-10-23T14:11:42Z</time>
      </trkpt>
      <trkpt lat="45.52882" lon="6.00141">
        <ele>428.4</ele>
        <time>2011-10-23T14:11:43Z</time>
      </trkpt>
      <trkpt lat="45.52881" lon="6.00143">
        <ele>428.89</ele>
        <time>2011-10-23T14:11:44Z</time>
      </trkpt>
      <trkpt lat="45.52879" lon="6.00146">
        <ele>428.4</ele>
        <time>2011-10-23T14:11:45Z</time>
      </trkpt>
      <trkpt lat="45.52877" lon="6.00149">
        <ele>428.89</ele>
        <time>2011-10-23T14:11:46Z</time>
      </trkpt>
      <trkpt lat="45.52876" lon="6.00151">
        <ele>429.37</ele>
        <time>2011-10-23T14:11:47Z</time>
      </trkpt>
      <trkpt lat="45.52874" lon="6.00152">
        <ele>429.37</ele>
        <time>2011-10-23T14:11:48Z</time>
      </trkpt>
      <trkpt lat="45.52839" lon="6.00172">
        <ele>428.89</ele>
        <time>2011-10-23T14:12:02Z</time>
      </trkpt>
      <trkpt lat="45.52823" lon="6.00187">
        <ele>426.96</ele>
        <time>2011-10-23T14:12:08Z</time>
      </trkpt>
      <trkpt lat="45.5282" lon="6.00191">
        <ele>426.48</ele>
        <time>2011-10-23T14:12:09Z</time>
      </trkpt>
      <trkpt lat="45.52817" lon="6.00196">
        <ele>426</ele>
        <time>2011-10-23T14:12:10Z</time>
      </trkpt>
      <trkpt lat="45.52815" lon="6.002">
        <ele>425.52</ele>
        <time>2011-10-23T14:12:11Z</time>
      </trkpt>
      <trkpt lat="45.52814" lon="6.00204">
        <ele>425.04</ele>
        <time>2011-10-23T14:12:12Z</time>
      </trkpt>
      <trkpt lat="45.52813" lon="6.00208">
        <ele>425.04</ele>
        <time>2011-10-23T14:12:13Z</time>
      </trkpt>
      <trkpt lat="45.52813" lon="6.00212">
        <ele>424.56</ele>
        <time>2011-10-23T14:12:14Z</time>
      </trkpt>
      <trkpt lat="45.52811" lon="6.00214">
        <ele>424.08</ele>
        <time>2011-10-23T14:12:15Z</time>
      </trkpt>
      <trkpt lat="45.52809" lon="6.00215">
        <ele>423.6</ele>
        <time>2011-10-23T14:12:16Z</time>
      </trkpt>
      <trkpt lat="45.52806" lon="6.00216">
        <ele>423.6</ele>
        <time>2011-10-23T14:12:17Z</time>
      </trkpt>
      <trkpt lat="45.52798" lon="6.00218">
        <ele>423.6</ele>
        <time>2011-10-23T14:12:19Z</time>
      </trkpt>
      <trkpt lat="45.52741" lon="6.0024">
        <ele>423.6</ele>
        <time>2011-10-23T14:12:31Z</time>
      </trkpt>
      <trkpt lat="45.52683" lon="6.00246">
        <ele>424.56</ele>
        <time>2011-10-23T14:12:44Z</time>
      </trkpt>
      <trkpt lat="45.52623" lon="6.00253">
        <ele>427.44</ele>
        <time>2011-10-23T14:12:58Z</time>
      </trkpt>
      <trkpt lat="45.52585" lon="6.00266">
        <ele>426.48</ele>
        <time>2011-10-23T14:13:09Z</time>
      </trkpt>
      <trkpt lat="45.52551" lon="6.00281">
        <ele>422.64</ele>
        <time>2011-10-23T14:13:16Z</time>
      </trkpt>
      <trkpt lat="45.52528" lon="6.0029">
        <ele>419.27</ele>
        <time>2011-10-23T14:13:20Z</time>
      </trkpt>
      <trkpt lat="45.52509" lon="6.00297">
        <ele>416.39</ele>
        <time>2011-10-23T14:13:23Z</time>
      </trkpt>
      <trkpt lat="45.52493" lon="6.00304">
        <ele>413.5</ele>
        <time>2011-10-23T14:13:26Z</time>
      </trkpt>
      <trkpt lat="45.52488" lon="6.00304">
        <ele>413.02</ele>
        <time>2011-10-23T14:13:27Z</time>
      </trkpt>
      <trkpt lat="45.52485" lon="6.00301">
        <ele>412.06</ele>
        <time>2011-10-23T14:13:28Z</time>
      </trkpt>
      <trkpt lat="45.52482" lon="6.00295">
        <ele>412.06</ele>
        <time>2011-10-23T14:13:29Z</time>
      </trkpt>
      <trkpt lat="45.52475" lon="6.00283">
        <ele>411.58</ele>
        <time>2011-10-23T14:13:31Z</time>
      </trkpt>
      <trkpt lat="45.52473" lon="6.00277">
        <ele>411.58</ele>
        <time>2011-10-23T14:13:32Z</time>
      </trkpt>
      <trkpt lat="45.52465" lon="6.00175">
        <ele>409.66</ele>
        <time>2011-10-23T14:13:47Z</time>
      </trkpt>
      <trkpt lat="45.52464" lon="6.00149">
        <ele>409.18</ele>
        <time>2011-10-23T14:13:51Z</time>
      </trkpt>
      <trkpt lat="45.52462" lon="6.00143">
        <ele>409.18</ele>
        <time>2011-10-23T14:13:52Z</time>
      </trkpt>
      <trkpt lat="45.5246" lon="6.00136">
        <ele>409.18</ele>
        <time>2011-10-23T14:13:53Z</time>
      </trkpt>
      <trkpt lat="45.52458" lon="6.0013">
        <ele>409.18</ele>
        <time>2011-10-23T14:13:54Z</time>
      </trkpt>
      <trkpt lat="45.52456" lon="6.00123">
        <ele>408.7</ele>
        <time>2011-10-23T14:13:55Z</time>
      </trkpt>
      <trkpt lat="45.52445" lon="6.00069">
        <ele>404.85</ele>
        <time>2011-10-23T14:14:01Z</time>
      </trkpt>
      <trkpt lat="45.52441" lon="6.00038">
        <ele>401.01</ele>
        <time>2011-10-23T14:14:04Z</time>
      </trkpt>
      <trkpt lat="45.5244" lon="6.00028">
        <ele>400.53</ele>
        <time>2011-10-23T14:14:05Z</time>
      </trkpt>
      <trkpt lat="45.52439" lon="6.00017">
        <ele>400.05</ele>
        <time>2011-10-23T14:14:06Z</time>
      </trkpt>
      <trkpt lat="45.5244" lon="6.00007">
        <ele>398.6</ele>
        <time>2011-10-23T14:14:07Z</time>
      </trkpt>
      <trkpt lat="45.52442" lon="5.99992">
        <ele>396.68</ele>
        <time>2011-10-23T14:14:09Z</time>
      </trkpt>
      <trkpt lat="45.52444" lon="5.99985">
        <ele>395.72</ele>
        <time>2011-10-23T14:14:10Z</time>
      </trkpt>
      <trkpt lat="45.52437" lon="5.99977">
        <ele>393.8</ele>
        <time>2011-10-23T14:14:13Z</time>
      </trkpt>
      <trkpt lat="45.52434" lon="5.9998">
        <ele>393.32</ele>
        <time>2011-10-23T14:14:14Z</time>
      </trkpt>
      <trkpt lat="45.5243" lon="5.99986">
        <ele>392.36</ele>
        <time>2011-10-23T14:14:15Z</time>
      </trkpt>
      <trkpt lat="45.52426" lon="5.99991">
        <ele>391.87</ele>
        <time>2011-10-23T14:14:16Z</time>
      </trkpt>
      <trkpt lat="45.52422" lon="5.99997">
        <ele>391.39</ele>
        <time>2011-10-23T14:14:17Z</time>
      </trkpt>
      <trkpt lat="45.52412" lon="5.9999">
        <ele>388.03</ele>
        <time>2011-10-23T14:14:22Z</time>
      </trkpt>
      <trkpt lat="45.52414" lon="5.99984">
        <ele>387.55</ele>
        <time>2011-10-23T14:14:23Z</time>
      </trkpt>
      <trkpt lat="45.52417" lon="5.99977">
        <ele>387.07</ele>
        <time>2011-10-23T14:14:24Z</time>
      </trkpt>
      <trkpt lat="45.52421" lon="5.99971">
        <ele>387.07</ele>
        <time>2011-10-23T14:14:25Z</time>
      </trkpt>
      <trkpt lat="45.52425" lon="5.99966">
        <ele>385.63</ele>
        <time>2011-10-23T14:14:26Z</time>
      </trkpt>
      <trkpt lat="45.52428" lon="5.99963">
        <ele>385.63</ele>
        <time>2011-10-23T14:14:27Z</time>
      </trkpt>
      <trkpt lat="45.52431" lon="5.9996">
        <ele>384.66</ele>
        <time>2011-10-23T14:14:28Z</time>
      </trkpt>
      <trkpt lat="45.5243" lon="5.99957">
        <ele>384.66</ele>
        <time>2011-10-23T14:14:29Z</time>
      </trkpt>
      <trkpt lat="45.52424" lon="5.99952">
        <ele>382.74</ele>
        <time>2011-10-23T14:14:31Z</time>
      </trkpt>
      <trkpt lat="45.52419" lon="5.99952">
        <ele>382.74</ele>
        <time>2011-10-23T14:14:32Z</time>
      </trkpt>
      <trkpt lat="45.52413" lon="5.99951">
        <ele>382.26</ele>
        <time>2011-10-23T14:14:33Z</time>
      </trkpt>
      <trkpt lat="45.52401" lon="5.9995">
        <ele>380.34</ele>
        <time>2011-10-23T14:14:35Z</time>
      </trkpt>
      <trkpt lat="45.52396" lon="5.99952">
        <ele>379.38</ele>
        <time>2011-10-23T14:14:36Z</time>
      </trkpt>
      <trkpt lat="45.52393" lon="5.99955">
        <ele>378.9</ele>
        <time>2011-10-23T14:14:37Z</time>
      </trkpt>
      <trkpt lat="45.5239" lon="5.99957">
        <ele>378.42</ele>
        <time>2011-10-23T14:14:38Z</time>
      </trkpt>
      <trkpt lat="45.52388" lon="5.99959">
        <ele>377.94</ele>
        <time>2011-10-23T14:14:39Z</time>
      </trkpt>
      <trkpt lat="45.52388" lon="5.99946">
        <ele>376.49</ele>
        <time>2011-10-23T14:14:44Z</time>
      </trkpt>
      <trkpt lat="45.5239" lon="5.9994">
        <ele>376.01</ele>
        <time>2011-10-23T14:14:45Z</time>
      </trkpt>
      <trkpt lat="45.52394" lon="5.99934">
        <ele>374.57</ele>
        <time>2011-10-23T14:14:46Z</time>
      </trkpt>
      <trkpt lat="45.52403" lon="5.99922">
        <ele>373.13</ele>
        <time>2011-10-23T14:14:48Z</time>
      </trkpt>
      <trkpt lat="45.52408" lon="5.99917">
        <ele>372.17</ele>
        <time>2011-10-23T14:14:49Z</time>
      </trkpt>
      <trkpt lat="45.52413" lon="5.99915">
        <ele>371.69</ele>
        <time>2011-10-23T14:14:50Z</time>
      </trkpt>
      <trkpt lat="45.52416" lon="5.99911">
        <ele>370.73</ele>
        <time>2011-10-23T14:14:51Z</time>
      </trkpt>
      <trkpt lat="45.52415" lon="5.99907">
        <ele>370.24</ele>
        <time>2011-10-23T14:14:52Z</time>
      </trkpt>
      <trkpt lat="45.52412" lon="5.99903">
        <ele>368.8</ele>
        <time>2011-10-23T14:14:53Z</time>
      </trkpt>
      <trkpt lat="45.52408" lon="5.99901">
        <ele>368.32</ele>
        <time>2011-10-23T14:14:54Z</time>
      </trkpt>
      <trkpt lat="45.52402" lon="5.99899">
        <ele>367.36</ele>
        <time>2011-10-23T14:14:55Z</time>
      </trkpt>
      <trkpt lat="45.52396" lon="5.99898">
        <ele>366.88</ele>
        <time>2011-10-23T14:14:56Z</time>
      </trkpt>
      <trkpt lat="45.5239" lon="5.99899">
        <ele>365.92</ele>
        <time>2011-10-23T14:14:57Z</time>
      </trkpt>
      <trkpt lat="45.52384" lon="5.99902">
        <ele>364.96</ele>
        <time>2011-10-23T14:14:58Z</time>
      </trkpt>
      <trkpt lat="45.52379" lon="5.99906">
        <ele>364.96</ele>
        <time>2011-10-23T14:14:59Z</time>
      </trkpt>
      <trkpt lat="45.52376" lon="5.99909">
        <ele>364.48</ele>
        <time>2011-10-23T14:15:00Z</time>
      </trkpt>
      <trkpt lat="45.52373" lon="5.99909">
        <ele>363.04</ele>
        <time>2011-10-23T14:15:01Z</time>
      </trkpt>
      <trkpt lat="45.52372" lon="5.99905">
        <ele>363.04</ele>
        <time>2011-10-23T14:15:02Z</time>
      </trkpt>
      <trkpt lat="45.52376" lon="5.99897">
        <ele>361.59</ele>
        <time>2011-10-23T14:15:04Z</time>
      </trkpt>
      <trkpt lat="45.5238" lon="5.99892">
        <ele>361.11</ele>
        <time>2011-10-23T14:15:05Z</time>
      </trkpt>
      <trkpt lat="45.52384" lon="5.99886">
        <ele>360.15</ele>
        <time>2011-10-23T14:15:06Z</time>
      </trkpt>
      <trkpt lat="45.52406" lon="5.99854">
        <ele>356.31</ele>
        <time>2011-10-23T14:15:11Z</time>
      </trkpt>
      <trkpt lat="45.52409" lon="5.99849">
        <ele>355.83</ele>
        <time>2011-10-23T14:15:12Z</time>
      </trkpt>
      <trkpt lat="45.52408" lon="5.99843">
        <ele>354.86</ele>
        <time>2011-10-23T14:15:13Z</time>
      </trkpt>
      <trkpt lat="45.52403" lon="5.99837">
        <ele>353.9</ele>
        <time>2011-10-23T14:15:15Z</time>
      </trkpt>
      <trkpt lat="45.52396" lon="5.99841">
        <ele>352.46</ele>
        <time>2011-10-23T14:15:17Z</time>
      </trkpt>
      <trkpt lat="45.52386" lon="5.99846">
        <ele>351.5</ele>
        <time>2011-10-23T14:15:19Z</time>
      </trkpt>
      <trkpt lat="45.52381" lon="5.99847">
        <ele>350.54</ele>
        <time>2011-10-23T14:15:20Z</time>
      </trkpt>
      <trkpt lat="45.52374" lon="5.99839">
        <ele>349.58</ele>
        <time>2011-10-23T14:15:22Z</time>
      </trkpt>
      <trkpt lat="45.52374" lon="5.99833">
        <ele>349.1</ele>
        <time>2011-10-23T14:15:23Z</time>
      </trkpt>
      <trkpt lat="45.52375" lon="5.99827">
        <ele>349.1</ele>
        <time>2011-10-23T14:15:24Z</time>
      </trkpt>
      <trkpt lat="45.52379" lon="5.99822">
        <ele>348.13</ele>
        <time>2011-10-23T14:15:25Z</time>
      </trkpt>
      <trkpt lat="45.52383" lon="5.99817">
        <ele>347.65</ele>
        <time>2011-10-23T14:15:26Z</time>
      </trkpt>
      <trkpt lat="45.52387" lon="5.99814">
        <ele>347.17</ele>
        <time>2011-10-23T14:15:27Z</time>
      </trkpt>
      <trkpt lat="45.5239" lon="5.9981">
        <ele>346.21</ele>
        <time>2011-10-23T14:15:28Z</time>
      </trkpt>
      <trkpt lat="45.52393" lon="5.99804">
        <ele>345.73</ele>
        <time>2011-10-23T14:15:29Z</time>
      </trkpt>
      <trkpt lat="45.52393" lon="5.99797">
        <ele>345.25</ele>
        <time>2011-10-23T14:15:30Z</time>
      </trkpt>
      <trkpt lat="45.52385" lon="5.99787">
        <ele>343.33</ele>
        <time>2011-10-23T14:15:32Z</time>
      </trkpt>
      <trkpt lat="45.52379" lon="5.99787">
        <ele>342.85</ele>
        <time>2011-10-23T14:15:33Z</time>
      </trkpt>
      <trkpt lat="45.52373" lon="5.9979">
        <ele>341.89</ele>
        <time>2011-10-23T14:15:34Z</time>
      </trkpt>
      <trkpt lat="45.52367" lon="5.99793">
        <ele>340.92</ele>
        <time>2011-10-23T14:15:35Z</time>
      </trkpt>
      <trkpt lat="45.52362" lon="5.99798">
        <ele>340.44</ele>
        <time>2011-10-23T14:15:36Z</time>
      </trkpt>
      <trkpt lat="45.52357" lon="5.99804">
        <ele>339.48</ele>
        <time>2011-10-23T14:15:37Z</time>
      </trkpt>
      <trkpt lat="45.52353" lon="5.99811">
        <ele>339.48</ele>
        <time>2011-10-23T14:15:38Z</time>
      </trkpt>
      <trkpt lat="45.52349" lon="5.99818">
        <ele>340.44</ele>
        <time>2011-10-23T14:15:39Z</time>
      </trkpt>
      <trkpt lat="45.52346" lon="5.99824">
        <ele>340.92</ele>
        <time>2011-10-23T14:15:40Z</time>
      </trkpt>
      <trkpt lat="45.52344" lon="5.9983">
        <ele>340.92</ele>
        <time>2011-10-23T14:15:41Z</time>
      </trkpt>
      <trkpt lat="45.52341" lon="5.99836">
        <ele>341.89</ele>
        <time>2011-10-23T14:15:42Z</time>
      </trkpt>
      <trkpt lat="45.5234" lon="5.99839">
        <ele>342.37</ele>
        <time>2011-10-23T14:15:43Z</time>
      </trkpt>
      <trkpt lat="45.5233" lon="5.99866">
        <ele>343.33</ele>
        <time>2011-10-23T14:15:47Z</time>
      </trkpt>
      <trkpt lat="45.52293" lon="5.99941">
        <ele>344.77</ele>
        <time>2011-10-23T14:16:00Z</time>
      </trkpt>
      <trkpt lat="45.52286" lon="5.99951">
        <ele>345.25</ele>
        <time>2011-10-23T14:16:02Z</time>
      </trkpt>
      <trkpt lat="45.52277" lon="5.99968">
        <ele>345.25</ele>
        <time>2011-10-23T14:16:05Z</time>
      </trkpt>
      <trkpt lat="45.5227" lon="5.99985">
        <ele>346.21</ele>
        <time>2011-10-23T14:16:08Z</time>
      </trkpt>
      <trkpt lat="45.52267" lon="5.9999">
        <ele>346.21</ele>
        <time>2011-10-23T14:16:09Z</time>
      </trkpt>
      <trkpt lat="45.52251" lon="6.00028">
        <ele>346.69</ele>
        <time>2011-10-23T14:16:16Z</time>
      </trkpt>
      <trkpt lat="45.5225" lon="6.00035">
        <ele>346.21</ele>
        <time>2011-10-23T14:16:17Z</time>
      </trkpt>
      <trkpt lat="45.52248" lon="6.00041">
        <ele>346.69</ele>
        <time>2011-10-23T14:16:18Z</time>
      </trkpt>
      <trkpt lat="45.52245" lon="6.00047">
        <ele>346.69</ele>
        <time>2011-10-23T14:16:19Z</time>
      </trkpt>
      <trkpt lat="45.52242" lon="6.00052">
        <ele>346.69</ele>
        <time>2011-10-23T14:16:20Z</time>
      </trkpt>
      <trkpt lat="45.52239" lon="6.00058">
        <ele>346.21</ele>
        <time>2011-10-23T14:16:21Z</time>
      </trkpt>
      <trkpt lat="45.52187" lon="6.00131">
        <ele>347.65</ele>
        <time>2011-10-23T14:16:35Z</time>
      </trkpt>
      <trkpt lat="45.5218" lon="6.00142">
        <ele>348.13</ele>
        <time>2011-10-23T14:16:37Z</time>
      </trkpt>
      <trkpt lat="45.52177" lon="6.00147">
        <ele>348.62</ele>
        <time>2011-10-23T14:16:38Z</time>
      </trkpt>
      <trkpt lat="45.52173" lon="6.00152">
        <ele>348.13</ele>
        <time>2011-10-23T14:16:39Z</time>
      </trkpt>
      <trkpt lat="45.5217" lon="6.00157">
        <ele>348.62</ele>
        <time>2011-10-23T14:16:40Z</time>
      </trkpt>
      <trkpt lat="45.52167" lon="6.00162">
        <ele>349.1</ele>
        <time>2011-10-23T14:16:41Z</time>
      </trkpt>
      <trkpt lat="45.52126" lon="6.00246">
        <ele>349.58</ele>
        <time>2011-10-23T14:16:56Z</time>
      </trkpt>
      <trkpt lat="45.5211" lon="6.00282">
        <ele>349.58</ele>
        <time>2011-10-23T14:17:02Z</time>
      </trkpt>
      <trkpt lat="45.52108" lon="6.00288">
        <ele>349.58</ele>
        <time>2011-10-23T14:17:03Z</time>
      </trkpt>
      <trkpt lat="45.52102" lon="6.00308">
        <ele>350.06</ele>
        <time>2011-10-23T14:17:06Z</time>
      </trkpt>
      <trkpt lat="45.52102" lon="6.00314">
        <ele>350.06</ele>
        <time>2011-10-23T14:17:07Z</time>
      </trkpt>
      <trkpt lat="45.52102" lon="6.00321">
        <ele>350.54</ele>
        <time>2011-10-23T14:17:08Z</time>
      </trkpt>
      <trkpt lat="45.52103" lon="6.00328">
        <ele>350.54</ele>
        <time>2011-10-23T14:17:09Z</time>
      </trkpt>
      <trkpt lat="45.52105" lon="6.00334">
        <ele>351.02</ele>
        <time>2011-10-23T14:17:10Z</time>
      </trkpt>
      <trkpt lat="45.52107" lon="6.00339">
        <ele>351.5</ele>
        <time>2011-10-23T14:17:11Z</time>
      </trkpt>
      <trkpt lat="45.5211" lon="6.00343">
        <ele>351.5</ele>
        <time>2011-10-23T14:17:12Z</time>
      </trkpt>
      <trkpt lat="45.52121" lon="6.00365">
        <ele>352.94</ele>
        <time>2011-10-23T14:17:17Z</time>
      </trkpt>
      <trkpt lat="45.52119" lon="6.00393">
        <ele>353.9</ele>
        <time>2011-10-23T14:17:22Z</time>
      </trkpt>
      <trkpt lat="45.52118" lon="6.00398">
        <ele>354.38</ele>
        <time>2011-10-23T14:17:23Z</time>
      </trkpt>
      <trkpt lat="45.52106" lon="6.00423">
        <ele>354.86</ele>
        <time>2011-10-23T14:17:29Z</time>
      </trkpt>
      <trkpt lat="45.52103" lon="6.00423">
        <ele>354.38</ele>
        <time>2011-10-23T14:17:30Z</time>
      </trkpt>
      <trkpt lat="45.52099" lon="6.00421">
        <ele>353.9</ele>
        <time>2011-10-23T14:17:31Z</time>
      </trkpt>
      <trkpt lat="45.52094" lon="6.00418">
        <ele>353.42</ele>
        <time>2011-10-23T14:17:32Z</time>
      </trkpt>
      <trkpt lat="45.52079" lon="6.00402">
        <ele>351.02</ele>
        <time>2011-10-23T14:17:35Z</time>
      </trkpt>
      <trkpt lat="45.52073" lon="6.00396">
        <ele>349.58</ele>
        <time>2011-10-23T14:17:36Z</time>
      </trkpt>
      <trkpt lat="45.52068" lon="6.0039">
        <ele>349.1</ele>
        <time>2011-10-23T14:17:37Z</time>
      </trkpt>
      <trkpt lat="45.52065" lon="6.00384">
        <ele>347.65</ele>
        <time>2011-10-23T14:17:38Z</time>
      </trkpt>
      <trkpt lat="45.52063" lon="6.00377">
        <ele>346.69</ele>
        <time>2011-10-23T14:17:39Z</time>
      </trkpt>
      <trkpt lat="45.52062" lon="6.0037">
        <ele>346.21</ele>
        <time>2011-10-23T14:17:40Z</time>
      </trkpt>
      <trkpt lat="45.52062" lon="6.0036">
        <ele>344.77</ele>
        <time>2011-10-23T14:17:41Z</time>
      </trkpt>
      <trkpt lat="45.52063" lon="6.00351">
        <ele>343.81</ele>
        <time>2011-10-23T14:17:42Z</time>
      </trkpt>
      <trkpt lat="45.52063" lon="6.00341">
        <ele>343.33</ele>
        <time>2011-10-23T14:17:43Z</time>
      </trkpt>
      <trkpt lat="45.52064" lon="6.00321">
        <ele>342.37</ele>
        <time>2011-10-23T14:17:45Z</time>
      </trkpt>
      <trkpt lat="45.52066" lon="6.00282">
        <ele>339.48</ele>
        <time>2011-10-23T14:17:49Z</time>
      </trkpt>
      <trkpt lat="45.52064" lon="6.00273">
        <ele>337.56</ele>
        <time>2011-10-23T14:17:51Z</time>
      </trkpt>
      <trkpt lat="45.52062" lon="6.00274">
        <ele>337.08</ele>
        <time>2011-10-23T14:17:52Z</time>
      </trkpt>
      <trkpt lat="45.52059" lon="6.00278">
        <ele>336.6</ele>
        <time>2011-10-23T14:17:53Z</time>
      </trkpt>
      <trkpt lat="45.52032" lon="6.00316">
        <ele>333.23</ele>
        <time>2011-10-23T14:18:00Z</time>
      </trkpt>
      <trkpt lat="45.52021" lon="6.00335">
        <ele>331.79</ele>
        <time>2011-10-23T14:18:03Z</time>
      </trkpt>
      <trkpt lat="45.52017" lon="6.0034">
        <ele>330.83</ele>
        <time>2011-10-23T14:18:04Z</time>
      </trkpt>
      <trkpt lat="45.51999" lon="6.00351">
        <ele>326.02</ele>
        <time>2011-10-23T14:18:07Z</time>
      </trkpt>
      <trkpt lat="45.5198" lon="6.00363">
        <ele>322.66</ele>
        <time>2011-10-23T14:18:10Z</time>
      </trkpt>
      <trkpt lat="45.51963" lon="6.00374">
        <ele>319.3</ele>
        <time>2011-10-23T14:18:13Z</time>
      </trkpt>
      <trkpt lat="45.51959" lon="6.00376">
        <ele>318.33</ele>
        <time>2011-10-23T14:18:14Z</time>
      </trkpt>
      <trkpt lat="45.51955" lon="6.00376">
        <ele>317.37</ele>
        <time>2011-10-23T14:18:15Z</time>
      </trkpt>
      <trkpt lat="45.51952" lon="6.00374">
        <ele>316.41</ele>
        <time>2011-10-23T14:18:16Z</time>
      </trkpt>
      <trkpt lat="45.51951" lon="6.00368">
        <ele>315.45</ele>
        <time>2011-10-23T14:18:17Z</time>
      </trkpt>
      <trkpt lat="45.51952" lon="6.00362">
        <ele>314.97</ele>
        <time>2011-10-23T14:18:18Z</time>
      </trkpt>
      <trkpt lat="45.51954" lon="6.00355">
        <ele>313.53</ele>
        <time>2011-10-23T14:18:19Z</time>
      </trkpt>
      <trkpt lat="45.51956" lon="6.00349">
        <ele>313.53</ele>
        <time>2011-10-23T14:18:20Z</time>
      </trkpt>
      <trkpt lat="45.5196" lon="6.00342">
        <ele>312.57</ele>
        <time>2011-10-23T14:18:21Z</time>
      </trkpt>
      <trkpt lat="45.51963" lon="6.00337">
        <ele>312.57</ele>
        <time>2011-10-23T14:18:22Z</time>
      </trkpt>
      <trkpt lat="45.51966" lon="6.00331">
        <ele>313.05</ele>
        <time>2011-10-23T14:18:23Z</time>
      </trkpt>
      <trkpt lat="45.51983" lon="6.00302">
        <ele>314.01</ele>
        <time>2011-10-23T14:18:30Z</time>
      </trkpt>
      <trkpt lat="45.51983" lon="6.003">
        <ele>313.53</ele>
        <time>2011-10-23T14:18:31Z</time>
      </trkpt>
      <trkpt lat="45.51966" lon="6.00287">
        <ele>309.2</ele>
        <time>2011-10-23T14:18:35Z</time>
      </trkpt>
      <trkpt lat="45.51941" lon="6.00271">
        <ele>305.84</ele>
        <time>2011-10-23T14:18:39Z</time>
      </trkpt>
      <trkpt lat="45.51933" lon="6.00268">
        <ele>304.88</ele>
        <time>2011-10-23T14:18:41Z</time>
      </trkpt>
      <trkpt lat="45.51928" lon="6.00269">
        <ele>304.39</ele>
        <time>2011-10-23T14:18:42Z</time>
      </trkpt>
      <trkpt lat="45.51924" lon="6.00269">
        <ele>303.91</ele>
        <time>2011-10-23T14:18:43Z</time>
      </trkpt>
      <trkpt lat="45.5192" lon="6.00267">
        <ele>304.39</ele>
        <time>2011-10-23T14:18:44Z</time>
      </trkpt>
      <trkpt lat="45.51917" lon="6.00263">
        <ele>304.39</ele>
        <time>2011-10-23T14:18:45Z</time>
      </trkpt>
      <trkpt lat="45.51914" lon="6.0026">
        <ele>303.91</ele>
        <time>2011-10-23T14:18:46Z</time>
      </trkpt>
      <trkpt lat="45.5191" lon="6.00255">
        <ele>303.91</ele>
        <time>2011-10-23T14:18:47Z</time>
      </trkpt>
      <trkpt lat="45.51907" lon="6.00251">
        <ele>303.91</ele>
        <time>2011-10-23T14:18:48Z</time>
      </trkpt>
      <trkpt lat="45.51905" lon="6.00246">
        <ele>303.43</ele>
        <time>2011-10-23T14:18:49Z</time>
      </trkpt>
      <trkpt lat="45.51903" lon="6.0024">
        <ele>303.91</ele>
        <time>2011-10-23T14:18:50Z</time>
      </trkpt>
      <trkpt lat="45.51902" lon="6.00234">
        <ele>303.43</ele>
        <time>2011-10-23T14:18:51Z</time>
      </trkpt>
      <trkpt lat="45.51902" lon="6.00227">
        <ele>303.43</ele>
        <time>2011-10-23T14:18:52Z</time>
      </trkpt>
      <trkpt lat="45.51888" lon="6.00172">
        <ele>302.47</ele>
        <time>2011-10-23T14:19:01Z</time>
      </trkpt>
      <trkpt lat="45.51875" lon="6.00143">
        <ele>301.99</ele>
        <time>2011-10-23T14:19:06Z</time>
      </trkpt>
      <trkpt lat="45.51871" lon="6.00138">
        <ele>301.51</ele>
        <time>2011-10-23T14:19:07Z</time>
      </trkpt>
      <trkpt lat="45.51845" lon="6.00098">
        <ele>301.03</ele>
        <time>2011-10-23T14:19:19Z</time>
      </trkpt>
      <trkpt lat="45.51843" lon="6.00097">
        <ele>301.03</ele>
        <time>2011-10-23T14:19:23Z</time>
      </trkpt>
      <trkpt lat="45.51821" lon="6.00078">
        <ele>301.03</ele>
        <time>2011-10-23T14:19:31Z</time>
      </trkpt>
      <trkpt lat="45.51818" lon="6.00079">
        <ele>300.55</ele>
        <time>2011-10-23T14:19:32Z</time>
      </trkpt>
      <trkpt lat="45.51815" lon="6.00082">
        <ele>300.07</ele>
        <time>2011-10-23T14:19:33Z</time>
      </trkpt>
      <trkpt lat="45.51808" lon="6.00093">
        <ele>300.55</ele>
        <time>2011-10-23T14:19:36Z</time>
      </trkpt>
      <trkpt lat="45.51804" lon="6.00093">
        <ele>300.07</ele>
        <time>2011-10-23T14:19:37Z</time>
      </trkpt>
      <trkpt lat="45.51801" lon="6.00092">
        <ele>300.07</ele>
        <time>2011-10-23T14:19:38Z</time>
      </trkpt>
      <trkpt lat="45.51796" lon="6.00089">
        <ele>300.07</ele>
        <time>2011-10-23T14:19:39Z</time>
      </trkpt>
      <trkpt lat="45.51793" lon="6.00085">
        <ele>300.55</ele>
        <time>2011-10-23T14:19:40Z</time>
      </trkpt>
      <trkpt lat="45.51789" lon="6.0008">
        <ele>300.07</ele>
        <time>2011-10-23T14:19:41Z</time>
      </trkpt>
      <trkpt lat="45.51733" lon="5.99996">
        <ele>299.59</ele>
        <time>2011-10-23T14:19:56Z</time>
      </trkpt>
      <trkpt lat="45.51719" lon="5.99974">
        <ele>299.59</ele>
        <time>2011-10-23T14:20:00Z</time>
      </trkpt>
      <trkpt lat="45.51717" lon="5.99968">
        <ele>299.59</ele>
        <time>2011-10-23T14:20:01Z</time>
      </trkpt>
      <trkpt lat="45.51716" lon="5.99962">
        <ele>300.07</ele>
        <time>2011-10-23T14:20:02Z</time>
      </trkpt>
      <trkpt lat="45.51716" lon="5.99955">
        <ele>299.59</ele>
        <time>2011-10-23T14:20:03Z</time>
      </trkpt>
      <trkpt lat="45.51718" lon="5.99949">
        <ele>299.59</ele>
        <time>2011-10-23T14:20:04Z</time>
      </trkpt>
      <trkpt lat="45.5172" lon="5.99943">
        <ele>300.07</ele>
        <time>2011-10-23T14:20:05Z</time>
      </trkpt>
      <trkpt lat="45.51725" lon="5.99924">
        <ele>300.07</ele>
        <time>2011-10-23T14:20:08Z</time>
      </trkpt>
      <trkpt lat="45.51725" lon="5.99919">
        <ele>299.59</ele>
        <time>2011-10-23T14:20:09Z</time>
      </trkpt>
      <trkpt lat="45.51724" lon="5.99915">
        <ele>300.07</ele>
        <time>2011-10-23T14:20:10Z</time>
      </trkpt>
      <trkpt lat="45.51724" lon="5.99911">
        <ele>300.07</ele>
        <time>2011-10-23T14:20:11Z</time>
      </trkpt>
      <trkpt lat="45.51723" lon="5.99908">
        <ele>300.07</ele>
        <time>2011-10-23T14:20:12Z</time>
      </trkpt>
      <trkpt lat="45.51724" lon="5.99904">
        <ele>300.07</ele>
        <time>2011-10-23T14:20:13Z</time>
      </trkpt>
      <trkpt lat="45.51724" lon="5.999">
        <ele>299.59</ele>
        <time>2011-10-23T14:20:14Z</time>
      </trkpt>
      <trkpt lat="45.51725" lon="5.99897">
        <ele>299.59</ele>
        <time>2011-10-23T14:20:15Z</time>
      </trkpt>
      <trkpt lat="45.51726" lon="5.99893">
        <ele>300.07</ele>
        <time>2011-10-23T14:20:16Z</time>
      </trkpt>
      <trkpt lat="45.51748" lon="5.99805">
        <ele>299.59</ele>
        <time>2011-10-23T14:20:31Z</time>
      </trkpt>
      <trkpt lat="45.51757" lon="5.99766">
        <ele>300.07</ele>
        <time>2011-10-23T14:20:37Z</time>
      </trkpt>
      <trkpt lat="45.51781" lon="5.99663">
        <ele>300.55</ele>
        <time>2011-10-23T14:20:54Z</time>
      </trkpt>
      <trkpt lat="45.51799" lon="5.99584">
        <ele>300.55</ele>
        <time>2011-10-23T14:21:09Z</time>
      </trkpt>
      <trkpt lat="45.51802" lon="5.99569">
        <ele>301.03</ele>
        <time>2011-10-23T14:21:19Z</time>
      </trkpt>
      <trkpt lat="45.51803" lon="5.99563">
        <ele>301.03</ele>
        <time>2011-10-23T14:21:30Z</time>
      </trkpt>
      <trkpt lat="45.51804" lon="5.99562">
        <ele>301.03</ele>
        <time>2011-10-23T14:21:33Z</time>
      </trkpt>
      <trkpt lat="45.51806" lon="5.99558">
        <ele>300.55</ele>
        <time>2011-10-23T14:21:38Z</time>
      </trkpt>
      <trkpt lat="45.51806" lon="5.99555">
        <ele>301.03</ele>
        <time>2011-10-23T14:21:39Z</time>
      </trkpt>
      <trkpt lat="45.51807" lon="5.99551">
        <ele>300.55</ele>
        <time>2011-10-23T14:21:40Z</time>
      </trkpt>
      <trkpt lat="45.5183" lon="5.99511">
        <ele>300.07</ele>
        <time>2011-10-23T14:21:51Z</time>
      </trkpt>
      <trkpt lat="45.51862" lon="5.99465">
        <ele>300.55</ele>
        <time>2011-10-23T14:22:04Z</time>
      </trkpt>
      <trkpt lat="45.51877" lon="5.99431">
        <ele>299.59</ele>
        <time>2011-10-23T14:22:16Z</time>
      </trkpt>
      <trkpt lat="45.51915" lon="5.99372">
        <ele>300.55</ele>
        <time>2011-10-23T14:22:30Z</time>
      </trkpt>
      <trkpt lat="45.51957" lon="5.99315">
        <ele>300.55</ele>
        <time>2011-10-23T14:22:44Z</time>
      </trkpt>
      <trkpt lat="45.51971" lon="5.99263">
        <ele>301.03</ele>
        <time>2011-10-23T14:22:57Z</time>
      </trkpt>
      <trkpt lat="45.51965" lon="5.99255">
        <ele>301.51</ele>
        <time>2011-10-23T14:22:59Z</time>
      </trkpt>
      <trkpt lat="45.51961" lon="5.99249">
        <ele>301.51</ele>
        <time>2011-10-23T14:23:00Z</time>
      </trkpt>
      <trkpt lat="45.51947" lon="5.99232">
        <ele>301.51</ele>
        <time>2011-10-23T14:23:04Z</time>
      </trkpt>
      <trkpt lat="45.51915" lon="5.9919">
        <ele>302.47</ele>
        <time>2011-10-23T14:23:17Z</time>
      </trkpt>
      <trkpt lat="45.51896" lon="5.99164">
        <ele>302.95</ele>
        <time>2011-10-23T14:23:33Z</time>
      </trkpt>
      <trkpt lat="45.51896" lon="5.99164">
        <ele>303.43</ele>
        <time>2011-10-23T14:24:03Z</time>
      </trkpt>
      <trkpt lat="45.5189" lon="5.99157">
        <ele>303.91</ele>
        <time>2011-10-23T14:24:32Z</time>
      </trkpt>
      <trkpt lat="45.51848" lon="5.9911">
        <ele>304.88</ele>
        <time>2011-10-23T14:24:47Z</time>
      </trkpt>
      <trkpt lat="45.51794" lon="5.9908">
        <ele>307.28</ele>
        <time>2011-10-23T14:25:04Z</time>
      </trkpt>
      <trkpt lat="45.51749" lon="5.9905">
        <ele>310.64</ele>
        <time>2011-10-23T14:25:19Z</time>
      </trkpt>
      <trkpt lat="45.51703" lon="5.99003">
        <ele>313.05</ele>
        <time>2011-10-23T14:25:36Z</time>
      </trkpt>
      <trkpt lat="45.51656" lon="5.98937">
        <ele>314.97</ele>
        <time>2011-10-23T14:25:55Z</time>
      </trkpt>
      <trkpt lat="45.51632" lon="5.98864">
        <ele>317.37</ele>
        <time>2011-10-23T14:26:12Z</time>
      </trkpt>
      <trkpt lat="45.51635" lon="5.98775">
        <ele>321.22</ele>
        <time>2011-10-23T14:26:31Z</time>
      </trkpt>
      <trkpt lat="45.51658" lon="5.98713">
        <ele>324.58</ele>
        <time>2011-10-23T14:26:47Z</time>
      </trkpt>
      <trkpt lat="45.51677" lon="5.98673">
        <ele>327.47</ele>
        <time>2011-10-23T14:27:00Z</time>
      </trkpt>
      <trkpt lat="45.5168" lon="5.98635">
        <ele>329.39</ele>
        <time>2011-10-23T14:27:11Z</time>
      </trkpt>
      <trkpt lat="45.51695" lon="5.9862">
        <ele>331.79</ele>
        <time>2011-10-23T14:27:22Z</time>
      </trkpt>
      <trkpt lat="45.51695" lon="5.98618">
        <ele>332.75</ele>
        <time>2011-10-23T14:27:23Z</time>
      </trkpt>
      <trkpt lat="45.51693" lon="5.98617">
        <ele>332.27</ele>
        <time>2011-10-23T14:27:24Z</time>
      </trkpt>
      <trkpt lat="45.51692" lon="5.98617">
        <ele>332.27</ele>
        <time>2011-10-23T14:27:25Z</time>
      </trkpt>
      <trkpt lat="45.5169" lon="5.98618">
        <ele>332.27</ele>
        <time>2011-10-23T14:27:26Z</time>
      </trkpt>
      <trkpt lat="45.51689" lon="5.9862">
        <ele>332.27</ele>
        <time>2011-10-23T14:27:27Z</time>
      </trkpt>
      <trkpt lat="45.51687" lon="5.98621">
        <ele>332.27</ele>
        <time>2011-10-23T14:27:28Z</time>
      </trkpt>
      <trkpt lat="45.51656" lon="5.98636">
        <ele>335.16</ele>
        <time>2011-10-23T14:27:45Z</time>
      </trkpt>
      <trkpt lat="45.51628" lon="5.98648">
        <ele>337.08</ele>
        <time>2011-10-23T14:28:00Z</time>
      </trkpt>
      <trkpt lat="45.51608" lon="5.98656">
        <ele>338.04</ele>
        <time>2011-10-23T14:28:11Z</time>
      </trkpt>
      <trkpt lat="45.51607" lon="5.98655">
        <ele>338.52</ele>
        <time>2011-10-23T14:28:12Z</time>
      </trkpt>
      <trkpt lat="45.51602" lon="5.98638">
        <ele>340.92</ele>
        <time>2011-10-23T14:28:21Z</time>
      </trkpt>
      <trkpt lat="45.51601" lon="5.98637">
        <ele>340.92</ele>
        <time>2011-10-23T14:28:22Z</time>
      </trkpt>
      <trkpt lat="45.51601" lon="5.98635">
        <ele>340.92</ele>
        <time>2011-10-23T14:28:23Z</time>
      </trkpt>
      <trkpt lat="45.516" lon="5.98634">
        <ele>341.41</ele>
        <time>2011-10-23T14:28:24Z</time>
      </trkpt>
      <trkpt lat="45.516" lon="5.98632">
        <ele>341.41</ele>
        <time>2011-10-23T14:28:25Z</time>
      </trkpt>
      <trkpt lat="45.51599" lon="5.9863">
        <ele>341.89</ele>
        <time>2011-10-23T14:28:26Z</time>
      </trkpt>
      <trkpt lat="45.51588" lon="5.98601">
        <ele>344.77</ele>
        <time>2011-10-23T14:28:41Z</time>
      </trkpt>
      <trkpt lat="45.51571" lon="5.9858">
        <ele>346.21</ele>
        <time>2011-10-23T14:28:55Z</time>
      </trkpt>
      <trkpt lat="45.51565" lon="5.98582">
        <ele>346.69</ele>
        <time>2011-10-23T14:28:59Z</time>
      </trkpt>
      <trkpt lat="45.51557" lon="5.98594">
        <ele>347.65</ele>
        <time>2011-10-23T14:29:05Z</time>
      </trkpt>
      <trkpt lat="45.5155" lon="5.98595">
        <ele>348.13</ele>
        <time>2011-10-23T14:29:09Z</time>
      </trkpt>
      <trkpt lat="45.51526" lon="5.98568">
        <ele>351.5</ele>
        <time>2011-10-23T14:29:25Z</time>
      </trkpt>
      <trkpt lat="45.515" lon="5.98536">
        <ele>352.46</ele>
        <time>2011-10-23T14:29:40Z</time>
      </trkpt>
      <trkpt lat="45.51474" lon="5.9851">
        <ele>352.46</ele>
        <time>2011-10-23T14:29:55Z</time>
      </trkpt>
      <trkpt lat="45.51474" lon="5.9851">
        <ele>352.46</ele>
        <time>2011-10-23T14:30:27Z</time>
      </trkpt>
      <trkpt lat="45.51474" lon="5.9851">
        <ele>351.98</ele>
        <time>2011-10-23T14:31:07Z</time>
      </trkpt>
      <trkpt lat="45.51474" lon="5.98509">
        <ele>352.46</ele>
        <time>2011-10-23T14:31:46Z</time>
      </trkpt>
      <trkpt lat="45.51474" lon="5.98509">
        <ele>351.98</ele>
        <time>2011-10-23T14:32:22Z</time>
      </trkpt>
      <trkpt lat="45.51474" lon="5.98508">
        <ele>352.46</ele>
        <time>2011-10-23T14:32:44Z</time>
      </trkpt>
      <trkpt lat="45.51469" lon="5.98507">
        <ele>351.98</ele>
        <time>2011-10-23T14:32:52Z</time>
      </trkpt>
      <trkpt lat="45.51461" lon="5.98518">
        <ele>352.46</ele>
        <time>2011-10-23T14:32:57Z</time>
      </trkpt>
      <trkpt lat="45.51424" lon="5.98582">
        <ele>351.5</ele>
        <time>2011-10-23T14:33:14Z</time>
      </trkpt>
      <trkpt lat="45.51399" lon="5.98526">
        <ele>350.06</ele>
        <time>2011-10-23T14:33:24Z</time>
      </trkpt>
      <trkpt lat="45.51361" lon="5.9842">
        <ele>349.1</ele>
        <time>2011-10-23T14:33:40Z</time>
      </trkpt>
      <trkpt lat="45.51329" lon="5.98337">
        <ele>348.62</ele>
        <time>2011-10-23T14:33:53Z</time>
      </trkpt>
      <trkpt lat="45.51321" lon="5.9832">
        <ele>348.13</ele>
        <time>2011-10-23T14:33:56Z</time>
      </trkpt>
      <trkpt lat="45.51319" lon="5.98314">
        <ele>348.13</ele>
        <time>2011-10-23T14:33:57Z</time>
      </trkpt>
      <trkpt lat="45.51317" lon="5.98308">
        <ele>348.13</ele>
        <time>2011-10-23T14:33:58Z</time>
      </trkpt>
      <trkpt lat="45.51314" lon="5.98302">
        <ele>347.65</ele>
        <time>2011-10-23T14:33:59Z</time>
      </trkpt>
      <trkpt lat="45.51311" lon="5.98296">
        <ele>347.65</ele>
        <time>2011-10-23T14:34:00Z</time>
      </trkpt>
      <trkpt lat="45.51287" lon="5.98237">
        <ele>346.21</ele>
        <time>2011-10-23T14:34:09Z</time>
      </trkpt>
      <trkpt lat="45.51272" lon="5.98197">
        <ele>343.33</ele>
        <time>2011-10-23T14:34:14Z</time>
      </trkpt>
      <trkpt lat="45.51257" lon="5.98161">
        <ele>340.44</ele>
        <time>2011-10-23T14:34:19Z</time>
      </trkpt>
      <trkpt lat="45.51254" lon="5.98153">
        <ele>339.96</ele>
        <time>2011-10-23T14:34:20Z</time>
      </trkpt>
      <trkpt lat="45.51247" lon="5.98137">
        <ele>339</ele>
        <time>2011-10-23T14:34:22Z</time>
      </trkpt>
      <trkpt lat="45.51239" lon="5.98116">
        <ele>339</ele>
        <time>2011-10-23T14:34:25Z</time>
      </trkpt>
      <trkpt lat="45.51236" lon="5.9811">
        <ele>339.48</ele>
        <time>2011-10-23T14:34:26Z</time>
      </trkpt>
      <trkpt lat="45.51234" lon="5.98104">
        <ele>339.48</ele>
        <time>2011-10-23T14:34:27Z</time>
      </trkpt>
      <trkpt lat="45.51232" lon="5.98097">
        <ele>340.44</ele>
        <time>2011-10-23T14:34:28Z</time>
      </trkpt>
      <trkpt lat="45.5123" lon="5.98092">
        <ele>340.92</ele>
        <time>2011-10-23T14:34:29Z</time>
      </trkpt>
      <trkpt lat="45.5122" lon="5.98065">
        <ele>340.44</ele>
        <time>2011-10-23T14:34:33Z</time>
      </trkpt>
      <trkpt lat="45.51217" lon="5.98058">
        <ele>339.96</ele>
        <time>2011-10-23T14:34:34Z</time>
      </trkpt>
      <trkpt lat="45.51215" lon="5.98051">
        <ele>340.92</ele>
        <time>2011-10-23T14:34:35Z</time>
      </trkpt>
      <trkpt lat="45.51212" lon="5.98044">
        <ele>341.41</ele>
        <time>2011-10-23T14:34:36Z</time>
      </trkpt>
      <trkpt lat="45.51211" lon="5.98039">
        <ele>342.85</ele>
        <time>2011-10-23T14:34:37Z</time>
      </trkpt>
      <trkpt lat="45.51209" lon="5.98034">
        <ele>343.33</ele>
        <time>2011-10-23T14:34:38Z</time>
      </trkpt>
      <trkpt lat="45.51201" lon="5.98011">
        <ele>341.41</ele>
        <time>2011-10-23T14:34:42Z</time>
      </trkpt>
      <trkpt lat="45.51201" lon="5.98003">
        <ele>340.92</ele>
        <time>2011-10-23T14:34:43Z</time>
      </trkpt>
      <trkpt lat="45.51199" lon="5.97976">
        <ele>338.04</ele>
        <time>2011-10-23T14:34:46Z</time>
      </trkpt>
      <trkpt lat="45.51197" lon="5.97955">
        <ele>338.52</ele>
        <time>2011-10-23T14:34:50Z</time>
      </trkpt>
      <trkpt lat="45.51195" lon="5.97954">
        <ele>338.52</ele>
        <time>2011-10-23T14:34:51Z</time>
      </trkpt>
      <trkpt lat="45.51172" lon="5.97949">
        <ele>338.04</ele>
        <time>2011-10-23T14:34:58Z</time>
      </trkpt>
      <trkpt lat="45.51164" lon="5.97946">
        <ele>337.08</ele>
        <time>2011-10-23T14:35:00Z</time>
      </trkpt>
      <trkpt lat="45.51162" lon="5.97942">
        <ele>336.6</ele>
        <time>2011-10-23T14:35:01Z</time>
      </trkpt>
      <trkpt lat="45.51162" lon="5.97936">
        <ele>336.6</ele>
        <time>2011-10-23T14:35:02Z</time>
      </trkpt>
      <trkpt lat="45.5116" lon="5.9787">
        <ele>333.23</ele>
        <time>2011-10-23T14:35:10Z</time>
      </trkpt>
      <trkpt lat="45.5116" lon="5.97812">
        <ele>331.31</ele>
        <time>2011-10-23T14:35:16Z</time>
      </trkpt>
      <trkpt lat="45.5116" lon="5.97802">
        <ele>331.79</ele>
        <time>2011-10-23T14:35:17Z</time>
      </trkpt>
      <trkpt lat="45.5116" lon="5.97792">
        <ele>331.79</ele>
        <time>2011-10-23T14:35:18Z</time>
      </trkpt>
      <trkpt lat="45.51162" lon="5.97783">
        <ele>330.83</ele>
        <time>2011-10-23T14:35:19Z</time>
      </trkpt>
      <trkpt lat="45.51164" lon="5.97776">
        <ele>330.83</ele>
        <time>2011-10-23T14:35:20Z</time>
      </trkpt>
      <trkpt lat="45.51168" lon="5.9777">
        <ele>330.35</ele>
        <time>2011-10-23T14:35:21Z</time>
      </trkpt>
      <trkpt lat="45.51173" lon="5.97766">
        <ele>330.35</ele>
        <time>2011-10-23T14:35:22Z</time>
      </trkpt>
      <trkpt lat="45.51178" lon="5.97765">
        <ele>330.35</ele>
        <time>2011-10-23T14:35:23Z</time>
      </trkpt>
      <trkpt lat="45.51184" lon="5.97766">
        <ele>330.35</ele>
        <time>2011-10-23T14:35:24Z</time>
      </trkpt>
      <trkpt lat="45.51189" lon="5.97767">
        <ele>330.35</ele>
        <time>2011-10-23T14:35:25Z</time>
      </trkpt>
      <trkpt lat="45.51195" lon="5.97768">
        <ele>330.35</ele>
        <time>2011-10-23T14:35:26Z</time>
      </trkpt>
      <trkpt lat="45.51205" lon="5.97767">
        <ele>330.35</ele>
        <time>2011-10-23T14:35:28Z</time>
      </trkpt>
      <trkpt lat="45.51214" lon="5.97765">
        <ele>330.35</ele>
        <time>2011-10-23T14:35:30Z</time>
      </trkpt>
      <trkpt lat="45.51218" lon="5.97764">
        <ele>330.35</ele>
        <time>2011-10-23T14:35:31Z</time>
      </trkpt>
      <trkpt lat="45.51223" lon="5.97764">
        <ele>330.35</ele>
        <time>2011-10-23T14:35:32Z</time>
      </trkpt>
      <trkpt lat="45.51227" lon="5.97763">
        <ele>330.35</ele>
        <time>2011-10-23T14:35:33Z</time>
      </trkpt>
      <trkpt lat="45.51232" lon="5.97763">
        <ele>329.87</ele>
        <time>2011-10-23T14:35:34Z</time>
      </trkpt>
      <trkpt lat="45.51241" lon="5.97761">
        <ele>329.87</ele>
        <time>2011-10-23T14:35:36Z</time>
      </trkpt>
      <trkpt lat="45.51281" lon="5.97755">
        <ele>329.87</ele>
        <time>2011-10-23T14:35:45Z</time>
      </trkpt>
      <trkpt lat="45.51286" lon="5.97756">
        <ele>330.35</ele>
        <time>2011-10-23T14:35:46Z</time>
      </trkpt>
      <trkpt lat="45.5129" lon="5.9776">
        <ele>330.35</ele>
        <time>2011-10-23T14:35:47Z</time>
      </trkpt>
      <trkpt lat="45.51294" lon="5.97764">
        <ele>330.35</ele>
        <time>2011-10-23T14:35:48Z</time>
      </trkpt>
      <trkpt lat="45.51297" lon="5.97769">
        <ele>330.35</ele>
        <time>2011-10-23T14:35:49Z</time>
      </trkpt>
      <trkpt lat="45.51328" lon="5.97814">
        <ele>329.87</ele>
        <time>2011-10-23T14:35:58Z</time>
      </trkpt>
      <trkpt lat="45.51332" lon="5.97818">
        <ele>330.35</ele>
        <time>2011-10-23T14:35:59Z</time>
      </trkpt>
      <trkpt lat="45.51337" lon="5.97822">
        <ele>329.87</ele>
        <time>2011-10-23T14:36:00Z</time>
      </trkpt>
      <trkpt lat="45.51373" lon="5.97852">
        <ele>329.87</ele>
        <time>2011-10-23T14:36:08Z</time>
      </trkpt>
      <trkpt lat="45.51378" lon="5.97854">
        <ele>329.87</ele>
        <time>2011-10-23T14:36:09Z</time>
      </trkpt>
      <trkpt lat="45.51382" lon="5.97855">
        <ele>329.87</ele>
        <time>2011-10-23T14:36:10Z</time>
      </trkpt>
      <trkpt lat="45.51386" lon="5.97855">
        <ele>329.87</ele>
        <time>2011-10-23T14:36:11Z</time>
      </trkpt>
      <trkpt lat="45.51391" lon="5.97854">
        <ele>329.87</ele>
        <time>2011-10-23T14:36:12Z</time>
      </trkpt>
      <trkpt lat="45.51395" lon="5.97853">
        <ele>329.39</ele>
        <time>2011-10-23T14:36:13Z</time>
      </trkpt>
      <trkpt lat="45.51419" lon="5.97848">
        <ele>328.43</ele>
        <time>2011-10-23T14:36:19Z</time>
      </trkpt>
      <trkpt lat="45.51491" lon="5.97822">
        <ele>329.39</ele>
        <time>2011-10-23T14:36:33Z</time>
      </trkpt>
      <trkpt lat="45.5159" lon="5.97781">
        <ele>326.99</ele>
        <time>2011-10-23T14:36:50Z</time>
      </trkpt>
      <trkpt lat="45.51671" lon="5.97745">
        <ele>324.58</ele>
        <time>2011-10-23T14:37:03Z</time>
      </trkpt>
      <trkpt lat="45.51703" lon="5.97733">
        <ele>323.14</ele>
        <time>2011-10-23T14:37:08Z</time>
      </trkpt>
      <trkpt lat="45.51714" lon="5.9773">
        <ele>323.14</ele>
        <time>2011-10-23T14:37:10Z</time>
      </trkpt>
      <trkpt lat="45.51724" lon="5.97724">
        <ele>322.66</ele>
        <time>2011-10-23T14:37:12Z</time>
      </trkpt>
      <trkpt lat="45.51728" lon="5.9772">
        <ele>322.66</ele>
        <time>2011-10-23T14:37:13Z</time>
      </trkpt>
      <trkpt lat="45.51733" lon="5.97714">
        <ele>322.18</ele>
        <time>2011-10-23T14:37:14Z</time>
      </trkpt>
      <trkpt lat="45.5178" lon="5.97631">
        <ele>320.26</ele>
        <time>2011-10-23T14:37:25Z</time>
      </trkpt>
      <trkpt lat="45.51837" lon="5.9755">
        <ele>319.3</ele>
        <time>2011-10-23T14:37:38Z</time>
      </trkpt>
      <trkpt lat="45.51842" lon="5.97548">
        <ele>319.3</ele>
        <time>2011-10-23T14:37:39Z</time>
      </trkpt>
      <trkpt lat="45.51848" lon="5.97547">
        <ele>319.3</ele>
        <time>2011-10-23T14:37:40Z</time>
      </trkpt>
      <trkpt lat="45.51854" lon="5.97548">
        <ele>319.3</ele>
        <time>2011-10-23T14:37:41Z</time>
      </trkpt>
      <trkpt lat="45.51859" lon="5.97547">
        <ele>318.81</ele>
        <time>2011-10-23T14:37:42Z</time>
      </trkpt>
      <trkpt lat="45.51864" lon="5.97546">
        <ele>318.81</ele>
        <time>2011-10-23T14:37:43Z</time>
      </trkpt>
      <trkpt lat="45.51868" lon="5.97543">
        <ele>318.81</ele>
        <time>2011-10-23T14:37:44Z</time>
      </trkpt>
      <trkpt lat="45.51872" lon="5.97538">
        <ele>318.81</ele>
        <time>2011-10-23T14:37:45Z</time>
      </trkpt>
      <trkpt lat="45.51872" lon="5.97532">
        <ele>319.78</ele>
        <time>2011-10-23T14:37:46Z</time>
      </trkpt>
      <trkpt lat="45.51872" lon="5.97525">
        <ele>318.81</ele>
        <time>2011-10-23T14:37:47Z</time>
      </trkpt>
      <trkpt lat="45.51873" lon="5.97491">
        <ele>320.26</ele>
        <time>2011-10-23T14:37:53Z</time>
      </trkpt>
      <trkpt lat="45.51873" lon="5.97452">
        <ele>320.74</ele>
        <time>2011-10-23T14:37:59Z</time>
      </trkpt>
      <trkpt lat="45.51875" lon="5.97446">
        <ele>320.74</ele>
        <time>2011-10-23T14:38:00Z</time>
      </trkpt>
      <trkpt lat="45.51878" lon="5.9744">
        <ele>320.26</ele>
        <time>2011-10-23T14:38:01Z</time>
      </trkpt>
      <trkpt lat="45.51883" lon="5.97437">
        <ele>320.74</ele>
        <time>2011-10-23T14:38:02Z</time>
      </trkpt>
      <trkpt lat="45.51887" lon="5.97433">
        <ele>320.74</ele>
        <time>2011-10-23T14:38:03Z</time>
      </trkpt>
      <trkpt lat="45.51917" lon="5.97408">
        <ele>320.74</ele>
        <time>2011-10-23T14:38:10Z</time>
      </trkpt>
      <trkpt lat="45.51921" lon="5.97405">
        <ele>320.26</ele>
        <time>2011-10-23T14:38:11Z</time>
      </trkpt>
      <trkpt lat="45.51977" lon="5.97356">
        <ele>321.22</ele>
        <time>2011-10-23T14:38:26Z</time>
      </trkpt>
      <trkpt lat="45.51979" lon="5.97351">
        <ele>321.22</ele>
        <time>2011-10-23T14:38:28Z</time>
      </trkpt>
      <trkpt lat="45.51979" lon="5.97349">
        <ele>321.7</ele>
        <time>2011-10-23T14:38:29Z</time>
      </trkpt>
      <trkpt lat="45.51978" lon="5.97347">
        <ele>322.18</ele>
        <time>2011-10-23T14:38:30Z</time>
      </trkpt>
      <trkpt lat="45.51977" lon="5.97345">
        <ele>322.18</ele>
        <time>2011-10-23T14:38:31Z</time>
      </trkpt>
      <trkpt lat="45.51975" lon="5.97343">
        <ele>322.18</ele>
        <time>2011-10-23T14:38:32Z</time>
      </trkpt>
      <trkpt lat="45.51972" lon="5.97341">
        <ele>322.18</ele>
        <time>2011-10-23T14:38:33Z</time>
      </trkpt>
      <trkpt lat="45.51969" lon="5.97339">
        <ele>322.66</ele>
        <time>2011-10-23T14:38:34Z</time>
      </trkpt>
      <trkpt lat="45.51966" lon="5.97337">
        <ele>322.18</ele>
        <time>2011-10-23T14:38:35Z</time>
      </trkpt>
      <trkpt lat="45.51914" lon="5.97304">
        <ele>324.1</ele>
        <time>2011-10-23T14:38:50Z</time>
      </trkpt>
      <trkpt lat="45.51881" lon="5.97261">
        <ele>326.99</ele>
        <time>2011-10-23T14:39:03Z</time>
      </trkpt>
      <trkpt lat="45.51844" lon="5.97211">
        <ele>328.43</ele>
        <time>2011-10-23T14:39:18Z</time>
      </trkpt>
      <trkpt lat="45.51839" lon="5.97164">
        <ele>329.39</ele>
        <time>2011-10-23T14:39:27Z</time>
      </trkpt>
      <trkpt lat="45.51832" lon="5.97149">
        <ele>329.39</ele>
        <time>2011-10-23T14:39:30Z</time>
      </trkpt>
      <trkpt lat="45.51825" lon="5.97134">
        <ele>328.91</ele>
        <time>2011-10-23T14:39:33Z</time>
      </trkpt>
      <trkpt lat="45.51823" lon="5.97128">
        <ele>328.91</ele>
        <time>2011-10-23T14:39:34Z</time>
      </trkpt>
      <trkpt lat="45.51821" lon="5.97116">
        <ele>329.39</ele>
        <time>2011-10-23T14:39:36Z</time>
      </trkpt>
      <trkpt lat="45.5182" lon="5.9711">
        <ele>328.43</ele>
        <time>2011-10-23T14:39:37Z</time>
      </trkpt>
      <trkpt lat="45.51819" lon="5.97083">
        <ele>328.91</ele>
        <time>2011-10-23T14:39:41Z</time>
      </trkpt>
      <trkpt lat="45.51805" lon="5.97018">
        <ele>327.47</ele>
        <time>2011-10-23T14:39:50Z</time>
      </trkpt>
      <trkpt lat="45.51798" lon="5.96997">
        <ele>325.06</ele>
        <time>2011-10-23T14:39:53Z</time>
      </trkpt>
      <trkpt lat="45.51797" lon="5.96991">
        <ele>325.06</ele>
        <time>2011-10-23T14:39:54Z</time>
      </trkpt>
      <trkpt lat="45.51795" lon="5.96977">
        <ele>324.1</ele>
        <time>2011-10-23T14:39:56Z</time>
      </trkpt>
      <trkpt lat="45.51793" lon="5.9697">
        <ele>324.1</ele>
        <time>2011-10-23T14:39:57Z</time>
      </trkpt>
      <trkpt lat="45.51791" lon="5.96963">
        <ele>323.62</ele>
        <time>2011-10-23T14:39:58Z</time>
      </trkpt>
      <trkpt lat="45.51789" lon="5.96956">
        <ele>324.1</ele>
        <time>2011-10-23T14:39:59Z</time>
      </trkpt>
      <trkpt lat="45.51786" lon="5.9695">
        <ele>324.1</ele>
        <time>2011-10-23T14:40:00Z</time>
      </trkpt>
      <trkpt lat="45.51784" lon="5.96944">
        <ele>323.62</ele>
        <time>2011-10-23T14:40:01Z</time>
      </trkpt>
      <trkpt lat="45.51782" lon="5.96937">
        <ele>323.62</ele>
        <time>2011-10-23T14:40:02Z</time>
      </trkpt>
      <trkpt lat="45.51771" lon="5.96899">
        <ele>322.66</ele>
        <time>2011-10-23T14:40:10Z</time>
      </trkpt>
      <trkpt lat="45.5177" lon="5.96893">
        <ele>323.14</ele>
        <time>2011-10-23T14:40:11Z</time>
      </trkpt>
      <trkpt lat="45.51768" lon="5.96888">
        <ele>322.66</ele>
        <time>2011-10-23T14:40:12Z</time>
      </trkpt>
      <trkpt lat="45.51767" lon="5.96882">
        <ele>323.14</ele>
        <time>2011-10-23T14:40:13Z</time>
      </trkpt>
      <trkpt lat="45.51765" lon="5.96876">
        <ele>322.66</ele>
        <time>2011-10-23T14:40:14Z</time>
      </trkpt>
      <trkpt lat="45.51763" lon="5.9687">
        <ele>322.66</ele>
        <time>2011-10-23T14:40:15Z</time>
      </trkpt>
      <trkpt lat="45.51761" lon="5.96864">
        <ele>322.66</ele>
        <time>2011-10-23T14:40:16Z</time>
      </trkpt>
      <trkpt lat="45.51759" lon="5.96858">
        <ele>322.66</ele>
        <time>2011-10-23T14:40:17Z</time>
      </trkpt>
      <trkpt lat="45.51756" lon="5.96853">
        <ele>322.66</ele>
        <time>2011-10-23T14:40:18Z</time>
      </trkpt>
      <trkpt lat="45.51753" lon="5.9685">
        <ele>322.18</ele>
        <time>2011-10-23T14:40:19Z</time>
      </trkpt>
      <trkpt lat="45.51748" lon="5.96849">
        <ele>322.66</ele>
        <time>2011-10-23T14:40:20Z</time>
      </trkpt>
      <trkpt lat="45.51743" lon="5.9685">
        <ele>322.66</ele>
        <time>2011-10-23T14:40:21Z</time>
      </trkpt>
      <trkpt lat="45.51738" lon="5.96852">
        <ele>322.66</ele>
        <time>2011-10-23T14:40:22Z</time>
      </trkpt>
      <trkpt lat="45.51733" lon="5.96854">
        <ele>322.66</ele>
        <time>2011-10-23T14:40:23Z</time>
      </trkpt>
      <trkpt lat="45.51728" lon="5.96856">
        <ele>322.66</ele>
        <time>2011-10-23T14:40:24Z</time>
      </trkpt>
      <trkpt lat="45.51723" lon="5.96857">
        <ele>322.18</ele>
        <time>2011-10-23T14:40:25Z</time>
      </trkpt>
      <trkpt lat="45.51717" lon="5.96859">
        <ele>322.18</ele>
        <time>2011-10-23T14:40:26Z</time>
      </trkpt>
      <trkpt lat="45.51691" lon="5.9687">
        <ele>322.18</ele>
        <time>2011-10-23T14:40:31Z</time>
      </trkpt>
      <trkpt lat="45.51674" lon="5.96874">
        <ele>322.18</ele>
        <time>2011-10-23T14:40:34Z</time>
      </trkpt>
      <trkpt lat="45.51669" lon="5.96876">
        <ele>322.18</ele>
        <time>2011-10-23T14:40:35Z</time>
      </trkpt>
      <trkpt lat="45.51664" lon="5.96877">
        <ele>322.18</ele>
        <time>2011-10-23T14:40:36Z</time>
      </trkpt>
      <trkpt lat="45.51658" lon="5.96876">
        <ele>321.7</ele>
        <time>2011-10-23T14:40:37Z</time>
      </trkpt>
      <trkpt lat="45.51653" lon="5.96873">
        <ele>321.7</ele>
        <time>2011-10-23T14:40:38Z</time>
      </trkpt>
      <trkpt lat="45.51649" lon="5.96868">
        <ele>321.7</ele>
        <time>2011-10-23T14:40:39Z</time>
      </trkpt>
      <trkpt lat="45.51646" lon="5.96863">
        <ele>321.7</ele>
        <time>2011-10-23T14:40:40Z</time>
      </trkpt>
      <trkpt lat="45.51642" lon="5.96858">
        <ele>321.22</ele>
        <time>2011-10-23T14:40:41Z</time>
      </trkpt>
      <trkpt lat="45.51637" lon="5.96855">
        <ele>321.7</ele>
        <time>2011-10-23T14:40:42Z</time>
      </trkpt>
      <trkpt lat="45.51631" lon="5.96853">
        <ele>321.22</ele>
        <time>2011-10-23T14:40:43Z</time>
      </trkpt>
      <trkpt lat="45.51626" lon="5.96852">
        <ele>321.22</ele>
        <time>2011-10-23T14:40:44Z</time>
      </trkpt>
      <trkpt lat="45.51621" lon="5.9685">
        <ele>321.22</ele>
        <time>2011-10-23T14:40:45Z</time>
      </trkpt>
      <trkpt lat="45.51617" lon="5.96844">
        <ele>321.22</ele>
        <time>2011-10-23T14:40:46Z</time>
      </trkpt>
      <trkpt lat="45.51614" lon="5.96837">
        <ele>321.22</ele>
        <time>2011-10-23T14:40:47Z</time>
      </trkpt>
      <trkpt lat="45.51612" lon="5.96829">
        <ele>320.74</ele>
        <time>2011-10-23T14:40:48Z</time>
      </trkpt>
      <trkpt lat="45.51609" lon="5.96821">
        <ele>320.74</ele>
        <time>2011-10-23T14:40:49Z</time>
      </trkpt>
      <trkpt lat="45.51604" lon="5.96806">
        <ele>320.74</ele>
        <time>2011-10-23T14:40:51Z</time>
      </trkpt>
      <trkpt lat="45.51603" lon="5.96797">
        <ele>320.74</ele>
        <time>2011-10-23T14:40:52Z</time>
      </trkpt>
      <trkpt lat="45.51602" lon="5.96788">
        <ele>320.74</ele>
        <time>2011-10-23T14:40:53Z</time>
      </trkpt>
      <trkpt lat="45.51603" lon="5.96779">
        <ele>320.26</ele>
        <time>2011-10-23T14:40:54Z</time>
      </trkpt>
      <trkpt lat="45.51602" lon="5.9677">
        <ele>320.74</ele>
        <time>2011-10-23T14:40:55Z</time>
      </trkpt>
      <trkpt lat="45.51601" lon="5.96761">
        <ele>321.22</ele>
        <time>2011-10-23T14:40:56Z</time>
      </trkpt>
      <trkpt lat="45.51598" lon="5.96727">
        <ele>320.26</ele>
        <time>2011-10-23T14:41:00Z</time>
      </trkpt>
      <trkpt lat="45.51596" lon="5.96719">
        <ele>320.74</ele>
        <time>2011-10-23T14:41:01Z</time>
      </trkpt>
      <trkpt lat="45.51594" lon="5.96712">
        <ele>320.74</ele>
        <time>2011-10-23T14:41:02Z</time>
      </trkpt>
      <trkpt lat="45.51581" lon="5.96678">
        <ele>320.26</ele>
        <time>2011-10-23T14:41:07Z</time>
      </trkpt>
      <trkpt lat="45.51581" lon="5.9667">
        <ele>320.26</ele>
        <time>2011-10-23T14:41:08Z</time>
      </trkpt>
      <trkpt lat="45.51583" lon="5.96662">
        <ele>320.26</ele>
        <time>2011-10-23T14:41:09Z</time>
      </trkpt>
      <trkpt lat="45.51587" lon="5.96656">
        <ele>319.78</ele>
        <time>2011-10-23T14:41:10Z</time>
      </trkpt>
      <trkpt lat="45.51591" lon="5.9665">
        <ele>319.78</ele>
        <time>2011-10-23T14:41:11Z</time>
      </trkpt>
      <trkpt lat="45.51595" lon="5.96644">
        <ele>320.26</ele>
        <time>2011-10-23T14:41:12Z</time>
      </trkpt>
      <trkpt lat="45.516" lon="5.9664">
        <ele>319.78</ele>
        <time>2011-10-23T14:41:13Z</time>
      </trkpt>
      <trkpt lat="45.51606" lon="5.96637">
        <ele>319.3</ele>
        <time>2011-10-23T14:41:14Z</time>
      </trkpt>
      <trkpt lat="45.51612" lon="5.96635">
        <ele>319.3</ele>
        <time>2011-10-23T14:41:15Z</time>
      </trkpt>
      <trkpt lat="45.51618" lon="5.96634">
        <ele>319.78</ele>
        <time>2011-10-23T14:41:16Z</time>
      </trkpt>
      <trkpt lat="45.5167" lon="5.96622">
        <ele>318.81</ele>
        <time>2011-10-23T14:41:25Z</time>
      </trkpt>
      <trkpt lat="45.51681" lon="5.96618">
        <ele>319.3</ele>
        <time>2011-10-23T14:41:27Z</time>
      </trkpt>
      <trkpt lat="45.51687" lon="5.96617">
        <ele>319.3</ele>
        <time>2011-10-23T14:41:28Z</time>
      </trkpt>
      <trkpt lat="45.51731" lon="5.96605">
        <ele>319.3</ele>
        <time>2011-10-23T14:41:36Z</time>
      </trkpt>
      <trkpt lat="45.51742" lon="5.96602">
        <ele>318.81</ele>
        <time>2011-10-23T14:41:38Z</time>
      </trkpt>
      <trkpt lat="45.51774" lon="5.96593">
        <ele>318.81</ele>
        <time>2011-10-23T14:41:44Z</time>
      </trkpt>
      <trkpt lat="45.51778" lon="5.9659">
        <ele>318.33</ele>
        <time>2011-10-23T14:41:45Z</time>
      </trkpt>
      <trkpt lat="45.51781" lon="5.96585">
        <ele>318.33</ele>
        <time>2011-10-23T14:41:46Z</time>
      </trkpt>
      <trkpt lat="45.51783" lon="5.96578">
        <ele>318.33</ele>
        <time>2011-10-23T14:41:47Z</time>
      </trkpt>
      <trkpt lat="45.51784" lon="5.96571">
        <ele>318.33</ele>
        <time>2011-10-23T14:41:48Z</time>
      </trkpt>
      <trkpt lat="45.51784" lon="5.96564">
        <ele>318.33</ele>
        <time>2011-10-23T14:41:49Z</time>
      </trkpt>
      <trkpt lat="45.5178" lon="5.96523">
        <ele>317.85</ele>
        <time>2011-10-23T14:41:54Z</time>
      </trkpt>
      <trkpt lat="45.51781" lon="5.96515">
        <ele>318.33</ele>
        <time>2011-10-23T14:41:55Z</time>
      </trkpt>
      <trkpt lat="45.51783" lon="5.96508">
        <ele>317.85</ele>
        <time>2011-10-23T14:41:56Z</time>
      </trkpt>
      <trkpt lat="45.51787" lon="5.96503">
        <ele>318.33</ele>
        <time>2011-10-23T14:41:57Z</time>
      </trkpt>
      <trkpt lat="45.51791" lon="5.965">
        <ele>318.33</ele>
        <time>2011-10-23T14:41:58Z</time>
      </trkpt>
      <trkpt lat="45.51797" lon="5.96498">
        <ele>318.33</ele>
        <time>2011-10-23T14:41:59Z</time>
      </trkpt>
      <trkpt lat="45.51802" lon="5.96498">
        <ele>317.85</ele>
        <time>2011-10-23T14:42:00Z</time>
      </trkpt>
      <trkpt lat="45.51808" lon="5.96499">
        <ele>318.33</ele>
        <time>2011-10-23T14:42:01Z</time>
      </trkpt>
      <trkpt lat="45.51819" lon="5.96498">
        <ele>317.85</ele>
        <time>2011-10-23T14:42:03Z</time>
      </trkpt>
      <trkpt lat="45.51824" lon="5.96494">
        <ele>317.85</ele>
        <time>2011-10-23T14:42:04Z</time>
      </trkpt>
      <trkpt lat="45.51828" lon="5.96489">
        <ele>317.85</ele>
        <time>2011-10-23T14:42:05Z</time>
      </trkpt>
      <trkpt lat="45.51831" lon="5.96482">
        <ele>317.37</ele>
        <time>2011-10-23T14:42:06Z</time>
      </trkpt>
      <trkpt lat="45.51832" lon="5.96473">
        <ele>317.37</ele>
        <time>2011-10-23T14:42:07Z</time>
      </trkpt>
      <trkpt lat="45.51833" lon="5.96465">
        <ele>317.37</ele>
        <time>2011-10-23T14:42:08Z</time>
      </trkpt>
      <trkpt lat="45.51833" lon="5.96457">
        <ele>317.37</ele>
        <time>2011-10-23T14:42:09Z</time>
      </trkpt>
      <trkpt lat="45.51834" lon="5.96448">
        <ele>317.37</ele>
        <time>2011-10-23T14:42:10Z</time>
      </trkpt>
      <trkpt lat="45.51834" lon="5.9644">
        <ele>317.37</ele>
        <time>2011-10-23T14:42:11Z</time>
      </trkpt>
      <trkpt lat="45.51834" lon="5.96423">
        <ele>317.37</ele>
        <time>2011-10-23T14:42:13Z</time>
      </trkpt>
      <trkpt lat="45.5184" lon="5.96275">
        <ele>316.89</ele>
        <time>2011-10-23T14:42:30Z</time>
      </trkpt>
      <trkpt lat="45.51843" lon="5.96217">
        <ele>316.41</ele>
        <time>2011-10-23T14:42:37Z</time>
      </trkpt>
      <trkpt lat="45.51846" lon="5.96209">
        <ele>316.41</ele>
        <time>2011-10-23T14:42:38Z</time>
      </trkpt>
      <trkpt lat="45.51848" lon="5.96202">
        <ele>316.41</ele>
        <time>2011-10-23T14:42:39Z</time>
      </trkpt>
      <trkpt lat="45.51853" lon="5.96186">
        <ele>316.41</ele>
        <time>2011-10-23T14:42:41Z</time>
      </trkpt>
      <trkpt lat="45.51854" lon="5.96178">
        <ele>316.41</ele>
        <time>2011-10-23T14:42:42Z</time>
      </trkpt>
      <trkpt lat="45.51854" lon="5.96169">
        <ele>316.41</ele>
        <time>2011-10-23T14:42:43Z</time>
      </trkpt>
      <trkpt lat="45.51854" lon="5.96161">
        <ele>316.41</ele>
        <time>2011-10-23T14:42:44Z</time>
      </trkpt>
      <trkpt lat="45.51853" lon="5.96152">
        <ele>316.41</ele>
        <time>2011-10-23T14:42:45Z</time>
      </trkpt>
      <trkpt lat="45.51851" lon="5.96144">
        <ele>316.41</ele>
        <time>2011-10-23T14:42:46Z</time>
      </trkpt>
      <trkpt lat="45.51849" lon="5.96137">
        <ele>316.41</ele>
        <time>2011-10-23T14:42:47Z</time>
      </trkpt>
      <trkpt lat="45.51824" lon="5.96025">
        <ele>316.89</ele>
        <time>2011-10-23T14:43:01Z</time>
      </trkpt>
      <trkpt lat="45.51801" lon="5.95911">
        <ele>318.81</ele>
        <time>2011-10-23T14:43:16Z</time>
      </trkpt>
      <trkpt lat="45.51801" lon="5.95903">
        <ele>318.33</ele>
        <time>2011-10-23T14:43:17Z</time>
      </trkpt>
      <trkpt lat="45.51801" lon="5.95895">
        <ele>318.81</ele>
        <time>2011-10-23T14:43:18Z</time>
      </trkpt>
      <trkpt lat="45.51802" lon="5.95887">
        <ele>318.81</ele>
        <time>2011-10-23T14:43:19Z</time>
      </trkpt>
      <trkpt lat="45.51803" lon="5.95878">
        <ele>319.3</ele>
        <time>2011-10-23T14:43:20Z</time>
      </trkpt>
      <trkpt lat="45.51816" lon="5.95791">
        <ele>318.81</ele>
        <time>2011-10-23T14:43:32Z</time>
      </trkpt>
      <trkpt lat="45.51816" lon="5.95785">
        <ele>318.81</ele>
        <time>2011-10-23T14:43:33Z</time>
      </trkpt>
      <trkpt lat="45.51817" lon="5.9577">
        <ele>318.33</ele>
        <time>2011-10-23T14:43:37Z</time>
      </trkpt>
      <trkpt lat="45.51818" lon="5.95768">
        <ele>318.81</ele>
        <time>2011-10-23T14:43:38Z</time>
      </trkpt>
      <trkpt lat="45.51819" lon="5.95767">
        <ele>318.81</ele>
        <time>2011-10-23T14:43:39Z</time>
      </trkpt>
      <trkpt lat="45.5182" lon="5.95765">
        <ele>318.81</ele>
        <time>2011-10-23T14:43:40Z</time>
      </trkpt>
      <trkpt lat="45.51822" lon="5.95764">
        <ele>318.81</ele>
        <time>2011-10-23T14:43:41Z</time>
      </trkpt>
      <trkpt lat="45.51852" lon="5.95749">
        <ele>318.81</ele>
        <time>2011-10-23T14:43:52Z</time>
      </trkpt>
      <trkpt lat="45.519" lon="5.95703">
        <ele>318.33</ele>
        <time>2011-10-23T14:44:08Z</time>
      </trkpt>
      <trkpt lat="45.51903" lon="5.95699">
        <ele>318.33</ele>
        <time>2011-10-23T14:44:09Z</time>
      </trkpt>
      <trkpt lat="45.51906" lon="5.95695">
        <ele>318.33</ele>
        <time>2011-10-23T14:44:10Z</time>
      </trkpt>
      <trkpt lat="45.5192" lon="5.95679">
        <ele>317.85</ele>
        <time>2011-10-23T14:44:14Z</time>
      </trkpt>
      <trkpt lat="45.51923" lon="5.95674">
        <ele>317.85</ele>
        <time>2011-10-23T14:44:15Z</time>
      </trkpt>
      <trkpt lat="45.51923" lon="5.95667">
        <ele>317.85</ele>
        <time>2011-10-23T14:44:16Z</time>
      </trkpt>
      <trkpt lat="45.51923" lon="5.95661">
        <ele>317.85</ele>
        <time>2011-10-23T14:44:17Z</time>
      </trkpt>
      <trkpt lat="45.51921" lon="5.95656">
        <ele>317.85</ele>
        <time>2011-10-23T14:44:18Z</time>
      </trkpt>
      <trkpt lat="45.5192" lon="5.9565">
        <ele>317.85</ele>
        <time>2011-10-23T14:44:19Z</time>
      </trkpt>
      <trkpt lat="45.51912" lon="5.95605">
        <ele>320.74</ele>
        <time>2011-10-23T14:44:30Z</time>
      </trkpt>
      <trkpt lat="45.51894" lon="5.95558">
        <ele>323.14</ele>
        <time>2011-10-23T14:44:46Z</time>
      </trkpt>
      <trkpt lat="45.51886" lon="5.95528">
        <ele>326.5</ele>
        <time>2011-10-23T14:45:00Z</time>
      </trkpt>
      <trkpt lat="45.51883" lon="5.95499">
        <ele>329.87</ele>
        <time>2011-10-23T14:45:14Z</time>
      </trkpt>
      <trkpt lat="45.51886" lon="5.95463">
        <ele>332.27</ele>
        <time>2011-10-23T14:45:31Z</time>
      </trkpt>
      <trkpt lat="45.51886" lon="5.95435">
        <ele>335.64</ele>
        <time>2011-10-23T14:45:46Z</time>
      </trkpt>
      <trkpt lat="45.51884" lon="5.95423">
        <ele>337.56</ele>
        <time>2011-10-23T14:45:53Z</time>
      </trkpt>
      <trkpt lat="45.51884" lon="5.95421">
        <ele>337.56</ele>
        <time>2011-10-23T14:45:54Z</time>
      </trkpt>
      <trkpt lat="45.51884" lon="5.95419">
        <ele>337.56</ele>
        <time>2011-10-23T14:45:55Z</time>
      </trkpt>
      <trkpt lat="45.51884" lon="5.95418">
        <ele>338.04</ele>
        <time>2011-10-23T14:45:56Z</time>
      </trkpt>
      <trkpt lat="45.51884" lon="5.95416">
        <ele>338.52</ele>
        <time>2011-10-23T14:45:57Z</time>
      </trkpt>
      <trkpt lat="45.51884" lon="5.95414">
        <ele>338.52</ele>
        <time>2011-10-23T14:45:58Z</time>
      </trkpt>
      <trkpt lat="45.51884" lon="5.95413">
        <ele>339</ele>
        <time>2011-10-23T14:45:59Z</time>
      </trkpt>
      <trkpt lat="45.51883" lon="5.95398">
        <ele>341.89</ele>
        <time>2011-10-23T14:46:07Z</time>
      </trkpt>
      <trkpt lat="45.51883" lon="5.95396">
        <ele>341.89</ele>
        <time>2011-10-23T14:46:08Z</time>
      </trkpt>
      <trkpt lat="45.51883" lon="5.95394">
        <ele>342.37</ele>
        <time>2011-10-23T14:46:09Z</time>
      </trkpt>
      <trkpt lat="45.51883" lon="5.95393">
        <ele>342.37</ele>
        <time>2011-10-23T14:46:10Z</time>
      </trkpt>
      <trkpt lat="45.51883" lon="5.95391">
        <ele>342.37</ele>
        <time>2011-10-23T14:46:11Z</time>
      </trkpt>
      <trkpt lat="45.51883" lon="5.9539">
        <ele>342.85</ele>
        <time>2011-10-23T14:46:12Z</time>
      </trkpt>
      <trkpt lat="45.51882" lon="5.95388">
        <ele>343.33</ele>
        <time>2011-10-23T14:46:13Z</time>
      </trkpt>
      <trkpt lat="45.51882" lon="5.95386">
        <ele>342.85</ele>
        <time>2011-10-23T14:46:14Z</time>
      </trkpt>
      <trkpt lat="45.51882" lon="5.95381">
        <ele>343.81</ele>
        <time>2011-10-23T14:46:17Z</time>
      </trkpt>
      <trkpt lat="45.51882" lon="5.95379">
        <ele>343.81</ele>
        <time>2011-10-23T14:46:18Z</time>
      </trkpt>
      <trkpt lat="45.51882" lon="5.95378">
        <ele>344.29</ele>
        <time>2011-10-23T14:46:19Z</time>
      </trkpt>
      <trkpt lat="45.51881" lon="5.95376">
        <ele>344.29</ele>
        <time>2011-10-23T14:46:20Z</time>
      </trkpt>
      <trkpt lat="45.5188" lon="5.95375">
        <ele>344.29</ele>
        <time>2011-10-23T14:46:21Z</time>
      </trkpt>
      <trkpt lat="45.5188" lon="5.95374">
        <ele>343.81</ele>
        <time>2011-10-23T14:46:22Z</time>
      </trkpt>
      <trkpt lat="45.51879" lon="5.95372">
        <ele>344.29</ele>
        <time>2011-10-23T14:46:23Z</time>
      </trkpt>
      <trkpt lat="45.51879" lon="5.95371">
        <ele>344.77</ele>
        <time>2011-10-23T14:46:24Z</time>
      </trkpt>
      <trkpt lat="45.51879" lon="5.95369">
        <ele>344.77</ele>
        <time>2011-10-23T14:46:25Z</time>
      </trkpt>
      <trkpt lat="45.51878" lon="5.95367">
        <ele>345.25</ele>
        <time>2011-10-23T14:46:26Z</time>
      </trkpt>
      <trkpt lat="45.51878" lon="5.95365">
        <ele>345.25</ele>
        <time>2011-10-23T14:46:27Z</time>
      </trkpt>
      <trkpt lat="45.51875" lon="5.95336">
        <ele>348.13</ele>
        <time>2011-10-23T14:46:42Z</time>
      </trkpt>
      <trkpt lat="45.51872" lon="5.95308">
        <ele>350.06</ele>
        <time>2011-10-23T14:46:57Z</time>
      </trkpt>
      <trkpt lat="45.51865" lon="5.95271">
        <ele>352.94</ele>
        <time>2011-10-23T14:47:15Z</time>
      </trkpt>
      <trkpt lat="45.51851" lon="5.95264">
        <ele>356.31</ele>
        <time>2011-10-23T14:47:25Z</time>
      </trkpt>
      <trkpt lat="45.51849" lon="5.95264">
        <ele>356.31</ele>
        <time>2011-10-23T14:47:26Z</time>
      </trkpt>
      <trkpt lat="45.51844" lon="5.95262">
        <ele>357.75</ele>
        <time>2011-10-23T14:47:30Z</time>
      </trkpt>
      <trkpt lat="45.51848" lon="5.95251">
        <ele>358.23</ele>
        <time>2011-10-23T14:47:37Z</time>
      </trkpt>
      <trkpt lat="45.51875" lon="5.95236">
        <ele>358.71</ele>
        <time>2011-10-23T14:47:53Z</time>
      </trkpt>
      <trkpt lat="45.51897" lon="5.95215">
        <ele>359.67</ele>
        <time>2011-10-23T14:48:10Z</time>
      </trkpt>
      <trkpt lat="45.51922" lon="5.95178">
        <ele>361.11</ele>
        <time>2011-10-23T14:48:29Z</time>
      </trkpt>
      <trkpt lat="45.51944" lon="5.95158">
        <ele>361.11</ele>
        <time>2011-10-23T14:48:43Z</time>
      </trkpt>
      <trkpt lat="45.51987" lon="5.95139">
        <ele>362.07</ele>
        <time>2011-10-23T14:49:01Z</time>
      </trkpt>
      <trkpt lat="45.52039" lon="5.95111">
        <ele>361.59</ele>
        <time>2011-10-23T14:49:15Z</time>
      </trkpt>
      <trkpt lat="45.52101" lon="5.9508">
        <ele>360.63</ele>
        <time>2011-10-23T14:49:29Z</time>
      </trkpt>
      <trkpt lat="45.52117" lon="5.95072">
        <ele>359.19</ele>
        <time>2011-10-23T14:49:32Z</time>
      </trkpt>
      <trkpt lat="45.52129" lon="5.95065">
        <ele>357.75</ele>
        <time>2011-10-23T14:49:34Z</time>
      </trkpt>
      <trkpt lat="45.52134" lon="5.95062">
        <ele>357.27</ele>
        <time>2011-10-23T14:49:35Z</time>
      </trkpt>
      <trkpt lat="45.52138" lon="5.95057">
        <ele>356.79</ele>
        <time>2011-10-23T14:49:36Z</time>
      </trkpt>
      <trkpt lat="45.52142" lon="5.95051">
        <ele>355.83</ele>
        <time>2011-10-23T14:49:37Z</time>
      </trkpt>
      <trkpt lat="45.52143" lon="5.95045">
        <ele>355.34</ele>
        <time>2011-10-23T14:49:38Z</time>
      </trkpt>
      <trkpt lat="45.52144" lon="5.95038">
        <ele>354.86</ele>
        <time>2011-10-23T14:49:39Z</time>
      </trkpt>
      <trkpt lat="45.52145" lon="5.95032">
        <ele>354.38</ele>
        <time>2011-10-23T14:49:40Z</time>
      </trkpt>
      <trkpt lat="45.52147" lon="5.95026">
        <ele>354.38</ele>
        <time>2011-10-23T14:49:41Z</time>
      </trkpt>
      <trkpt lat="45.52151" lon="5.95023">
        <ele>354.38</ele>
        <time>2011-10-23T14:49:42Z</time>
      </trkpt>
      <trkpt lat="45.52154" lon="5.95023">
        <ele>354.38</ele>
        <time>2011-10-23T14:49:43Z</time>
      </trkpt>
      <trkpt lat="45.52158" lon="5.95023">
        <ele>354.38</ele>
        <time>2011-10-23T14:49:44Z</time>
      </trkpt>
      <trkpt lat="45.52161" lon="5.95024">
        <ele>354.38</ele>
        <time>2011-10-23T14:49:45Z</time>
      </trkpt>
      <trkpt lat="45.52164" lon="5.95025">
        <ele>354.86</ele>
        <time>2011-10-23T14:49:46Z</time>
      </trkpt>
      <trkpt lat="45.52168" lon="5.95027">
        <ele>354.86</ele>
        <time>2011-10-23T14:49:47Z</time>
      </trkpt>
      <trkpt lat="45.52171" lon="5.95028">
        <ele>354.86</ele>
        <time>2011-10-23T14:49:48Z</time>
      </trkpt>
      <trkpt lat="45.52193" lon="5.95038">
        <ele>356.31</ele>
        <time>2011-10-23T14:49:54Z</time>
      </trkpt>
      <trkpt lat="45.52197" lon="5.95038">
        <ele>356.31</ele>
        <time>2011-10-23T14:49:55Z</time>
      </trkpt>
      <trkpt lat="45.52201" lon="5.95037">
        <ele>356.31</ele>
        <time>2011-10-23T14:49:56Z</time>
      </trkpt>
      <trkpt lat="45.52205" lon="5.95036">
        <ele>356.79</ele>
        <time>2011-10-23T14:49:57Z</time>
      </trkpt>
      <trkpt lat="45.52208" lon="5.95036">
        <ele>356.79</ele>
        <time>2011-10-23T14:49:58Z</time>
      </trkpt>
      <trkpt lat="45.52211" lon="5.95036">
        <ele>356.31</ele>
        <time>2011-10-23T14:49:59Z</time>
      </trkpt>
      <trkpt lat="45.52215" lon="5.95035">
        <ele>356.31</ele>
        <time>2011-10-23T14:50:00Z</time>
      </trkpt>
      <trkpt lat="45.52247" lon="5.95025">
        <ele>353.42</ele>
        <time>2011-10-23T14:50:06Z</time>
      </trkpt>
      <trkpt lat="45.52262" lon="5.95012">
        <ele>352.94</ele>
        <time>2011-10-23T14:50:09Z</time>
      </trkpt>
      <trkpt lat="45.52266" lon="5.95005">
        <ele>352.94</ele>
        <time>2011-10-23T14:50:10Z</time>
      </trkpt>
      <trkpt lat="45.52269" lon="5.94999">
        <ele>353.42</ele>
        <time>2011-10-23T14:50:11Z</time>
      </trkpt>
      <trkpt lat="45.52272" lon="5.94994">
        <ele>352.94</ele>
        <time>2011-10-23T14:50:12Z</time>
      </trkpt>
      <trkpt lat="45.52275" lon="5.9499">
        <ele>352.94</ele>
        <time>2011-10-23T14:50:13Z</time>
      </trkpt>
      <trkpt lat="45.52278" lon="5.94987">
        <ele>353.9</ele>
        <time>2011-10-23T14:50:14Z</time>
      </trkpt>
      <trkpt lat="45.52281" lon="5.94986">
        <ele>353.9</ele>
        <time>2011-10-23T14:50:15Z</time>
      </trkpt>
      <trkpt lat="45.52284" lon="5.94985">
        <ele>354.38</ele>
        <time>2011-10-23T14:50:16Z</time>
      </trkpt>
      <trkpt lat="45.52288" lon="5.94985">
        <ele>354.38</ele>
        <time>2011-10-23T14:50:17Z</time>
      </trkpt>
      <trkpt lat="45.52292" lon="5.94984">
        <ele>355.34</ele>
        <time>2011-10-23T14:50:18Z</time>
      </trkpt>
      <trkpt lat="45.52296" lon="5.94984">
        <ele>354.86</ele>
        <time>2011-10-23T14:50:19Z</time>
      </trkpt>
      <trkpt lat="45.52305" lon="5.94986">
        <ele>356.31</ele>
        <time>2011-10-23T14:50:21Z</time>
      </trkpt>
      <trkpt lat="45.52309" lon="5.94986">
        <ele>356.31</ele>
        <time>2011-10-23T14:50:22Z</time>
      </trkpt>
      <trkpt lat="45.52313" lon="5.94985">
        <ele>356.31</ele>
        <time>2011-10-23T14:50:23Z</time>
      </trkpt>
      <trkpt lat="45.52346" lon="5.94976">
        <ele>355.34</ele>
        <time>2011-10-23T14:50:31Z</time>
      </trkpt>
      <trkpt lat="45.5235" lon="5.94974">
        <ele>355.34</ele>
        <time>2011-10-23T14:50:32Z</time>
      </trkpt>
      <trkpt lat="45.52353" lon="5.94972">
        <ele>355.34</ele>
        <time>2011-10-23T14:50:33Z</time>
      </trkpt>
      <trkpt lat="45.52379" lon="5.94963">
        <ele>353.9</ele>
        <time>2011-10-23T14:50:42Z</time>
      </trkpt>
      <trkpt lat="45.52388" lon="5.94962">
        <ele>353.9</ele>
        <time>2011-10-23T14:50:44Z</time>
      </trkpt>
      <trkpt lat="45.52422" lon="5.94968">
        <ele>352.46</ele>
        <time>2011-10-23T14:50:51Z</time>
      </trkpt>
      <trkpt lat="45.5244" lon="5.94967">
        <ele>351.5</ele>
        <time>2011-10-23T14:50:54Z</time>
      </trkpt>
      <trkpt lat="45.52467" lon="5.94957">
        <ele>350.06</ele>
        <time>2011-10-23T14:50:58Z</time>
      </trkpt>
      <trkpt lat="45.52473" lon="5.94953">
        <ele>349.58</ele>
        <time>2011-10-23T14:50:59Z</time>
      </trkpt>
      <trkpt lat="45.52506" lon="5.9492">
        <ele>349.1</ele>
        <time>2011-10-23T14:51:06Z</time>
      </trkpt>
      <trkpt lat="45.52511" lon="5.94917">
        <ele>349.58</ele>
        <time>2011-10-23T14:51:07Z</time>
      </trkpt>
      <trkpt lat="45.52525" lon="5.94912">
        <ele>350.54</ele>
        <time>2011-10-23T14:51:10Z</time>
      </trkpt>
      <trkpt lat="45.52542" lon="5.94909">
        <ele>351.98</ele>
        <time>2011-10-23T14:51:15Z</time>
      </trkpt>
      <trkpt lat="45.52579" lon="5.94902">
        <ele>354.38</ele>
        <time>2011-10-23T14:51:28Z</time>
      </trkpt>
      <trkpt lat="45.5261" lon="5.94895">
        <ele>355.34</ele>
        <time>2011-10-23T14:51:40Z</time>
      </trkpt>
      <trkpt lat="45.52644" lon="5.94877">
        <ele>355.83</ele>
        <time>2011-10-23T14:51:51Z</time>
      </trkpt>
      <trkpt lat="45.52692" lon="5.94863">
        <ele>356.31</ele>
        <time>2011-10-23T14:52:04Z</time>
      </trkpt>
      <trkpt lat="45.52742" lon="5.94854">
        <ele>359.19</ele>
        <time>2011-10-23T14:52:19Z</time>
      </trkpt>
      <trkpt lat="45.52788" lon="5.94845">
        <ele>362.07</ele>
        <time>2011-10-23T14:52:35Z</time>
      </trkpt>
      <trkpt lat="45.52814" lon="5.94838">
        <ele>365.44</ele>
        <time>2011-10-23T14:52:47Z</time>
      </trkpt>
      <trkpt lat="45.52846" lon="5.94834">
        <ele>368.32</ele>
        <time>2011-10-23T14:53:01Z</time>
      </trkpt>
      <trkpt lat="45.52874" lon="5.94845">
        <ele>370.73</ele>
        <time>2011-10-23T14:53:16Z</time>
      </trkpt>
      <trkpt lat="45.52918" lon="5.94862">
        <ele>371.69</ele>
        <time>2011-10-23T14:53:33Z</time>
      </trkpt>
      <trkpt lat="45.52966" lon="5.94863">
        <ele>370.73</ele>
        <time>2011-10-23T14:53:48Z</time>
      </trkpt>
      <trkpt lat="45.53045" lon="5.94844">
        <ele>370.73</ele>
        <time>2011-10-23T14:54:05Z</time>
      </trkpt>
      <trkpt lat="45.53113" lon="5.94839">
        <ele>372.17</ele>
        <time>2011-10-23T14:54:21Z</time>
      </trkpt>
      <trkpt lat="45.53153" lon="5.94845">
        <ele>375.53</ele>
        <time>2011-10-23T14:54:33Z</time>
      </trkpt>
      <trkpt lat="45.53189" lon="5.9484">
        <ele>375.53</ele>
        <time>2011-10-23T14:54:46Z</time>
      </trkpt>
      <trkpt lat="45.5322" lon="5.94845">
        <ele>372.17</ele>
        <time>2011-10-23T14:54:54Z</time>
      </trkpt>
      <trkpt lat="45.53242" lon="5.94848">
        <ele>370.73</ele>
        <time>2011-10-23T14:54:57Z</time>
      </trkpt>
      <trkpt lat="45.53267" lon="5.9485">
        <ele>371.69</ele>
        <time>2011-10-23T14:55:00Z</time>
      </trkpt>
      <trkpt lat="45.53292" lon="5.94848">
        <ele>371.21</ele>
        <time>2011-10-23T14:55:04Z</time>
      </trkpt>
      <trkpt lat="45.53297" lon="5.94847">
        <ele>371.21</ele>
        <time>2011-10-23T14:55:05Z</time>
      </trkpt>
      <trkpt lat="45.53308" lon="5.94844">
        <ele>371.69</ele>
        <time>2011-10-23T14:55:07Z</time>
      </trkpt>
      <trkpt lat="45.53312" lon="5.94842">
        <ele>372.17</ele>
        <time>2011-10-23T14:55:08Z</time>
      </trkpt>
      <trkpt lat="45.53365" lon="5.94822">
        <ele>374.57</ele>
        <time>2011-10-23T14:55:23Z</time>
      </trkpt>
      <trkpt lat="45.53401" lon="5.94806">
        <ele>377.94</ele>
        <time>2011-10-23T14:55:37Z</time>
      </trkpt>
      <trkpt lat="45.53439" lon="5.9479">
        <ele>379.38</ele>
        <time>2011-10-23T14:55:51Z</time>
      </trkpt>
      <trkpt lat="45.53473" lon="5.9477">
        <ele>381.78</ele>
        <time>2011-10-23T14:56:04Z</time>
      </trkpt>
      <trkpt lat="45.53509" lon="5.94753">
        <ele>383.7</ele>
        <time>2011-10-23T14:56:19Z</time>
      </trkpt>
      <trkpt lat="45.53511" lon="5.94722">
        <ele>385.15</ele>
        <time>2011-10-23T14:56:29Z</time>
      </trkpt>
      <trkpt lat="45.53525" lon="5.9469">
        <ele>388.03</ele>
        <time>2011-10-23T14:56:43Z</time>
      </trkpt>
      <trkpt lat="45.53542" lon="5.94659">
        <ele>390.91</ele>
        <time>2011-10-23T14:56:58Z</time>
      </trkpt>
      <trkpt lat="45.53536" lon="5.94645">
        <ele>391.39</ele>
        <time>2011-10-23T14:57:04Z</time>
      </trkpt>
      <trkpt lat="45.53534" lon="5.94644">
        <ele>391.87</ele>
        <time>2011-10-23T14:57:05Z</time>
      </trkpt>
      <trkpt lat="45.53532" lon="5.94644">
        <ele>391.87</ele>
        <time>2011-10-23T14:57:06Z</time>
      </trkpt>
      <trkpt lat="45.5353" lon="5.94644">
        <ele>391.87</ele>
        <time>2011-10-23T14:57:07Z</time>
      </trkpt>
      <trkpt lat="45.53528" lon="5.94644">
        <ele>391.87</ele>
        <time>2011-10-23T14:57:08Z</time>
      </trkpt>
      <trkpt lat="45.53525" lon="5.94644">
        <ele>392.36</ele>
        <time>2011-10-23T14:57:09Z</time>
      </trkpt>
      <trkpt lat="45.53523" lon="5.94645">
        <ele>392.36</ele>
        <time>2011-10-23T14:57:10Z</time>
      </trkpt>
      <trkpt lat="45.53521" lon="5.94646">
        <ele>392.36</ele>
        <time>2011-10-23T14:57:11Z</time>
      </trkpt>
      <trkpt lat="45.53491" lon="5.94639">
        <ele>395.24</ele>
        <time>2011-10-23T14:57:25Z</time>
      </trkpt>
      <trkpt lat="45.5346" lon="5.9462">
        <ele>399.08</ele>
        <time>2011-10-23T14:57:41Z</time>
      </trkpt>
      <trkpt lat="45.53426" lon="5.94628">
        <ele>401.97</ele>
        <time>2011-10-23T14:57:58Z</time>
      </trkpt>
      <trkpt lat="45.53397" lon="5.94642">
        <ele>404.85</ele>
        <time>2011-10-23T14:58:13Z</time>
      </trkpt>
      <trkpt lat="45.53368" lon="5.94644">
        <ele>407.74</ele>
        <time>2011-10-23T14:58:27Z</time>
      </trkpt>
      <trkpt lat="45.53337" lon="5.94643">
        <ele>411.1</ele>
        <time>2011-10-23T14:58:43Z</time>
      </trkpt>
      <trkpt lat="45.53305" lon="5.94649">
        <ele>413.98</ele>
        <time>2011-10-23T14:58:59Z</time>
      </trkpt>
      <trkpt lat="45.5329" lon="5.9464">
        <ele>415.91</ele>
        <time>2011-10-23T14:59:08Z</time>
      </trkpt>
      <trkpt lat="45.53289" lon="5.94637">
        <ele>416.39</ele>
        <time>2011-10-23T14:59:09Z</time>
      </trkpt>
      <trkpt lat="45.53289" lon="5.94634">
        <ele>416.39</ele>
        <time>2011-10-23T14:59:10Z</time>
      </trkpt>
      <trkpt lat="45.53289" lon="5.94632">
        <ele>416.39</ele>
        <time>2011-10-23T14:59:11Z</time>
      </trkpt>
      <trkpt lat="45.5329" lon="5.94629">
        <ele>416.87</ele>
        <time>2011-10-23T14:59:12Z</time>
      </trkpt>
      <trkpt lat="45.53291" lon="5.94626">
        <ele>416.87</ele>
        <time>2011-10-23T14:59:13Z</time>
      </trkpt>
      <trkpt lat="45.53292" lon="5.94623">
        <ele>416.87</ele>
        <time>2011-10-23T14:59:14Z</time>
      </trkpt>
      <trkpt lat="45.53322" lon="5.94609">
        <ele>419.75</ele>
        <time>2011-10-23T14:59:28Z</time>
      </trkpt>
      <trkpt lat="45.53346" lon="5.94588">
        <ele>423.12</ele>
        <time>2011-10-23T14:59:41Z</time>
      </trkpt>
      <trkpt lat="45.53379" lon="5.94549">
        <ele>425.04</ele>
        <time>2011-10-23T14:59:59Z</time>
      </trkpt>
      <trkpt lat="45.534" lon="5.94527">
        <ele>428.89</ele>
        <time>2011-10-23T15:00:10Z</time>
      </trkpt>
      <trkpt lat="45.53419" lon="5.94484">
        <ele>431.77</ele>
        <time>2011-10-23T15:00:26Z</time>
      </trkpt>
      <trkpt lat="45.53442" lon="5.94464">
        <ele>434.65</ele>
        <time>2011-10-23T15:00:40Z</time>
      </trkpt>
      <trkpt lat="45.53471" lon="5.9445">
        <ele>437.54</ele>
        <time>2011-10-23T15:00:55Z</time>
      </trkpt>
      <trkpt lat="45.5347" lon="5.94431">
        <ele>438.5</ele>
        <time>2011-10-23T15:01:02Z</time>
      </trkpt>
      <trkpt lat="45.53468" lon="5.94429">
        <ele>438.5</ele>
        <time>2011-10-23T15:01:03Z</time>
      </trkpt>
      <trkpt lat="45.53466" lon="5.94428">
        <ele>438.5</ele>
        <time>2011-10-23T15:01:04Z</time>
      </trkpt>
      <trkpt lat="45.53432" lon="5.94428">
        <ele>441.86</ele>
        <time>2011-10-23T15:01:18Z</time>
      </trkpt>
      <trkpt lat="45.5339" lon="5.94438">
        <ele>444.75</ele>
        <time>2011-10-23T15:01:35Z</time>
      </trkpt>
      <trkpt lat="45.53347" lon="5.94446">
        <ele>447.15</ele>
        <time>2011-10-23T15:01:51Z</time>
      </trkpt>
      <trkpt lat="45.53298" lon="5.94451">
        <ele>447.63</ele>
        <time>2011-10-23T15:02:07Z</time>
      </trkpt>
      <trkpt lat="45.53252" lon="5.94489">
        <ele>450.03</ele>
        <time>2011-10-23T15:02:23Z</time>
      </trkpt>
      <trkpt lat="45.53243" lon="5.94467">
        <ele>452.44</ele>
        <time>2011-10-23T15:02:32Z</time>
      </trkpt>
      <trkpt lat="45.53246" lon="5.94463">
        <ele>452.44</ele>
        <time>2011-10-23T15:02:33Z</time>
      </trkpt>
      <trkpt lat="45.53249" lon="5.94459">
        <ele>452.92</ele>
        <time>2011-10-23T15:02:34Z</time>
      </trkpt>
      <trkpt lat="45.53252" lon="5.94456">
        <ele>452.92</ele>
        <time>2011-10-23T15:02:35Z</time>
      </trkpt>
      <trkpt lat="45.53255" lon="5.94454">
        <ele>452.92</ele>
        <time>2011-10-23T15:02:36Z</time>
      </trkpt>
      <trkpt lat="45.53286" lon="5.94418">
        <ele>455.32</ele>
        <time>2011-10-23T15:02:50Z</time>
      </trkpt>
      <trkpt lat="45.53315" lon="5.94401">
        <ele>458.21</ele>
        <time>2011-10-23T15:03:04Z</time>
      </trkpt>
      <trkpt lat="45.53341" lon="5.94392">
        <ele>461.09</ele>
        <time>2011-10-23T15:03:17Z</time>
      </trkpt>
      <trkpt lat="45.53359" lon="5.94354">
        <ele>463.49</ele>
        <time>2011-10-23T15:03:32Z</time>
      </trkpt>
      <trkpt lat="45.53365" lon="5.94316">
        <ele>465.9</ele>
        <time>2011-10-23T15:03:46Z</time>
      </trkpt>
      <trkpt lat="45.53378" lon="5.94282">
        <ele>469.26</ele>
        <time>2011-10-23T15:04:00Z</time>
      </trkpt>
      <trkpt lat="45.53402" lon="5.94257">
        <ele>471.18</ele>
        <time>2011-10-23T15:04:14Z</time>
      </trkpt>
      <trkpt lat="45.53418" lon="5.94236">
        <ele>474.07</ele>
        <time>2011-10-23T15:04:25Z</time>
      </trkpt>
      <trkpt lat="45.53427" lon="5.94206">
        <ele>476.47</ele>
        <time>2011-10-23T15:04:37Z</time>
      </trkpt>
      <trkpt lat="45.53444" lon="5.94173">
        <ele>479.35</ele>
        <time>2011-10-23T15:04:52Z</time>
      </trkpt>
      <trkpt lat="45.53473" lon="5.94159">
        <ele>482.72</ele>
        <time>2011-10-23T15:05:07Z</time>
      </trkpt>
      <trkpt lat="45.53495" lon="5.94153">
        <ele>485.6</ele>
        <time>2011-10-23T15:05:19Z</time>
      </trkpt>
      <trkpt lat="45.5352" lon="5.94152">
        <ele>488.49</ele>
        <time>2011-10-23T15:05:33Z</time>
      </trkpt>
      <trkpt lat="45.53547" lon="5.94149">
        <ele>491.37</ele>
        <time>2011-10-23T15:05:48Z</time>
      </trkpt>
      <trkpt lat="45.53563" lon="5.94139">
        <ele>493.29</ele>
        <time>2011-10-23T15:05:57Z</time>
      </trkpt>
      <trkpt lat="45.53565" lon="5.94137">
        <ele>492.81</ele>
        <time>2011-10-23T15:05:58Z</time>
      </trkpt>
      <trkpt lat="45.53573" lon="5.941">
        <ele>496.18</ele>
        <time>2011-10-23T15:06:12Z</time>
      </trkpt>
      <trkpt lat="45.53593" lon="5.94078">
        <ele>498.58</ele>
        <time>2011-10-23T15:06:26Z</time>
      </trkpt>
      <trkpt lat="45.53614" lon="5.94068">
        <ele>501.95</ele>
        <time>2011-10-23T15:06:38Z</time>
      </trkpt>
      <trkpt lat="45.5364" lon="5.94054">
        <ele>504.83</ele>
        <time>2011-10-23T15:06:53Z</time>
      </trkpt>
      <trkpt lat="45.53669" lon="5.94039">
        <ele>507.71</ele>
        <time>2011-10-23T15:07:09Z</time>
      </trkpt>
      <trkpt lat="45.53672" lon="5.94028">
        <ele>508.19</ele>
        <time>2011-10-23T15:07:13Z</time>
      </trkpt>
      <trkpt lat="45.53672" lon="5.94026">
        <ele>508.67</ele>
        <time>2011-10-23T15:07:14Z</time>
      </trkpt>
      <trkpt lat="45.53671" lon="5.94024">
        <ele>508.67</ele>
        <time>2011-10-23T15:07:15Z</time>
      </trkpt>
      <trkpt lat="45.53669" lon="5.94022">
        <ele>508.67</ele>
        <time>2011-10-23T15:07:16Z</time>
      </trkpt>
      <trkpt lat="45.53667" lon="5.9402">
        <ele>509.16</ele>
        <time>2011-10-23T15:07:17Z</time>
      </trkpt>
      <trkpt lat="45.53665" lon="5.94019">
        <ele>509.64</ele>
        <time>2011-10-23T15:07:18Z</time>
      </trkpt>
      <trkpt lat="45.53634" lon="5.94015">
        <ele>511.56</ele>
        <time>2011-10-23T15:07:32Z</time>
      </trkpt>
      <trkpt lat="45.53606" lon="5.94002">
        <ele>514.92</ele>
        <time>2011-10-23T15:07:46Z</time>
      </trkpt>
      <trkpt lat="45.53574" lon="5.93991">
        <ele>518.29</ele>
        <time>2011-10-23T15:08:02Z</time>
      </trkpt>
      <trkpt lat="45.53548" lon="5.93987">
        <ele>521.17</ele>
        <time>2011-10-23T15:08:15Z</time>
      </trkpt>
      <trkpt lat="45.53522" lon="5.93979">
        <ele>525.02</ele>
        <time>2011-10-23T15:08:29Z</time>
      </trkpt>
      <trkpt lat="45.53493" lon="5.93972">
        <ele>527.42</ele>
        <time>2011-10-23T15:08:44Z</time>
      </trkpt>
      <trkpt lat="45.53481" lon="5.93972">
        <ele>528.86</ele>
        <time>2011-10-23T15:08:58Z</time>
      </trkpt>
      <trkpt lat="45.53484" lon="5.93966">
        <ele>529.82</ele>
        <time>2011-10-23T15:09:21Z</time>
      </trkpt>
      <trkpt lat="45.53486" lon="5.93964">
        <ele>530.3</ele>
        <time>2011-10-23T15:09:23Z</time>
      </trkpt>
      <trkpt lat="45.53495" lon="5.9395">
        <ele>532.23</ele>
        <time>2011-10-23T15:09:39Z</time>
      </trkpt>
      <trkpt lat="45.53496" lon="5.93946">
        <ele>532.71</ele>
        <time>2011-10-23T15:09:54Z</time>
      </trkpt>
      <trkpt lat="45.53496" lon="5.93946">
        <ele>532.71</ele>
        <time>2011-10-23T15:10:25Z</time>
      </trkpt>
      <trkpt lat="45.53496" lon="5.93946">
        <ele>532.71</ele>
        <time>2011-10-23T15:11:04Z</time>
      </trkpt>
      <trkpt lat="45.53496" lon="5.93945">
        <ele>532.71</ele>
        <time>2011-10-23T15:11:36Z</time>
      </trkpt>
      <trkpt lat="45.53495" lon="5.93946">
        <ele>533.67</ele>
        <time>2011-10-23T15:12:10Z</time>
      </trkpt>
      <trkpt lat="45.53496" lon="5.93945">
        <ele>532.71</ele>
        <time>2011-10-23T15:12:41Z</time>
      </trkpt>
      <trkpt lat="45.53496" lon="5.93945">
        <ele>533.67</ele>
        <time>2011-10-23T15:13:05Z</time>
      </trkpt>
      <trkpt lat="45.53498" lon="5.93946">
        <ele>533.67</ele>
        <time>2011-10-23T15:13:23Z</time>
      </trkpt>
      <trkpt lat="45.535" lon="5.93946">
        <ele>533.67</ele>
        <time>2011-10-23T15:13:24Z</time>
      </trkpt>
      <trkpt lat="45.53502" lon="5.93945">
        <ele>533.67</ele>
        <time>2011-10-23T15:13:25Z</time>
      </trkpt>
      <trkpt lat="45.53503" lon="5.93943">
        <ele>534.63</ele>
        <time>2011-10-23T15:13:26Z</time>
      </trkpt>
      <trkpt lat="45.53505" lon="5.93941">
        <ele>534.15</ele>
        <time>2011-10-23T15:13:27Z</time>
      </trkpt>
      <trkpt lat="45.53506" lon="5.93939">
        <ele>534.63</ele>
        <time>2011-10-23T15:13:28Z</time>
      </trkpt>
      <trkpt lat="45.53517" lon="5.93919">
        <ele>537.51</ele>
        <time>2011-10-23T15:13:41Z</time>
      </trkpt>
      <trkpt lat="45.53534" lon="5.939">
        <ele>540.88</ele>
        <time>2011-10-23T15:13:56Z</time>
      </trkpt>
      <trkpt lat="45.53537" lon="5.93898">
        <ele>540.88</ele>
        <time>2011-10-23T15:13:58Z</time>
      </trkpt>
      <trkpt lat="45.53537" lon="5.93897">
        <ele>541.36</ele>
        <time>2011-10-23T15:13:59Z</time>
      </trkpt>
      <trkpt lat="45.53553" lon="5.93881">
        <ele>544.24</ele>
        <time>2011-10-23T15:14:14Z</time>
      </trkpt>
      <trkpt lat="45.53564" lon="5.93872">
        <ele>545.69</ele>
        <time>2011-10-23T15:14:26Z</time>
      </trkpt>
      <trkpt lat="45.53565" lon="5.93871">
        <ele>546.17</ele>
        <time>2011-10-23T15:14:27Z</time>
      </trkpt>
      <trkpt lat="45.53575" lon="5.93863">
        <ele>547.61</ele>
        <time>2011-10-23T15:14:36Z</time>
      </trkpt>
      <trkpt lat="45.53576" lon="5.93862">
        <ele>548.09</ele>
        <time>2011-10-23T15:14:37Z</time>
      </trkpt>
      <trkpt lat="45.53577" lon="5.93861">
        <ele>548.57</ele>
        <time>2011-10-23T15:14:38Z</time>
      </trkpt>
      <trkpt lat="45.53589" lon="5.9385">
        <ele>550.97</ele>
        <time>2011-10-23T15:14:52Z</time>
      </trkpt>
      <trkpt lat="45.53588" lon="5.93845">
        <ele>551.93</ele>
        <time>2011-10-23T15:15:13Z</time>
      </trkpt>
      <trkpt lat="45.53583" lon="5.9384">
        <ele>554.82</ele>
        <time>2011-10-23T15:15:25Z</time>
      </trkpt>
      <trkpt lat="45.53576" lon="5.93833">
        <ele>556.74</ele>
        <time>2011-10-23T15:15:37Z</time>
      </trkpt>
      <trkpt lat="45.53566" lon="5.93823">
        <ele>559.62</ele>
        <time>2011-10-23T15:15:53Z</time>
      </trkpt>
      <trkpt lat="45.53554" lon="5.93818">
        <ele>561.55</ele>
        <time>2011-10-23T15:16:07Z</time>
      </trkpt>
      <trkpt lat="45.53545" lon="5.93811">
        <ele>564.43</ele>
        <time>2011-10-23T15:16:19Z</time>
      </trkpt>
      <trkpt lat="45.53543" lon="5.93797">
        <ele>567.32</ele>
        <time>2011-10-23T15:16:34Z</time>
      </trkpt>
      <trkpt lat="45.53546" lon="5.93784">
        <ele>569.72</ele>
        <time>2011-10-23T15:16:48Z</time>
      </trkpt>
      <trkpt lat="45.53555" lon="5.93773">
        <ele>573.08</ele>
        <time>2011-10-23T15:17:04Z</time>
      </trkpt>
      <trkpt lat="45.5356" lon="5.93769">
        <ele>574.04</ele>
        <time>2011-10-23T15:17:17Z</time>
      </trkpt>
      <trkpt lat="45.53561" lon="5.93768">
        <ele>574.04</ele>
        <time>2011-10-23T15:17:18Z</time>
      </trkpt>
      <trkpt lat="45.53568" lon="5.93759">
        <ele>575.97</ele>
        <time>2011-10-23T15:17:25Z</time>
      </trkpt>
      <trkpt lat="45.5357" lon="5.93759">
        <ele>575.97</ele>
        <time>2011-10-23T15:17:26Z</time>
      </trkpt>
      <trkpt lat="45.53571" lon="5.93758">
        <ele>575.97</ele>
        <time>2011-10-23T15:17:27Z</time>
      </trkpt>
      <trkpt lat="45.53572" lon="5.93757">
        <ele>576.45</ele>
        <time>2011-10-23T15:17:28Z</time>
      </trkpt>
      <trkpt lat="45.53573" lon="5.93756">
        <ele>576.45</ele>
        <time>2011-10-23T15:17:29Z</time>
      </trkpt>
      <trkpt lat="45.53574" lon="5.93755">
        <ele>576.93</ele>
        <time>2011-10-23T15:17:30Z</time>
      </trkpt>
      <trkpt lat="45.53584" lon="5.93744">
        <ele>579.33</ele>
        <time>2011-10-23T15:17:39Z</time>
      </trkpt>
      <trkpt lat="45.53585" lon="5.93743">
        <ele>579.81</ele>
        <time>2011-10-23T15:17:40Z</time>
      </trkpt>
      <trkpt lat="45.53586" lon="5.93741">
        <ele>579.81</ele>
        <time>2011-10-23T15:17:41Z</time>
      </trkpt>
      <trkpt lat="45.53587" lon="5.9374">
        <ele>579.81</ele>
        <time>2011-10-23T15:17:42Z</time>
      </trkpt>
      <trkpt lat="45.53587" lon="5.93739">
        <ele>580.77</ele>
        <time>2011-10-23T15:17:43Z</time>
      </trkpt>
      <trkpt lat="45.53601" lon="5.93726">
        <ele>583.66</ele>
        <time>2011-10-23T15:17:58Z</time>
      </trkpt>
      <trkpt lat="45.53612" lon="5.93711">
        <ele>587.02</ele>
        <time>2011-10-23T15:18:11Z</time>
      </trkpt>
      <trkpt lat="45.53627" lon="5.93698">
        <ele>589.91</ele>
        <time>2011-10-23T15:18:25Z</time>
      </trkpt>
      <trkpt lat="45.53642" lon="5.93683">
        <ele>593.27</ele>
        <time>2011-10-23T15:18:39Z</time>
      </trkpt>
      <trkpt lat="45.5365" lon="5.93671">
        <ele>596.15</ele>
        <time>2011-10-23T15:18:49Z</time>
      </trkpt>
      <trkpt lat="45.53661" lon="5.93658">
        <ele>599.04</ele>
        <time>2011-10-23T15:19:02Z</time>
      </trkpt>
      <trkpt lat="45.53676" lon="5.9364">
        <ele>601.92</ele>
        <time>2011-10-23T15:19:18Z</time>
      </trkpt>
      <trkpt lat="45.53682" lon="5.93624">
        <ele>605.29</ele>
        <time>2011-10-23T15:19:29Z</time>
      </trkpt>
      <trkpt lat="45.53684" lon="5.9362">
        <ele>606.25</ele>
        <time>2011-10-23T15:19:32Z</time>
      </trkpt>
      <trkpt lat="45.53685" lon="5.93614">
        <ele>606.73</ele>
        <time>2011-10-23T15:19:36Z</time>
      </trkpt>
      <trkpt lat="45.53688" lon="5.93607">
        <ele>608.17</ele>
        <time>2011-10-23T15:19:43Z</time>
      </trkpt>
      <trkpt lat="45.5369" lon="5.93602">
        <ele>609.13</ele>
        <time>2011-10-23T15:19:47Z</time>
      </trkpt>
      <trkpt lat="45.53691" lon="5.936">
        <ele>609.61</ele>
        <time>2011-10-23T15:19:48Z</time>
      </trkpt>
      <trkpt lat="45.53692" lon="5.93599">
        <ele>610.09</ele>
        <time>2011-10-23T15:19:49Z</time>
      </trkpt>
      <trkpt lat="45.53696" lon="5.93589">
        <ele>612.02</ele>
        <time>2011-10-23T15:19:56Z</time>
      </trkpt>
      <trkpt lat="45.53699" lon="5.93571">
        <ele>614.42</ele>
        <time>2011-10-23T15:20:06Z</time>
      </trkpt>
      <trkpt lat="45.53699" lon="5.9357">
        <ele>614.9</ele>
        <time>2011-10-23T15:20:07Z</time>
      </trkpt>
      <trkpt lat="45.53699" lon="5.93568">
        <ele>614.9</ele>
        <time>2011-10-23T15:20:08Z</time>
      </trkpt>
      <trkpt lat="45.53699" lon="5.93567">
        <ele>614.9</ele>
        <time>2011-10-23T15:20:09Z</time>
      </trkpt>
      <trkpt lat="45.53699" lon="5.93565">
        <ele>614.9</ele>
        <time>2011-10-23T15:20:10Z</time>
      </trkpt>
      <trkpt lat="45.53699" lon="5.93564">
        <ele>615.38</ele>
        <time>2011-10-23T15:20:11Z</time>
      </trkpt>
      <trkpt lat="45.53699" lon="5.93562">
        <ele>615.86</ele>
        <time>2011-10-23T15:20:12Z</time>
      </trkpt>
      <trkpt lat="45.53699" lon="5.9356">
        <ele>615.86</ele>
        <time>2011-10-23T15:20:13Z</time>
      </trkpt>
      <trkpt lat="45.53699" lon="5.93558">
        <ele>616.34</ele>
        <time>2011-10-23T15:20:14Z</time>
      </trkpt>
      <trkpt lat="45.53692" lon="5.93542">
        <ele>617.78</ele>
        <time>2011-10-23T15:20:25Z</time>
      </trkpt>
      <trkpt lat="45.53693" lon="5.93534">
        <ele>619.23</ele>
        <time>2011-10-23T15:20:40Z</time>
      </trkpt>
      <trkpt lat="45.53695" lon="5.93535">
        <ele>618.75</ele>
        <time>2011-10-23T15:20:51Z</time>
      </trkpt>
      <trkpt lat="45.53702" lon="5.93538">
        <ele>619.23</ele>
        <time>2011-10-23T15:20:55Z</time>
      </trkpt>
      <trkpt lat="45.53703" lon="5.93538">
        <ele>619.71</ele>
        <time>2011-10-23T15:20:56Z</time>
      </trkpt>
      <trkpt lat="45.53705" lon="5.93538">
        <ele>619.71</ele>
        <time>2011-10-23T15:20:57Z</time>
      </trkpt>
      <trkpt lat="45.53706" lon="5.93538">
        <ele>619.71</ele>
        <time>2011-10-23T15:20:58Z</time>
      </trkpt>
      <trkpt lat="45.53711" lon="5.93537">
        <ele>620.19</ele>
        <time>2011-10-23T15:21:11Z</time>
      </trkpt>
      <trkpt lat="45.53711" lon="5.93537">
        <ele>619.71</ele>
        <time>2011-10-23T15:21:49Z</time>
      </trkpt>
      <trkpt lat="45.53711" lon="5.9354">
        <ele>619.71</ele>
        <time>2011-10-23T15:22:16Z</time>
      </trkpt>
      <trkpt lat="45.53711" lon="5.93543">
        <ele>619.71</ele>
        <time>2011-10-23T15:22:17Z</time>
      </trkpt>
      <trkpt lat="45.53711" lon="5.93545">
        <ele>619.71</ele>
        <time>2011-10-23T15:22:18Z</time>
      </trkpt>
      <trkpt lat="45.53711" lon="5.93548">
        <ele>619.71</ele>
        <time>2011-10-23T15:22:19Z</time>
      </trkpt>
      <trkpt lat="45.53711" lon="5.93549">
        <ele>620.19</ele>
        <time>2011-10-23T15:22:20Z</time>
      </trkpt>
      <trkpt lat="45.53713" lon="5.93551">
        <ele>620.67</ele>
        <time>2011-10-23T15:22:21Z</time>
      </trkpt>
      <trkpt lat="45.53719" lon="5.93559">
        <ele>622.59</ele>
        <time>2011-10-23T15:22:34Z</time>
      </trkpt>
      <trkpt lat="45.53724" lon="5.9356">
        <ele>625.47</ele>
        <time>2011-10-23T15:22:47Z</time>
      </trkpt>
      <trkpt lat="45.53732" lon="5.93559">
        <ele>628.84</ele>
        <time>2011-10-23T15:23:02Z</time>
      </trkpt>
      <trkpt lat="45.53732" lon="5.93558">
        <ele>628.84</ele>
        <time>2011-10-23T15:23:03Z</time>
      </trkpt>
      <trkpt lat="45.53737" lon="5.93554">
        <ele>629.32</ele>
        <time>2011-10-23T15:23:15Z</time>
      </trkpt>
      <trkpt lat="45.53737" lon="5.93554">
        <ele>629.32</ele>
        <time>2011-10-23T15:23:40Z</time>
      </trkpt>
      <trkpt lat="45.53737" lon="5.93554">
        <ele>629.8</ele>
        <time>2011-10-23T15:24:09Z</time>
      </trkpt>
      <trkpt lat="45.53737" lon="5.93554">
        <ele>630.28</ele>
        <time>2011-10-23T15:24:23Z</time>
      </trkpt>
      <trkpt lat="45.53737" lon="5.93555">
        <ele>629.8</ele>
        <time>2011-10-23T15:24:51Z</time>
      </trkpt>
      <trkpt lat="45.53739" lon="5.93557">
        <ele>629.32</ele>
        <time>2011-10-23T15:25:01Z</time>
      </trkpt>
      <trkpt lat="45.5374" lon="5.93559">
        <ele>629.8</ele>
        <time>2011-10-23T15:25:02Z</time>
      </trkpt>
      <trkpt lat="45.53742" lon="5.9356">
        <ele>629.32</ele>
        <time>2011-10-23T15:25:03Z</time>
      </trkpt>
      <trkpt lat="45.53744" lon="5.93562">
        <ele>628.84</ele>
        <time>2011-10-23T15:25:04Z</time>
      </trkpt>
      <trkpt lat="45.53746" lon="5.93562">
        <ele>628.36</ele>
        <time>2011-10-23T15:25:05Z</time>
      </trkpt>
      <trkpt lat="45.53749" lon="5.93563">
        <ele>627.88</ele>
        <time>2011-10-23T15:25:06Z</time>
      </trkpt>
      <trkpt lat="45.53752" lon="5.93564">
        <ele>626.92</ele>
        <time>2011-10-23T15:25:07Z</time>
      </trkpt>
      <trkpt lat="45.53754" lon="5.93566">
        <ele>626.44</ele>
        <time>2011-10-23T15:25:08Z</time>
      </trkpt>
      <trkpt lat="45.5376" lon="5.93569">
        <ele>625.47</ele>
        <time>2011-10-23T15:25:10Z</time>
      </trkpt>
      <trkpt lat="45.53769" lon="5.93575">
        <ele>622.11</ele>
        <time>2011-10-23T15:25:13Z</time>
      </trkpt>
      <trkpt lat="45.53781" lon="5.93582">
        <ele>618.26</ele>
        <time>2011-10-23T15:25:16Z</time>
      </trkpt>
      <trkpt lat="45.53785" lon="5.93585">
        <ele>617.78</ele>
        <time>2011-10-23T15:25:17Z</time>
      </trkpt>
      <trkpt lat="45.53794" lon="5.93598">
        <ele>619.71</ele>
        <time>2011-10-23T15:25:20Z</time>
      </trkpt>
      <trkpt lat="45.53789" lon="5.93623">
        <ele>622.11</ele>
        <time>2011-10-23T15:25:26Z</time>
      </trkpt>
      <trkpt lat="45.53788" lon="5.93626">
        <ele>622.11</ele>
        <time>2011-10-23T15:25:27Z</time>
      </trkpt>
      <trkpt lat="45.53787" lon="5.93629">
        <ele>622.11</ele>
        <time>2011-10-23T15:25:28Z</time>
      </trkpt>
      <trkpt lat="45.53787" lon="5.93631">
        <ele>622.59</ele>
        <time>2011-10-23T15:25:29Z</time>
      </trkpt>
      <trkpt lat="45.53788" lon="5.93634">
        <ele>622.59</ele>
        <time>2011-10-23T15:25:30Z</time>
      </trkpt>
      <trkpt lat="45.53792" lon="5.93638">
        <ele>625.47</ele>
        <time>2011-10-23T15:25:40Z</time>
      </trkpt>
      <trkpt lat="45.53797" lon="5.93627">
        <ele>628.84</ele>
        <time>2011-10-23T15:25:55Z</time>
      </trkpt>
      <trkpt lat="45.53802" lon="5.93624">
        <ele>629.8</ele>
        <time>2011-10-23T15:26:09Z</time>
      </trkpt>
      <trkpt lat="45.53802" lon="5.93624">
        <ele>629.32</ele>
        <time>2011-10-23T15:26:11Z</time>
      </trkpt>
      <trkpt lat="45.53803" lon="5.93625">
        <ele>629.32</ele>
        <time>2011-10-23T15:26:12Z</time>
      </trkpt>
      <trkpt lat="45.53805" lon="5.93626">
        <ele>628.84</ele>
        <time>2011-10-23T15:26:13Z</time>
      </trkpt>
      <trkpt lat="45.53807" lon="5.93627">
        <ele>628.36</ele>
        <time>2011-10-23T15:26:14Z</time>
      </trkpt>
      <trkpt lat="45.53811" lon="5.93628">
        <ele>627.88</ele>
        <time>2011-10-23T15:26:15Z</time>
      </trkpt>
      <trkpt lat="45.53814" lon="5.93629">
        <ele>627.4</ele>
        <time>2011-10-23T15:26:16Z</time>
      </trkpt>
      <trkpt lat="45.53817" lon="5.93631">
        <ele>626.92</ele>
        <time>2011-10-23T15:26:17Z</time>
      </trkpt>
      <trkpt lat="45.5382" lon="5.93633">
        <ele>625.96</ele>
        <time>2011-10-23T15:26:18Z</time>
      </trkpt>
      <trkpt lat="45.53823" lon="5.93635">
        <ele>625.47</ele>
        <time>2011-10-23T15:26:19Z</time>
      </trkpt>
      <trkpt lat="45.53827" lon="5.93637">
        <ele>624.99</ele>
        <time>2011-10-23T15:26:20Z</time>
      </trkpt>
      <trkpt lat="45.5383" lon="5.93639">
        <ele>624.51</ele>
        <time>2011-10-23T15:26:21Z</time>
      </trkpt>
      <trkpt lat="45.53834" lon="5.93642">
        <ele>624.03</ele>
        <time>2011-10-23T15:26:22Z</time>
      </trkpt>
      <trkpt lat="45.5385" lon="5.93682">
        <ele>625.47</ele>
        <time>2011-10-23T15:26:34Z</time>
      </trkpt>
      <trkpt lat="45.53859" lon="5.9369">
        <ele>627.4</ele>
        <time>2011-10-23T15:26:48Z</time>
      </trkpt>
      <trkpt lat="45.53864" lon="5.93697">
        <ele>630.76</ele>
        <time>2011-10-23T15:27:02Z</time>
      </trkpt>
      <trkpt lat="45.53867" lon="5.93706">
        <ele>633.65</ele>
        <time>2011-10-23T15:27:15Z</time>
      </trkpt>
      <trkpt lat="45.53869" lon="5.93714">
        <ele>637.49</ele>
        <time>2011-10-23T15:27:29Z</time>
      </trkpt>
      <trkpt lat="45.53874" lon="5.93719">
        <ele>636.53</ele>
        <time>2011-10-23T15:27:35Z</time>
      </trkpt>
      <trkpt lat="45.539" lon="5.93715">
        <ele>636.53</ele>
        <time>2011-10-23T15:27:46Z</time>
      </trkpt>
      <trkpt lat="45.53919" lon="5.93723">
        <ele>635.57</ele>
        <time>2011-10-23T15:27:53Z</time>
      </trkpt>
      <trkpt lat="45.53935" lon="5.93744">
        <ele>636.05</ele>
        <time>2011-10-23T15:28:04Z</time>
      </trkpt>
      <trkpt lat="45.53936" lon="5.93749">
        <ele>637.49</ele>
        <time>2011-10-23T15:28:06Z</time>
      </trkpt>
      <trkpt lat="45.53936" lon="5.93751">
        <ele>637.49</ele>
        <time>2011-10-23T15:28:07Z</time>
      </trkpt>
      <trkpt lat="45.53937" lon="5.93753">
        <ele>637.97</ele>
        <time>2011-10-23T15:28:08Z</time>
      </trkpt>
      <trkpt lat="45.53938" lon="5.93755">
        <ele>637.97</ele>
        <time>2011-10-23T15:28:09Z</time>
      </trkpt>
      <trkpt lat="45.53939" lon="5.93758">
        <ele>637.97</ele>
        <time>2011-10-23T15:28:10Z</time>
      </trkpt>
      <trkpt lat="45.5394" lon="5.93761">
        <ele>638.45</ele>
        <time>2011-10-23T15:28:11Z</time>
      </trkpt>
      <trkpt lat="45.53942" lon="5.93764">
        <ele>637.49</ele>
        <time>2011-10-23T15:28:12Z</time>
      </trkpt>
      <trkpt lat="45.53955" lon="5.93782">
        <ele>634.13</ele>
        <time>2011-10-23T15:28:18Z</time>
      </trkpt>
      <trkpt lat="45.53964" lon="5.9379">
        <ele>633.17</ele>
        <time>2011-10-23T15:28:21Z</time>
      </trkpt>
      <trkpt lat="45.53994" lon="5.93815">
        <ele>629.8</ele>
        <time>2011-10-23T15:28:30Z</time>
      </trkpt>
      <trkpt lat="45.54006" lon="5.93827">
        <ele>627.4</ele>
        <time>2011-10-23T15:28:33Z</time>
      </trkpt>
      <trkpt lat="45.5401" lon="5.93831">
        <ele>626.44</ele>
        <time>2011-10-23T15:28:34Z</time>
      </trkpt>
      <trkpt lat="45.54024" lon="5.93847">
        <ele>623.55</ele>
        <time>2011-10-23T15:28:39Z</time>
      </trkpt>
      <trkpt lat="45.54039" lon="5.9386">
        <ele>619.71</ele>
        <time>2011-10-23T15:28:44Z</time>
      </trkpt>
      <trkpt lat="45.54046" lon="5.93863">
        <ele>618.75</ele>
        <time>2011-10-23T15:28:46Z</time>
      </trkpt>
      <trkpt lat="45.54053" lon="5.93877">
        <ele>615.38</ele>
        <time>2011-10-23T15:28:51Z</time>
      </trkpt>
      <trkpt lat="45.5405" lon="5.93898">
        <ele>611.54</ele>
        <time>2011-10-23T15:28:57Z</time>
      </trkpt>
      <trkpt lat="45.54048" lon="5.939">
        <ele>611.54</ele>
        <time>2011-10-23T15:28:58Z</time>
      </trkpt>
      <trkpt lat="45.54049" lon="5.93909">
        <ele>609.13</ele>
        <time>2011-10-23T15:29:01Z</time>
      </trkpt>
      <trkpt lat="45.5405" lon="5.93912">
        <ele>608.65</ele>
        <time>2011-10-23T15:29:02Z</time>
      </trkpt>
      <trkpt lat="45.54052" lon="5.93915">
        <ele>607.69</ele>
        <time>2011-10-23T15:29:03Z</time>
      </trkpt>
      <trkpt lat="45.54055" lon="5.93918">
        <ele>607.21</ele>
        <time>2011-10-23T15:29:04Z</time>
      </trkpt>
      <trkpt lat="45.54057" lon="5.93921">
        <ele>606.73</ele>
        <time>2011-10-23T15:29:05Z</time>
      </trkpt>
      <trkpt lat="45.54059" lon="5.93923">
        <ele>606.25</ele>
        <time>2011-10-23T15:29:06Z</time>
      </trkpt>
      <trkpt lat="45.54062" lon="5.93925">
        <ele>605.29</ele>
        <time>2011-10-23T15:29:07Z</time>
      </trkpt>
      <trkpt lat="45.54064" lon="5.93926">
        <ele>605.29</ele>
        <time>2011-10-23T15:29:08Z</time>
      </trkpt>
      <trkpt lat="45.54068" lon="5.93927">
        <ele>604.33</ele>
        <time>2011-10-23T15:29:10Z</time>
      </trkpt>
      <trkpt lat="45.54082" lon="5.93925">
        <ele>600.48</ele>
        <time>2011-10-23T15:29:15Z</time>
      </trkpt>
      <trkpt lat="45.54091" lon="5.93926">
        <ele>598.56</ele>
        <time>2011-10-23T15:29:19Z</time>
      </trkpt>
      <trkpt lat="45.54095" lon="5.93926">
        <ele>597.12</ele>
        <time>2011-10-23T15:29:21Z</time>
      </trkpt>
      <trkpt lat="45.54103" lon="5.93927">
        <ele>593.75</ele>
        <time>2011-10-23T15:29:25Z</time>
      </trkpt>
      <trkpt lat="45.54114" lon="5.93941">
        <ele>589.91</ele>
        <time>2011-10-23T15:29:29Z</time>
      </trkpt>
      <trkpt lat="45.54125" lon="5.93955">
        <ele>587.02</ele>
        <time>2011-10-23T15:29:33Z</time>
      </trkpt>
      <trkpt lat="45.54142" lon="5.93963">
        <ele>583.18</ele>
        <time>2011-10-23T15:29:38Z</time>
      </trkpt>
      <trkpt lat="45.54153" lon="5.93969">
        <ele>581.73</ele>
        <time>2011-10-23T15:29:41Z</time>
      </trkpt>
      <trkpt lat="45.54175" lon="5.93974">
        <ele>581.73</ele>
        <time>2011-10-23T15:29:52Z</time>
      </trkpt>
      <trkpt lat="45.54174" lon="5.93973">
        <ele>582.22</ele>
        <time>2011-10-23T15:30:09Z</time>
      </trkpt>
      <trkpt lat="45.54174" lon="5.93974">
        <ele>581.73</ele>
        <time>2011-10-23T15:30:24Z</time>
      </trkpt>
      <trkpt lat="45.54175" lon="5.93975">
        <ele>581.25</ele>
        <time>2011-10-23T15:30:25Z</time>
      </trkpt>
      <trkpt lat="45.54176" lon="5.93977">
        <ele>580.77</ele>
        <time>2011-10-23T15:30:26Z</time>
      </trkpt>
      <trkpt lat="45.54178" lon="5.9398">
        <ele>580.29</ele>
        <time>2011-10-23T15:30:27Z</time>
      </trkpt>
      <trkpt lat="45.5418" lon="5.93983">
        <ele>579.33</ele>
        <time>2011-10-23T15:30:28Z</time>
      </trkpt>
      <trkpt lat="45.54182" lon="5.93985">
        <ele>578.37</ele>
        <time>2011-10-23T15:30:29Z</time>
      </trkpt>
      <trkpt lat="45.54184" lon="5.93988">
        <ele>577.89</ele>
        <time>2011-10-23T15:30:30Z</time>
      </trkpt>
      <trkpt lat="45.54186" lon="5.93991">
        <ele>576.93</ele>
        <time>2011-10-23T15:30:31Z</time>
      </trkpt>
      <trkpt lat="45.54188" lon="5.93992">
        <ele>575.97</ele>
        <time>2011-10-23T15:30:32Z</time>
      </trkpt>
      <trkpt lat="45.54193" lon="5.93992">
        <ele>574.53</ele>
        <time>2011-10-23T15:30:36Z</time>
      </trkpt>
      <trkpt lat="45.54196" lon="5.93991">
        <ele>572.12</ele>
        <time>2011-10-23T15:30:39Z</time>
      </trkpt>
      <trkpt lat="45.54198" lon="5.93991">
        <ele>571.16</ele>
        <time>2011-10-23T15:30:40Z</time>
      </trkpt>
      <trkpt lat="45.54237" lon="5.94017">
        <ele>566.35</ele>
        <time>2011-10-23T15:30:52Z</time>
      </trkpt>
      <trkpt lat="45.54256" lon="5.94036">
        <ele>562.99</ele>
        <time>2011-10-23T15:30:58Z</time>
      </trkpt>
      <trkpt lat="45.54263" lon="5.94042">
        <ele>562.03</ele>
        <time>2011-10-23T15:31:01Z</time>
      </trkpt>
      <trkpt lat="45.54263" lon="5.94041">
        <ele>562.51</ele>
        <time>2011-10-23T15:31:03Z</time>
      </trkpt>
      <trkpt lat="45.54271" lon="5.94048">
        <ele>558.66</ele>
        <time>2011-10-23T15:31:10Z</time>
      </trkpt>
      <trkpt lat="45.54276" lon="5.94051">
        <ele>557.7</ele>
        <time>2011-10-23T15:31:12Z</time>
      </trkpt>
      <trkpt lat="45.54285" lon="5.94056">
        <ele>554.34</ele>
        <time>2011-10-23T15:31:16Z</time>
      </trkpt>
      <trkpt lat="45.54305" lon="5.94067">
        <ele>551.93</ele>
        <time>2011-10-23T15:31:21Z</time>
      </trkpt>
      <trkpt lat="45.54314" lon="5.9408">
        <ele>548.57</ele>
        <time>2011-10-23T15:31:26Z</time>
      </trkpt>
      <trkpt lat="45.54317" lon="5.94089">
        <ele>546.65</ele>
        <time>2011-10-23T15:31:35Z</time>
      </trkpt>
      <trkpt lat="45.5432" lon="5.94105">
        <ele>544.24</ele>
        <time>2011-10-23T15:31:41Z</time>
      </trkpt>
      <trkpt lat="45.54325" lon="5.94119">
        <ele>540.88</ele>
        <time>2011-10-23T15:31:46Z</time>
      </trkpt>
      <trkpt lat="45.54331" lon="5.94122">
        <ele>540.4</ele>
        <time>2011-10-23T15:31:48Z</time>
      </trkpt>
      <trkpt lat="45.54364" lon="5.94122">
        <ele>536.07</ele>
        <time>2011-10-23T15:31:57Z</time>
      </trkpt>
      <trkpt lat="45.54365" lon="5.9412">
        <ele>536.07</ele>
        <time>2011-10-23T15:31:58Z</time>
      </trkpt>
      <trkpt lat="45.54376" lon="5.94116">
        <ele>532.23</ele>
        <time>2011-10-23T15:32:03Z</time>
      </trkpt>
      <trkpt lat="45.54386" lon="5.94117">
        <ele>530.3</ele>
        <time>2011-10-23T15:32:06Z</time>
      </trkpt>
      <trkpt lat="45.54408" lon="5.94132">
        <ele>526.94</ele>
        <time>2011-10-23T15:32:13Z</time>
      </trkpt>
      <trkpt lat="45.5442" lon="5.94137">
        <ele>523.58</ele>
        <time>2011-10-23T15:32:17Z</time>
      </trkpt>
      <trkpt lat="45.54431" lon="5.94145">
        <ele>520.21</ele>
        <time>2011-10-23T15:32:20Z</time>
      </trkpt>
      <trkpt lat="45.5444" lon="5.94156">
        <ele>517.33</ele>
        <time>2011-10-23T15:32:23Z</time>
      </trkpt>
      <trkpt lat="45.54441" lon="5.9417">
        <ele>516.37</ele>
        <time>2011-10-23T15:32:34Z</time>
      </trkpt>
      <trkpt lat="45.54442" lon="5.94172">
        <ele>516.37</ele>
        <time>2011-10-23T15:32:50Z</time>
      </trkpt>
      <trkpt lat="45.54442" lon="5.94172">
        <ele>516.37</ele>
        <time>2011-10-23T15:33:04Z</time>
      </trkpt>
      <trkpt lat="45.54442" lon="5.94171">
        <ele>515.88</ele>
        <time>2011-10-23T15:33:33Z</time>
      </trkpt>
      <trkpt lat="45.54441" lon="5.94172">
        <ele>515.88</ele>
        <time>2011-10-23T15:33:42Z</time>
      </trkpt>
      <trkpt lat="45.54442" lon="5.94212">
        <ele>513</ele>
        <time>2011-10-23T15:33:51Z</time>
      </trkpt>
      <trkpt lat="45.54443" lon="5.94229">
        <ele>511.56</ele>
        <time>2011-10-23T15:33:54Z</time>
      </trkpt>
      <trkpt lat="45.54454" lon="5.94258">
        <ele>510.12</ele>
        <time>2011-10-23T15:34:01Z</time>
      </trkpt>
      <trkpt lat="45.54458" lon="5.94261">
        <ele>509.64</ele>
        <time>2011-10-23T15:34:02Z</time>
      </trkpt>
      <trkpt lat="45.54466" lon="5.94273">
        <ele>508.19</ele>
        <time>2011-10-23T15:34:04Z</time>
      </trkpt>
      <trkpt lat="45.54476" lon="5.94273">
        <ele>507.23</ele>
        <time>2011-10-23T15:34:06Z</time>
      </trkpt>
      <trkpt lat="45.54508" lon="5.94269">
        <ele>503.87</ele>
        <time>2011-10-23T15:34:11Z</time>
      </trkpt>
      <trkpt lat="45.54517" lon="5.94266">
        <ele>502.91</ele>
        <time>2011-10-23T15:34:13Z</time>
      </trkpt>
      <trkpt lat="45.54537" lon="5.94244">
        <ele>500.02</ele>
        <time>2011-10-23T15:34:16Z</time>
      </trkpt>
      <trkpt lat="45.54553" lon="5.94252">
        <ele>498.1</ele>
        <time>2011-10-23T15:34:19Z</time>
      </trkpt>
      <trkpt lat="45.54562" lon="5.94257">
        <ele>497.14</ele>
        <time>2011-10-23T15:34:21Z</time>
      </trkpt>
      <trkpt lat="45.54581" lon="5.94265">
        <ele>493.77</ele>
        <time>2011-10-23T15:34:27Z</time>
      </trkpt>
      <trkpt lat="45.54573" lon="5.94274">
        <ele>490.41</ele>
        <time>2011-10-23T15:34:32Z</time>
      </trkpt>
      <trkpt lat="45.54569" lon="5.94277">
        <ele>487.53</ele>
        <time>2011-10-23T15:34:34Z</time>
      </trkpt>
      <trkpt lat="45.54569" lon="5.94292">
        <ele>484.16</ele>
        <time>2011-10-23T15:34:39Z</time>
      </trkpt>
      <trkpt lat="45.54577" lon="5.94301">
        <ele>480.8</ele>
        <time>2011-10-23T15:34:43Z</time>
      </trkpt>
      <trkpt lat="45.54594" lon="5.94305">
        <ele>477.91</ele>
        <time>2011-10-23T15:34:47Z</time>
      </trkpt>
      <trkpt lat="45.54612" lon="5.94296">
        <ele>474.07</ele>
        <time>2011-10-23T15:34:51Z</time>
      </trkpt>
      <trkpt lat="45.54619" lon="5.94301">
        <ele>471.18</ele>
        <time>2011-10-23T15:34:54Z</time>
      </trkpt>
      <trkpt lat="45.54641" lon="5.94323">
        <ele>467.82</ele>
        <time>2011-10-23T15:34:59Z</time>
      </trkpt>
      <trkpt lat="45.54644" lon="5.94328">
        <ele>466.38</ele>
        <time>2011-10-23T15:35:00Z</time>
      </trkpt>
      <trkpt lat="45.54654" lon="5.94336">
        <ele>464.45</ele>
        <time>2011-10-23T15:35:02Z</time>
      </trkpt>
      <trkpt lat="45.54667" lon="5.94346">
        <ele>462.53</ele>
        <time>2011-10-23T15:35:05Z</time>
      </trkpt>
      <trkpt lat="45.54681" lon="5.94359">
        <ele>458.69</ele>
        <time>2011-10-23T15:35:09Z</time>
      </trkpt>
      <trkpt lat="45.54684" lon="5.9437">
        <ele>458.21</ele>
        <time>2011-10-23T15:35:11Z</time>
      </trkpt>
      <trkpt lat="45.5469" lon="5.9438">
        <ele>454.84</ele>
        <time>2011-10-23T15:35:16Z</time>
      </trkpt>
      <trkpt lat="45.54696" lon="5.94382">
        <ele>453.4</ele>
        <time>2011-10-23T15:35:18Z</time>
      </trkpt>
      <trkpt lat="45.54707" lon="5.94392">
        <ele>450.03</ele>
        <time>2011-10-23T15:35:21Z</time>
      </trkpt>
      <trkpt lat="45.54719" lon="5.9441">
        <ele>447.63</ele>
        <time>2011-10-23T15:35:24Z</time>
      </trkpt>
      <trkpt lat="45.54723" lon="5.94417">
        <ele>447.63</ele>
        <time>2011-10-23T15:35:25Z</time>
      </trkpt>
      <trkpt lat="45.54726" lon="5.94423">
        <ele>446.67</ele>
        <time>2011-10-23T15:35:26Z</time>
      </trkpt>
      <trkpt lat="45.5473" lon="5.94436">
        <ele>443.31</ele>
        <time>2011-10-23T15:35:28Z</time>
      </trkpt>
      <trkpt lat="45.54731" lon="5.94442">
        <ele>442.82</ele>
        <time>2011-10-23T15:35:29Z</time>
      </trkpt>
      <trkpt lat="45.54733" lon="5.94449">
        <ele>441.38</ele>
        <time>2011-10-23T15:35:30Z</time>
      </trkpt>
      <trkpt lat="45.54746" lon="5.94459">
        <ele>438.02</ele>
        <time>2011-10-23T15:35:34Z</time>
      </trkpt>
      <trkpt lat="45.54759" lon="5.9446">
        <ele>434.17</ele>
        <time>2011-10-23T15:35:37Z</time>
      </trkpt>
      <trkpt lat="45.54771" lon="5.94446">
        <ele>431.29</ele>
        <time>2011-10-23T15:35:42Z</time>
      </trkpt>
      <trkpt lat="45.54781" lon="5.94425">
        <ele>428.4</ele>
        <time>2011-10-23T15:35:46Z</time>
      </trkpt>
      <trkpt lat="45.54787" lon="5.94424">
        <ele>427.44</ele>
        <time>2011-10-23T15:35:48Z</time>
      </trkpt>
      <trkpt lat="45.54796" lon="5.94426">
        <ele>426.48</ele>
        <time>2011-10-23T15:35:51Z</time>
      </trkpt>
      <trkpt lat="45.54806" lon="5.94436">
        <ele>423.12</ele>
        <time>2011-10-23T15:35:54Z</time>
      </trkpt>
      <trkpt lat="45.54815" lon="5.94455">
        <ele>420.71</ele>
        <time>2011-10-23T15:35:57Z</time>
      </trkpt>
      <trkpt lat="45.54815" lon="5.94464">
        <ele>419.75</ele>
        <time>2011-10-23T15:35:58Z</time>
      </trkpt>
      <trkpt lat="45.54816" lon="5.94472">
        <ele>419.27</ele>
        <time>2011-10-23T15:35:59Z</time>
      </trkpt>
      <trkpt lat="45.54817" lon="5.94478">
        <ele>418.31</ele>
        <time>2011-10-23T15:36:00Z</time>
      </trkpt>
      <trkpt lat="45.54818" lon="5.94483">
        <ele>417.35</ele>
        <time>2011-10-23T15:36:01Z</time>
      </trkpt>
      <trkpt lat="45.54821" lon="5.94485">
        <ele>417.35</ele>
        <time>2011-10-23T15:36:02Z</time>
      </trkpt>
      <trkpt lat="45.54838" lon="5.94476">
        <ele>413.5</ele>
        <time>2011-10-23T15:36:06Z</time>
      </trkpt>
      <trkpt lat="45.54849" lon="5.94464">
        <ele>410.62</ele>
        <time>2011-10-23T15:36:09Z</time>
      </trkpt>
      <trkpt lat="45.54852" lon="5.94458">
        <ele>410.14</ele>
        <time>2011-10-23T15:36:11Z</time>
      </trkpt>
      <trkpt lat="45.54852" lon="5.94457">
        <ele>410.14</ele>
        <time>2011-10-23T15:36:16Z</time>
      </trkpt>
      <trkpt lat="45.54851" lon="5.94457">
        <ele>409.66</ele>
        <time>2011-10-23T15:36:26Z</time>
      </trkpt>
      <trkpt lat="45.5486" lon="5.94463">
        <ele>409.18</ele>
        <time>2011-10-23T15:36:31Z</time>
      </trkpt>
      <trkpt lat="45.54867" lon="5.94468">
        <ele>407.74</ele>
        <time>2011-10-23T15:36:33Z</time>
      </trkpt>
      <trkpt lat="45.54895" lon="5.94487">
        <ele>404.85</ele>
        <time>2011-10-23T15:36:39Z</time>
      </trkpt>
      <trkpt lat="45.54907" lon="5.9449">
        <ele>403.89</ele>
        <time>2011-10-23T15:36:41Z</time>
      </trkpt>
      <trkpt lat="45.54912" lon="5.94491">
        <ele>403.89</ele>
        <time>2011-10-23T15:36:42Z</time>
      </trkpt>
      <trkpt lat="45.54916" lon="5.9449">
        <ele>403.41</ele>
        <time>2011-10-23T15:36:43Z</time>
      </trkpt>
      <trkpt lat="45.5492" lon="5.9449">
        <ele>402.93</ele>
        <time>2011-10-23T15:36:44Z</time>
      </trkpt>
      <trkpt lat="45.54924" lon="5.9449">
        <ele>402.93</ele>
        <time>2011-10-23T15:36:45Z</time>
      </trkpt>
      <trkpt lat="45.54935" lon="5.94488">
        <ele>400.53</ele>
        <time>2011-10-23T15:36:48Z</time>
      </trkpt>
      <trkpt lat="45.54944" lon="5.94489">
        <ele>398.6</ele>
        <time>2011-10-23T15:36:50Z</time>
      </trkpt>
      <trkpt lat="45.54948" lon="5.94489">
        <ele>397.64</ele>
        <time>2011-10-23T15:36:51Z</time>
      </trkpt>
      <trkpt lat="45.54959" lon="5.94488">
        <ele>394.76</ele>
        <time>2011-10-23T15:36:54Z</time>
      </trkpt>
      <trkpt lat="45.54965" lon="5.94486">
        <ele>393.8</ele>
        <time>2011-10-23T15:36:56Z</time>
      </trkpt>
      <trkpt lat="45.54976" lon="5.94487">
        <ele>392.36</ele>
        <time>2011-10-23T15:36:59Z</time>
      </trkpt>
      <trkpt lat="45.54985" lon="5.94488">
        <ele>390.91</ele>
        <time>2011-10-23T15:37:01Z</time>
      </trkpt>
      <trkpt lat="45.54999" lon="5.94491">
        <ele>388.51</ele>
        <time>2011-10-23T15:37:04Z</time>
      </trkpt>
      <trkpt lat="45.55003" lon="5.94493">
        <ele>388.03</ele>
        <time>2011-10-23T15:37:05Z</time>
      </trkpt>
      <trkpt lat="45.55021" lon="5.94503">
        <ele>384.66</ele>
        <time>2011-10-23T15:37:09Z</time>
      </trkpt>
      <trkpt lat="45.55034" lon="5.9451">
        <ele>381.3</ele>
        <time>2011-10-23T15:37:12Z</time>
      </trkpt>
      <trkpt lat="45.5505" lon="5.94522">
        <ele>379.38</ele>
        <time>2011-10-23T15:37:15Z</time>
      </trkpt>
      <trkpt lat="45.55064" lon="5.94533">
        <ele>376.01</ele>
        <time>2011-10-23T15:37:18Z</time>
      </trkpt>
      <trkpt lat="45.55078" lon="5.94545">
        <ele>372.65</ele>
        <time>2011-10-23T15:37:21Z</time>
      </trkpt>
      <trkpt lat="45.55093" lon="5.94546">
        <ele>369.76</ele>
        <time>2011-10-23T15:37:25Z</time>
      </trkpt>
      <trkpt lat="45.55098" lon="5.94543">
        <ele>369.28</ele>
        <time>2011-10-23T15:37:26Z</time>
      </trkpt>
      <trkpt lat="45.55102" lon="5.94537">
        <ele>368.32</ele>
        <time>2011-10-23T15:37:27Z</time>
      </trkpt>
      <trkpt lat="45.55106" lon="5.94533">
        <ele>367.36</ele>
        <time>2011-10-23T15:37:28Z</time>
      </trkpt>
      <trkpt lat="45.55109" lon="5.94528">
        <ele>366.4</ele>
        <time>2011-10-23T15:37:29Z</time>
      </trkpt>
      <trkpt lat="45.55121" lon="5.94515">
        <ele>364</ele>
        <time>2011-10-23T15:37:33Z</time>
      </trkpt>
      <trkpt lat="45.55127" lon="5.94508">
        <ele>362.55</ele>
        <time>2011-10-23T15:37:36Z</time>
      </trkpt>
      <trkpt lat="45.55128" lon="5.94506">
        <ele>362.07</ele>
        <time>2011-10-23T15:37:37Z</time>
      </trkpt>
      <trkpt lat="45.5513" lon="5.94503">
        <ele>362.07</ele>
        <time>2011-10-23T15:37:38Z</time>
      </trkpt>
      <trkpt lat="45.55138" lon="5.94477">
        <ele>359.67</ele>
        <time>2011-10-23T15:37:46Z</time>
      </trkpt>
      <trkpt lat="45.5514" lon="5.94463">
        <ele>357.75</ele>
        <time>2011-10-23T15:37:50Z</time>
      </trkpt>
      <trkpt lat="45.55141" lon="5.9446">
        <ele>357.75</ele>
        <time>2011-10-23T15:37:51Z</time>
      </trkpt>
      <trkpt lat="45.5515" lon="5.94445">
        <ele>354.38</ele>
        <time>2011-10-23T15:37:56Z</time>
      </trkpt>
      <trkpt lat="45.55151" lon="5.94443">
        <ele>353.9</ele>
        <time>2011-10-23T15:37:57Z</time>
      </trkpt>
      <trkpt lat="45.55154" lon="5.94436">
        <ele>353.42</ele>
        <time>2011-10-23T15:38:06Z</time>
      </trkpt>
      <trkpt lat="45.55158" lon="5.94391">
        <ele>350.54</ele>
        <time>2011-10-23T15:38:14Z</time>
      </trkpt>
      <trkpt lat="45.55157" lon="5.94374">
        <ele>350.06</ele>
        <time>2011-10-23T15:38:16Z</time>
      </trkpt>
      <trkpt lat="45.55155" lon="5.94365">
        <ele>349.1</ele>
        <time>2011-10-23T15:38:17Z</time>
      </trkpt>
      <trkpt lat="45.55152" lon="5.94356">
        <ele>349.1</ele>
        <time>2011-10-23T15:38:18Z</time>
      </trkpt>
      <trkpt lat="45.55135" lon="5.94285">
        <ele>345.73</ele>
        <time>2011-10-23T15:38:25Z</time>
      </trkpt>
      <trkpt lat="45.55133" lon="5.94274">
        <ele>345.73</ele>
        <time>2011-10-23T15:38:26Z</time>
      </trkpt>
      <trkpt lat="45.55117" lon="5.94208">
        <ele>342.37</ele>
        <time>2011-10-23T15:38:32Z</time>
      </trkpt>
      <trkpt lat="45.55115" lon="5.94197">
        <ele>341.89</ele>
        <time>2011-10-23T15:38:33Z</time>
      </trkpt>
      <trkpt lat="45.55114" lon="5.94186">
        <ele>341.41</ele>
        <time>2011-10-23T15:38:34Z</time>
      </trkpt>
      <trkpt lat="45.55114" lon="5.94174">
        <ele>340.92</ele>
        <time>2011-10-23T15:38:35Z</time>
      </trkpt>
      <trkpt lat="45.55116" lon="5.94163">
        <ele>340.92</ele>
        <time>2011-10-23T15:38:36Z</time>
      </trkpt>
      <trkpt lat="45.5512" lon="5.94153">
        <ele>340.92</ele>
        <time>2011-10-23T15:38:37Z</time>
      </trkpt>
      <trkpt lat="45.55125" lon="5.94144">
        <ele>340.44</ele>
        <time>2011-10-23T15:38:38Z</time>
      </trkpt>
      <trkpt lat="45.55131" lon="5.94137">
        <ele>339.96</ele>
        <time>2011-10-23T15:38:39Z</time>
      </trkpt>
      <trkpt lat="45.55138" lon="5.94133">
        <ele>339.48</ele>
        <time>2011-10-23T15:38:40Z</time>
      </trkpt>
      <trkpt lat="45.55146" lon="5.94131">
        <ele>339.48</ele>
        <time>2011-10-23T15:38:41Z</time>
      </trkpt>
      <trkpt lat="45.55154" lon="5.9413">
        <ele>339</ele>
        <time>2011-10-23T15:38:42Z</time>
      </trkpt>
      <trkpt lat="45.55162" lon="5.9413">
        <ele>339</ele>
        <time>2011-10-23T15:38:43Z</time>
      </trkpt>
      <trkpt lat="45.5517" lon="5.9413">
        <ele>338.52</ele>
        <time>2011-10-23T15:38:44Z</time>
      </trkpt>
      <trkpt lat="45.55179" lon="5.9413">
        <ele>338.04</ele>
        <time>2011-10-23T15:38:45Z</time>
      </trkpt>
      <trkpt lat="45.55195" lon="5.9413">
        <ele>337.08</ele>
        <time>2011-10-23T15:38:47Z</time>
      </trkpt>
      <trkpt lat="45.5521" lon="5.94131">
        <ele>336.12</ele>
        <time>2011-10-23T15:38:49Z</time>
      </trkpt>
      <trkpt lat="45.55217" lon="5.94131">
        <ele>335.64</ele>
        <time>2011-10-23T15:38:50Z</time>
      </trkpt>
      <trkpt lat="45.55232" lon="5.94133">
        <ele>335.16</ele>
        <time>2011-10-23T15:38:52Z</time>
      </trkpt>
      <trkpt lat="45.55239" lon="5.94133">
        <ele>335.16</ele>
        <time>2011-10-23T15:38:53Z</time>
      </trkpt>
      <trkpt lat="45.55247" lon="5.94132">
        <ele>334.2</ele>
        <time>2011-10-23T15:38:54Z</time>
      </trkpt>
      <trkpt lat="45.55254" lon="5.9413">
        <ele>334.68</ele>
        <time>2011-10-23T15:38:55Z</time>
      </trkpt>
      <trkpt lat="45.55262" lon="5.94126">
        <ele>334.2</ele>
        <time>2011-10-23T15:38:56Z</time>
      </trkpt>
      <trkpt lat="45.55269" lon="5.94122">
        <ele>333.71</ele>
        <time>2011-10-23T15:38:57Z</time>
      </trkpt>
      <trkpt lat="45.55336" lon="5.94095">
        <ele>330.83</ele>
        <time>2011-10-23T15:39:06Z</time>
      </trkpt>
      <trkpt lat="45.55352" lon="5.94091">
        <ele>329.87</ele>
        <time>2011-10-23T15:39:08Z</time>
      </trkpt>
      <trkpt lat="45.5536" lon="5.9409">
        <ele>329.39</ele>
        <time>2011-10-23T15:39:09Z</time>
      </trkpt>
      <trkpt lat="45.55368" lon="5.94091">
        <ele>328.91</ele>
        <time>2011-10-23T15:39:10Z</time>
      </trkpt>
      <trkpt lat="45.5542" lon="5.94102">
        <ele>326.02</ele>
        <time>2011-10-23T15:39:16Z</time>
      </trkpt>
      <trkpt lat="45.55429" lon="5.94102">
        <ele>326.02</ele>
        <time>2011-10-23T15:39:17Z</time>
      </trkpt>
      <trkpt lat="45.55438" lon="5.94102">
        <ele>326.02</ele>
        <time>2011-10-23T15:39:18Z</time>
      </trkpt>
      <trkpt lat="45.55527" lon="5.94082">
        <ele>326.02</ele>
        <time>2011-10-23T15:39:31Z</time>
      </trkpt>
      <trkpt lat="45.55627" lon="5.94059">
        <ele>326.5</ele>
        <time>2011-10-23T15:39:47Z</time>
      </trkpt>
      <trkpt lat="45.55685" lon="5.94045">
        <ele>323.14</ele>
        <time>2011-10-23T15:39:56Z</time>
      </trkpt>
      <trkpt lat="45.55725" lon="5.94028">
        <ele>320.26</ele>
        <time>2011-10-23T15:40:01Z</time>
      </trkpt>
      <trkpt lat="45.5578" lon="5.93988">
        <ele>317.37</ele>
        <time>2011-10-23T15:40:08Z</time>
      </trkpt>
      <trkpt lat="45.55786" lon="5.93984">
        <ele>316.89</ele>
        <time>2011-10-23T15:40:09Z</time>
      </trkpt>
      <trkpt lat="45.55792" lon="5.93984">
        <ele>316.41</ele>
        <time>2011-10-23T15:40:10Z</time>
      </trkpt>
      <trkpt lat="45.55796" lon="5.93986">
        <ele>315.93</ele>
        <time>2011-10-23T15:40:11Z</time>
      </trkpt>
      <trkpt lat="45.558" lon="5.93989">
        <ele>315.45</ele>
        <time>2011-10-23T15:40:12Z</time>
      </trkpt>
      <trkpt lat="45.55805" lon="5.93992">
        <ele>314.97</ele>
        <time>2011-10-23T15:40:13Z</time>
      </trkpt>
      <trkpt lat="45.5581" lon="5.93993">
        <ele>314.97</ele>
        <time>2011-10-23T15:40:14Z</time>
      </trkpt>
      <trkpt lat="45.55815" lon="5.93991">
        <ele>314.49</ele>
        <time>2011-10-23T15:40:15Z</time>
      </trkpt>
      <trkpt lat="45.55844" lon="5.93972">
        <ele>315.45</ele>
        <time>2011-10-23T15:40:20Z</time>
      </trkpt>
      <trkpt lat="45.5585" lon="5.93967">
        <ele>315.45</ele>
        <time>2011-10-23T15:40:21Z</time>
      </trkpt>
      <trkpt lat="45.55854" lon="5.93961">
        <ele>315.93</ele>
        <time>2011-10-23T15:40:22Z</time>
      </trkpt>
      <trkpt lat="45.55857" lon="5.93953">
        <ele>315.93</ele>
        <time>2011-10-23T15:40:23Z</time>
      </trkpt>
      <trkpt lat="45.55859" lon="5.93946">
        <ele>316.41</ele>
        <time>2011-10-23T15:40:24Z</time>
      </trkpt>
      <trkpt lat="45.55867" lon="5.93926">
        <ele>317.37</ele>
        <time>2011-10-23T15:40:27Z</time>
      </trkpt>
      <trkpt lat="45.5587" lon="5.93921">
        <ele>317.37</ele>
        <time>2011-10-23T15:40:28Z</time>
      </trkpt>
      <trkpt lat="45.55878" lon="5.93911">
        <ele>317.37</ele>
        <time>2011-10-23T15:40:30Z</time>
      </trkpt>
      <trkpt lat="45.55882" lon="5.93907">
        <ele>317.37</ele>
        <time>2011-10-23T15:40:31Z</time>
      </trkpt>
      <trkpt lat="45.55886" lon="5.93904">
        <ele>317.37</ele>
        <time>2011-10-23T15:40:32Z</time>
      </trkpt>
      <trkpt lat="45.55901" lon="5.93897">
        <ele>317.37</ele>
        <time>2011-10-23T15:40:35Z</time>
      </trkpt>
      <trkpt lat="45.55907" lon="5.93896">
        <ele>317.37</ele>
        <time>2011-10-23T15:40:36Z</time>
      </trkpt>
      <trkpt lat="45.55953" lon="5.93887">
        <ele>318.33</ele>
        <time>2011-10-23T15:40:45Z</time>
      </trkpt>
      <trkpt lat="45.56002" lon="5.93858">
        <ele>317.85</ele>
        <time>2011-10-23T15:40:58Z</time>
      </trkpt>
      <trkpt lat="45.56006" lon="5.93856">
        <ele>317.85</ele>
        <time>2011-10-23T15:40:59Z</time>
      </trkpt>
      <trkpt lat="45.5601" lon="5.93854">
        <ele>317.85</ele>
        <time>2011-10-23T15:41:00Z</time>
      </trkpt>
      <trkpt lat="45.5603" lon="5.93838">
        <ele>317.85</ele>
        <time>2011-10-23T15:41:05Z</time>
      </trkpt>
      <trkpt lat="45.56045" lon="5.93823">
        <ele>317.37</ele>
        <time>2011-10-23T15:41:09Z</time>
      </trkpt>
      <trkpt lat="45.56048" lon="5.93822">
        <ele>317.37</ele>
        <time>2011-10-23T15:41:10Z</time>
      </trkpt>
      <trkpt lat="45.56051" lon="5.93822">
        <ele>317.37</ele>
        <time>2011-10-23T15:41:11Z</time>
      </trkpt>
      <trkpt lat="45.56053" lon="5.93824">
        <ele>317.37</ele>
        <time>2011-10-23T15:41:12Z</time>
      </trkpt>
      <trkpt lat="45.56067" lon="5.93858">
        <ele>315.45</ele>
        <time>2011-10-23T15:41:20Z</time>
      </trkpt>
      <trkpt lat="45.56069" lon="5.93864">
        <ele>314.97</ele>
        <time>2011-10-23T15:41:21Z</time>
      </trkpt>
      <trkpt lat="45.5607" lon="5.9387">
        <ele>314.49</ele>
        <time>2011-10-23T15:41:22Z</time>
      </trkpt>
      <trkpt lat="45.56072" lon="5.93876">
        <ele>314.49</ele>
        <time>2011-10-23T15:41:23Z</time>
      </trkpt>
      <trkpt lat="45.56073" lon="5.93881">
        <ele>314.49</ele>
        <time>2011-10-23T15:41:24Z</time>
      </trkpt>
      <trkpt lat="45.56075" lon="5.93885">
        <ele>313.53</ele>
        <time>2011-10-23T15:41:25Z</time>
      </trkpt>
      <trkpt lat="45.56078" lon="5.93888">
        <ele>313.05</ele>
        <time>2011-10-23T15:41:26Z</time>
      </trkpt>
      <trkpt lat="45.56082" lon="5.93891">
        <ele>312.57</ele>
        <time>2011-10-23T15:41:27Z</time>
      </trkpt>
      <trkpt lat="45.56086" lon="5.93894">
        <ele>312.09</ele>
        <time>2011-10-23T15:41:28Z</time>
      </trkpt>
      <trkpt lat="45.56088" lon="5.93897">
        <ele>311.6</ele>
        <time>2011-10-23T15:41:29Z</time>
      </trkpt>
      <trkpt lat="45.56089" lon="5.93901">
        <ele>310.64</ele>
        <time>2011-10-23T15:41:30Z</time>
      </trkpt>
      <trkpt lat="45.56091" lon="5.93906">
        <ele>309.68</ele>
        <time>2011-10-23T15:41:31Z</time>
      </trkpt>
      <trkpt lat="45.56093" lon="5.93912">
        <ele>308.72</ele>
        <time>2011-10-23T15:41:32Z</time>
      </trkpt>
      <trkpt lat="45.56094" lon="5.93918">
        <ele>307.76</ele>
        <time>2011-10-23T15:41:33Z</time>
      </trkpt>
      <trkpt lat="45.56097" lon="5.93923">
        <ele>306.8</ele>
        <time>2011-10-23T15:41:34Z</time>
      </trkpt>
      <trkpt lat="45.56104" lon="5.93951">
        <ele>302.47</ele>
        <time>2011-10-23T15:41:39Z</time>
      </trkpt>
      <trkpt lat="45.56105" lon="5.93972">
        <ele>299.11</ele>
        <time>2011-10-23T15:41:43Z</time>
      </trkpt>
      <trkpt lat="45.56105" lon="5.93985">
        <ele>297.67</ele>
        <time>2011-10-23T15:41:45Z</time>
      </trkpt>
      <trkpt lat="45.56107" lon="5.93998">
        <ele>295.26</ele>
        <time>2011-10-23T15:41:47Z</time>
      </trkpt>
      <trkpt lat="45.5611" lon="5.94003">
        <ele>294.3</ele>
        <time>2011-10-23T15:41:48Z</time>
      </trkpt>
      <trkpt lat="45.56112" lon="5.94009">
        <ele>292.86</ele>
        <time>2011-10-23T15:41:49Z</time>
      </trkpt>
      <trkpt lat="45.56115" lon="5.94014">
        <ele>291.42</ele>
        <time>2011-10-23T15:41:50Z</time>
      </trkpt>
      <trkpt lat="45.56121" lon="5.94026">
        <ele>288.05</ele>
        <time>2011-10-23T15:41:52Z</time>
      </trkpt>
      <trkpt lat="45.5613" lon="5.9404">
        <ele>285.17</ele>
        <time>2011-10-23T15:41:54Z</time>
      </trkpt>
      <trkpt lat="45.56135" lon="5.94047">
        <ele>284.21</ele>
        <time>2011-10-23T15:41:55Z</time>
      </trkpt>
      <trkpt lat="45.56147" lon="5.94057">
        <ele>283.25</ele>
        <time>2011-10-23T15:41:57Z</time>
      </trkpt>
      <trkpt lat="45.56155" lon="5.94061">
        <ele>281.8</ele>
        <time>2011-10-23T15:41:58Z</time>
      </trkpt>
      <trkpt lat="45.56168" lon="5.94067">
        <ele>281.8</ele>
        <time>2011-10-23T15:42:00Z</time>
      </trkpt>
      <trkpt lat="45.56174" lon="5.94068">
        <ele>281.32</ele>
        <time>2011-10-23T15:42:01Z</time>
      </trkpt>
      <trkpt lat="45.56179" lon="5.94068">
        <ele>280.36</ele>
        <time>2011-10-23T15:42:02Z</time>
      </trkpt>
      <trkpt lat="45.56184" lon="5.94067">
        <ele>280.84</ele>
        <time>2011-10-23T15:42:03Z</time>
      </trkpt>
      <trkpt lat="45.5619" lon="5.94065">
        <ele>280.36</ele>
        <time>2011-10-23T15:42:04Z</time>
      </trkpt>
      <trkpt lat="45.56194" lon="5.94062">
        <ele>280.36</ele>
        <time>2011-10-23T15:42:05Z</time>
      </trkpt>
      <trkpt lat="45.56199" lon="5.94061">
        <ele>279.88</ele>
        <time>2011-10-23T15:42:06Z</time>
      </trkpt>
      <trkpt lat="45.56204" lon="5.94063">
        <ele>279.4</ele>
        <time>2011-10-23T15:42:07Z</time>
      </trkpt>
      <trkpt lat="45.56207" lon="5.94066">
        <ele>279.88</ele>
        <time>2011-10-23T15:42:08Z</time>
      </trkpt>
      <trkpt lat="45.5621" lon="5.94069">
        <ele>279.88</ele>
        <time>2011-10-23T15:42:09Z</time>
      </trkpt>
      <trkpt lat="45.56215" lon="5.94071">
        <ele>279.88</ele>
        <time>2011-10-23T15:42:10Z</time>
      </trkpt>
      <trkpt lat="45.56223" lon="5.94074">
        <ele>279.88</ele>
        <time>2011-10-23T15:42:12Z</time>
      </trkpt>
      <trkpt lat="45.56238" lon="5.94074">
        <ele>279.88</ele>
        <time>2011-10-23T15:42:15Z</time>
      </trkpt>
      <trkpt lat="45.56242" lon="5.94074">
        <ele>279.88</ele>
        <time>2011-10-23T15:42:16Z</time>
      </trkpt>
      <trkpt lat="45.5626" lon="5.94072">
        <ele>279.88</ele>
        <time>2011-10-23T15:42:20Z</time>
      </trkpt>
      <trkpt lat="45.5627" lon="5.94069">
        <ele>279.88</ele>
        <time>2011-10-23T15:42:22Z</time>
      </trkpt>
      <trkpt lat="45.56274" lon="5.94066">
        <ele>279.4</ele>
        <time>2011-10-23T15:42:23Z</time>
      </trkpt>
      <trkpt lat="45.56297" lon="5.94059">
        <ele>279.4</ele>
        <time>2011-10-23T15:42:27Z</time>
      </trkpt>
      <trkpt lat="45.56302" lon="5.94056">
        <ele>279.4</ele>
        <time>2011-10-23T15:42:28Z</time>
      </trkpt>
      <trkpt lat="45.56307" lon="5.94052">
        <ele>279.4</ele>
        <time>2011-10-23T15:42:29Z</time>
      </trkpt>
      <trkpt lat="45.56316" lon="5.94044">
        <ele>279.4</ele>
        <time>2011-10-23T15:42:31Z</time>
      </trkpt>
      <trkpt lat="45.56336" lon="5.94012">
        <ele>278.92</ele>
        <time>2011-10-23T15:42:38Z</time>
      </trkpt>
      <trkpt lat="45.56339" lon="5.94007">
        <ele>278.92</ele>
        <time>2011-10-23T15:42:39Z</time>
      </trkpt>
      <trkpt lat="45.56343" lon="5.94002">
        <ele>278.92</ele>
        <time>2011-10-23T15:42:40Z</time>
      </trkpt>
      <trkpt lat="45.56347" lon="5.93998">
        <ele>278.92</ele>
        <time>2011-10-23T15:42:41Z</time>
      </trkpt>
      <trkpt lat="45.56351" lon="5.93994">
        <ele>278.92</ele>
        <time>2011-10-23T15:42:42Z</time>
      </trkpt>
      <trkpt lat="45.56355" lon="5.9399">
        <ele>279.4</ele>
        <time>2011-10-23T15:42:43Z</time>
      </trkpt>
      <trkpt lat="45.5636" lon="5.93987">
        <ele>278.92</ele>
        <time>2011-10-23T15:42:44Z</time>
      </trkpt>
      <trkpt lat="45.56364" lon="5.93983">
        <ele>279.4</ele>
        <time>2011-10-23T15:42:45Z</time>
      </trkpt>
      <trkpt lat="45.56369" lon="5.9398">
        <ele>278.92</ele>
        <time>2011-10-23T15:42:46Z</time>
      </trkpt>
      <trkpt lat="45.56373" lon="5.93977">
        <ele>279.4</ele>
        <time>2011-10-23T15:42:47Z</time>
      </trkpt>
      <trkpt lat="45.56393" lon="5.9396">
        <ele>278.92</ele>
        <time>2011-10-23T15:42:52Z</time>
      </trkpt>
      <trkpt lat="45.56397" lon="5.93956">
        <ele>279.4</ele>
        <time>2011-10-23T15:42:53Z</time>
      </trkpt>
      <trkpt lat="45.56406" lon="5.93945">
        <ele>278.92</ele>
        <time>2011-10-23T15:42:57Z</time>
      </trkpt>
      <trkpt lat="45.56429" lon="5.93947">
        <ele>278.44</ele>
        <time>2011-10-23T15:43:06Z</time>
      </trkpt>
      <trkpt lat="45.56434" lon="5.93938">
        <ele>278.44</ele>
        <time>2011-10-23T15:43:09Z</time>
      </trkpt>
      <trkpt lat="45.56438" lon="5.93928">
        <ele>278.44</ele>
        <time>2011-10-23T15:43:20Z</time>
      </trkpt>
      <trkpt lat="45.56438" lon="5.93928">
        <ele>277.96</ele>
        <time>2011-10-23T15:43:50Z</time>
      </trkpt>
    </trkseg>
  </trk>
</gpx>